<?xml version="1.0" encoding="UTF-8" standalone="yes"?>
<gpx
 xmlns="http://www.topografix.com/GPX/1/1"
 creator="OziExplorer Version 3956f - http://www.oziexplorer.com"
 version="1.1"
 xmlns:xsi="http://www.w3.org/2001/XMLSchema-instance"
 xsi:schemaLocation="http://www.topografix.com/GPX/1/1 http://www.topografix.com/GPX/1/1/gpx.xsd">
<metadata>
 <time>2017-07-15T09:05:42Z</time>
 <bounds minlat="31.923280" minlon="34.935554" maxlat="31.951368" maxlon="34.981862"/>
</metadata>
<trk>
 <name>BenShemen_Vech_Fin, 21 km</name>
 <desc>BenShemen_Vech_Fin, 21 km</desc>
<trkseg>
<trkpt lat="31.9506520" lon="34.9566230">
<ele>170.900009</ele>
<time>2017-07-11T05:21:35.000Z</time>
</trkpt>
<trkpt lat="31.9506630" lon="34.9565850">
<ele>170.600006</ele>
<time>2017-07-11T05:21:37.000Z</time>
</trkpt>
<trkpt lat="31.9506760" lon="34.9565460">
<ele>170.300003</ele>
<time>2017-07-11T05:21:39.000Z</time>
</trkpt>
<trkpt lat="31.9506910" lon="34.9565000">
<ele>170.000000</ele>
<time>2017-07-11T05:21:41.000Z</time>
</trkpt>
<trkpt lat="31.9507120" lon="34.9564430">
<ele>169.699997</ele>
<time>2017-07-11T05:21:43.000Z</time>
</trkpt>
<trkpt lat="31.9507270" lon="34.9564090">
<ele>169.599991</ele>
<time>2017-07-11T05:21:44.000Z</time>
</trkpt>
<trkpt lat="31.9507440" lon="34.9563690">
<ele>169.500000</ele>
<time>2017-07-11T05:21:45.000Z</time>
</trkpt>
<trkpt lat="31.9507550" lon="34.9563300">
<ele>169.400009</ele>
<time>2017-07-11T05:21:46.000Z</time>
</trkpt>
<trkpt lat="31.9507590" lon="34.9562900">
<ele>169.299988</ele>
<time>2017-07-11T05:21:47.000Z</time>
</trkpt>
<trkpt lat="31.9507670" lon="34.9562590">
<ele>169.199997</ele>
<time>2017-07-11T05:21:48.000Z</time>
</trkpt>
<trkpt lat="31.9507770" lon="34.9562260">
<ele>169.100006</ele>
<time>2017-07-11T05:21:49.000Z</time>
</trkpt>
<trkpt lat="31.9507890" lon="34.9561930">
<ele>169.100006</ele>
<time>2017-07-11T05:21:50.000Z</time>
</trkpt>
<trkpt lat="31.9508010" lon="34.9561590">
<ele>168.999985</ele>
<time>2017-07-11T05:21:51.000Z</time>
</trkpt>
<trkpt lat="31.9508140" lon="34.9561240">
<ele>168.999985</ele>
<time>2017-07-11T05:21:52.000Z</time>
</trkpt>
<trkpt lat="31.9508280" lon="34.9560890">
<ele>168.899994</ele>
<time>2017-07-11T05:21:53.000Z</time>
</trkpt>
<trkpt lat="31.9508410" lon="34.9560520">
<ele>168.899994</ele>
<time>2017-07-11T05:21:54.000Z</time>
</trkpt>
<trkpt lat="31.9508540" lon="34.9560130">
<ele>168.800003</ele>
<time>2017-07-11T05:21:55.000Z</time>
</trkpt>
<trkpt lat="31.9508650" lon="34.9559740">
<ele>168.800003</ele>
<time>2017-07-11T05:21:56.000Z</time>
</trkpt>
<trkpt lat="31.9508770" lon="34.9559370">
<ele>168.800003</ele>
<time>2017-07-11T05:21:57.000Z</time>
</trkpt>
<trkpt lat="31.9508890" lon="34.9559010">
<ele>168.699997</ele>
<time>2017-07-11T05:21:58.000Z</time>
</trkpt>
<trkpt lat="31.9509010" lon="34.9558630">
<ele>168.699997</ele>
<time>2017-07-11T05:21:59.000Z</time>
</trkpt>
<trkpt lat="31.9509130" lon="34.9558260">
<ele>168.699997</ele>
<time>2017-07-11T05:22:00.000Z</time>
</trkpt>
<trkpt lat="31.9509250" lon="34.9557870">
<ele>168.599991</ele>
<time>2017-07-11T05:22:01.000Z</time>
</trkpt>
<trkpt lat="31.9509350" lon="34.9557410">
<ele>168.599991</ele>
<time>2017-07-11T05:22:02.000Z</time>
</trkpt>
<trkpt lat="31.9509350" lon="34.9556970">
<ele>168.500000</ele>
<time>2017-07-11T05:22:03.000Z</time>
</trkpt>
<trkpt lat="31.9509360" lon="34.9556540">
<ele>168.500000</ele>
<time>2017-07-11T05:22:04.000Z</time>
</trkpt>
<trkpt lat="31.9509340" lon="34.9556150">
<ele>168.399994</ele>
<time>2017-07-11T05:22:05.000Z</time>
</trkpt>
<trkpt lat="31.9509300" lon="34.9555790">
<ele>168.399994</ele>
<time>2017-07-11T05:22:06.000Z</time>
</trkpt>
<trkpt lat="31.9509190" lon="34.9555490">
<ele>168.300003</ele>
<time>2017-07-11T05:22:07.000Z</time>
</trkpt>
<trkpt lat="31.9508990" lon="34.9555270">
<ele>167.500015</ele>
<time>2017-07-11T05:22:09.000Z</time>
</trkpt>
<trkpt lat="31.9508640" lon="34.9555110">
<ele>167.399994</ele>
<time>2017-07-11T05:22:12.000Z</time>
</trkpt>
<trkpt lat="31.9508290" lon="34.9554990">
<ele>167.300003</ele>
<time>2017-07-11T05:22:14.000Z</time>
</trkpt>
<trkpt lat="31.9507950" lon="34.9554870">
<ele>167.200012</ele>
<time>2017-07-11T05:22:16.000Z</time>
</trkpt>
<trkpt lat="31.9507670" lon="34.9554810">
<ele>167.099991</ele>
<time>2017-07-11T05:22:18.000Z</time>
</trkpt>
<trkpt lat="31.9507370" lon="34.9554770">
<ele>167.000000</ele>
<time>2017-07-11T05:22:20.000Z</time>
</trkpt>
<trkpt lat="31.9507000" lon="34.9554690">
<ele>167.000000</ele>
<time>2017-07-11T05:22:22.000Z</time>
</trkpt>
<trkpt lat="31.9506590" lon="34.9554640">
<ele>166.900009</ele>
<time>2017-07-11T05:22:24.000Z</time>
</trkpt>
<trkpt lat="31.9506160" lon="34.9554570">
<ele>166.800003</ele>
<time>2017-07-11T05:22:26.000Z</time>
</trkpt>
<trkpt lat="31.9505790" lon="34.9554440">
<ele>166.699997</ele>
<time>2017-07-11T05:22:28.000Z</time>
</trkpt>
<trkpt lat="31.9505620" lon="34.9554140">
<ele>166.600006</ele>
<time>2017-07-11T05:22:30.000Z</time>
</trkpt>
<trkpt lat="31.9505550" lon="34.9553810">
<ele>166.500000</ele>
<time>2017-07-11T05:22:32.000Z</time>
</trkpt>
<trkpt lat="31.9505420" lon="34.9553210">
<ele>166.199997</ele>
<time>2017-07-11T05:22:34.000Z</time>
</trkpt>
<trkpt lat="31.9505340" lon="34.9552660">
<ele>166.000000</ele>
<time>2017-07-11T05:22:36.000Z</time>
</trkpt>
<trkpt lat="31.9505280" lon="34.9552280">
<ele>165.800003</ele>
<time>2017-07-11T05:22:37.000Z</time>
</trkpt>
<trkpt lat="31.9505240" lon="34.9551930">
<ele>165.700012</ele>
<time>2017-07-11T05:22:38.000Z</time>
</trkpt>
<trkpt lat="31.9505230" lon="34.9551440">
<ele>165.299988</ele>
<time>2017-07-11T05:22:39.000Z</time>
</trkpt>
<trkpt lat="31.9505200" lon="34.9550990">
<ele>164.800003</ele>
<time>2017-07-11T05:22:40.000Z</time>
</trkpt>
<trkpt lat="31.9505160" lon="34.9550590">
<ele>164.399994</ele>
<time>2017-07-11T05:22:41.000Z</time>
</trkpt>
<trkpt lat="31.9505150" lon="34.9550240">
<ele>164.099991</ele>
<time>2017-07-11T05:22:42.000Z</time>
</trkpt>
<trkpt lat="31.9505220" lon="34.9549880">
<ele>163.799988</ele>
<time>2017-07-11T05:22:43.000Z</time>
</trkpt>
<trkpt lat="31.9505250" lon="34.9549480">
<ele>163.600006</ele>
<time>2017-07-11T05:22:44.000Z</time>
</trkpt>
<trkpt lat="31.9505160" lon="34.9549080">
<ele>163.399994</ele>
<time>2017-07-11T05:22:45.000Z</time>
</trkpt>
<trkpt lat="31.9505110" lon="34.9548660">
<ele>163.099991</ele>
<time>2017-07-11T05:22:46.000Z</time>
</trkpt>
<trkpt lat="31.9505210" lon="34.9548230">
<ele>162.800003</ele>
<time>2017-07-11T05:22:47.000Z</time>
</trkpt>
<trkpt lat="31.9505370" lon="34.9547690">
<ele>162.500000</ele>
<time>2017-07-11T05:22:48.000Z</time>
</trkpt>
<trkpt lat="31.9505450" lon="34.9547160">
<ele>162.100006</ele>
<time>2017-07-11T05:22:49.000Z</time>
</trkpt>
<trkpt lat="31.9505540" lon="34.9546640">
<ele>161.599991</ele>
<time>2017-07-11T05:22:50.000Z</time>
</trkpt>
<trkpt lat="31.9505660" lon="34.9546090">
<ele>161.100006</ele>
<time>2017-07-11T05:22:51.000Z</time>
</trkpt>
<trkpt lat="31.9505860" lon="34.9545520">
<ele>160.699997</ele>
<time>2017-07-11T05:22:52.000Z</time>
</trkpt>
<trkpt lat="31.9506080" lon="34.9545000">
<ele>160.399994</ele>
<time>2017-07-11T05:22:53.000Z</time>
</trkpt>
<trkpt lat="31.9506290" lon="34.9544530">
<ele>160.300003</ele>
<time>2017-07-11T05:22:54.000Z</time>
</trkpt>
<trkpt lat="31.9506530" lon="34.9544110">
<ele>160.200012</ele>
<time>2017-07-11T05:22:55.000Z</time>
</trkpt>
<trkpt lat="31.9506800" lon="34.9543710">
<ele>160.099991</ele>
<time>2017-07-11T05:22:56.000Z</time>
</trkpt>
<trkpt lat="31.9507030" lon="34.9543330">
<ele>159.900009</ele>
<time>2017-07-11T05:22:57.000Z</time>
</trkpt>
<trkpt lat="31.9507230" lon="34.9542900">
<ele>159.799988</ele>
<time>2017-07-11T05:22:58.000Z</time>
</trkpt>
<trkpt lat="31.9507380" lon="34.9542440">
<ele>159.699997</ele>
<time>2017-07-11T05:22:59.000Z</time>
</trkpt>
<trkpt lat="31.9507600" lon="34.9541960">
<ele>159.600006</ele>
<time>2017-07-11T05:23:00.000Z</time>
</trkpt>
<trkpt lat="31.9507850" lon="34.9541500">
<ele>159.500000</ele>
<time>2017-07-11T05:23:01.000Z</time>
</trkpt>
<trkpt lat="31.9508150" lon="34.9541040">
<ele>159.300003</ele>
<time>2017-07-11T05:23:02.000Z</time>
</trkpt>
<trkpt lat="31.9508490" lon="34.9540630">
<ele>159.199997</ele>
<time>2017-07-11T05:23:03.000Z</time>
</trkpt>
<trkpt lat="31.9508860" lon="34.9540230">
<ele>159.000000</ele>
<time>2017-07-11T05:23:04.000Z</time>
</trkpt>
<trkpt lat="31.9509230" lon="34.9539880">
<ele>159.000000</ele>
<time>2017-07-11T05:23:05.000Z</time>
</trkpt>
<trkpt lat="31.9509500" lon="34.9539530">
<ele>159.000000</ele>
<time>2017-07-11T05:23:06.000Z</time>
</trkpt>
<trkpt lat="31.9509740" lon="34.9539220">
<ele>159.000000</ele>
<time>2017-07-11T05:23:07.000Z</time>
</trkpt>
<trkpt lat="31.9510000" lon="34.9538950">
<ele>159.000000</ele>
<time>2017-07-11T05:23:08.000Z</time>
</trkpt>
<trkpt lat="31.9510300" lon="34.9538780">
<ele>159.000000</ele>
<time>2017-07-11T05:23:09.000Z</time>
</trkpt>
<trkpt lat="31.9510620" lon="34.9538620">
<ele>159.000000</ele>
<time>2017-07-11T05:23:10.000Z</time>
</trkpt>
<trkpt lat="31.9510910" lon="34.9538490">
<ele>159.000000</ele>
<time>2017-07-11T05:23:11.000Z</time>
</trkpt>
<trkpt lat="31.9511230" lon="34.9538380">
<ele>159.000000</ele>
<time>2017-07-11T05:23:12.000Z</time>
</trkpt>
<trkpt lat="31.9511560" lon="34.9538240">
<ele>159.000000</ele>
<time>2017-07-11T05:23:13.000Z</time>
</trkpt>
<trkpt lat="31.9511880" lon="34.9538060">
<ele>159.000000</ele>
<time>2017-07-11T05:23:14.000Z</time>
</trkpt>
<trkpt lat="31.9512180" lon="34.9537910">
<ele>159.000000</ele>
<time>2017-07-11T05:23:15.000Z</time>
</trkpt>
<trkpt lat="31.9512460" lon="34.9537680">
<ele>159.000000</ele>
<time>2017-07-11T05:23:16.000Z</time>
</trkpt>
<trkpt lat="31.9512820" lon="34.9537220">
<ele>159.000000</ele>
<time>2017-07-11T05:23:18.000Z</time>
</trkpt>
<trkpt lat="31.9513100" lon="34.9536800">
<ele>159.000000</ele>
<time>2017-07-11T05:23:20.000Z</time>
</trkpt>
<trkpt lat="31.9513330" lon="34.9536390">
<ele>159.000000</ele>
<time>2017-07-11T05:23:22.000Z</time>
</trkpt>
<trkpt lat="31.9513450" lon="34.9536100">
<ele>159.000000</ele>
<time>2017-07-11T05:23:24.000Z</time>
</trkpt>
<trkpt lat="31.9513580" lon="34.9535730">
<ele>159.000000</ele>
<time>2017-07-11T05:23:28.000Z</time>
</trkpt>
<trkpt lat="31.9513500" lon="34.9535230">
<ele>159.000000</ele>
<time>2017-07-11T05:23:32.000Z</time>
</trkpt>
<trkpt lat="31.9513470" lon="34.9534820">
<ele>159.000000</ele>
<time>2017-07-11T05:23:34.000Z</time>
</trkpt>
<trkpt lat="31.9513260" lon="34.9534410">
<ele>157.800003</ele>
<time>2017-07-11T05:23:36.000Z</time>
</trkpt>
<trkpt lat="31.9513100" lon="34.9534150">
<ele>157.500000</ele>
<time>2017-07-11T05:23:37.000Z</time>
</trkpt>
<trkpt lat="31.9512630" lon="34.9533790">
<ele>157.000000</ele>
<time>2017-07-11T05:23:39.000Z</time>
</trkpt>
<trkpt lat="31.9512200" lon="34.9533600">
<ele>156.600006</ele>
<time>2017-07-11T05:23:41.000Z</time>
</trkpt>
<trkpt lat="31.9511900" lon="34.9533200">
<ele>156.300003</ele>
<time>2017-07-11T05:23:42.000Z</time>
</trkpt>
<trkpt lat="31.9511610" lon="34.9532820">
<ele>156.000000</ele>
<time>2017-07-11T05:23:43.000Z</time>
</trkpt>
<trkpt lat="31.9511360" lon="34.9532480">
<ele>155.800003</ele>
<time>2017-07-11T05:23:44.000Z</time>
</trkpt>
<trkpt lat="31.9510920" lon="34.9531970">
<ele>155.400009</ele>
<time>2017-07-11T05:23:45.000Z</time>
</trkpt>
<trkpt lat="31.9510480" lon="34.9531410">
<ele>155.000000</ele>
<time>2017-07-11T05:23:46.000Z</time>
</trkpt>
<trkpt lat="31.9510150" lon="34.9531020">
<ele>154.699997</ele>
<time>2017-07-11T05:23:47.000Z</time>
</trkpt>
<trkpt lat="31.9509930" lon="34.9530640">
<ele>154.500000</ele>
<time>2017-07-11T05:23:48.000Z</time>
</trkpt>
<trkpt lat="31.9509680" lon="34.9530270">
<ele>154.300003</ele>
<time>2017-07-11T05:23:49.000Z</time>
</trkpt>
<trkpt lat="31.9509300" lon="34.9529940">
<ele>154.100006</ele>
<time>2017-07-11T05:23:50.000Z</time>
</trkpt>
<trkpt lat="31.9508890" lon="34.9529600">
<ele>153.800003</ele>
<time>2017-07-11T05:23:51.000Z</time>
</trkpt>
<trkpt lat="31.9508340" lon="34.9529220">
<ele>153.600006</ele>
<time>2017-07-11T05:23:52.000Z</time>
</trkpt>
<trkpt lat="31.9507840" lon="34.9528960">
<ele>153.300003</ele>
<time>2017-07-11T05:23:53.000Z</time>
</trkpt>
<trkpt lat="31.9507360" lon="34.9528710">
<ele>153.100006</ele>
<time>2017-07-11T05:23:54.000Z</time>
</trkpt>
<trkpt lat="31.9506890" lon="34.9528460">
<ele>152.800003</ele>
<time>2017-07-11T05:23:55.000Z</time>
</trkpt>
<trkpt lat="31.9506510" lon="34.9528140">
<ele>152.599991</ele>
<time>2017-07-11T05:23:56.000Z</time>
</trkpt>
<trkpt lat="31.9506080" lon="34.9527850">
<ele>152.500000</ele>
<time>2017-07-11T05:23:57.000Z</time>
</trkpt>
<trkpt lat="31.9505610" lon="34.9527600">
<ele>152.300003</ele>
<time>2017-07-11T05:23:58.000Z</time>
</trkpt>
<trkpt lat="31.9505120" lon="34.9527290">
<ele>152.100006</ele>
<time>2017-07-11T05:23:59.000Z</time>
</trkpt>
<trkpt lat="31.9504730" lon="34.9527030">
<ele>152.000000</ele>
<time>2017-07-11T05:24:00.000Z</time>
</trkpt>
<trkpt lat="31.9504430" lon="34.9526710">
<ele>151.800003</ele>
<time>2017-07-11T05:24:01.000Z</time>
</trkpt>
<trkpt lat="31.9504120" lon="34.9526310">
<ele>151.600006</ele>
<time>2017-07-11T05:24:02.000Z</time>
</trkpt>
<trkpt lat="31.9503780" lon="34.9526020">
<ele>151.500000</ele>
<time>2017-07-11T05:24:03.000Z</time>
</trkpt>
<trkpt lat="31.9503490" lon="34.9525820">
<ele>151.399994</ele>
<time>2017-07-11T05:24:04.000Z</time>
</trkpt>
<trkpt lat="31.9503170" lon="34.9525810">
<ele>151.300003</ele>
<time>2017-07-11T05:24:05.000Z</time>
</trkpt>
<trkpt lat="31.9502880" lon="34.9525740">
<ele>151.099991</ele>
<time>2017-07-11T05:24:06.000Z</time>
</trkpt>
<trkpt lat="31.9502610" lon="34.9525640">
<ele>151.000000</ele>
<time>2017-07-11T05:24:07.000Z</time>
</trkpt>
<trkpt lat="31.9502360" lon="34.9525500">
<ele>150.899994</ele>
<time>2017-07-11T05:24:08.000Z</time>
</trkpt>
<trkpt lat="31.9501820" lon="34.9525420">
<ele>150.500000</ele>
<time>2017-07-11T05:24:10.000Z</time>
</trkpt>
<trkpt lat="31.9501480" lon="34.9525410">
<ele>150.199997</ele>
<time>2017-07-11T05:24:11.000Z</time>
</trkpt>
<trkpt lat="31.9501160" lon="34.9525420">
<ele>150.000000</ele>
<time>2017-07-11T05:24:12.000Z</time>
</trkpt>
<trkpt lat="31.9500860" lon="34.9525320">
<ele>149.800003</ele>
<time>2017-07-11T05:24:13.000Z</time>
</trkpt>
<trkpt lat="31.9500330" lon="34.9525080">
<ele>149.500000</ele>
<time>2017-07-11T05:24:15.000Z</time>
</trkpt>
<trkpt lat="31.9500000" lon="34.9524930">
<ele>149.300003</ele>
<time>2017-07-11T05:24:16.000Z</time>
</trkpt>
<trkpt lat="31.9499760" lon="34.9524750">
<ele>149.199997</ele>
<time>2017-07-11T05:24:17.000Z</time>
</trkpt>
<trkpt lat="31.9499660" lon="34.9524450">
<ele>149.000000</ele>
<time>2017-07-11T05:24:18.000Z</time>
</trkpt>
<trkpt lat="31.9499570" lon="34.9524110">
<ele>148.800003</ele>
<time>2017-07-11T05:24:19.000Z</time>
</trkpt>
<trkpt lat="31.9499420" lon="34.9523690">
<ele>148.500000</ele>
<time>2017-07-11T05:24:20.000Z</time>
</trkpt>
<trkpt lat="31.9499290" lon="34.9523400">
<ele>148.300003</ele>
<time>2017-07-11T05:24:21.000Z</time>
</trkpt>
<trkpt lat="31.9499050" lon="34.9523040">
<ele>148.000000</ele>
<time>2017-07-11T05:24:23.000Z</time>
</trkpt>
<trkpt lat="31.9498930" lon="34.9522540">
<ele>147.600006</ele>
<time>2017-07-11T05:24:25.000Z</time>
</trkpt>
<trkpt lat="31.9498830" lon="34.9522040">
<ele>147.199997</ele>
<time>2017-07-11T05:24:26.000Z</time>
</trkpt>
<trkpt lat="31.9498950" lon="34.9521630">
<ele>146.899994</ele>
<time>2017-07-11T05:24:28.000Z</time>
</trkpt>
<trkpt lat="31.9499210" lon="34.9521460">
<ele>146.800003</ele>
<time>2017-07-11T05:24:30.000Z</time>
</trkpt>
<trkpt lat="31.9499540" lon="34.9521480">
<ele>146.600006</ele>
<time>2017-07-11T05:24:33.000Z</time>
</trkpt>
<trkpt lat="31.9499880" lon="34.9521540">
<ele>146.500000</ele>
<time>2017-07-11T05:24:35.000Z</time>
</trkpt>
<trkpt lat="31.9500180" lon="34.9521330">
<ele>146.400009</ele>
<time>2017-07-11T05:24:37.000Z</time>
</trkpt>
<trkpt lat="31.9500210" lon="34.9520990">
<ele>146.199997</ele>
<time>2017-07-11T05:24:39.000Z</time>
</trkpt>
<trkpt lat="31.9500220" lon="34.9520570">
<ele>146.100006</ele>
<time>2017-07-11T05:24:42.000Z</time>
</trkpt>
<trkpt lat="31.9500320" lon="34.9520110">
<ele>146.000000</ele>
<time>2017-07-11T05:24:44.000Z</time>
</trkpt>
<trkpt lat="31.9500420" lon="34.9519800">
<ele>145.899994</ele>
<time>2017-07-11T05:24:45.000Z</time>
</trkpt>
<trkpt lat="31.9500650" lon="34.9519570">
<ele>145.800003</ele>
<time>2017-07-11T05:24:46.000Z</time>
</trkpt>
<trkpt lat="31.9501040" lon="34.9519330">
<ele>145.599991</ele>
<time>2017-07-11T05:24:47.000Z</time>
</trkpt>
<trkpt lat="31.9501470" lon="34.9519160">
<ele>145.300003</ele>
<time>2017-07-11T05:24:48.000Z</time>
</trkpt>
<trkpt lat="31.9501920" lon="34.9519120">
<ele>145.100006</ele>
<time>2017-07-11T05:24:49.000Z</time>
</trkpt>
<trkpt lat="31.9502330" lon="34.9519120">
<ele>145.000000</ele>
<time>2017-07-11T05:24:50.000Z</time>
</trkpt>
<trkpt lat="31.9502730" lon="34.9519140">
<ele>144.900009</ele>
<time>2017-07-11T05:24:51.000Z</time>
</trkpt>
<trkpt lat="31.9503070" lon="34.9519120">
<ele>144.699997</ele>
<time>2017-07-11T05:24:52.000Z</time>
</trkpt>
<trkpt lat="31.9503500" lon="34.9518910">
<ele>144.600006</ele>
<time>2017-07-11T05:24:54.000Z</time>
</trkpt>
<trkpt lat="31.9503760" lon="34.9518790">
<ele>144.500000</ele>
<time>2017-07-11T05:24:55.000Z</time>
</trkpt>
<trkpt lat="31.9504140" lon="34.9518640">
<ele>144.400009</ele>
<time>2017-07-11T05:24:56.000Z</time>
</trkpt>
<trkpt lat="31.9504530" lon="34.9518480">
<ele>144.300003</ele>
<time>2017-07-11T05:24:57.000Z</time>
</trkpt>
<trkpt lat="31.9504870" lon="34.9518270">
<ele>144.199997</ele>
<time>2017-07-11T05:24:58.000Z</time>
</trkpt>
<trkpt lat="31.9505130" lon="34.9518030">
<ele>144.199997</ele>
<time>2017-07-11T05:24:59.000Z</time>
</trkpt>
<trkpt lat="31.9505420" lon="34.9517700">
<ele>144.100006</ele>
<time>2017-07-11T05:25:00.000Z</time>
</trkpt>
<trkpt lat="31.9505770" lon="34.9517450">
<ele>144.000000</ele>
<time>2017-07-11T05:25:01.000Z</time>
</trkpt>
<trkpt lat="31.9506130" lon="34.9517320">
<ele>143.899994</ele>
<time>2017-07-11T05:25:02.000Z</time>
</trkpt>
<trkpt lat="31.9506570" lon="34.9517260">
<ele>143.699997</ele>
<time>2017-07-11T05:25:03.000Z</time>
</trkpt>
<trkpt lat="31.9506970" lon="34.9517240">
<ele>143.500000</ele>
<time>2017-07-11T05:25:04.000Z</time>
</trkpt>
<trkpt lat="31.9507260" lon="34.9517180">
<ele>143.399994</ele>
<time>2017-07-11T05:25:05.000Z</time>
</trkpt>
<trkpt lat="31.9507520" lon="34.9517060">
<ele>143.300003</ele>
<time>2017-07-11T05:25:06.000Z</time>
</trkpt>
<trkpt lat="31.9507820" lon="34.9516870">
<ele>143.100006</ele>
<time>2017-07-11T05:25:07.000Z</time>
</trkpt>
<trkpt lat="31.9508050" lon="34.9516620">
<ele>143.000000</ele>
<time>2017-07-11T05:25:08.000Z</time>
</trkpt>
<trkpt lat="31.9508200" lon="34.9516130">
<ele>142.800003</ele>
<time>2017-07-11T05:25:10.000Z</time>
</trkpt>
<trkpt lat="31.9508060" lon="34.9515640">
<ele>142.600006</ele>
<time>2017-07-11T05:25:12.000Z</time>
</trkpt>
<trkpt lat="31.9508160" lon="34.9515110">
<ele>142.300003</ele>
<time>2017-07-11T05:25:14.000Z</time>
</trkpt>
<trkpt lat="31.9508560" lon="34.9514810">
<ele>142.099991</ele>
<time>2017-07-11T05:25:16.000Z</time>
</trkpt>
<trkpt lat="31.9508850" lon="34.9514500">
<ele>142.000000</ele>
<time>2017-07-11T05:25:18.000Z</time>
</trkpt>
<trkpt lat="31.9508920" lon="34.9514170">
<ele>142.000000</ele>
<time>2017-07-11T05:25:20.000Z</time>
</trkpt>
<trkpt lat="31.9509180" lon="34.9513750">
<ele>141.899994</ele>
<time>2017-07-11T05:25:22.000Z</time>
</trkpt>
<trkpt lat="31.9509280" lon="34.9513390">
<ele>141.899994</ele>
<time>2017-07-11T05:25:23.000Z</time>
</trkpt>
<trkpt lat="31.9509310" lon="34.9512980">
<ele>141.899994</ele>
<time>2017-07-11T05:25:24.000Z</time>
</trkpt>
<trkpt lat="31.9509480" lon="34.9512470">
<ele>141.800003</ele>
<time>2017-07-11T05:25:26.000Z</time>
</trkpt>
<trkpt lat="31.9509860" lon="34.9512060">
<ele>141.800003</ele>
<time>2017-07-11T05:25:28.000Z</time>
</trkpt>
<trkpt lat="31.9510240" lon="34.9511740">
<ele>141.800003</ele>
<time>2017-07-11T05:25:30.000Z</time>
</trkpt>
<trkpt lat="31.9510600" lon="34.9511380">
<ele>141.800003</ele>
<time>2017-07-11T05:25:32.000Z</time>
</trkpt>
<trkpt lat="31.9510970" lon="34.9511270">
<ele>141.800003</ele>
<time>2017-07-11T05:25:34.000Z</time>
</trkpt>
<trkpt lat="31.9511290" lon="34.9511160">
<ele>141.800003</ele>
<time>2017-07-11T05:25:36.000Z</time>
</trkpt>
<trkpt lat="31.9511690" lon="34.9511050">
<ele>141.800003</ele>
<time>2017-07-11T05:25:38.000Z</time>
</trkpt>
<trkpt lat="31.9511970" lon="34.9511000">
<ele>141.800003</ele>
<time>2017-07-11T05:25:41.000Z</time>
</trkpt>
<trkpt lat="31.9512230" lon="34.9510910">
<ele>141.800003</ele>
<time>2017-07-11T05:25:56.000Z</time>
</trkpt>
<trkpt lat="31.9512470" lon="34.9511090">
<ele>141.800003</ele>
<time>2017-07-11T05:26:18.000Z</time>
</trkpt>
<trkpt lat="31.9512720" lon="34.9511230">
<ele>141.800003</ele>
<time>2017-07-11T05:27:06.000Z</time>
</trkpt>
<trkpt lat="31.9512730" lon="34.9510870">
<ele>141.899994</ele>
<time>2017-07-11T05:27:15.000Z</time>
</trkpt>
<trkpt lat="31.9512850" lon="34.9510500">
<ele>141.899994</ele>
<time>2017-07-11T05:27:18.000Z</time>
</trkpt>
<trkpt lat="31.9512900" lon="34.9510150">
<ele>141.899994</ele>
<time>2017-07-11T05:27:22.000Z</time>
</trkpt>
<trkpt lat="31.9513050" lon="34.9509880">
<ele>141.899994</ele>
<time>2017-07-11T05:27:55.000Z</time>
</trkpt>
<trkpt lat="31.9513130" lon="34.9509570">
<ele>141.899994</ele>
<time>2017-07-11T05:28:43.000Z</time>
</trkpt>
<trkpt lat="31.9513070" lon="34.9509110">
<ele>142.000000</ele>
<time>2017-07-11T05:28:45.000Z</time>
</trkpt>
<trkpt lat="31.9513040" lon="34.9508760">
<ele>142.000000</ele>
<time>2017-07-11T05:28:46.000Z</time>
</trkpt>
<trkpt lat="31.9513010" lon="34.9508420">
<ele>142.000000</ele>
<time>2017-07-11T05:28:47.000Z</time>
</trkpt>
<trkpt lat="31.9513080" lon="34.9507870">
<ele>142.099991</ele>
<time>2017-07-11T05:28:50.000Z</time>
</trkpt>
<trkpt lat="31.9513080" lon="34.9507340">
<ele>142.199997</ele>
<time>2017-07-11T05:28:52.000Z</time>
</trkpt>
<trkpt lat="31.9513080" lon="34.9506860">
<ele>142.199997</ele>
<time>2017-07-11T05:28:54.000Z</time>
</trkpt>
<trkpt lat="31.9513110" lon="34.9506540">
<ele>142.300003</ele>
<time>2017-07-11T05:28:55.000Z</time>
</trkpt>
<trkpt lat="31.9513150" lon="34.9506000">
<ele>142.300003</ele>
<time>2017-07-11T05:28:58.000Z</time>
</trkpt>
<trkpt lat="31.9513220" lon="34.9505680">
<ele>142.399994</ele>
<time>2017-07-11T05:28:59.000Z</time>
</trkpt>
<trkpt lat="31.9513420" lon="34.9505350">
<ele>142.399994</ele>
<time>2017-07-11T05:29:01.000Z</time>
</trkpt>
<trkpt lat="31.9513540" lon="34.9504930">
<ele>142.500000</ele>
<time>2017-07-11T05:29:03.000Z</time>
</trkpt>
<trkpt lat="31.9513680" lon="34.9504550">
<ele>142.600006</ele>
<time>2017-07-11T05:29:05.000Z</time>
</trkpt>
<trkpt lat="31.9513590" lon="34.9504000">
<ele>142.800003</ele>
<time>2017-07-11T05:29:07.000Z</time>
</trkpt>
<trkpt lat="31.9513530" lon="34.9503650">
<ele>142.800003</ele>
<time>2017-07-11T05:29:08.000Z</time>
</trkpt>
<trkpt lat="31.9513510" lon="34.9503080">
<ele>142.900009</ele>
<time>2017-07-11T05:29:10.000Z</time>
</trkpt>
<trkpt lat="31.9513450" lon="34.9502670">
<ele>143.000000</ele>
<time>2017-07-11T05:29:11.000Z</time>
</trkpt>
<trkpt lat="31.9513460" lon="34.9502180">
<ele>143.100006</ele>
<time>2017-07-11T05:29:12.000Z</time>
</trkpt>
<trkpt lat="31.9513510" lon="34.9501690">
<ele>143.100006</ele>
<time>2017-07-11T05:29:14.000Z</time>
</trkpt>
<trkpt lat="31.9513340" lon="34.9501370">
<ele>143.199997</ele>
<time>2017-07-11T05:29:15.000Z</time>
</trkpt>
<trkpt lat="31.9513090" lon="34.9500920">
<ele>143.199997</ele>
<time>2017-07-11T05:29:17.000Z</time>
</trkpt>
<trkpt lat="31.9512780" lon="34.9500470">
<ele>143.300003</ele>
<time>2017-07-11T05:29:19.000Z</time>
</trkpt>
<trkpt lat="31.9512620" lon="34.9500210">
<ele>143.300003</ele>
<time>2017-07-11T05:29:20.000Z</time>
</trkpt>
<trkpt lat="31.9512430" lon="34.9499810">
<ele>143.399994</ele>
<time>2017-07-11T05:29:21.000Z</time>
</trkpt>
<trkpt lat="31.9512220" lon="34.9499520">
<ele>143.399994</ele>
<time>2017-07-11T05:29:22.000Z</time>
</trkpt>
<trkpt lat="31.9511980" lon="34.9499280">
<ele>143.399994</ele>
<time>2017-07-11T05:29:23.000Z</time>
</trkpt>
<trkpt lat="31.9511750" lon="34.9499080">
<ele>143.399994</ele>
<time>2017-07-11T05:29:24.000Z</time>
</trkpt>
<trkpt lat="31.9511480" lon="34.9498800">
<ele>143.399994</ele>
<time>2017-07-11T05:29:25.000Z</time>
</trkpt>
<trkpt lat="31.9511110" lon="34.9498570">
<ele>143.399994</ele>
<time>2017-07-11T05:29:26.000Z</time>
</trkpt>
<trkpt lat="31.9510790" lon="34.9498390">
<ele>143.399994</ele>
<time>2017-07-11T05:29:27.000Z</time>
</trkpt>
<trkpt lat="31.9510300" lon="34.9498090">
<ele>143.399994</ele>
<time>2017-07-11T05:29:29.000Z</time>
</trkpt>
<trkpt lat="31.9510030" lon="34.9498020">
<ele>143.399994</ele>
<time>2017-07-11T05:29:30.000Z</time>
</trkpt>
<trkpt lat="31.9509710" lon="34.9497880">
<ele>143.399994</ele>
<time>2017-07-11T05:29:31.000Z</time>
</trkpt>
<trkpt lat="31.9509380" lon="34.9497780">
<ele>143.399994</ele>
<time>2017-07-11T05:29:32.000Z</time>
</trkpt>
<trkpt lat="31.9509010" lon="34.9497630">
<ele>143.300003</ele>
<time>2017-07-11T05:29:33.000Z</time>
</trkpt>
<trkpt lat="31.9508710" lon="34.9497360">
<ele>143.300003</ele>
<time>2017-07-11T05:29:34.000Z</time>
</trkpt>
<trkpt lat="31.9508500" lon="34.9497030">
<ele>143.300003</ele>
<time>2017-07-11T05:29:35.000Z</time>
</trkpt>
<trkpt lat="31.9508170" lon="34.9496580">
<ele>143.199997</ele>
<time>2017-07-11T05:29:36.000Z</time>
</trkpt>
<trkpt lat="31.9507900" lon="34.9496270">
<ele>143.100006</ele>
<time>2017-07-11T05:29:37.000Z</time>
</trkpt>
<trkpt lat="31.9507590" lon="34.9495870">
<ele>143.100006</ele>
<time>2017-07-11T05:29:38.000Z</time>
</trkpt>
<trkpt lat="31.9507390" lon="34.9495630">
<ele>143.000000</ele>
<time>2017-07-11T05:29:39.000Z</time>
</trkpt>
<trkpt lat="31.9507080" lon="34.9495390">
<ele>142.900009</ele>
<time>2017-07-11T05:29:40.000Z</time>
</trkpt>
<trkpt lat="31.9506810" lon="34.9495120">
<ele>142.900009</ele>
<time>2017-07-11T05:29:41.000Z</time>
</trkpt>
<trkpt lat="31.9506520" lon="34.9494950">
<ele>142.800003</ele>
<time>2017-07-11T05:29:42.000Z</time>
</trkpt>
<trkpt lat="31.9506230" lon="34.9494800">
<ele>142.800003</ele>
<time>2017-07-11T05:29:43.000Z</time>
</trkpt>
<trkpt lat="31.9505900" lon="34.9494550">
<ele>142.699997</ele>
<time>2017-07-11T05:29:44.000Z</time>
</trkpt>
<trkpt lat="31.9505530" lon="34.9494170">
<ele>142.600006</ele>
<time>2017-07-11T05:29:45.000Z</time>
</trkpt>
<trkpt lat="31.9505130" lon="34.9493860">
<ele>142.500000</ele>
<time>2017-07-11T05:29:46.000Z</time>
</trkpt>
<trkpt lat="31.9504730" lon="34.9493600">
<ele>142.399994</ele>
<time>2017-07-11T05:29:47.000Z</time>
</trkpt>
<trkpt lat="31.9504400" lon="34.9493290">
<ele>142.300003</ele>
<time>2017-07-11T05:29:48.000Z</time>
</trkpt>
<trkpt lat="31.9504150" lon="34.9492950">
<ele>142.199997</ele>
<time>2017-07-11T05:29:49.000Z</time>
</trkpt>
<trkpt lat="31.9503750" lon="34.9492620">
<ele>142.099991</ele>
<time>2017-07-11T05:29:50.000Z</time>
</trkpt>
<trkpt lat="31.9503470" lon="34.9492350">
<ele>142.000000</ele>
<time>2017-07-11T05:29:51.000Z</time>
</trkpt>
<trkpt lat="31.9503240" lon="34.9491980">
<ele>141.899994</ele>
<time>2017-07-11T05:29:52.000Z</time>
</trkpt>
<trkpt lat="31.9502920" lon="34.9491680">
<ele>141.800003</ele>
<time>2017-07-11T05:29:53.000Z</time>
</trkpt>
<trkpt lat="31.9502370" lon="34.9491010">
<ele>141.600006</ele>
<time>2017-07-11T05:29:54.000Z</time>
</trkpt>
<trkpt lat="31.9502080" lon="34.9490550">
<ele>141.500000</ele>
<time>2017-07-11T05:29:55.000Z</time>
</trkpt>
<trkpt lat="31.9501950" lon="34.9489970">
<ele>141.300003</ele>
<time>2017-07-11T05:29:56.000Z</time>
</trkpt>
<trkpt lat="31.9501860" lon="34.9489480">
<ele>141.199997</ele>
<time>2017-07-11T05:29:57.000Z</time>
</trkpt>
<trkpt lat="31.9501780" lon="34.9489030">
<ele>141.100006</ele>
<time>2017-07-11T05:29:58.000Z</time>
</trkpt>
<trkpt lat="31.9501550" lon="34.9488380">
<ele>141.000000</ele>
<time>2017-07-11T05:29:59.000Z</time>
</trkpt>
<trkpt lat="31.9501210" lon="34.9487900">
<ele>140.800003</ele>
<time>2017-07-11T05:30:00.000Z</time>
</trkpt>
<trkpt lat="31.9500930" lon="34.9487450">
<ele>140.600006</ele>
<time>2017-07-11T05:30:01.000Z</time>
</trkpt>
<trkpt lat="31.9500660" lon="34.9486910">
<ele>140.399994</ele>
<time>2017-07-11T05:30:02.000Z</time>
</trkpt>
<trkpt lat="31.9500550" lon="34.9486350">
<ele>140.300003</ele>
<time>2017-07-11T05:30:03.000Z</time>
</trkpt>
<trkpt lat="31.9500240" lon="34.9485840">
<ele>140.099991</ele>
<time>2017-07-11T05:30:04.000Z</time>
</trkpt>
<trkpt lat="31.9500120" lon="34.9485410">
<ele>140.000000</ele>
<time>2017-07-11T05:30:05.000Z</time>
</trkpt>
<trkpt lat="31.9500070" lon="34.9485040">
<ele>140.000000</ele>
<time>2017-07-11T05:30:06.000Z</time>
</trkpt>
<trkpt lat="31.9499910" lon="34.9484660">
<ele>139.899994</ele>
<time>2017-07-11T05:30:07.000Z</time>
</trkpt>
<trkpt lat="31.9499720" lon="34.9484410">
<ele>139.800003</ele>
<time>2017-07-11T05:30:08.000Z</time>
</trkpt>
<trkpt lat="31.9499550" lon="34.9483970">
<ele>139.699997</ele>
<time>2017-07-11T05:30:09.000Z</time>
</trkpt>
<trkpt lat="31.9499560" lon="34.9483630">
<ele>139.600006</ele>
<time>2017-07-11T05:30:10.000Z</time>
</trkpt>
<trkpt lat="31.9499520" lon="34.9483310">
<ele>139.600006</ele>
<time>2017-07-11T05:30:11.000Z</time>
</trkpt>
<trkpt lat="31.9499440" lon="34.9482960">
<ele>139.500000</ele>
<time>2017-07-11T05:30:12.000Z</time>
</trkpt>
<trkpt lat="31.9499400" lon="34.9482560">
<ele>139.400009</ele>
<time>2017-07-11T05:30:13.000Z</time>
</trkpt>
<trkpt lat="31.9499370" lon="34.9482090">
<ele>139.300003</ele>
<time>2017-07-11T05:30:14.000Z</time>
</trkpt>
<trkpt lat="31.9499230" lon="34.9481480">
<ele>139.100006</ele>
<time>2017-07-11T05:30:15.000Z</time>
</trkpt>
<trkpt lat="31.9499270" lon="34.9481120">
<ele>139.000000</ele>
<time>2017-07-11T05:30:16.000Z</time>
</trkpt>
<trkpt lat="31.9499260" lon="34.9480650">
<ele>138.899994</ele>
<time>2017-07-11T05:30:17.000Z</time>
</trkpt>
<trkpt lat="31.9499290" lon="34.9480160">
<ele>138.699997</ele>
<time>2017-07-11T05:30:18.000Z</time>
</trkpt>
<trkpt lat="31.9499250" lon="34.9479520">
<ele>138.599991</ele>
<time>2017-07-11T05:30:19.000Z</time>
</trkpt>
<trkpt lat="31.9499270" lon="34.9479130">
<ele>138.399994</ele>
<time>2017-07-11T05:30:20.000Z</time>
</trkpt>
<trkpt lat="31.9499270" lon="34.9478710">
<ele>138.300003</ele>
<time>2017-07-11T05:30:21.000Z</time>
</trkpt>
<trkpt lat="31.9499270" lon="34.9478270">
<ele>138.099991</ele>
<time>2017-07-11T05:30:22.000Z</time>
</trkpt>
<trkpt lat="31.9499140" lon="34.9477750">
<ele>137.899994</ele>
<time>2017-07-11T05:30:23.000Z</time>
</trkpt>
<trkpt lat="31.9499050" lon="34.9477190">
<ele>137.600006</ele>
<time>2017-07-11T05:30:24.000Z</time>
</trkpt>
<trkpt lat="31.9499040" lon="34.9476790">
<ele>137.500000</ele>
<time>2017-07-11T05:30:25.000Z</time>
</trkpt>
<trkpt lat="31.9499040" lon="34.9476440">
<ele>137.300003</ele>
<time>2017-07-11T05:30:26.000Z</time>
</trkpt>
<trkpt lat="31.9498980" lon="34.9476070">
<ele>137.100006</ele>
<time>2017-07-11T05:30:27.000Z</time>
</trkpt>
<trkpt lat="31.9498870" lon="34.9475700">
<ele>136.899994</ele>
<time>2017-07-11T05:30:28.000Z</time>
</trkpt>
<trkpt lat="31.9498790" lon="34.9475320">
<ele>136.699997</ele>
<time>2017-07-11T05:30:29.000Z</time>
</trkpt>
<trkpt lat="31.9498470" lon="34.9474990">
<ele>136.500000</ele>
<time>2017-07-11T05:30:30.000Z</time>
</trkpt>
<trkpt lat="31.9498120" lon="34.9474720">
<ele>136.199997</ele>
<time>2017-07-11T05:30:31.000Z</time>
</trkpt>
<trkpt lat="31.9497920" lon="34.9474400">
<ele>136.000000</ele>
<time>2017-07-11T05:30:32.000Z</time>
</trkpt>
<trkpt lat="31.9497800" lon="34.9473940">
<ele>135.699997</ele>
<time>2017-07-11T05:30:33.000Z</time>
</trkpt>
<trkpt lat="31.9497720" lon="34.9473360">
<ele>135.399994</ele>
<time>2017-07-11T05:30:34.000Z</time>
</trkpt>
<trkpt lat="31.9497580" lon="34.9472630">
<ele>134.899994</ele>
<time>2017-07-11T05:30:35.000Z</time>
</trkpt>
<trkpt lat="31.9497470" lon="34.9471960">
<ele>134.599991</ele>
<time>2017-07-11T05:30:36.000Z</time>
</trkpt>
<trkpt lat="31.9497480" lon="34.9471350">
<ele>134.300003</ele>
<time>2017-07-11T05:30:37.000Z</time>
</trkpt>
<trkpt lat="31.9497670" lon="34.9470840">
<ele>134.100006</ele>
<time>2017-07-11T05:30:38.000Z</time>
</trkpt>
<trkpt lat="31.9497960" lon="34.9470170">
<ele>133.800003</ele>
<time>2017-07-11T05:30:39.000Z</time>
</trkpt>
<trkpt lat="31.9498180" lon="34.9469700">
<ele>133.600006</ele>
<time>2017-07-11T05:30:40.000Z</time>
</trkpt>
<trkpt lat="31.9498400" lon="34.9469270">
<ele>133.399994</ele>
<time>2017-07-11T05:30:41.000Z</time>
</trkpt>
<trkpt lat="31.9498720" lon="34.9468930">
<ele>133.199997</ele>
<time>2017-07-11T05:30:42.000Z</time>
</trkpt>
<trkpt lat="31.9499020" lon="34.9468690">
<ele>133.099991</ele>
<time>2017-07-11T05:30:43.000Z</time>
</trkpt>
<trkpt lat="31.9499240" lon="34.9468460">
<ele>133.000000</ele>
<time>2017-07-11T05:30:44.000Z</time>
</trkpt>
<trkpt lat="31.9499400" lon="34.9468160">
<ele>132.899994</ele>
<time>2017-07-11T05:30:45.000Z</time>
</trkpt>
<trkpt lat="31.9499300" lon="34.9467520">
<ele>132.600006</ele>
<time>2017-07-11T05:30:47.000Z</time>
</trkpt>
<trkpt lat="31.9499220" lon="34.9467090">
<ele>132.400009</ele>
<time>2017-07-11T05:30:48.000Z</time>
</trkpt>
<trkpt lat="31.9499110" lon="34.9466650">
<ele>132.199997</ele>
<time>2017-07-11T05:30:49.000Z</time>
</trkpt>
<trkpt lat="31.9498960" lon="34.9466140">
<ele>131.899994</ele>
<time>2017-07-11T05:30:50.000Z</time>
</trkpt>
<trkpt lat="31.9498850" lon="34.9465790">
<ele>131.800003</ele>
<time>2017-07-11T05:30:51.000Z</time>
</trkpt>
<trkpt lat="31.9498490" lon="34.9465260">
<ele>131.399994</ele>
<time>2017-07-11T05:30:53.000Z</time>
</trkpt>
<trkpt lat="31.9498300" lon="34.9465020">
<ele>131.199997</ele>
<time>2017-07-11T05:30:54.000Z</time>
</trkpt>
<trkpt lat="31.9498170" lon="34.9464710">
<ele>131.000000</ele>
<time>2017-07-11T05:30:55.000Z</time>
</trkpt>
<trkpt lat="31.9498110" lon="34.9464380">
<ele>130.800003</ele>
<time>2017-07-11T05:30:56.000Z</time>
</trkpt>
<trkpt lat="31.9498060" lon="34.9463990">
<ele>130.600006</ele>
<time>2017-07-11T05:30:57.000Z</time>
</trkpt>
<trkpt lat="31.9498120" lon="34.9463670">
<ele>130.400009</ele>
<time>2017-07-11T05:30:58.000Z</time>
</trkpt>
<trkpt lat="31.9497980" lon="34.9463290">
<ele>130.100006</ele>
<time>2017-07-11T05:30:59.000Z</time>
</trkpt>
<trkpt lat="31.9497910" lon="34.9462810">
<ele>129.800003</ele>
<time>2017-07-11T05:31:00.000Z</time>
</trkpt>
<trkpt lat="31.9497910" lon="34.9462420">
<ele>129.599991</ele>
<time>2017-07-11T05:31:01.000Z</time>
</trkpt>
<trkpt lat="31.9497850" lon="34.9462000">
<ele>129.199997</ele>
<time>2017-07-11T05:31:03.000Z</time>
</trkpt>
<trkpt lat="31.9497680" lon="34.9461600">
<ele>128.800003</ele>
<time>2017-07-11T05:31:04.000Z</time>
</trkpt>
<trkpt lat="31.9497610" lon="34.9461280">
<ele>128.500000</ele>
<time>2017-07-11T05:31:05.000Z</time>
</trkpt>
<trkpt lat="31.9497560" lon="34.9460800">
<ele>128.100006</ele>
<time>2017-07-11T05:31:07.000Z</time>
</trkpt>
<trkpt lat="31.9497320" lon="34.9460530">
<ele>127.699997</ele>
<time>2017-07-11T05:31:09.000Z</time>
</trkpt>
<trkpt lat="31.9497100" lon="34.9460030">
<ele>127.200005</ele>
<time>2017-07-11T05:31:12.000Z</time>
</trkpt>
<trkpt lat="31.9496790" lon="34.9459750">
<ele>126.900002</ele>
<time>2017-07-11T05:31:14.000Z</time>
</trkpt>
<trkpt lat="31.9496440" lon="34.9459480">
<ele>126.500000</ele>
<time>2017-07-11T05:31:16.000Z</time>
</trkpt>
<trkpt lat="31.9496170" lon="34.9459290">
<ele>126.199997</ele>
<time>2017-07-11T05:31:31.000Z</time>
</trkpt>
<trkpt lat="31.9496130" lon="34.9458970">
<ele>126.000000</ele>
<time>2017-07-11T05:32:05.000Z</time>
</trkpt>
<trkpt lat="31.9495990" lon="34.9458530">
<ele>125.599998</ele>
<time>2017-07-11T05:32:24.000Z</time>
</trkpt>
<trkpt lat="31.9495860" lon="34.9458000">
<ele>125.200005</ele>
<time>2017-07-11T05:32:26.000Z</time>
</trkpt>
<trkpt lat="31.9495710" lon="34.9457580">
<ele>124.800003</ele>
<time>2017-07-11T05:32:27.000Z</time>
</trkpt>
<trkpt lat="31.9495490" lon="34.9457050">
<ele>124.300003</ele>
<time>2017-07-11T05:32:28.000Z</time>
</trkpt>
<trkpt lat="31.9495330" lon="34.9456640">
<ele>124.000000</ele>
<time>2017-07-11T05:32:29.000Z</time>
</trkpt>
<trkpt lat="31.9495070" lon="34.9456250">
<ele>123.700005</ele>
<time>2017-07-11T05:32:30.000Z</time>
</trkpt>
<trkpt lat="31.9494750" lon="34.9455840">
<ele>123.300003</ele>
<time>2017-07-11T05:32:31.000Z</time>
</trkpt>
<trkpt lat="31.9494490" lon="34.9455400">
<ele>122.599998</ele>
<time>2017-07-11T05:32:32.000Z</time>
</trkpt>
<trkpt lat="31.9494260" lon="34.9454880">
<ele>122.200005</ele>
<time>2017-07-11T05:32:33.000Z</time>
</trkpt>
<trkpt lat="31.9494070" lon="34.9454300">
<ele>121.799995</ele>
<time>2017-07-11T05:32:34.000Z</time>
</trkpt>
<trkpt lat="31.9493990" lon="34.9453900">
<ele>121.500000</ele>
<time>2017-07-11T05:32:35.000Z</time>
</trkpt>
<trkpt lat="31.9493960" lon="34.9453370">
<ele>121.100006</ele>
<time>2017-07-11T05:32:36.000Z</time>
</trkpt>
<trkpt lat="31.9493910" lon="34.9452960">
<ele>120.800003</ele>
<time>2017-07-11T05:32:37.000Z</time>
</trkpt>
<trkpt lat="31.9493830" lon="34.9452540">
<ele>120.500000</ele>
<time>2017-07-11T05:32:38.000Z</time>
</trkpt>
<trkpt lat="31.9493780" lon="34.9452190">
<ele>120.299995</ele>
<time>2017-07-11T05:32:39.000Z</time>
</trkpt>
<trkpt lat="31.9493740" lon="34.9450910">
<ele>119.399994</ele>
<time>2017-07-11T05:32:42.000Z</time>
</trkpt>
<trkpt lat="31.9493640" lon="34.9450330">
<ele>118.900002</ele>
<time>2017-07-11T05:32:43.000Z</time>
</trkpt>
<trkpt lat="31.9493640" lon="34.9449860">
<ele>118.599998</ele>
<time>2017-07-11T05:32:44.000Z</time>
</trkpt>
<trkpt lat="31.9493650" lon="34.9449500">
<ele>118.299995</ele>
<time>2017-07-11T05:32:45.000Z</time>
</trkpt>
<trkpt lat="31.9493860" lon="34.9448990">
<ele>117.699997</ele>
<time>2017-07-11T05:32:46.000Z</time>
</trkpt>
<trkpt lat="31.9494170" lon="34.9448600">
<ele>117.199997</ele>
<time>2017-07-11T05:32:47.000Z</time>
</trkpt>
<trkpt lat="31.9494510" lon="34.9448250">
<ele>116.700005</ele>
<time>2017-07-11T05:32:48.000Z</time>
</trkpt>
<trkpt lat="31.9494810" lon="34.9447890">
<ele>116.199997</ele>
<time>2017-07-11T05:32:49.000Z</time>
</trkpt>
<trkpt lat="31.9495160" lon="34.9447630">
<ele>115.800003</ele>
<time>2017-07-11T05:32:50.000Z</time>
</trkpt>
<trkpt lat="31.9495540" lon="34.9447440">
<ele>115.400002</ele>
<time>2017-07-11T05:32:51.000Z</time>
</trkpt>
<trkpt lat="31.9496010" lon="34.9447390">
<ele>115.000000</ele>
<time>2017-07-11T05:32:52.000Z</time>
</trkpt>
<trkpt lat="31.9496380" lon="34.9447220">
<ele>114.700005</ele>
<time>2017-07-11T05:32:53.000Z</time>
</trkpt>
<trkpt lat="31.9496780" lon="34.9446830">
<ele>114.400002</ele>
<time>2017-07-11T05:32:54.000Z</time>
</trkpt>
<trkpt lat="31.9497270" lon="34.9446390">
<ele>114.100006</ele>
<time>2017-07-11T05:32:55.000Z</time>
</trkpt>
<trkpt lat="31.9497830" lon="34.9445920">
<ele>114.500000</ele>
<time>2017-07-11T05:32:56.000Z</time>
</trkpt>
<trkpt lat="31.9498410" lon="34.9445560">
<ele>114.900002</ele>
<time>2017-07-11T05:32:57.000Z</time>
</trkpt>
<trkpt lat="31.9498970" lon="34.9445160">
<ele>115.400002</ele>
<time>2017-07-11T05:32:58.000Z</time>
</trkpt>
<trkpt lat="31.9499520" lon="34.9444780">
<ele>115.800003</ele>
<time>2017-07-11T05:32:59.000Z</time>
</trkpt>
<trkpt lat="31.9500000" lon="34.9444290">
<ele>116.099998</ele>
<time>2017-07-11T05:33:00.000Z</time>
</trkpt>
<trkpt lat="31.9500550" lon="34.9443870">
<ele>116.499992</ele>
<time>2017-07-11T05:33:01.000Z</time>
</trkpt>
<trkpt lat="31.9501060" lon="34.9443410">
<ele>116.799995</ele>
<time>2017-07-11T05:33:02.000Z</time>
</trkpt>
<trkpt lat="31.9501470" lon="34.9443050">
<ele>117.099998</ele>
<time>2017-07-11T05:33:03.000Z</time>
</trkpt>
<trkpt lat="31.9501860" lon="34.9442730">
<ele>117.300003</ele>
<time>2017-07-11T05:33:04.000Z</time>
</trkpt>
<trkpt lat="31.9502190" lon="34.9442550">
<ele>117.500000</ele>
<time>2017-07-11T05:33:05.000Z</time>
</trkpt>
<trkpt lat="31.9502530" lon="34.9442440">
<ele>117.699997</ele>
<time>2017-07-11T05:33:06.000Z</time>
</trkpt>
<trkpt lat="31.9502850" lon="34.9442320">
<ele>117.900002</ele>
<time>2017-07-11T05:33:07.000Z</time>
</trkpt>
<trkpt lat="31.9503160" lon="34.9442190">
<ele>118.099998</ele>
<time>2017-07-11T05:33:08.000Z</time>
</trkpt>
<trkpt lat="31.9503440" lon="34.9442150">
<ele>118.200005</ele>
<time>2017-07-11T05:33:09.000Z</time>
</trkpt>
<trkpt lat="31.9503720" lon="34.9442070">
<ele>118.400002</ele>
<time>2017-07-11T05:33:10.000Z</time>
</trkpt>
<trkpt lat="31.9504010" lon="34.9441920">
<ele>118.599998</ele>
<time>2017-07-11T05:33:11.000Z</time>
</trkpt>
<trkpt lat="31.9504300" lon="34.9441770">
<ele>118.900002</ele>
<time>2017-07-11T05:33:12.000Z</time>
</trkpt>
<trkpt lat="31.9504560" lon="34.9441600">
<ele>119.099998</ele>
<time>2017-07-11T05:33:13.000Z</time>
</trkpt>
<trkpt lat="31.9504970" lon="34.9441300">
<ele>119.399994</ele>
<time>2017-07-11T05:33:15.000Z</time>
</trkpt>
<trkpt lat="31.9505330" lon="34.9440890">
<ele>119.699997</ele>
<time>2017-07-11T05:33:17.000Z</time>
</trkpt>
<trkpt lat="31.9505520" lon="34.9440530">
<ele>120.000000</ele>
<time>2017-07-11T05:33:19.000Z</time>
</trkpt>
<trkpt lat="31.9505620" lon="34.9440060">
<ele>120.000000</ele>
<time>2017-07-11T05:33:21.000Z</time>
</trkpt>
<trkpt lat="31.9505640" lon="34.9439490">
<ele>120.000000</ele>
<time>2017-07-11T05:33:23.000Z</time>
</trkpt>
<trkpt lat="31.9505660" lon="34.9438920">
<ele>120.000000</ele>
<time>2017-07-11T05:33:25.000Z</time>
</trkpt>
<trkpt lat="31.9505710" lon="34.9438350">
<ele>120.000000</ele>
<time>2017-07-11T05:33:27.000Z</time>
</trkpt>
<trkpt lat="31.9505730" lon="34.9437750">
<ele>120.000000</ele>
<time>2017-07-11T05:33:29.000Z</time>
</trkpt>
<trkpt lat="31.9505690" lon="34.9437150">
<ele>120.000000</ele>
<time>2017-07-11T05:33:31.000Z</time>
</trkpt>
<trkpt lat="31.9505580" lon="34.9436620">
<ele>119.599998</ele>
<time>2017-07-11T05:33:33.000Z</time>
</trkpt>
<trkpt lat="31.9505510" lon="34.9436280">
<ele>119.399994</ele>
<time>2017-07-11T05:33:35.000Z</time>
</trkpt>
<trkpt lat="31.9505150" lon="34.9435960">
<ele>119.199997</ele>
<time>2017-07-11T05:33:38.000Z</time>
</trkpt>
<trkpt lat="31.9504660" lon="34.9435840">
<ele>119.000000</ele>
<time>2017-07-11T05:33:40.000Z</time>
</trkpt>
<trkpt lat="31.9504150" lon="34.9435790">
<ele>118.900002</ele>
<time>2017-07-11T05:33:42.000Z</time>
</trkpt>
<trkpt lat="31.9503590" lon="34.9435810">
<ele>118.700005</ele>
<time>2017-07-11T05:33:44.000Z</time>
</trkpt>
<trkpt lat="31.9503280" lon="34.9435850">
<ele>118.599998</ele>
<time>2017-07-11T05:33:45.000Z</time>
</trkpt>
<trkpt lat="31.9502960" lon="34.9435820">
<ele>118.500008</ele>
<time>2017-07-11T05:33:46.000Z</time>
</trkpt>
<trkpt lat="31.9502610" lon="34.9435780">
<ele>118.299995</ele>
<time>2017-07-11T05:33:47.000Z</time>
</trkpt>
<trkpt lat="31.9502250" lon="34.9435790">
<ele>118.000000</ele>
<time>2017-07-11T05:33:48.000Z</time>
</trkpt>
<trkpt lat="31.9501870" lon="34.9435780">
<ele>117.900002</ele>
<time>2017-07-11T05:33:49.000Z</time>
</trkpt>
<trkpt lat="31.9501460" lon="34.9435760">
<ele>117.699997</ele>
<time>2017-07-11T05:33:50.000Z</time>
</trkpt>
<trkpt lat="31.9501090" lon="34.9435740">
<ele>117.600006</ele>
<time>2017-07-11T05:33:51.000Z</time>
</trkpt>
<trkpt lat="31.9500750" lon="34.9435640">
<ele>117.500000</ele>
<time>2017-07-11T05:33:52.000Z</time>
</trkpt>
<trkpt lat="31.9500380" lon="34.9435530">
<ele>117.300003</ele>
<time>2017-07-11T05:33:53.000Z</time>
</trkpt>
<trkpt lat="31.9499980" lon="34.9435390">
<ele>117.000000</ele>
<time>2017-07-11T05:33:54.000Z</time>
</trkpt>
<trkpt lat="31.9499530" lon="34.9435200">
<ele>116.499992</ele>
<time>2017-07-11T05:33:55.000Z</time>
</trkpt>
<trkpt lat="31.9499110" lon="34.9435010">
<ele>116.099998</ele>
<time>2017-07-11T05:33:56.000Z</time>
</trkpt>
<trkpt lat="31.9498680" lon="34.9434810">
<ele>115.800003</ele>
<time>2017-07-11T05:33:57.000Z</time>
</trkpt>
<trkpt lat="31.9498260" lon="34.9434540">
<ele>115.500000</ele>
<time>2017-07-11T05:33:58.000Z</time>
</trkpt>
<trkpt lat="31.9497830" lon="34.9434240">
<ele>115.099998</ele>
<time>2017-07-11T05:33:59.000Z</time>
</trkpt>
<trkpt lat="31.9497410" lon="34.9433910">
<ele>115.400002</ele>
<time>2017-07-11T05:34:00.000Z</time>
</trkpt>
<trkpt lat="31.9496990" lon="34.9433550">
<ele>115.699997</ele>
<time>2017-07-11T05:34:01.000Z</time>
</trkpt>
<trkpt lat="31.9496570" lon="34.9433170">
<ele>116.099998</ele>
<time>2017-07-11T05:34:02.000Z</time>
</trkpt>
<trkpt lat="31.9496200" lon="34.9432800">
<ele>116.400002</ele>
<time>2017-07-11T05:34:03.000Z</time>
</trkpt>
<trkpt lat="31.9495830" lon="34.9432470">
<ele>116.499992</ele>
<time>2017-07-11T05:34:04.000Z</time>
</trkpt>
<trkpt lat="31.9495440" lon="34.9432180">
<ele>116.599998</ele>
<time>2017-07-11T05:34:05.000Z</time>
</trkpt>
<trkpt lat="31.9495090" lon="34.9431950">
<ele>116.700005</ele>
<time>2017-07-11T05:34:06.000Z</time>
</trkpt>
<trkpt lat="31.9494740" lon="34.9431760">
<ele>116.900002</ele>
<time>2017-07-11T05:34:07.000Z</time>
</trkpt>
<trkpt lat="31.9494370" lon="34.9431530">
<ele>117.000000</ele>
<time>2017-07-11T05:34:08.000Z</time>
</trkpt>
<trkpt lat="31.9494020" lon="34.9431410">
<ele>117.099998</ele>
<time>2017-07-11T05:34:09.000Z</time>
</trkpt>
<trkpt lat="31.9493770" lon="34.9431230">
<ele>117.199997</ele>
<time>2017-07-11T05:34:10.000Z</time>
</trkpt>
<trkpt lat="31.9493530" lon="34.9431070">
<ele>117.199997</ele>
<time>2017-07-11T05:34:11.000Z</time>
</trkpt>
<trkpt lat="31.9493290" lon="34.9430900">
<ele>117.300003</ele>
<time>2017-07-11T05:34:12.000Z</time>
</trkpt>
<trkpt lat="31.9493070" lon="34.9430700">
<ele>117.500000</ele>
<time>2017-07-11T05:34:13.000Z</time>
</trkpt>
<trkpt lat="31.9492830" lon="34.9430510">
<ele>117.600006</ele>
<time>2017-07-11T05:34:14.000Z</time>
</trkpt>
<trkpt lat="31.9492450" lon="34.9430080">
<ele>117.699997</ele>
<time>2017-07-11T05:34:16.000Z</time>
</trkpt>
<trkpt lat="31.9492250" lon="34.9429830">
<ele>117.800003</ele>
<time>2017-07-11T05:34:17.000Z</time>
</trkpt>
<trkpt lat="31.9491920" lon="34.9429390">
<ele>117.900002</ele>
<time>2017-07-11T05:34:19.000Z</time>
</trkpt>
<trkpt lat="31.9491590" lon="34.9428940">
<ele>118.000000</ele>
<time>2017-07-11T05:34:21.000Z</time>
</trkpt>
<trkpt lat="31.9491300" lon="34.9428510">
<ele>118.099998</ele>
<time>2017-07-11T05:34:23.000Z</time>
</trkpt>
<trkpt lat="31.9491080" lon="34.9428070">
<ele>118.200005</ele>
<time>2017-07-11T05:34:25.000Z</time>
</trkpt>
<trkpt lat="31.9490830" lon="34.9427660">
<ele>118.299995</ele>
<time>2017-07-11T05:34:27.000Z</time>
</trkpt>
<trkpt lat="31.9490520" lon="34.9427160">
<ele>118.400002</ele>
<time>2017-07-11T05:34:29.000Z</time>
</trkpt>
<trkpt lat="31.9490220" lon="34.9426620">
<ele>118.500008</ele>
<time>2017-07-11T05:34:31.000Z</time>
</trkpt>
<trkpt lat="31.9490070" lon="34.9426350">
<ele>118.500008</ele>
<time>2017-07-11T05:34:32.000Z</time>
</trkpt>
<trkpt lat="31.9489930" lon="34.9426060">
<ele>118.500008</ele>
<time>2017-07-11T05:34:33.000Z</time>
</trkpt>
<trkpt lat="31.9489800" lon="34.9425780">
<ele>118.599998</ele>
<time>2017-07-11T05:34:34.000Z</time>
</trkpt>
<trkpt lat="31.9489450" lon="34.9425230">
<ele>118.700005</ele>
<time>2017-07-11T05:34:36.000Z</time>
</trkpt>
<trkpt lat="31.9489230" lon="34.9424910">
<ele>118.700005</ele>
<time>2017-07-11T05:34:37.000Z</time>
</trkpt>
<trkpt lat="31.9489030" lon="34.9424590">
<ele>118.800003</ele>
<time>2017-07-11T05:34:38.000Z</time>
</trkpt>
<trkpt lat="31.9488780" lon="34.9424070">
<ele>118.900002</ele>
<time>2017-07-11T05:34:39.000Z</time>
</trkpt>
<trkpt lat="31.9488530" lon="34.9423490">
<ele>119.000000</ele>
<time>2017-07-11T05:34:40.000Z</time>
</trkpt>
<trkpt lat="31.9488340" lon="34.9422910">
<ele>119.000000</ele>
<time>2017-07-11T05:34:41.000Z</time>
</trkpt>
<trkpt lat="31.9488140" lon="34.9422510">
<ele>119.000000</ele>
<time>2017-07-11T05:34:42.000Z</time>
</trkpt>
<trkpt lat="31.9487920" lon="34.9421990">
<ele>119.099998</ele>
<time>2017-07-11T05:34:43.000Z</time>
</trkpt>
<trkpt lat="31.9487700" lon="34.9421490">
<ele>119.099998</ele>
<time>2017-07-11T05:34:44.000Z</time>
</trkpt>
<trkpt lat="31.9487520" lon="34.9421090">
<ele>119.199997</ele>
<time>2017-07-11T05:34:45.000Z</time>
</trkpt>
<trkpt lat="31.9487320" lon="34.9420700">
<ele>119.199997</ele>
<time>2017-07-11T05:34:46.000Z</time>
</trkpt>
<trkpt lat="31.9487150" lon="34.9420290">
<ele>119.199997</ele>
<time>2017-07-11T05:34:47.000Z</time>
</trkpt>
<trkpt lat="31.9487010" lon="34.9419930">
<ele>119.199997</ele>
<time>2017-07-11T05:34:48.000Z</time>
</trkpt>
<trkpt lat="31.9486880" lon="34.9419620">
<ele>119.300003</ele>
<time>2017-07-11T05:34:49.000Z</time>
</trkpt>
<trkpt lat="31.9486750" lon="34.9419290">
<ele>119.300003</ele>
<time>2017-07-11T05:34:50.000Z</time>
</trkpt>
<trkpt lat="31.9486620" lon="34.9418950">
<ele>119.300003</ele>
<time>2017-07-11T05:34:51.000Z</time>
</trkpt>
<trkpt lat="31.9486450" lon="34.9418500">
<ele>119.300003</ele>
<time>2017-07-11T05:34:52.000Z</time>
</trkpt>
<trkpt lat="31.9486320" lon="34.9418140">
<ele>119.399994</ele>
<time>2017-07-11T05:34:53.000Z</time>
</trkpt>
<trkpt lat="31.9486150" lon="34.9417660">
<ele>119.399994</ele>
<time>2017-07-11T05:34:54.000Z</time>
</trkpt>
<trkpt lat="31.9486000" lon="34.9417180">
<ele>119.399994</ele>
<time>2017-07-11T05:34:55.000Z</time>
</trkpt>
<trkpt lat="31.9485860" lon="34.9416730">
<ele>119.500000</ele>
<time>2017-07-11T05:34:56.000Z</time>
</trkpt>
<trkpt lat="31.9485710" lon="34.9416290">
<ele>119.500000</ele>
<time>2017-07-11T05:34:57.000Z</time>
</trkpt>
<trkpt lat="31.9485650" lon="34.9415930">
<ele>119.500000</ele>
<time>2017-07-11T05:34:58.000Z</time>
</trkpt>
<trkpt lat="31.9485530" lon="34.9415430">
<ele>119.599998</ele>
<time>2017-07-11T05:34:59.000Z</time>
</trkpt>
<trkpt lat="31.9485440" lon="34.9415010">
<ele>119.599998</ele>
<time>2017-07-11T05:35:00.000Z</time>
</trkpt>
<trkpt lat="31.9485350" lon="34.9414490">
<ele>119.699997</ele>
<time>2017-07-11T05:35:01.000Z</time>
</trkpt>
<trkpt lat="31.9485290" lon="34.9413960">
<ele>119.699997</ele>
<time>2017-07-11T05:35:02.000Z</time>
</trkpt>
<trkpt lat="31.9485280" lon="34.9413360">
<ele>119.799995</ele>
<time>2017-07-11T05:35:03.000Z</time>
</trkpt>
<trkpt lat="31.9485330" lon="34.9412780">
<ele>119.900002</ele>
<time>2017-07-11T05:35:04.000Z</time>
</trkpt>
<trkpt lat="31.9485360" lon="34.9412340">
<ele>119.900002</ele>
<time>2017-07-11T05:35:05.000Z</time>
</trkpt>
<trkpt lat="31.9485390" lon="34.9411780">
<ele>120.000000</ele>
<time>2017-07-11T05:35:06.000Z</time>
</trkpt>
<trkpt lat="31.9485390" lon="34.9411360">
<ele>120.000000</ele>
<time>2017-07-11T05:35:07.000Z</time>
</trkpt>
<trkpt lat="31.9485380" lon="34.9410750">
<ele>120.200005</ele>
<time>2017-07-11T05:35:08.000Z</time>
</trkpt>
<trkpt lat="31.9485400" lon="34.9410290">
<ele>120.400002</ele>
<time>2017-07-11T05:35:09.000Z</time>
</trkpt>
<trkpt lat="31.9485420" lon="34.9409630">
<ele>120.699997</ele>
<time>2017-07-11T05:35:10.000Z</time>
</trkpt>
<trkpt lat="31.9485400" lon="34.9409120">
<ele>121.100006</ele>
<time>2017-07-11T05:35:11.000Z</time>
</trkpt>
<trkpt lat="31.9485420" lon="34.9408560">
<ele>121.400002</ele>
<time>2017-07-11T05:35:12.000Z</time>
</trkpt>
<trkpt lat="31.9485550" lon="34.9408010">
<ele>121.799995</ele>
<time>2017-07-11T05:35:13.000Z</time>
</trkpt>
<trkpt lat="31.9485690" lon="34.9407360">
<ele>122.400002</ele>
<time>2017-07-11T05:35:14.000Z</time>
</trkpt>
<trkpt lat="31.9485830" lon="34.9406730">
<ele>123.000000</ele>
<time>2017-07-11T05:35:15.000Z</time>
</trkpt>
<trkpt lat="31.9486010" lon="34.9406110">
<ele>123.000000</ele>
<time>2017-07-11T05:35:16.000Z</time>
</trkpt>
<trkpt lat="31.9486210" lon="34.9405490">
<ele>123.000000</ele>
<time>2017-07-11T05:35:17.000Z</time>
</trkpt>
<trkpt lat="31.9486400" lon="34.9404960">
<ele>123.000000</ele>
<time>2017-07-11T05:35:18.000Z</time>
</trkpt>
<trkpt lat="31.9486580" lon="34.9404530">
<ele>123.000000</ele>
<time>2017-07-11T05:35:19.000Z</time>
</trkpt>
<trkpt lat="31.9486730" lon="34.9404100">
<ele>123.000000</ele>
<time>2017-07-11T05:35:20.000Z</time>
</trkpt>
<trkpt lat="31.9486910" lon="34.9403650">
<ele>123.000000</ele>
<time>2017-07-11T05:35:21.000Z</time>
</trkpt>
<trkpt lat="31.9487070" lon="34.9403180">
<ele>123.000000</ele>
<time>2017-07-11T05:35:22.000Z</time>
</trkpt>
<trkpt lat="31.9487210" lon="34.9402710">
<ele>123.000000</ele>
<time>2017-07-11T05:35:23.000Z</time>
</trkpt>
<trkpt lat="31.9487320" lon="34.9402300">
<ele>123.000000</ele>
<time>2017-07-11T05:35:24.000Z</time>
</trkpt>
<trkpt lat="31.9487460" lon="34.9401780">
<ele>123.000000</ele>
<time>2017-07-11T05:35:25.000Z</time>
</trkpt>
<trkpt lat="31.9487610" lon="34.9401170">
<ele>123.000000</ele>
<time>2017-07-11T05:35:26.000Z</time>
</trkpt>
<trkpt lat="31.9487760" lon="34.9400560">
<ele>123.000000</ele>
<time>2017-07-11T05:35:27.000Z</time>
</trkpt>
<trkpt lat="31.9487930" lon="34.9399880">
<ele>123.100006</ele>
<time>2017-07-11T05:35:28.000Z</time>
</trkpt>
<trkpt lat="31.9488070" lon="34.9399280">
<ele>123.599998</ele>
<time>2017-07-11T05:35:29.000Z</time>
</trkpt>
<trkpt lat="31.9488190" lon="34.9398710">
<ele>124.099998</ele>
<time>2017-07-11T05:35:30.000Z</time>
</trkpt>
<trkpt lat="31.9488350" lon="34.9397970">
<ele>124.600006</ele>
<time>2017-07-11T05:35:31.000Z</time>
</trkpt>
<trkpt lat="31.9488520" lon="34.9397200">
<ele>125.299995</ele>
<time>2017-07-11T05:35:32.000Z</time>
</trkpt>
<trkpt lat="31.9488720" lon="34.9396240">
<ele>126.600006</ele>
<time>2017-07-11T05:35:33.000Z</time>
</trkpt>
<trkpt lat="31.9488910" lon="34.9395540">
<ele>127.699997</ele>
<time>2017-07-11T05:35:34.000Z</time>
</trkpt>
<trkpt lat="31.9489070" lon="34.9394930">
<ele>128.600006</ele>
<time>2017-07-11T05:35:35.000Z</time>
</trkpt>
<trkpt lat="31.9489260" lon="34.9394350">
<ele>129.399994</ele>
<time>2017-07-11T05:35:36.000Z</time>
</trkpt>
<trkpt lat="31.9489420" lon="34.9393830">
<ele>129.800003</ele>
<time>2017-07-11T05:35:37.000Z</time>
</trkpt>
<trkpt lat="31.9489570" lon="34.9393350">
<ele>130.100006</ele>
<time>2017-07-11T05:35:38.000Z</time>
</trkpt>
<trkpt lat="31.9489760" lon="34.9392760">
<ele>130.600006</ele>
<time>2017-07-11T05:35:39.000Z</time>
</trkpt>
<trkpt lat="31.9489900" lon="34.9392230">
<ele>131.000000</ele>
<time>2017-07-11T05:35:40.000Z</time>
</trkpt>
<trkpt lat="31.9490010" lon="34.9391650">
<ele>130.899994</ele>
<time>2017-07-11T05:35:41.000Z</time>
</trkpt>
<trkpt lat="31.9490130" lon="34.9390740">
<ele>130.500000</ele>
<time>2017-07-11T05:35:42.000Z</time>
</trkpt>
<trkpt lat="31.9490260" lon="34.9390180">
<ele>130.400009</ele>
<time>2017-07-11T05:35:43.000Z</time>
</trkpt>
<trkpt lat="31.9490320" lon="34.9389440">
<ele>130.100006</ele>
<time>2017-07-11T05:35:44.000Z</time>
</trkpt>
<trkpt lat="31.9490410" lon="34.9388760">
<ele>129.899994</ele>
<time>2017-07-11T05:35:45.000Z</time>
</trkpt>
<trkpt lat="31.9490500" lon="34.9388200">
<ele>129.699997</ele>
<time>2017-07-11T05:35:46.000Z</time>
</trkpt>
<trkpt lat="31.9490510" lon="34.9387570">
<ele>129.399994</ele>
<time>2017-07-11T05:35:47.000Z</time>
</trkpt>
<trkpt lat="31.9490450" lon="34.9387080">
<ele>129.300003</ele>
<time>2017-07-11T05:35:48.000Z</time>
</trkpt>
<trkpt lat="31.9490380" lon="34.9386750">
<ele>129.100006</ele>
<time>2017-07-11T05:35:49.000Z</time>
</trkpt>
<trkpt lat="31.9490190" lon="34.9386280">
<ele>129.000000</ele>
<time>2017-07-11T05:35:51.000Z</time>
</trkpt>
<trkpt lat="31.9489950" lon="34.9386010">
<ele>129.000000</ele>
<time>2017-07-11T05:35:53.000Z</time>
</trkpt>
<trkpt lat="31.9489550" lon="34.9385600">
<ele>128.699997</ele>
<time>2017-07-11T05:35:55.000Z</time>
</trkpt>
<trkpt lat="31.9489310" lon="34.9385340">
<ele>127.800003</ele>
<time>2017-07-11T05:35:56.000Z</time>
</trkpt>
<trkpt lat="31.9488990" lon="34.9385020">
<ele>126.699997</ele>
<time>2017-07-11T05:35:57.000Z</time>
</trkpt>
<trkpt lat="31.9488720" lon="34.9384760">
<ele>125.799995</ele>
<time>2017-07-11T05:35:58.000Z</time>
</trkpt>
<trkpt lat="31.9488170" lon="34.9384160">
<ele>123.799995</ele>
<time>2017-07-11T05:36:00.000Z</time>
</trkpt>
<trkpt lat="31.9487880" lon="34.9383860">
<ele>122.699997</ele>
<time>2017-07-11T05:36:01.000Z</time>
</trkpt>
<trkpt lat="31.9487610" lon="34.9383610">
<ele>121.799995</ele>
<time>2017-07-11T05:36:02.000Z</time>
</trkpt>
<trkpt lat="31.9487300" lon="34.9383410">
<ele>120.899994</ele>
<time>2017-07-11T05:36:03.000Z</time>
</trkpt>
<trkpt lat="31.9486980" lon="34.9383210">
<ele>119.900002</ele>
<time>2017-07-11T05:36:04.000Z</time>
</trkpt>
<trkpt lat="31.9486680" lon="34.9382990">
<ele>119.000000</ele>
<time>2017-07-11T05:36:05.000Z</time>
</trkpt>
<trkpt lat="31.9486410" lon="34.9382740">
<ele>119.000000</ele>
<time>2017-07-11T05:36:06.000Z</time>
</trkpt>
<trkpt lat="31.9486000" lon="34.9382390">
<ele>119.099998</ele>
<time>2017-07-11T05:36:08.000Z</time>
</trkpt>
<trkpt lat="31.9485760" lon="34.9382220">
<ele>119.099998</ele>
<time>2017-07-11T05:36:09.000Z</time>
</trkpt>
<trkpt lat="31.9485440" lon="34.9381940">
<ele>119.199997</ele>
<time>2017-07-11T05:36:10.000Z</time>
</trkpt>
<trkpt lat="31.9485090" lon="34.9381620">
<ele>119.300003</ele>
<time>2017-07-11T05:36:11.000Z</time>
</trkpt>
<trkpt lat="31.9484730" lon="34.9381330">
<ele>119.399994</ele>
<time>2017-07-11T05:36:12.000Z</time>
</trkpt>
<trkpt lat="31.9484380" lon="34.9381080">
<ele>119.399994</ele>
<time>2017-07-11T05:36:13.000Z</time>
</trkpt>
<trkpt lat="31.9484020" lon="34.9380830">
<ele>119.500000</ele>
<time>2017-07-11T05:36:14.000Z</time>
</trkpt>
<trkpt lat="31.9483620" lon="34.9380430">
<ele>119.500000</ele>
<time>2017-07-11T05:36:16.000Z</time>
</trkpt>
<trkpt lat="31.9483140" lon="34.9380170">
<ele>119.599998</ele>
<time>2017-07-11T05:36:18.000Z</time>
</trkpt>
<trkpt lat="31.9482790" lon="34.9380120">
<ele>119.699997</ele>
<time>2017-07-11T05:36:19.000Z</time>
</trkpt>
<trkpt lat="31.9482400" lon="34.9379950">
<ele>119.799995</ele>
<time>2017-07-11T05:36:20.000Z</time>
</trkpt>
<trkpt lat="31.9481960" lon="34.9379680">
<ele>119.900002</ele>
<time>2017-07-11T05:36:21.000Z</time>
</trkpt>
<trkpt lat="31.9481560" lon="34.9379370">
<ele>120.000000</ele>
<time>2017-07-11T05:36:22.000Z</time>
</trkpt>
<trkpt lat="31.9481000" lon="34.9379030">
<ele>120.099998</ele>
<time>2017-07-11T05:36:23.000Z</time>
</trkpt>
<trkpt lat="31.9480500" lon="34.9378800">
<ele>120.200005</ele>
<time>2017-07-11T05:36:24.000Z</time>
</trkpt>
<trkpt lat="31.9480140" lon="34.9378750">
<ele>120.200005</ele>
<time>2017-07-11T05:36:25.000Z</time>
</trkpt>
<trkpt lat="31.9479680" lon="34.9378720">
<ele>120.299995</ele>
<time>2017-07-11T05:36:26.000Z</time>
</trkpt>
<trkpt lat="31.9479300" lon="34.9378600">
<ele>120.400002</ele>
<time>2017-07-11T05:36:27.000Z</time>
</trkpt>
<trkpt lat="31.9479060" lon="34.9378440">
<ele>120.400002</ele>
<time>2017-07-11T05:36:28.000Z</time>
</trkpt>
<trkpt lat="31.9478810" lon="34.9378240">
<ele>120.500000</ele>
<time>2017-07-11T05:36:29.000Z</time>
</trkpt>
<trkpt lat="31.9478420" lon="34.9377950">
<ele>120.500000</ele>
<time>2017-07-11T05:36:30.000Z</time>
</trkpt>
<trkpt lat="31.9477840" lon="34.9377690">
<ele>120.599998</ele>
<time>2017-07-11T05:36:31.000Z</time>
</trkpt>
<trkpt lat="31.9477320" lon="34.9377670">
<ele>120.699997</ele>
<time>2017-07-11T05:36:32.000Z</time>
</trkpt>
<trkpt lat="31.9476740" lon="34.9377740">
<ele>120.800003</ele>
<time>2017-07-11T05:36:33.000Z</time>
</trkpt>
<trkpt lat="31.9476320" lon="34.9377850">
<ele>120.899994</ele>
<time>2017-07-11T05:36:34.000Z</time>
</trkpt>
<trkpt lat="31.9475930" lon="34.9377680">
<ele>120.899994</ele>
<time>2017-07-11T05:36:35.000Z</time>
</trkpt>
<trkpt lat="31.9475610" lon="34.9377510">
<ele>120.899994</ele>
<time>2017-07-11T05:36:36.000Z</time>
</trkpt>
<trkpt lat="31.9475190" lon="34.9377260">
<ele>120.899994</ele>
<time>2017-07-11T05:36:37.000Z</time>
</trkpt>
<trkpt lat="31.9474770" lon="34.9377210">
<ele>120.800003</ele>
<time>2017-07-11T05:36:38.000Z</time>
</trkpt>
<trkpt lat="31.9474330" lon="34.9377210">
<ele>120.800003</ele>
<time>2017-07-11T05:36:39.000Z</time>
</trkpt>
<trkpt lat="31.9473990" lon="34.9377170">
<ele>120.699997</ele>
<time>2017-07-11T05:36:40.000Z</time>
</trkpt>
<trkpt lat="31.9473590" lon="34.9376910">
<ele>120.500000</ele>
<time>2017-07-11T05:36:41.000Z</time>
</trkpt>
<trkpt lat="31.9473210" lon="34.9376820">
<ele>120.400002</ele>
<time>2017-07-11T05:36:42.000Z</time>
</trkpt>
<trkpt lat="31.9472940" lon="34.9376850">
<ele>120.299995</ele>
<time>2017-07-11T05:36:43.000Z</time>
</trkpt>
<trkpt lat="31.9472690" lon="34.9377060">
<ele>120.299995</ele>
<time>2017-07-11T05:36:44.000Z</time>
</trkpt>
<trkpt lat="31.9472470" lon="34.9377250">
<ele>120.200005</ele>
<time>2017-07-11T05:36:45.000Z</time>
</trkpt>
<trkpt lat="31.9471910" lon="34.9377530">
<ele>120.200005</ele>
<time>2017-07-11T05:36:47.000Z</time>
</trkpt>
<trkpt lat="31.9471520" lon="34.9377700">
<ele>120.200005</ele>
<time>2017-07-11T05:36:49.000Z</time>
</trkpt>
<trkpt lat="31.9471160" lon="34.9377950">
<ele>120.299995</ele>
<time>2017-07-11T05:36:51.000Z</time>
</trkpt>
<trkpt lat="31.9470750" lon="34.9378200">
<ele>120.299995</ele>
<time>2017-07-11T05:36:53.000Z</time>
</trkpt>
<trkpt lat="31.9470540" lon="34.9378440">
<ele>120.400002</ele>
<time>2017-07-11T05:36:54.000Z</time>
</trkpt>
<trkpt lat="31.9470290" lon="34.9378810">
<ele>120.400002</ele>
<time>2017-07-11T05:36:56.000Z</time>
</trkpt>
<trkpt lat="31.9470060" lon="34.9379050">
<ele>120.500000</ele>
<time>2017-07-11T05:36:57.000Z</time>
</trkpt>
<trkpt lat="31.9469730" lon="34.9379530">
<ele>120.500000</ele>
<time>2017-07-11T05:36:59.000Z</time>
</trkpt>
<trkpt lat="31.9469430" lon="34.9380030">
<ele>120.599998</ele>
<time>2017-07-11T05:37:01.000Z</time>
</trkpt>
<trkpt lat="31.9469370" lon="34.9380430">
<ele>120.699997</ele>
<time>2017-07-11T05:37:03.000Z</time>
</trkpt>
<trkpt lat="31.9469150" lon="34.9380960">
<ele>120.699997</ele>
<time>2017-07-11T05:37:05.000Z</time>
</trkpt>
<trkpt lat="31.9469030" lon="34.9381400">
<ele>120.800003</ele>
<time>2017-07-11T05:37:06.000Z</time>
</trkpt>
<trkpt lat="31.9468990" lon="34.9382000">
<ele>120.800003</ele>
<time>2017-07-11T05:37:07.000Z</time>
</trkpt>
<trkpt lat="31.9468780" lon="34.9382350">
<ele>120.899994</ele>
<time>2017-07-11T05:37:09.000Z</time>
</trkpt>
<trkpt lat="31.9468620" lon="34.9383080">
<ele>121.000000</ele>
<time>2017-07-11T05:37:11.000Z</time>
</trkpt>
<trkpt lat="31.9468150" lon="34.9383860">
<ele>121.100006</ele>
<time>2017-07-11T05:37:12.000Z</time>
</trkpt>
<trkpt lat="31.9468010" lon="34.9384250">
<ele>121.100006</ele>
<time>2017-07-11T05:37:13.000Z</time>
</trkpt>
<trkpt lat="31.9467530" lon="34.9384730">
<ele>121.199997</ele>
<time>2017-07-11T05:37:14.000Z</time>
</trkpt>
<trkpt lat="31.9466950" lon="34.9385390">
<ele>121.400002</ele>
<time>2017-07-11T05:37:15.000Z</time>
</trkpt>
<trkpt lat="31.9466620" lon="34.9385720">
<ele>121.500000</ele>
<time>2017-07-11T05:37:16.000Z</time>
</trkpt>
<trkpt lat="31.9466190" lon="34.9386220">
<ele>121.599998</ele>
<time>2017-07-11T05:37:17.000Z</time>
</trkpt>
<trkpt lat="31.9465870" lon="34.9386460">
<ele>121.599998</ele>
<time>2017-07-11T05:37:18.000Z</time>
</trkpt>
<trkpt lat="31.9465490" lon="34.9386600">
<ele>121.700005</ele>
<time>2017-07-11T05:37:19.000Z</time>
</trkpt>
<trkpt lat="31.9465190" lon="34.9386680">
<ele>121.700005</ele>
<time>2017-07-11T05:37:20.000Z</time>
</trkpt>
<trkpt lat="31.9464750" lon="34.9386840">
<ele>121.799995</ele>
<time>2017-07-11T05:37:22.000Z</time>
</trkpt>
<trkpt lat="31.9464350" lon="34.9386780">
<ele>121.900002</ele>
<time>2017-07-11T05:37:23.000Z</time>
</trkpt>
<trkpt lat="31.9464020" lon="34.9386840">
<ele>122.000008</ele>
<time>2017-07-11T05:37:24.000Z</time>
</trkpt>
<trkpt lat="31.9463760" lon="34.9386730">
<ele>122.000008</ele>
<time>2017-07-11T05:37:25.000Z</time>
</trkpt>
<trkpt lat="31.9463360" lon="34.9386640">
<ele>122.099998</ele>
<time>2017-07-11T05:37:26.000Z</time>
</trkpt>
<trkpt lat="31.9462870" lon="34.9386560">
<ele>122.200005</ele>
<time>2017-07-11T05:37:27.000Z</time>
</trkpt>
<trkpt lat="31.9462570" lon="34.9386630">
<ele>122.200005</ele>
<time>2017-07-11T05:37:28.000Z</time>
</trkpt>
<trkpt lat="31.9462160" lon="34.9386250">
<ele>122.200005</ele>
<time>2017-07-11T05:37:30.000Z</time>
</trkpt>
<trkpt lat="31.9462000" lon="34.9385960">
<ele>122.299995</ele>
<time>2017-07-11T05:37:31.000Z</time>
</trkpt>
<trkpt lat="31.9461600" lon="34.9385770">
<ele>122.299995</ele>
<time>2017-07-11T05:37:32.000Z</time>
</trkpt>
<trkpt lat="31.9461060" lon="34.9385640">
<ele>122.400002</ele>
<time>2017-07-11T05:37:33.000Z</time>
</trkpt>
<trkpt lat="31.9460630" lon="34.9385530">
<ele>122.400002</ele>
<time>2017-07-11T05:37:34.000Z</time>
</trkpt>
<trkpt lat="31.9460270" lon="34.9385480">
<ele>122.400002</ele>
<time>2017-07-11T05:37:35.000Z</time>
</trkpt>
<trkpt lat="31.9459940" lon="34.9385390">
<ele>122.400002</ele>
<time>2017-07-11T05:37:36.000Z</time>
</trkpt>
<trkpt lat="31.9459530" lon="34.9385210">
<ele>122.400002</ele>
<time>2017-07-11T05:37:38.000Z</time>
</trkpt>
<trkpt lat="31.9459130" lon="34.9385110">
<ele>122.400002</ele>
<time>2017-07-11T05:37:39.000Z</time>
</trkpt>
<trkpt lat="31.9458880" lon="34.9384940">
<ele>122.400002</ele>
<time>2017-07-11T05:37:40.000Z</time>
</trkpt>
<trkpt lat="31.9458640" lon="34.9384550">
<ele>122.400002</ele>
<time>2017-07-11T05:37:41.000Z</time>
</trkpt>
<trkpt lat="31.9458310" lon="34.9384030">
<ele>122.299995</ele>
<time>2017-07-11T05:37:42.000Z</time>
</trkpt>
<trkpt lat="31.9457910" lon="34.9383460">
<ele>122.200005</ele>
<time>2017-07-11T05:37:43.000Z</time>
</trkpt>
<trkpt lat="31.9457090" lon="34.9382910">
<ele>121.900002</ele>
<time>2017-07-11T05:37:45.000Z</time>
</trkpt>
<trkpt lat="31.9456540" lon="34.9382470">
<ele>121.900002</ele>
<time>2017-07-11T05:37:46.000Z</time>
</trkpt>
<trkpt lat="31.9456030" lon="34.9381920">
<ele>121.799995</ele>
<time>2017-07-11T05:37:47.000Z</time>
</trkpt>
<trkpt lat="31.9455660" lon="34.9381460">
<ele>121.799995</ele>
<time>2017-07-11T05:37:49.000Z</time>
</trkpt>
<trkpt lat="31.9455310" lon="34.9381090">
<ele>121.799995</ele>
<time>2017-07-11T05:37:50.000Z</time>
</trkpt>
<trkpt lat="31.9454730" lon="34.9380760">
<ele>121.700005</ele>
<time>2017-07-11T05:37:51.000Z</time>
</trkpt>
<trkpt lat="31.9454340" lon="34.9380570">
<ele>121.700005</ele>
<time>2017-07-11T05:37:52.000Z</time>
</trkpt>
<trkpt lat="31.9453920" lon="34.9380360">
<ele>121.700005</ele>
<time>2017-07-11T05:37:53.000Z</time>
</trkpt>
<trkpt lat="31.9453550" lon="34.9380010">
<ele>121.599998</ele>
<time>2017-07-11T05:37:54.000Z</time>
</trkpt>
<trkpt lat="31.9452970" lon="34.9379670">
<ele>121.599998</ele>
<time>2017-07-11T05:37:56.000Z</time>
</trkpt>
<trkpt lat="31.9452200" lon="34.9379390">
<ele>121.500000</ele>
<time>2017-07-11T05:37:57.000Z</time>
</trkpt>
<trkpt lat="31.9451720" lon="34.9379340">
<ele>121.300003</ele>
<time>2017-07-11T05:37:58.000Z</time>
</trkpt>
<trkpt lat="31.9451280" lon="34.9379260">
<ele>121.300003</ele>
<time>2017-07-11T05:37:59.000Z</time>
</trkpt>
<trkpt lat="31.9450830" lon="34.9379150">
<ele>121.199997</ele>
<time>2017-07-11T05:38:00.000Z</time>
</trkpt>
<trkpt lat="31.9450440" lon="34.9379160">
<ele>121.199997</ele>
<time>2017-07-11T05:38:01.000Z</time>
</trkpt>
<trkpt lat="31.9450050" lon="34.9379150">
<ele>121.199997</ele>
<time>2017-07-11T05:38:02.000Z</time>
</trkpt>
<trkpt lat="31.9449680" lon="34.9379220">
<ele>121.100006</ele>
<time>2017-07-11T05:38:03.000Z</time>
</trkpt>
<trkpt lat="31.9449270" lon="34.9379310">
<ele>121.100006</ele>
<time>2017-07-11T05:38:04.000Z</time>
</trkpt>
<trkpt lat="31.9448870" lon="34.9379350">
<ele>121.199997</ele>
<time>2017-07-11T05:38:05.000Z</time>
</trkpt>
<trkpt lat="31.9448570" lon="34.9379330">
<ele>121.199997</ele>
<time>2017-07-11T05:38:06.000Z</time>
</trkpt>
<trkpt lat="31.9448270" lon="34.9379250">
<ele>121.199997</ele>
<time>2017-07-11T05:38:07.000Z</time>
</trkpt>
<trkpt lat="31.9447970" lon="34.9379170">
<ele>121.199997</ele>
<time>2017-07-11T05:38:08.000Z</time>
</trkpt>
<trkpt lat="31.9447670" lon="34.9379110">
<ele>121.199997</ele>
<time>2017-07-11T05:38:09.000Z</time>
</trkpt>
<trkpt lat="31.9447320" lon="34.9379180">
<ele>121.300003</ele>
<time>2017-07-11T05:38:11.000Z</time>
</trkpt>
<trkpt lat="31.9447110" lon="34.9379460">
<ele>121.300003</ele>
<time>2017-07-11T05:38:13.000Z</time>
</trkpt>
<trkpt lat="31.9446850" lon="34.9379810">
<ele>121.300003</ele>
<time>2017-07-11T05:38:16.000Z</time>
</trkpt>
<trkpt lat="31.9446730" lon="34.9380170">
<ele>121.400002</ele>
<time>2017-07-11T05:38:19.000Z</time>
</trkpt>
<trkpt lat="31.9446680" lon="34.9380550">
<ele>121.500000</ele>
<time>2017-07-11T05:38:23.000Z</time>
</trkpt>
<trkpt lat="31.9446400" lon="34.9380670">
<ele>121.599998</ele>
<time>2017-07-11T05:38:25.000Z</time>
</trkpt>
<trkpt lat="31.9446050" lon="34.9381000">
<ele>121.700005</ele>
<time>2017-07-11T05:38:27.000Z</time>
</trkpt>
<trkpt lat="31.9445820" lon="34.9381170">
<ele>121.700005</ele>
<time>2017-07-11T05:38:28.000Z</time>
</trkpt>
<trkpt lat="31.9445580" lon="34.9381490">
<ele>121.799995</ele>
<time>2017-07-11T05:38:30.000Z</time>
</trkpt>
<trkpt lat="31.9445360" lon="34.9381900">
<ele>121.900002</ele>
<time>2017-07-11T05:38:32.000Z</time>
</trkpt>
<trkpt lat="31.9445190" lon="34.9382290">
<ele>122.000008</ele>
<time>2017-07-11T05:38:33.000Z</time>
</trkpt>
<trkpt lat="31.9445030" lon="34.9382690">
<ele>122.099998</ele>
<time>2017-07-11T05:38:35.000Z</time>
</trkpt>
<trkpt lat="31.9444740" lon="34.9383000">
<ele>122.200005</ele>
<time>2017-07-11T05:38:37.000Z</time>
</trkpt>
<trkpt lat="31.9444470" lon="34.9383270">
<ele>122.200005</ele>
<time>2017-07-11T05:38:38.000Z</time>
</trkpt>
<trkpt lat="31.9444150" lon="34.9383460">
<ele>122.299995</ele>
<time>2017-07-11T05:38:39.000Z</time>
</trkpt>
<trkpt lat="31.9443930" lon="34.9383830">
<ele>122.400002</ele>
<time>2017-07-11T05:38:40.000Z</time>
</trkpt>
<trkpt lat="31.9443660" lon="34.9384230">
<ele>122.500000</ele>
<time>2017-07-11T05:38:41.000Z</time>
</trkpt>
<trkpt lat="31.9443260" lon="34.9384630">
<ele>122.599998</ele>
<time>2017-07-11T05:38:42.000Z</time>
</trkpt>
<trkpt lat="31.9442840" lon="34.9384980">
<ele>122.599998</ele>
<time>2017-07-11T05:38:43.000Z</time>
</trkpt>
<trkpt lat="31.9442500" lon="34.9385150">
<ele>122.699997</ele>
<time>2017-07-11T05:38:44.000Z</time>
</trkpt>
<trkpt lat="31.9442410" lon="34.9385580">
<ele>122.800003</ele>
<time>2017-07-11T05:38:45.000Z</time>
</trkpt>
<trkpt lat="31.9442220" lon="34.9385940">
<ele>122.800003</ele>
<time>2017-07-11T05:38:47.000Z</time>
</trkpt>
<trkpt lat="31.9441960" lon="34.9386230">
<ele>122.899994</ele>
<time>2017-07-11T05:38:48.000Z</time>
</trkpt>
<trkpt lat="31.9441490" lon="34.9386370">
<ele>122.899994</ele>
<time>2017-07-11T05:38:50.000Z</time>
</trkpt>
<trkpt lat="31.9441180" lon="34.9386410">
<ele>123.000000</ele>
<time>2017-07-11T05:38:52.000Z</time>
</trkpt>
<trkpt lat="31.9441110" lon="34.9386090">
<ele>123.000000</ele>
<time>2017-07-11T05:39:44.000Z</time>
</trkpt>
<trkpt lat="31.9441460" lon="34.9386010">
<ele>122.699997</ele>
<time>2017-07-11T05:40:52.000Z</time>
</trkpt>
<trkpt lat="31.9441670" lon="34.9385390">
<ele>122.099998</ele>
<time>2017-07-11T05:40:54.000Z</time>
</trkpt>
<trkpt lat="31.9441930" lon="34.9384760">
<ele>121.500000</ele>
<time>2017-07-11T05:40:55.000Z</time>
</trkpt>
<trkpt lat="31.9442090" lon="34.9383950">
<ele>120.800003</ele>
<time>2017-07-11T05:40:56.000Z</time>
</trkpt>
<trkpt lat="31.9441930" lon="34.9383170">
<ele>120.200005</ele>
<time>2017-07-11T05:40:57.000Z</time>
</trkpt>
<trkpt lat="31.9441590" lon="34.9382340">
<ele>119.399994</ele>
<time>2017-07-11T05:40:58.000Z</time>
</trkpt>
<trkpt lat="31.9441190" lon="34.9381450">
<ele>119.000000</ele>
<time>2017-07-11T05:40:59.000Z</time>
</trkpt>
<trkpt lat="31.9440760" lon="34.9380630">
<ele>119.199997</ele>
<time>2017-07-11T05:41:00.000Z</time>
</trkpt>
<trkpt lat="31.9440410" lon="34.9379700">
<ele>118.900002</ele>
<time>2017-07-11T05:41:01.000Z</time>
</trkpt>
<trkpt lat="31.9440130" lon="34.9378770">
<ele>118.099998</ele>
<time>2017-07-11T05:41:02.000Z</time>
</trkpt>
<trkpt lat="31.9439800" lon="34.9377830">
<ele>118.200005</ele>
<time>2017-07-11T05:41:03.000Z</time>
</trkpt>
<trkpt lat="31.9439460" lon="34.9376890">
<ele>118.800003</ele>
<time>2017-07-11T05:41:04.000Z</time>
</trkpt>
<trkpt lat="31.9439100" lon="34.9375980">
<ele>118.500008</ele>
<time>2017-07-11T05:41:05.000Z</time>
</trkpt>
<trkpt lat="31.9438770" lon="34.9375080">
<ele>117.800003</ele>
<time>2017-07-11T05:41:06.000Z</time>
</trkpt>
<trkpt lat="31.9438440" lon="34.9374190">
<ele>117.099998</ele>
<time>2017-07-11T05:41:07.000Z</time>
</trkpt>
<trkpt lat="31.9437960" lon="34.9373460">
<ele>116.299995</ele>
<time>2017-07-11T05:41:08.000Z</time>
</trkpt>
<trkpt lat="31.9437450" lon="34.9372830">
<ele>115.500000</ele>
<time>2017-07-11T05:41:09.000Z</time>
</trkpt>
<trkpt lat="31.9437010" lon="34.9372200">
<ele>114.199997</ele>
<time>2017-07-11T05:41:10.000Z</time>
</trkpt>
<trkpt lat="31.9436530" lon="34.9371530">
<ele>112.100006</ele>
<time>2017-07-11T05:41:11.000Z</time>
</trkpt>
<trkpt lat="31.9436210" lon="34.9370690">
<ele>110.399994</ele>
<time>2017-07-11T05:41:12.000Z</time>
</trkpt>
<trkpt lat="31.9435900" lon="34.9369950">
<ele>109.500008</ele>
<time>2017-07-11T05:41:13.000Z</time>
</trkpt>
<trkpt lat="31.9435780" lon="34.9369140">
<ele>108.699997</ele>
<time>2017-07-11T05:41:14.000Z</time>
</trkpt>
<trkpt lat="31.9435780" lon="34.9368300">
<ele>107.000000</ele>
<time>2017-07-11T05:41:15.000Z</time>
</trkpt>
<trkpt lat="31.9435860" lon="34.9367460">
<ele>104.699997</ele>
<time>2017-07-11T05:41:16.000Z</time>
</trkpt>
<trkpt lat="31.9435920" lon="34.9366600">
<ele>103.000000</ele>
<time>2017-07-11T05:41:17.000Z</time>
</trkpt>
<trkpt lat="31.9435980" lon="34.9365720">
<ele>101.199997</ele>
<time>2017-07-11T05:41:18.000Z</time>
</trkpt>
<trkpt lat="31.9436160" lon="34.9364920">
<ele>98.900002</ele>
<time>2017-07-11T05:41:19.000Z</time>
</trkpt>
<trkpt lat="31.9436400" lon="34.9364170">
<ele>96.799995</ele>
<time>2017-07-11T05:41:20.000Z</time>
</trkpt>
<trkpt lat="31.9436490" lon="34.9363360">
<ele>95.400002</ele>
<time>2017-07-11T05:41:21.000Z</time>
</trkpt>
<trkpt lat="31.9436550" lon="34.9362510">
<ele>93.000000</ele>
<time>2017-07-11T05:41:22.000Z</time>
</trkpt>
<trkpt lat="31.9436490" lon="34.9361720">
<ele>91.500000</ele>
<time>2017-07-11T05:41:23.000Z</time>
</trkpt>
<trkpt lat="31.9436120" lon="34.9361110">
<ele>90.899994</ele>
<time>2017-07-11T05:41:24.000Z</time>
</trkpt>
<trkpt lat="31.9435810" lon="34.9360390">
<ele>90.200005</ele>
<time>2017-07-11T05:41:25.000Z</time>
</trkpt>
<trkpt lat="31.9435480" lon="34.9359520">
<ele>89.799995</ele>
<time>2017-07-11T05:41:26.000Z</time>
</trkpt>
<trkpt lat="31.9435270" lon="34.9358630">
<ele>89.400002</ele>
<time>2017-07-11T05:41:27.000Z</time>
</trkpt>
<trkpt lat="31.9435020" lon="34.9357800">
<ele>89.000000</ele>
<time>2017-07-11T05:41:28.000Z</time>
</trkpt>
<trkpt lat="31.9434830" lon="34.9357020">
<ele>88.599998</ele>
<time>2017-07-11T05:41:29.000Z</time>
</trkpt>
<trkpt lat="31.9434600" lon="34.9356360">
<ele>88.299995</ele>
<time>2017-07-11T05:41:30.000Z</time>
</trkpt>
<trkpt lat="31.9434280" lon="34.9355850">
<ele>88.099998</ele>
<time>2017-07-11T05:41:31.000Z</time>
</trkpt>
<trkpt lat="31.9433810" lon="34.9355600">
<ele>87.799995</ele>
<time>2017-07-11T05:41:32.000Z</time>
</trkpt>
<trkpt lat="31.9433320" lon="34.9355540">
<ele>87.500000</ele>
<time>2017-07-11T05:41:33.000Z</time>
</trkpt>
<trkpt lat="31.9433030" lon="34.9355810">
<ele>87.799995</ele>
<time>2017-07-11T05:41:34.000Z</time>
</trkpt>
<trkpt lat="31.9432700" lon="34.9356060">
<ele>88.400002</ele>
<time>2017-07-11T05:41:37.000Z</time>
</trkpt>
<trkpt lat="31.9432670" lon="34.9356390">
<ele>88.800003</ele>
<time>2017-07-11T05:41:40.000Z</time>
</trkpt>
<trkpt lat="31.9432740" lon="34.9356760">
<ele>89.300003</ele>
<time>2017-07-11T05:41:45.000Z</time>
</trkpt>
<trkpt lat="31.9432870" lon="34.9357230">
<ele>89.900002</ele>
<time>2017-07-11T05:41:50.000Z</time>
</trkpt>
<trkpt lat="31.9432790" lon="34.9357600">
<ele>90.300003</ele>
<time>2017-07-11T05:41:53.000Z</time>
</trkpt>
<trkpt lat="31.9432650" lon="34.9358010">
<ele>90.899994</ele>
<time>2017-07-11T05:41:56.000Z</time>
</trkpt>
<trkpt lat="31.9432470" lon="34.9358410">
<ele>91.400002</ele>
<time>2017-07-11T05:42:00.000Z</time>
</trkpt>
<trkpt lat="31.9432190" lon="34.9358620">
<ele>91.599998</ele>
<time>2017-07-11T05:42:03.000Z</time>
</trkpt>
<trkpt lat="31.9431860" lon="34.9358790">
<ele>91.900002</ele>
<time>2017-07-11T05:42:06.000Z</time>
</trkpt>
<trkpt lat="31.9431560" lon="34.9359000">
<ele>92.099998</ele>
<time>2017-07-11T05:42:09.000Z</time>
</trkpt>
<trkpt lat="31.9431280" lon="34.9359140">
<ele>92.300003</ele>
<time>2017-07-11T05:42:11.000Z</time>
</trkpt>
<trkpt lat="31.9430920" lon="34.9359290">
<ele>92.399994</ele>
<time>2017-07-11T05:42:13.000Z</time>
</trkpt>
<trkpt lat="31.9430580" lon="34.9359490">
<ele>92.500000</ele>
<time>2017-07-11T05:42:15.000Z</time>
</trkpt>
<trkpt lat="31.9430270" lon="34.9359670">
<ele>92.600006</ele>
<time>2017-07-11T05:42:17.000Z</time>
</trkpt>
<trkpt lat="31.9429910" lon="34.9359810">
<ele>92.800003</ele>
<time>2017-07-11T05:42:20.000Z</time>
</trkpt>
<trkpt lat="31.9429620" lon="34.9359880">
<ele>92.900002</ele>
<time>2017-07-11T05:42:22.000Z</time>
</trkpt>
<trkpt lat="31.9429320" lon="34.9359960">
<ele>93.000000</ele>
<time>2017-07-11T05:42:24.000Z</time>
</trkpt>
<trkpt lat="31.9429010" lon="34.9359990">
<ele>93.099998</ele>
<time>2017-07-11T05:42:26.000Z</time>
</trkpt>
<trkpt lat="31.9428680" lon="34.9359960">
<ele>93.200005</ele>
<time>2017-07-11T05:42:28.000Z</time>
</trkpt>
<trkpt lat="31.9428350" lon="34.9359980">
<ele>93.200005</ele>
<time>2017-07-11T05:42:30.000Z</time>
</trkpt>
<trkpt lat="31.9428010" lon="34.9359980">
<ele>93.299995</ele>
<time>2017-07-11T05:42:32.000Z</time>
</trkpt>
<trkpt lat="31.9427730" lon="34.9360040">
<ele>93.400002</ele>
<time>2017-07-11T05:42:33.000Z</time>
</trkpt>
<trkpt lat="31.9427320" lon="34.9360040">
<ele>93.500008</ele>
<time>2017-07-11T05:42:35.000Z</time>
</trkpt>
<trkpt lat="31.9426880" lon="34.9359980">
<ele>93.599998</ele>
<time>2017-07-11T05:42:37.000Z</time>
</trkpt>
<trkpt lat="31.9426460" lon="34.9359870">
<ele>93.700005</ele>
<time>2017-07-11T05:42:39.000Z</time>
</trkpt>
<trkpt lat="31.9426020" lon="34.9359770">
<ele>93.799995</ele>
<time>2017-07-11T05:42:41.000Z</time>
</trkpt>
<trkpt lat="31.9425660" lon="34.9359670">
<ele>93.799995</ele>
<time>2017-07-11T05:42:43.000Z</time>
</trkpt>
<trkpt lat="31.9425260" lon="34.9359500">
<ele>93.900002</ele>
<time>2017-07-11T05:42:45.000Z</time>
</trkpt>
<trkpt lat="31.9424840" lon="34.9359360">
<ele>94.000000</ele>
<time>2017-07-11T05:42:47.000Z</time>
</trkpt>
<trkpt lat="31.9424300" lon="34.9359150">
<ele>94.099998</ele>
<time>2017-07-11T05:42:49.000Z</time>
</trkpt>
<trkpt lat="31.9423980" lon="34.9359070">
<ele>94.099998</ele>
<time>2017-07-11T05:42:50.000Z</time>
</trkpt>
<trkpt lat="31.9423650" lon="34.9358890">
<ele>94.199997</ele>
<time>2017-07-11T05:42:52.000Z</time>
</trkpt>
<trkpt lat="31.9423380" lon="34.9358800">
<ele>94.300003</ele>
<time>2017-07-11T05:42:55.000Z</time>
</trkpt>
<trkpt lat="31.9423110" lon="34.9358740">
<ele>94.300003</ele>
<time>2017-07-11T05:43:37.000Z</time>
</trkpt>
<trkpt lat="31.9422790" lon="34.9358800">
<ele>94.300003</ele>
<time>2017-07-11T05:43:54.000Z</time>
</trkpt>
<trkpt lat="31.9422470" lon="34.9358820">
<ele>94.399994</ele>
<time>2017-07-11T05:43:56.000Z</time>
</trkpt>
<trkpt lat="31.9422060" lon="34.9358770">
<ele>94.399994</ele>
<time>2017-07-11T05:43:58.000Z</time>
</trkpt>
<trkpt lat="31.9421090" lon="34.9358500">
<ele>94.500000</ele>
<time>2017-07-11T05:44:01.000Z</time>
</trkpt>
<trkpt lat="31.9420540" lon="34.9358360">
<ele>94.500000</ele>
<time>2017-07-11T05:44:02.000Z</time>
</trkpt>
<trkpt lat="31.9420020" lon="34.9358300">
<ele>94.600006</ele>
<time>2017-07-11T05:44:03.000Z</time>
</trkpt>
<trkpt lat="31.9419560" lon="34.9358300">
<ele>94.699997</ele>
<time>2017-07-11T05:44:04.000Z</time>
</trkpt>
<trkpt lat="31.9419120" lon="34.9358290">
<ele>94.800003</ele>
<time>2017-07-11T05:44:05.000Z</time>
</trkpt>
<trkpt lat="31.9418740" lon="34.9358390">
<ele>94.800003</ele>
<time>2017-07-11T05:44:06.000Z</time>
</trkpt>
<trkpt lat="31.9418400" lon="34.9358560">
<ele>91.700005</ele>
<time>2017-07-11T05:44:07.000Z</time>
</trkpt>
<trkpt lat="31.9418170" lon="34.9358860">
<ele>89.199997</ele>
<time>2017-07-11T05:44:08.000Z</time>
</trkpt>
<trkpt lat="31.9418020" lon="34.9359140">
<ele>89.199997</ele>
<time>2017-07-11T05:44:09.000Z</time>
</trkpt>
<trkpt lat="31.9417890" lon="34.9359430">
<ele>89.199997</ele>
<time>2017-07-11T05:44:10.000Z</time>
</trkpt>
<trkpt lat="31.9417710" lon="34.9359960">
<ele>88.899994</ele>
<time>2017-07-11T05:44:12.000Z</time>
</trkpt>
<trkpt lat="31.9417600" lon="34.9360420">
<ele>88.800003</ele>
<time>2017-07-11T05:44:14.000Z</time>
</trkpt>
<trkpt lat="31.9417510" lon="34.9360880">
<ele>88.899994</ele>
<time>2017-07-11T05:44:16.000Z</time>
</trkpt>
<trkpt lat="31.9417370" lon="34.9361300">
<ele>88.699997</ele>
<time>2017-07-11T05:44:18.000Z</time>
</trkpt>
<trkpt lat="31.9417120" lon="34.9361660">
<ele>88.200005</ele>
<time>2017-07-11T05:44:20.000Z</time>
</trkpt>
<trkpt lat="31.9416560" lon="34.9362020">
<ele>87.799995</ele>
<time>2017-07-11T05:44:22.000Z</time>
</trkpt>
<trkpt lat="31.9416150" lon="34.9362170">
<ele>87.599998</ele>
<time>2017-07-11T05:44:23.000Z</time>
</trkpt>
<trkpt lat="31.9415590" lon="34.9362320">
<ele>87.000000</ele>
<time>2017-07-11T05:44:24.000Z</time>
</trkpt>
<trkpt lat="31.9414650" lon="34.9362750">
<ele>87.000000</ele>
<time>2017-07-11T05:44:25.000Z</time>
</trkpt>
<trkpt lat="31.9413770" lon="34.9363070">
<ele>87.000000</ele>
<time>2017-07-11T05:44:26.000Z</time>
</trkpt>
<trkpt lat="31.9412910" lon="34.9363320">
<ele>87.000000</ele>
<time>2017-07-11T05:44:27.000Z</time>
</trkpt>
<trkpt lat="31.9412030" lon="34.9363630">
<ele>87.000000</ele>
<time>2017-07-11T05:44:28.000Z</time>
</trkpt>
<trkpt lat="31.9411200" lon="34.9364030">
<ele>87.000000</ele>
<time>2017-07-11T05:44:29.000Z</time>
</trkpt>
<trkpt lat="31.9410460" lon="34.9364390">
<ele>86.900002</ele>
<time>2017-07-11T05:44:30.000Z</time>
</trkpt>
<trkpt lat="31.9409740" lon="34.9364740">
<ele>86.800003</ele>
<time>2017-07-11T05:44:31.000Z</time>
</trkpt>
<trkpt lat="31.9409050" lon="34.9364930">
<ele>86.599998</ele>
<time>2017-07-11T05:44:32.000Z</time>
</trkpt>
<trkpt lat="31.9408400" lon="34.9364900">
<ele>86.400002</ele>
<time>2017-07-11T05:44:33.000Z</time>
</trkpt>
<trkpt lat="31.9407810" lon="34.9364720">
<ele>86.299995</ele>
<time>2017-07-11T05:44:34.000Z</time>
</trkpt>
<trkpt lat="31.9407200" lon="34.9364500">
<ele>86.099998</ele>
<time>2017-07-11T05:44:35.000Z</time>
</trkpt>
<trkpt lat="31.9406610" lon="34.9364250">
<ele>86.000000</ele>
<time>2017-07-11T05:44:36.000Z</time>
</trkpt>
<trkpt lat="31.9406090" lon="34.9364040">
<ele>85.900002</ele>
<time>2017-07-11T05:44:37.000Z</time>
</trkpt>
<trkpt lat="31.9405670" lon="34.9363920">
<ele>85.800003</ele>
<time>2017-07-11T05:44:38.000Z</time>
</trkpt>
<trkpt lat="31.9405230" lon="34.9363800">
<ele>85.699997</ele>
<time>2017-07-11T05:44:39.000Z</time>
</trkpt>
<trkpt lat="31.9404800" lon="34.9363690">
<ele>85.600006</ele>
<time>2017-07-11T05:44:40.000Z</time>
</trkpt>
<trkpt lat="31.9404360" lon="34.9363570">
<ele>85.500000</ele>
<time>2017-07-11T05:44:41.000Z</time>
</trkpt>
<trkpt lat="31.9403900" lon="34.9363420">
<ele>85.300003</ele>
<time>2017-07-11T05:44:42.000Z</time>
</trkpt>
<trkpt lat="31.9403420" lon="34.9363260">
<ele>85.199997</ele>
<time>2017-07-11T05:44:43.000Z</time>
</trkpt>
<trkpt lat="31.9402980" lon="34.9363150">
<ele>85.099998</ele>
<time>2017-07-11T05:44:44.000Z</time>
</trkpt>
<trkpt lat="31.9402570" lon="34.9363050">
<ele>85.000000</ele>
<time>2017-07-11T05:44:45.000Z</time>
</trkpt>
<trkpt lat="31.9402190" lon="34.9362920">
<ele>84.900002</ele>
<time>2017-07-11T05:44:46.000Z</time>
</trkpt>
<trkpt lat="31.9401820" lon="34.9362810">
<ele>84.700005</ele>
<time>2017-07-11T05:44:47.000Z</time>
</trkpt>
<trkpt lat="31.9401390" lon="34.9362750">
<ele>84.499992</ele>
<time>2017-07-11T05:44:48.000Z</time>
</trkpt>
<trkpt lat="31.9400950" lon="34.9362740">
<ele>84.299995</ele>
<time>2017-07-11T05:44:49.000Z</time>
</trkpt>
<trkpt lat="31.9400510" lon="34.9362750">
<ele>84.000000</ele>
<time>2017-07-11T05:44:50.000Z</time>
</trkpt>
<trkpt lat="31.9400050" lon="34.9362720">
<ele>83.400002</ele>
<time>2017-07-11T05:44:51.000Z</time>
</trkpt>
<trkpt lat="31.9399580" lon="34.9362670">
<ele>82.599998</ele>
<time>2017-07-11T05:44:52.000Z</time>
</trkpt>
<trkpt lat="31.9399100" lon="34.9362620">
<ele>81.800003</ele>
<time>2017-07-11T05:44:53.000Z</time>
</trkpt>
<trkpt lat="31.9398650" lon="34.9362540">
<ele>81.299995</ele>
<time>2017-07-11T05:44:54.000Z</time>
</trkpt>
<trkpt lat="31.9398200" lon="34.9362410">
<ele>80.799995</ele>
<time>2017-07-11T05:44:55.000Z</time>
</trkpt>
<trkpt lat="31.9397720" lon="34.9362240">
<ele>80.199997</ele>
<time>2017-07-11T05:44:56.000Z</time>
</trkpt>
<trkpt lat="31.9397190" lon="34.9362050">
<ele>79.200005</ele>
<time>2017-07-11T05:44:57.000Z</time>
</trkpt>
<trkpt lat="31.9396580" lon="34.9361920">
<ele>78.500000</ele>
<time>2017-07-11T05:44:58.000Z</time>
</trkpt>
<trkpt lat="31.9396000" lon="34.9361860">
<ele>78.199997</ele>
<time>2017-07-11T05:44:59.000Z</time>
</trkpt>
<trkpt lat="31.9395410" lon="34.9361870">
<ele>77.900002</ele>
<time>2017-07-11T05:45:00.000Z</time>
</trkpt>
<trkpt lat="31.9394820" lon="34.9361900">
<ele>77.700005</ele>
<time>2017-07-11T05:45:01.000Z</time>
</trkpt>
<trkpt lat="31.9394240" lon="34.9361930">
<ele>77.599998</ele>
<time>2017-07-11T05:45:02.000Z</time>
</trkpt>
<trkpt lat="31.9393660" lon="34.9362010">
<ele>77.500000</ele>
<time>2017-07-11T05:45:03.000Z</time>
</trkpt>
<trkpt lat="31.9393080" lon="34.9362110">
<ele>77.400002</ele>
<time>2017-07-11T05:45:04.000Z</time>
</trkpt>
<trkpt lat="31.9392500" lon="34.9362260">
<ele>77.299995</ele>
<time>2017-07-11T05:45:05.000Z</time>
</trkpt>
<trkpt lat="31.9391910" lon="34.9362430">
<ele>77.199997</ele>
<time>2017-07-11T05:45:06.000Z</time>
</trkpt>
<trkpt lat="31.9391390" lon="34.9362710">
<ele>77.099998</ele>
<time>2017-07-11T05:45:07.000Z</time>
</trkpt>
<trkpt lat="31.9390960" lon="34.9363080">
<ele>77.299995</ele>
<time>2017-07-11T05:45:08.000Z</time>
</trkpt>
<trkpt lat="31.9390660" lon="34.9363570">
<ele>77.500000</ele>
<time>2017-07-11T05:45:09.000Z</time>
</trkpt>
<trkpt lat="31.9390460" lon="34.9364060">
<ele>77.800003</ele>
<time>2017-07-11T05:45:10.000Z</time>
</trkpt>
<trkpt lat="31.9390310" lon="34.9364600">
<ele>78.099998</ele>
<time>2017-07-11T05:45:11.000Z</time>
</trkpt>
<trkpt lat="31.9390230" lon="34.9365180">
<ele>78.500000</ele>
<time>2017-07-11T05:45:12.000Z</time>
</trkpt>
<trkpt lat="31.9390100" lon="34.9365700">
<ele>78.699997</ele>
<time>2017-07-11T05:45:13.000Z</time>
</trkpt>
<trkpt lat="31.9390050" lon="34.9366270">
<ele>78.900002</ele>
<time>2017-07-11T05:45:14.000Z</time>
</trkpt>
<trkpt lat="31.9389990" lon="34.9366780">
<ele>79.000000</ele>
<time>2017-07-11T05:45:15.000Z</time>
</trkpt>
<trkpt lat="31.9389910" lon="34.9367250">
<ele>79.099998</ele>
<time>2017-07-11T05:45:16.000Z</time>
</trkpt>
<trkpt lat="31.9389770" lon="34.9367760">
<ele>79.299995</ele>
<time>2017-07-11T05:45:17.000Z</time>
</trkpt>
<trkpt lat="31.9389660" lon="34.9368280">
<ele>79.500000</ele>
<time>2017-07-11T05:45:18.000Z</time>
</trkpt>
<trkpt lat="31.9389620" lon="34.9368760">
<ele>79.500000</ele>
<time>2017-07-11T05:45:19.000Z</time>
</trkpt>
<trkpt lat="31.9389600" lon="34.9369240">
<ele>79.599998</ele>
<time>2017-07-11T05:45:20.000Z</time>
</trkpt>
<trkpt lat="31.9389560" lon="34.9369730">
<ele>79.599998</ele>
<time>2017-07-11T05:45:21.000Z</time>
</trkpt>
<trkpt lat="31.9389520" lon="34.9370210">
<ele>79.699997</ele>
<time>2017-07-11T05:45:22.000Z</time>
</trkpt>
<trkpt lat="31.9389470" lon="34.9370680">
<ele>79.699997</ele>
<time>2017-07-11T05:45:23.000Z</time>
</trkpt>
<trkpt lat="31.9389440" lon="34.9371150">
<ele>79.800003</ele>
<time>2017-07-11T05:45:24.000Z</time>
</trkpt>
<trkpt lat="31.9389400" lon="34.9371630">
<ele>79.800003</ele>
<time>2017-07-11T05:45:25.000Z</time>
</trkpt>
<trkpt lat="31.9389380" lon="34.9372120">
<ele>79.899994</ele>
<time>2017-07-11T05:45:26.000Z</time>
</trkpt>
<trkpt lat="31.9389360" lon="34.9372640">
<ele>79.899994</ele>
<time>2017-07-11T05:45:27.000Z</time>
</trkpt>
<trkpt lat="31.9389300" lon="34.9373150">
<ele>80.000000</ele>
<time>2017-07-11T05:45:28.000Z</time>
</trkpt>
<trkpt lat="31.9389220" lon="34.9373660">
<ele>80.100006</ele>
<time>2017-07-11T05:45:29.000Z</time>
</trkpt>
<trkpt lat="31.9389160" lon="34.9374130">
<ele>80.300003</ele>
<time>2017-07-11T05:45:30.000Z</time>
</trkpt>
<trkpt lat="31.9389160" lon="34.9374630">
<ele>80.500000</ele>
<time>2017-07-11T05:45:31.000Z</time>
</trkpt>
<trkpt lat="31.9389190" lon="34.9375080">
<ele>80.700005</ele>
<time>2017-07-11T05:45:32.000Z</time>
</trkpt>
<trkpt lat="31.9389210" lon="34.9375560">
<ele>80.900002</ele>
<time>2017-07-11T05:45:33.000Z</time>
</trkpt>
<trkpt lat="31.9389200" lon="34.9376010">
<ele>81.099998</ele>
<time>2017-07-11T05:45:34.000Z</time>
</trkpt>
<trkpt lat="31.9389200" lon="34.9376510">
<ele>81.299995</ele>
<time>2017-07-11T05:45:35.000Z</time>
</trkpt>
<trkpt lat="31.9389220" lon="34.9376940">
<ele>81.500000</ele>
<time>2017-07-11T05:45:36.000Z</time>
</trkpt>
<trkpt lat="31.9389230" lon="34.9377400">
<ele>81.599998</ele>
<time>2017-07-11T05:45:37.000Z</time>
</trkpt>
<trkpt lat="31.9389230" lon="34.9377850">
<ele>81.699997</ele>
<time>2017-07-11T05:45:38.000Z</time>
</trkpt>
<trkpt lat="31.9389240" lon="34.9378270">
<ele>81.800003</ele>
<time>2017-07-11T05:45:39.000Z</time>
</trkpt>
<trkpt lat="31.9389270" lon="34.9378680">
<ele>81.899994</ele>
<time>2017-07-11T05:45:40.000Z</time>
</trkpt>
<trkpt lat="31.9389360" lon="34.9379030">
<ele>82.000000</ele>
<time>2017-07-11T05:45:41.000Z</time>
</trkpt>
<trkpt lat="31.9389430" lon="34.9379390">
<ele>82.100006</ele>
<time>2017-07-11T05:45:42.000Z</time>
</trkpt>
<trkpt lat="31.9389480" lon="34.9379730">
<ele>82.100006</ele>
<time>2017-07-11T05:45:43.000Z</time>
</trkpt>
<trkpt lat="31.9389540" lon="34.9380360">
<ele>82.199997</ele>
<time>2017-07-11T05:45:45.000Z</time>
</trkpt>
<trkpt lat="31.9389570" lon="34.9380730">
<ele>82.199997</ele>
<time>2017-07-11T05:45:46.000Z</time>
</trkpt>
<trkpt lat="31.9389690" lon="34.9381340">
<ele>82.300003</ele>
<time>2017-07-11T05:45:48.000Z</time>
</trkpt>
<trkpt lat="31.9389790" lon="34.9381670">
<ele>82.300003</ele>
<time>2017-07-11T05:45:49.000Z</time>
</trkpt>
<trkpt lat="31.9389850" lon="34.9382010">
<ele>82.300003</ele>
<time>2017-07-11T05:45:50.000Z</time>
</trkpt>
<trkpt lat="31.9389860" lon="34.9382340">
<ele>82.400002</ele>
<time>2017-07-11T05:45:51.000Z</time>
</trkpt>
<trkpt lat="31.9389860" lon="34.9382670">
<ele>82.400002</ele>
<time>2017-07-11T05:45:52.000Z</time>
</trkpt>
<trkpt lat="31.9389910" lon="34.9382990">
<ele>82.400002</ele>
<time>2017-07-11T05:45:53.000Z</time>
</trkpt>
<trkpt lat="31.9389990" lon="34.9383320">
<ele>82.400002</ele>
<time>2017-07-11T05:45:54.000Z</time>
</trkpt>
<trkpt lat="31.9390130" lon="34.9383910">
<ele>82.400002</ele>
<time>2017-07-11T05:45:56.000Z</time>
</trkpt>
<trkpt lat="31.9390210" lon="34.9384230">
<ele>82.400002</ele>
<time>2017-07-11T05:45:57.000Z</time>
</trkpt>
<trkpt lat="31.9390280" lon="34.9384570">
<ele>82.400002</ele>
<time>2017-07-11T05:45:58.000Z</time>
</trkpt>
<trkpt lat="31.9390310" lon="34.9384910">
<ele>82.500000</ele>
<time>2017-07-11T05:45:59.000Z</time>
</trkpt>
<trkpt lat="31.9390350" lon="34.9385260">
<ele>82.500000</ele>
<time>2017-07-11T05:46:00.000Z</time>
</trkpt>
<trkpt lat="31.9390410" lon="34.9385610">
<ele>82.500000</ele>
<time>2017-07-11T05:46:01.000Z</time>
</trkpt>
<trkpt lat="31.9390450" lon="34.9385950">
<ele>82.500000</ele>
<time>2017-07-11T05:46:02.000Z</time>
</trkpt>
<trkpt lat="31.9390520" lon="34.9386280">
<ele>82.500000</ele>
<time>2017-07-11T05:46:03.000Z</time>
</trkpt>
<trkpt lat="31.9390590" lon="34.9386600">
<ele>82.500000</ele>
<time>2017-07-11T05:46:04.000Z</time>
</trkpt>
<trkpt lat="31.9390670" lon="34.9386960">
<ele>82.500000</ele>
<time>2017-07-11T05:46:05.000Z</time>
</trkpt>
<trkpt lat="31.9390660" lon="34.9387400">
<ele>82.500000</ele>
<time>2017-07-11T05:46:06.000Z</time>
</trkpt>
<trkpt lat="31.9390570" lon="34.9387800">
<ele>82.500000</ele>
<time>2017-07-11T05:46:07.000Z</time>
</trkpt>
<trkpt lat="31.9390540" lon="34.9388190">
<ele>82.500000</ele>
<time>2017-07-11T05:46:08.000Z</time>
</trkpt>
<trkpt lat="31.9390620" lon="34.9388610">
<ele>82.500000</ele>
<time>2017-07-11T05:46:09.000Z</time>
</trkpt>
<trkpt lat="31.9390660" lon="34.9389080">
<ele>82.500000</ele>
<time>2017-07-11T05:46:10.000Z</time>
</trkpt>
<trkpt lat="31.9390710" lon="34.9389590">
<ele>82.500000</ele>
<time>2017-07-11T05:46:11.000Z</time>
</trkpt>
<trkpt lat="31.9390790" lon="34.9390080">
<ele>82.500000</ele>
<time>2017-07-11T05:46:12.000Z</time>
</trkpt>
<trkpt lat="31.9390850" lon="34.9390550">
<ele>82.500000</ele>
<time>2017-07-11T05:46:13.000Z</time>
</trkpt>
<trkpt lat="31.9390900" lon="34.9391050">
<ele>82.500000</ele>
<time>2017-07-11T05:46:14.000Z</time>
</trkpt>
<trkpt lat="31.9390950" lon="34.9391540">
<ele>82.500000</ele>
<time>2017-07-11T05:46:15.000Z</time>
</trkpt>
<trkpt lat="31.9391030" lon="34.9392060">
<ele>82.500000</ele>
<time>2017-07-11T05:46:16.000Z</time>
</trkpt>
<trkpt lat="31.9391110" lon="34.9392540">
<ele>82.400002</ele>
<time>2017-07-11T05:46:17.000Z</time>
</trkpt>
<trkpt lat="31.9391260" lon="34.9392980">
<ele>82.300003</ele>
<time>2017-07-11T05:46:18.000Z</time>
</trkpt>
<trkpt lat="31.9391480" lon="34.9393360">
<ele>82.100006</ele>
<time>2017-07-11T05:46:19.000Z</time>
</trkpt>
<trkpt lat="31.9391650" lon="34.9393750">
<ele>82.000000</ele>
<time>2017-07-11T05:46:20.000Z</time>
</trkpt>
<trkpt lat="31.9391830" lon="34.9394150">
<ele>81.800003</ele>
<time>2017-07-11T05:46:21.000Z</time>
</trkpt>
<trkpt lat="31.9392040" lon="34.9394550">
<ele>81.599998</ele>
<time>2017-07-11T05:46:22.000Z</time>
</trkpt>
<trkpt lat="31.9392290" lon="34.9394910">
<ele>81.599998</ele>
<time>2017-07-11T05:46:23.000Z</time>
</trkpt>
<trkpt lat="31.9392560" lon="34.9395260">
<ele>81.500000</ele>
<time>2017-07-11T05:46:24.000Z</time>
</trkpt>
<trkpt lat="31.9392740" lon="34.9395760">
<ele>81.400002</ele>
<time>2017-07-11T05:46:25.000Z</time>
</trkpt>
<trkpt lat="31.9392950" lon="34.9396290">
<ele>81.299995</ele>
<time>2017-07-11T05:46:26.000Z</time>
</trkpt>
<trkpt lat="31.9393110" lon="34.9396850">
<ele>81.299995</ele>
<time>2017-07-11T05:46:27.000Z</time>
</trkpt>
<trkpt lat="31.9393230" lon="34.9397380">
<ele>81.200005</ele>
<time>2017-07-11T05:46:28.000Z</time>
</trkpt>
<trkpt lat="31.9393340" lon="34.9397870">
<ele>81.099998</ele>
<time>2017-07-11T05:46:29.000Z</time>
</trkpt>
<trkpt lat="31.9393510" lon="34.9398430">
<ele>80.900002</ele>
<time>2017-07-11T05:46:30.000Z</time>
</trkpt>
<trkpt lat="31.9393690" lon="34.9398990">
<ele>80.700005</ele>
<time>2017-07-11T05:46:31.000Z</time>
</trkpt>
<trkpt lat="31.9393860" lon="34.9399600">
<ele>80.500000</ele>
<time>2017-07-11T05:46:32.000Z</time>
</trkpt>
<trkpt lat="31.9394000" lon="34.9400220">
<ele>80.199997</ele>
<time>2017-07-11T05:46:33.000Z</time>
</trkpt>
<trkpt lat="31.9394090" lon="34.9400910">
<ele>80.100006</ele>
<time>2017-07-11T05:46:34.000Z</time>
</trkpt>
<trkpt lat="31.9394130" lon="34.9401660">
<ele>80.100006</ele>
<time>2017-07-11T05:46:35.000Z</time>
</trkpt>
<trkpt lat="31.9394180" lon="34.9402390">
<ele>80.100006</ele>
<time>2017-07-11T05:46:36.000Z</time>
</trkpt>
<trkpt lat="31.9394220" lon="34.9403060">
<ele>80.400002</ele>
<time>2017-07-11T05:46:37.000Z</time>
</trkpt>
<trkpt lat="31.9394220" lon="34.9403770">
<ele>80.700005</ele>
<time>2017-07-11T05:46:38.000Z</time>
</trkpt>
<trkpt lat="31.9394220" lon="34.9404560">
<ele>81.299995</ele>
<time>2017-07-11T05:46:39.000Z</time>
</trkpt>
<trkpt lat="31.9394200" lon="34.9405390">
<ele>81.899994</ele>
<time>2017-07-11T05:46:40.000Z</time>
</trkpt>
<trkpt lat="31.9394080" lon="34.9406180">
<ele>82.000000</ele>
<time>2017-07-11T05:46:41.000Z</time>
</trkpt>
<trkpt lat="31.9393930" lon="34.9406890">
<ele>82.000000</ele>
<time>2017-07-11T05:46:42.000Z</time>
</trkpt>
<trkpt lat="31.9393790" lon="34.9407510">
<ele>82.000000</ele>
<time>2017-07-11T05:46:43.000Z</time>
</trkpt>
<trkpt lat="31.9393720" lon="34.9408030">
<ele>82.000000</ele>
<time>2017-07-11T05:46:44.000Z</time>
</trkpt>
<trkpt lat="31.9393740" lon="34.9408540">
<ele>82.000000</ele>
<time>2017-07-11T05:46:45.000Z</time>
</trkpt>
<trkpt lat="31.9393810" lon="34.9408950">
<ele>82.000000</ele>
<time>2017-07-11T05:46:46.000Z</time>
</trkpt>
<trkpt lat="31.9393850" lon="34.9409340">
<ele>82.000000</ele>
<time>2017-07-11T05:46:47.000Z</time>
</trkpt>
<trkpt lat="31.9393870" lon="34.9409700">
<ele>82.000000</ele>
<time>2017-07-11T05:46:48.000Z</time>
</trkpt>
<trkpt lat="31.9393870" lon="34.9410070">
<ele>82.000000</ele>
<time>2017-07-11T05:46:49.000Z</time>
</trkpt>
<trkpt lat="31.9393880" lon="34.9410430">
<ele>82.000000</ele>
<time>2017-07-11T05:46:50.000Z</time>
</trkpt>
<trkpt lat="31.9393930" lon="34.9411030">
<ele>82.000000</ele>
<time>2017-07-11T05:46:52.000Z</time>
</trkpt>
<trkpt lat="31.9393930" lon="34.9411600">
<ele>82.000000</ele>
<time>2017-07-11T05:46:54.000Z</time>
</trkpt>
<trkpt lat="31.9393960" lon="34.9412070">
<ele>82.000000</ele>
<time>2017-07-11T05:46:56.000Z</time>
</trkpt>
<trkpt lat="31.9393940" lon="34.9412420">
<ele>82.000000</ele>
<time>2017-07-11T05:46:58.000Z</time>
</trkpt>
<trkpt lat="31.9393880" lon="34.9412790">
<ele>82.000000</ele>
<time>2017-07-11T05:47:00.000Z</time>
</trkpt>
<trkpt lat="31.9393860" lon="34.9413200">
<ele>82.000000</ele>
<time>2017-07-11T05:47:02.000Z</time>
</trkpt>
<trkpt lat="31.9393820" lon="34.9413610">
<ele>82.000000</ele>
<time>2017-07-11T05:47:04.000Z</time>
</trkpt>
<trkpt lat="31.9393780" lon="34.9414020">
<ele>82.000000</ele>
<time>2017-07-11T05:47:06.000Z</time>
</trkpt>
<trkpt lat="31.9393720" lon="34.9414460">
<ele>82.000000</ele>
<time>2017-07-11T05:47:08.000Z</time>
</trkpt>
<trkpt lat="31.9393660" lon="34.9414890">
<ele>82.000000</ele>
<time>2017-07-11T05:47:10.000Z</time>
</trkpt>
<trkpt lat="31.9393660" lon="34.9415240">
<ele>82.000000</ele>
<time>2017-07-11T05:47:12.000Z</time>
</trkpt>
<trkpt lat="31.9393640" lon="34.9415640">
<ele>82.000000</ele>
<time>2017-07-11T05:47:14.000Z</time>
</trkpt>
<trkpt lat="31.9393580" lon="34.9416070">
<ele>82.100006</ele>
<time>2017-07-11T05:47:16.000Z</time>
</trkpt>
<trkpt lat="31.9393510" lon="34.9416480">
<ele>83.300003</ele>
<time>2017-07-11T05:47:18.000Z</time>
</trkpt>
<trkpt lat="31.9393450" lon="34.9416970">
<ele>84.700005</ele>
<time>2017-07-11T05:47:20.000Z</time>
</trkpt>
<trkpt lat="31.9393400" lon="34.9417400">
<ele>85.099998</ele>
<time>2017-07-11T05:47:22.000Z</time>
</trkpt>
<trkpt lat="31.9393290" lon="34.9417860">
<ele>85.600006</ele>
<time>2017-07-11T05:47:24.000Z</time>
</trkpt>
<trkpt lat="31.9393230" lon="34.9418320">
<ele>86.099998</ele>
<time>2017-07-11T05:47:26.000Z</time>
</trkpt>
<trkpt lat="31.9393160" lon="34.9418720">
<ele>86.500008</ele>
<time>2017-07-11T05:47:28.000Z</time>
</trkpt>
<trkpt lat="31.9393060" lon="34.9419240">
<ele>87.000000</ele>
<time>2017-07-11T05:47:30.000Z</time>
</trkpt>
<trkpt lat="31.9392990" lon="34.9419870">
<ele>87.399994</ele>
<time>2017-07-11T05:47:32.000Z</time>
</trkpt>
<trkpt lat="31.9392830" lon="34.9420450">
<ele>87.699997</ele>
<time>2017-07-11T05:47:34.000Z</time>
</trkpt>
<trkpt lat="31.9392720" lon="34.9421030">
<ele>88.099998</ele>
<time>2017-07-11T05:47:36.000Z</time>
</trkpt>
<trkpt lat="31.9392660" lon="34.9421510">
<ele>88.400002</ele>
<time>2017-07-11T05:47:38.000Z</time>
</trkpt>
<trkpt lat="31.9392580" lon="34.9421990">
<ele>88.699997</ele>
<time>2017-07-11T05:47:40.000Z</time>
</trkpt>
<trkpt lat="31.9392560" lon="34.9422660">
<ele>89.000000</ele>
<time>2017-07-11T05:47:42.000Z</time>
</trkpt>
<trkpt lat="31.9392520" lon="34.9423040">
<ele>89.000000</ele>
<time>2017-07-11T05:47:43.000Z</time>
</trkpt>
<trkpt lat="31.9392510" lon="34.9423380">
<ele>89.000000</ele>
<time>2017-07-11T05:47:44.000Z</time>
</trkpt>
<trkpt lat="31.9392440" lon="34.9423850">
<ele>89.000000</ele>
<time>2017-07-11T05:47:45.000Z</time>
</trkpt>
<trkpt lat="31.9392390" lon="34.9424290">
<ele>89.000000</ele>
<time>2017-07-11T05:47:46.000Z</time>
</trkpt>
<trkpt lat="31.9392330" lon="34.9424700">
<ele>89.000000</ele>
<time>2017-07-11T05:47:47.000Z</time>
</trkpt>
<trkpt lat="31.9392290" lon="34.9425080">
<ele>89.100006</ele>
<time>2017-07-11T05:47:48.000Z</time>
</trkpt>
<trkpt lat="31.9392260" lon="34.9425460">
<ele>89.100006</ele>
<time>2017-07-11T05:47:49.000Z</time>
</trkpt>
<trkpt lat="31.9392260" lon="34.9425830">
<ele>89.100006</ele>
<time>2017-07-11T05:47:50.000Z</time>
</trkpt>
<trkpt lat="31.9392240" lon="34.9426160">
<ele>89.199997</ele>
<time>2017-07-11T05:47:51.000Z</time>
</trkpt>
<trkpt lat="31.9392240" lon="34.9426510">
<ele>89.199997</ele>
<time>2017-07-11T05:47:52.000Z</time>
</trkpt>
<trkpt lat="31.9392240" lon="34.9426840">
<ele>89.300003</ele>
<time>2017-07-11T05:47:53.000Z</time>
</trkpt>
<trkpt lat="31.9392270" lon="34.9427170">
<ele>89.400002</ele>
<time>2017-07-11T05:47:54.000Z</time>
</trkpt>
<trkpt lat="31.9392320" lon="34.9427500">
<ele>89.400002</ele>
<time>2017-07-11T05:47:55.000Z</time>
</trkpt>
<trkpt lat="31.9392370" lon="34.9427820">
<ele>89.500000</ele>
<time>2017-07-11T05:47:56.000Z</time>
</trkpt>
<trkpt lat="31.9392440" lon="34.9428130">
<ele>89.599998</ele>
<time>2017-07-11T05:47:57.000Z</time>
</trkpt>
<trkpt lat="31.9392540" lon="34.9428700">
<ele>89.799995</ele>
<time>2017-07-11T05:47:59.000Z</time>
</trkpt>
<trkpt lat="31.9392650" lon="34.9429310">
<ele>90.099998</ele>
<time>2017-07-11T05:48:01.000Z</time>
</trkpt>
<trkpt lat="31.9392710" lon="34.9429630">
<ele>90.300003</ele>
<time>2017-07-11T05:48:02.000Z</time>
</trkpt>
<trkpt lat="31.9392760" lon="34.9429950">
<ele>90.500000</ele>
<time>2017-07-11T05:48:03.000Z</time>
</trkpt>
<trkpt lat="31.9392840" lon="34.9430330">
<ele>90.599998</ele>
<time>2017-07-11T05:48:04.000Z</time>
</trkpt>
<trkpt lat="31.9392920" lon="34.9430730">
<ele>90.599998</ele>
<time>2017-07-11T05:48:05.000Z</time>
</trkpt>
<trkpt lat="31.9392970" lon="34.9431110">
<ele>90.699997</ele>
<time>2017-07-11T05:48:06.000Z</time>
</trkpt>
<trkpt lat="31.9393020" lon="34.9431450">
<ele>90.800003</ele>
<time>2017-07-11T05:48:07.000Z</time>
</trkpt>
<trkpt lat="31.9393080" lon="34.9431820">
<ele>90.800003</ele>
<time>2017-07-11T05:48:08.000Z</time>
</trkpt>
<trkpt lat="31.9393140" lon="34.9432200">
<ele>90.800003</ele>
<time>2017-07-11T05:48:09.000Z</time>
</trkpt>
<trkpt lat="31.9393170" lon="34.9432570">
<ele>90.800003</ele>
<time>2017-07-11T05:48:10.000Z</time>
</trkpt>
<trkpt lat="31.9393220" lon="34.9432940">
<ele>90.899994</ele>
<time>2017-07-11T05:48:11.000Z</time>
</trkpt>
<trkpt lat="31.9393270" lon="34.9433390">
<ele>90.899994</ele>
<time>2017-07-11T05:48:12.000Z</time>
</trkpt>
<trkpt lat="31.9393310" lon="34.9433850">
<ele>90.899994</ele>
<time>2017-07-11T05:48:13.000Z</time>
</trkpt>
<trkpt lat="31.9393320" lon="34.9434320">
<ele>91.000000</ele>
<time>2017-07-11T05:48:14.000Z</time>
</trkpt>
<trkpt lat="31.9393330" lon="34.9434700">
<ele>91.000000</ele>
<time>2017-07-11T05:48:15.000Z</time>
</trkpt>
<trkpt lat="31.9393310" lon="34.9435180">
<ele>91.000000</ele>
<time>2017-07-11T05:48:16.000Z</time>
</trkpt>
<trkpt lat="31.9393360" lon="34.9435670">
<ele>91.000000</ele>
<time>2017-07-11T05:48:17.000Z</time>
</trkpt>
<trkpt lat="31.9393410" lon="34.9436190">
<ele>91.000000</ele>
<time>2017-07-11T05:48:18.000Z</time>
</trkpt>
<trkpt lat="31.9393460" lon="34.9436670">
<ele>91.000000</ele>
<time>2017-07-11T05:48:19.000Z</time>
</trkpt>
<trkpt lat="31.9393480" lon="34.9437160">
<ele>91.000000</ele>
<time>2017-07-11T05:48:20.000Z</time>
</trkpt>
<trkpt lat="31.9393440" lon="34.9437650">
<ele>91.000000</ele>
<time>2017-07-11T05:48:21.000Z</time>
</trkpt>
<trkpt lat="31.9393430" lon="34.9438150">
<ele>91.000000</ele>
<time>2017-07-11T05:48:22.000Z</time>
</trkpt>
<trkpt lat="31.9393420" lon="34.9438570">
<ele>91.000000</ele>
<time>2017-07-11T05:48:23.000Z</time>
</trkpt>
<trkpt lat="31.9393430" lon="34.9438990">
<ele>91.000000</ele>
<time>2017-07-11T05:48:24.000Z</time>
</trkpt>
<trkpt lat="31.9393420" lon="34.9439430">
<ele>91.000000</ele>
<time>2017-07-11T05:48:25.000Z</time>
</trkpt>
<trkpt lat="31.9393430" lon="34.9439840">
<ele>91.000000</ele>
<time>2017-07-11T05:48:26.000Z</time>
</trkpt>
<trkpt lat="31.9393450" lon="34.9440270">
<ele>91.000000</ele>
<time>2017-07-11T05:48:27.000Z</time>
</trkpt>
<trkpt lat="31.9393440" lon="34.9440650">
<ele>91.000000</ele>
<time>2017-07-11T05:48:28.000Z</time>
</trkpt>
<trkpt lat="31.9393430" lon="34.9441060">
<ele>91.000000</ele>
<time>2017-07-11T05:48:29.000Z</time>
</trkpt>
<trkpt lat="31.9393460" lon="34.9441480">
<ele>91.000000</ele>
<time>2017-07-11T05:48:30.000Z</time>
</trkpt>
<trkpt lat="31.9393490" lon="34.9441830">
<ele>91.000000</ele>
<time>2017-07-11T05:48:31.000Z</time>
</trkpt>
<trkpt lat="31.9393540" lon="34.9442230">
<ele>91.099998</ele>
<time>2017-07-11T05:48:32.000Z</time>
</trkpt>
<trkpt lat="31.9393560" lon="34.9442630">
<ele>91.099998</ele>
<time>2017-07-11T05:48:33.000Z</time>
</trkpt>
<trkpt lat="31.9393590" lon="34.9443000">
<ele>91.099998</ele>
<time>2017-07-11T05:48:34.000Z</time>
</trkpt>
<trkpt lat="31.9393650" lon="34.9443400">
<ele>91.099998</ele>
<time>2017-07-11T05:48:35.000Z</time>
</trkpt>
<trkpt lat="31.9393660" lon="34.9443770">
<ele>91.099998</ele>
<time>2017-07-11T05:48:36.000Z</time>
</trkpt>
<trkpt lat="31.9393640" lon="34.9444370">
<ele>91.199997</ele>
<time>2017-07-11T05:48:38.000Z</time>
</trkpt>
<trkpt lat="31.9393700" lon="34.9444990">
<ele>91.199997</ele>
<time>2017-07-11T05:48:40.000Z</time>
</trkpt>
<trkpt lat="31.9393730" lon="34.9445350">
<ele>91.300003</ele>
<time>2017-07-11T05:48:41.000Z</time>
</trkpt>
<trkpt lat="31.9393740" lon="34.9445720">
<ele>91.300003</ele>
<time>2017-07-11T05:48:42.000Z</time>
</trkpt>
<trkpt lat="31.9393740" lon="34.9446120">
<ele>91.300003</ele>
<time>2017-07-11T05:48:43.000Z</time>
</trkpt>
<trkpt lat="31.9393710" lon="34.9446520">
<ele>91.400002</ele>
<time>2017-07-11T05:48:44.000Z</time>
</trkpt>
<trkpt lat="31.9393690" lon="34.9446980">
<ele>91.500000</ele>
<time>2017-07-11T05:48:45.000Z</time>
</trkpt>
<trkpt lat="31.9393690" lon="34.9447480">
<ele>91.599998</ele>
<time>2017-07-11T05:48:46.000Z</time>
</trkpt>
<trkpt lat="31.9393700" lon="34.9447990">
<ele>91.799995</ele>
<time>2017-07-11T05:48:47.000Z</time>
</trkpt>
<trkpt lat="31.9393690" lon="34.9448490">
<ele>92.099998</ele>
<time>2017-07-11T05:48:48.000Z</time>
</trkpt>
<trkpt lat="31.9393680" lon="34.9449000">
<ele>92.399994</ele>
<time>2017-07-11T05:48:49.000Z</time>
</trkpt>
<trkpt lat="31.9393670" lon="34.9449490">
<ele>92.699997</ele>
<time>2017-07-11T05:48:50.000Z</time>
</trkpt>
<trkpt lat="31.9393660" lon="34.9449990">
<ele>93.000000</ele>
<time>2017-07-11T05:48:51.000Z</time>
</trkpt>
<trkpt lat="31.9393660" lon="34.9450500">
<ele>93.099998</ele>
<time>2017-07-11T05:48:52.000Z</time>
</trkpt>
<trkpt lat="31.9393650" lon="34.9451060">
<ele>93.299995</ele>
<time>2017-07-11T05:48:53.000Z</time>
</trkpt>
<trkpt lat="31.9393620" lon="34.9451650">
<ele>93.400002</ele>
<time>2017-07-11T05:48:54.000Z</time>
</trkpt>
<trkpt lat="31.9393600" lon="34.9452250">
<ele>93.599998</ele>
<time>2017-07-11T05:48:55.000Z</time>
</trkpt>
<trkpt lat="31.9393570" lon="34.9452820">
<ele>93.700005</ele>
<time>2017-07-11T05:48:56.000Z</time>
</trkpt>
<trkpt lat="31.9393460" lon="34.9453390">
<ele>93.900002</ele>
<time>2017-07-11T05:48:57.000Z</time>
</trkpt>
<trkpt lat="31.9393290" lon="34.9453850">
<ele>94.000000</ele>
<time>2017-07-11T05:48:58.000Z</time>
</trkpt>
<trkpt lat="31.9393000" lon="34.9454220">
<ele>93.900002</ele>
<time>2017-07-11T05:48:59.000Z</time>
</trkpt>
<trkpt lat="31.9392590" lon="34.9454580">
<ele>93.799995</ele>
<time>2017-07-11T05:49:00.000Z</time>
</trkpt>
<trkpt lat="31.9392220" lon="34.9454940">
<ele>93.599998</ele>
<time>2017-07-11T05:49:01.000Z</time>
</trkpt>
<trkpt lat="31.9391820" lon="34.9455350">
<ele>93.400002</ele>
<time>2017-07-11T05:49:02.000Z</time>
</trkpt>
<trkpt lat="31.9391500" lon="34.9455890">
<ele>93.099998</ele>
<time>2017-07-11T05:49:03.000Z</time>
</trkpt>
<trkpt lat="31.9391030" lon="34.9456530">
<ele>92.800003</ele>
<time>2017-07-11T05:49:04.000Z</time>
</trkpt>
<trkpt lat="31.9390600" lon="34.9457110">
<ele>92.500000</ele>
<time>2017-07-11T05:49:05.000Z</time>
</trkpt>
<trkpt lat="31.9390160" lon="34.9457540">
<ele>92.199997</ele>
<time>2017-07-11T05:49:06.000Z</time>
</trkpt>
<trkpt lat="31.9389750" lon="34.9458030">
<ele>91.900002</ele>
<time>2017-07-11T05:49:07.000Z</time>
</trkpt>
<trkpt lat="31.9389220" lon="34.9458780">
<ele>91.500000</ele>
<time>2017-07-11T05:49:08.000Z</time>
</trkpt>
<trkpt lat="31.9388710" lon="34.9459600">
<ele>91.199997</ele>
<time>2017-07-11T05:49:09.000Z</time>
</trkpt>
<trkpt lat="31.9388160" lon="34.9460260">
<ele>90.699997</ele>
<time>2017-07-11T05:49:10.000Z</time>
</trkpt>
<trkpt lat="31.9387600" lon="34.9460890">
<ele>90.000008</ele>
<time>2017-07-11T05:49:11.000Z</time>
</trkpt>
<trkpt lat="31.9387070" lon="34.9461650">
<ele>89.300003</ele>
<time>2017-07-11T05:49:12.000Z</time>
</trkpt>
<trkpt lat="31.9386610" lon="34.9462430">
<ele>88.599998</ele>
<time>2017-07-11T05:49:13.000Z</time>
</trkpt>
<trkpt lat="31.9386210" lon="34.9463270">
<ele>87.999992</ele>
<time>2017-07-11T05:49:14.000Z</time>
</trkpt>
<trkpt lat="31.9385920" lon="34.9464160">
<ele>87.500000</ele>
<time>2017-07-11T05:49:15.000Z</time>
</trkpt>
<trkpt lat="31.9385800" lon="34.9464980">
<ele>87.300003</ele>
<time>2017-07-11T05:49:16.000Z</time>
</trkpt>
<trkpt lat="31.9385940" lon="34.9465810">
<ele>87.000000</ele>
<time>2017-07-11T05:49:17.000Z</time>
</trkpt>
<trkpt lat="31.9386090" lon="34.9466640">
<ele>87.500000</ele>
<time>2017-07-11T05:49:18.000Z</time>
</trkpt>
<trkpt lat="31.9386090" lon="34.9467400">
<ele>87.900002</ele>
<time>2017-07-11T05:49:19.000Z</time>
</trkpt>
<trkpt lat="31.9385940" lon="34.9468110">
<ele>88.299995</ele>
<time>2017-07-11T05:49:20.000Z</time>
</trkpt>
<trkpt lat="31.9385760" lon="34.9468800">
<ele>88.699997</ele>
<time>2017-07-11T05:49:21.000Z</time>
</trkpt>
<trkpt lat="31.9385610" lon="34.9469480">
<ele>89.000000</ele>
<time>2017-07-11T05:49:22.000Z</time>
</trkpt>
<trkpt lat="31.9385540" lon="34.9470050">
<ele>89.199997</ele>
<time>2017-07-11T05:49:23.000Z</time>
</trkpt>
<trkpt lat="31.9385440" lon="34.9470610">
<ele>89.300003</ele>
<time>2017-07-11T05:49:24.000Z</time>
</trkpt>
<trkpt lat="31.9385360" lon="34.9471200">
<ele>89.300003</ele>
<time>2017-07-11T05:49:25.000Z</time>
</trkpt>
<trkpt lat="31.9385420" lon="34.9471680">
<ele>89.400002</ele>
<time>2017-07-11T05:49:26.000Z</time>
</trkpt>
<trkpt lat="31.9385560" lon="34.9472140">
<ele>89.500000</ele>
<time>2017-07-11T05:49:27.000Z</time>
</trkpt>
<trkpt lat="31.9385640" lon="34.9472580">
<ele>89.500000</ele>
<time>2017-07-11T05:49:28.000Z</time>
</trkpt>
<trkpt lat="31.9385730" lon="34.9473040">
<ele>89.599998</ele>
<time>2017-07-11T05:49:29.000Z</time>
</trkpt>
<trkpt lat="31.9385830" lon="34.9473490">
<ele>89.599998</ele>
<time>2017-07-11T05:49:30.000Z</time>
</trkpt>
<trkpt lat="31.9385850" lon="34.9473830">
<ele>89.700005</ele>
<time>2017-07-11T05:49:31.000Z</time>
</trkpt>
<trkpt lat="31.9386020" lon="34.9474400">
<ele>90.099998</ele>
<time>2017-07-11T05:49:33.000Z</time>
</trkpt>
<trkpt lat="31.9386180" lon="34.9474940">
<ele>90.699997</ele>
<time>2017-07-11T05:49:35.000Z</time>
</trkpt>
<trkpt lat="31.9386350" lon="34.9475540">
<ele>91.500000</ele>
<time>2017-07-11T05:49:37.000Z</time>
</trkpt>
<trkpt lat="31.9386450" lon="34.9475840">
<ele>91.900002</ele>
<time>2017-07-11T05:49:38.000Z</time>
</trkpt>
<trkpt lat="31.9386580" lon="34.9476150">
<ele>92.399994</ele>
<time>2017-07-11T05:49:39.000Z</time>
</trkpt>
<trkpt lat="31.9386720" lon="34.9476500">
<ele>93.099998</ele>
<time>2017-07-11T05:49:40.000Z</time>
</trkpt>
<trkpt lat="31.9386850" lon="34.9476880">
<ele>93.700005</ele>
<time>2017-07-11T05:49:41.000Z</time>
</trkpt>
<trkpt lat="31.9387010" lon="34.9477260">
<ele>93.700005</ele>
<time>2017-07-11T05:49:42.000Z</time>
</trkpt>
<trkpt lat="31.9387140" lon="34.9477610">
<ele>94.099998</ele>
<time>2017-07-11T05:49:43.000Z</time>
</trkpt>
<trkpt lat="31.9387360" lon="34.9478210">
<ele>93.700005</ele>
<time>2017-07-11T05:49:45.000Z</time>
</trkpt>
<trkpt lat="31.9387480" lon="34.9478500">
<ele>94.099998</ele>
<time>2017-07-11T05:49:46.000Z</time>
</trkpt>
<trkpt lat="31.9387580" lon="34.9478830">
<ele>94.300003</ele>
<time>2017-07-11T05:49:47.000Z</time>
</trkpt>
<trkpt lat="31.9387750" lon="34.9479200">
<ele>93.900002</ele>
<time>2017-07-11T05:49:48.000Z</time>
</trkpt>
<trkpt lat="31.9387950" lon="34.9479550">
<ele>94.099998</ele>
<time>2017-07-11T05:49:49.000Z</time>
</trkpt>
<trkpt lat="31.9388080" lon="34.9479840">
<ele>94.000000</ele>
<time>2017-07-11T05:49:50.000Z</time>
</trkpt>
<trkpt lat="31.9388220" lon="34.9480190">
<ele>94.399994</ele>
<time>2017-07-11T05:49:51.000Z</time>
</trkpt>
<trkpt lat="31.9388340" lon="34.9480510">
<ele>94.800003</ele>
<time>2017-07-11T05:49:52.000Z</time>
</trkpt>
<trkpt lat="31.9388470" lon="34.9480850">
<ele>95.099998</ele>
<time>2017-07-11T05:49:53.000Z</time>
</trkpt>
<trkpt lat="31.9388580" lon="34.9481220">
<ele>95.699997</ele>
<time>2017-07-11T05:49:54.000Z</time>
</trkpt>
<trkpt lat="31.9388650" lon="34.9481580">
<ele>96.400002</ele>
<time>2017-07-11T05:49:55.000Z</time>
</trkpt>
<trkpt lat="31.9388740" lon="34.9481930">
<ele>96.500000</ele>
<time>2017-07-11T05:49:56.000Z</time>
</trkpt>
<trkpt lat="31.9388840" lon="34.9482330">
<ele>97.200005</ele>
<time>2017-07-11T05:49:57.000Z</time>
</trkpt>
<trkpt lat="31.9388930" lon="34.9482760">
<ele>98.000000</ele>
<time>2017-07-11T05:49:58.000Z</time>
</trkpt>
<trkpt lat="31.9388970" lon="34.9483140">
<ele>98.199997</ele>
<time>2017-07-11T05:49:59.000Z</time>
</trkpt>
<trkpt lat="31.9389010" lon="34.9483530">
<ele>98.599998</ele>
<time>2017-07-11T05:50:00.000Z</time>
</trkpt>
<trkpt lat="31.9389050" lon="34.9483880">
<ele>98.900002</ele>
<time>2017-07-11T05:50:01.000Z</time>
</trkpt>
<trkpt lat="31.9389060" lon="34.9484260">
<ele>99.199997</ele>
<time>2017-07-11T05:50:02.000Z</time>
</trkpt>
<trkpt lat="31.9389160" lon="34.9484840">
<ele>99.800003</ele>
<time>2017-07-11T05:50:04.000Z</time>
</trkpt>
<trkpt lat="31.9389330" lon="34.9485450">
<ele>100.299995</ele>
<time>2017-07-11T05:50:06.000Z</time>
</trkpt>
<trkpt lat="31.9389430" lon="34.9485830">
<ele>100.599998</ele>
<time>2017-07-11T05:50:07.000Z</time>
</trkpt>
<trkpt lat="31.9389530" lon="34.9486440">
<ele>101.000000</ele>
<time>2017-07-11T05:50:09.000Z</time>
</trkpt>
<trkpt lat="31.9389560" lon="34.9486770">
<ele>101.199997</ele>
<time>2017-07-11T05:50:10.000Z</time>
</trkpt>
<trkpt lat="31.9389690" lon="34.9487140">
<ele>101.500000</ele>
<time>2017-07-11T05:50:11.000Z</time>
</trkpt>
<trkpt lat="31.9389810" lon="34.9487460">
<ele>101.800003</ele>
<time>2017-07-11T05:50:12.000Z</time>
</trkpt>
<trkpt lat="31.9389920" lon="34.9487750">
<ele>102.000000</ele>
<time>2017-07-11T05:50:13.000Z</time>
</trkpt>
<trkpt lat="31.9390170" lon="34.9488200">
<ele>101.399994</ele>
<time>2017-07-11T05:50:15.000Z</time>
</trkpt>
<trkpt lat="31.9390600" lon="34.9488590">
<ele>100.599998</ele>
<time>2017-07-11T05:50:17.000Z</time>
</trkpt>
<trkpt lat="31.9390810" lon="34.9488820">
<ele>100.099998</ele>
<time>2017-07-11T05:50:18.000Z</time>
</trkpt>
<trkpt lat="31.9391060" lon="34.9489020">
<ele>99.600006</ele>
<time>2017-07-11T05:50:19.000Z</time>
</trkpt>
<trkpt lat="31.9391330" lon="34.9489170">
<ele>99.000000</ele>
<time>2017-07-11T05:50:20.000Z</time>
</trkpt>
<trkpt lat="31.9391730" lon="34.9489480">
<ele>98.300003</ele>
<time>2017-07-11T05:50:22.000Z</time>
</trkpt>
<trkpt lat="31.9392020" lon="34.9489840">
<ele>97.699997</ele>
<time>2017-07-11T05:50:24.000Z</time>
</trkpt>
<trkpt lat="31.9392320" lon="34.9490220">
<ele>97.299995</ele>
<time>2017-07-11T05:50:26.000Z</time>
</trkpt>
<trkpt lat="31.9392520" lon="34.9490500">
<ele>96.999992</ele>
<time>2017-07-11T05:50:27.000Z</time>
</trkpt>
<trkpt lat="31.9392730" lon="34.9490840">
<ele>96.700005</ele>
<time>2017-07-11T05:50:29.000Z</time>
</trkpt>
<trkpt lat="31.9392990" lon="34.9491170">
<ele>96.500000</ele>
<time>2017-07-11T05:50:30.000Z</time>
</trkpt>
<trkpt lat="31.9393180" lon="34.9491410">
<ele>96.400002</ele>
<time>2017-07-11T05:50:31.000Z</time>
</trkpt>
<trkpt lat="31.9393470" lon="34.9491810">
<ele>96.199997</ele>
<time>2017-07-11T05:50:33.000Z</time>
</trkpt>
<trkpt lat="31.9393740" lon="34.9492280">
<ele>96.100006</ele>
<time>2017-07-11T05:50:35.000Z</time>
</trkpt>
<trkpt lat="31.9393980" lon="34.9492840">
<ele>96.000000</ele>
<time>2017-07-11T05:50:37.000Z</time>
</trkpt>
<trkpt lat="31.9394210" lon="34.9493400">
<ele>96.000000</ele>
<time>2017-07-11T05:50:39.000Z</time>
</trkpt>
<trkpt lat="31.9394400" lon="34.9493830">
<ele>96.000000</ele>
<time>2017-07-11T05:50:41.000Z</time>
</trkpt>
<trkpt lat="31.9394520" lon="34.9494270">
<ele>96.100006</ele>
<time>2017-07-11T05:50:43.000Z</time>
</trkpt>
<trkpt lat="31.9394640" lon="34.9494590">
<ele>96.199997</ele>
<time>2017-07-11T05:50:45.000Z</time>
</trkpt>
<trkpt lat="31.9394890" lon="34.9494940">
<ele>96.300003</ele>
<time>2017-07-11T05:50:47.000Z</time>
</trkpt>
<trkpt lat="31.9395150" lon="34.9495400">
<ele>96.500000</ele>
<time>2017-07-11T05:50:49.000Z</time>
</trkpt>
<trkpt lat="31.9395310" lon="34.9495670">
<ele>96.599998</ele>
<time>2017-07-11T05:50:50.000Z</time>
</trkpt>
<trkpt lat="31.9395540" lon="34.9496060">
<ele>96.799995</ele>
<time>2017-07-11T05:50:52.000Z</time>
</trkpt>
<trkpt lat="31.9395770" lon="34.9496510">
<ele>96.999992</ele>
<time>2017-07-11T05:50:54.000Z</time>
</trkpt>
<trkpt lat="31.9396040" lon="34.9496870">
<ele>97.200005</ele>
<time>2017-07-11T05:50:56.000Z</time>
</trkpt>
<trkpt lat="31.9396200" lon="34.9497140">
<ele>97.299995</ele>
<time>2017-07-11T05:50:58.000Z</time>
</trkpt>
<trkpt lat="31.9396350" lon="34.9497480">
<ele>97.500000</ele>
<time>2017-07-11T05:51:00.000Z</time>
</trkpt>
<trkpt lat="31.9396580" lon="34.9497860">
<ele>97.599998</ele>
<time>2017-07-11T05:51:02.000Z</time>
</trkpt>
<trkpt lat="31.9396750" lon="34.9498360">
<ele>97.800003</ele>
<time>2017-07-11T05:51:04.000Z</time>
</trkpt>
<trkpt lat="31.9396810" lon="34.9498760">
<ele>97.899994</ele>
<time>2017-07-11T05:51:06.000Z</time>
</trkpt>
<trkpt lat="31.9396920" lon="34.9499230">
<ele>98.000000</ele>
<time>2017-07-11T05:51:08.000Z</time>
</trkpt>
<trkpt lat="31.9397080" lon="34.9499660">
<ele>98.100006</ele>
<time>2017-07-11T05:51:10.000Z</time>
</trkpt>
<trkpt lat="31.9397240" lon="34.9500040">
<ele>98.100006</ele>
<time>2017-07-11T05:51:12.000Z</time>
</trkpt>
<trkpt lat="31.9397430" lon="34.9500470">
<ele>98.100006</ele>
<time>2017-07-11T05:51:14.000Z</time>
</trkpt>
<trkpt lat="31.9397500" lon="34.9500820">
<ele>98.199997</ele>
<time>2017-07-11T05:51:16.000Z</time>
</trkpt>
<trkpt lat="31.9397570" lon="34.9501170">
<ele>98.199997</ele>
<time>2017-07-11T05:51:18.000Z</time>
</trkpt>
<trkpt lat="31.9397620" lon="34.9501500">
<ele>98.199997</ele>
<time>2017-07-11T05:51:21.000Z</time>
</trkpt>
<trkpt lat="31.9397780" lon="34.9501850">
<ele>98.100006</ele>
<time>2017-07-11T05:51:24.000Z</time>
</trkpt>
<trkpt lat="31.9398000" lon="34.9502300">
<ele>98.100006</ele>
<time>2017-07-11T05:51:27.000Z</time>
</trkpt>
<trkpt lat="31.9398180" lon="34.9502580">
<ele>98.100006</ele>
<time>2017-07-11T05:51:29.000Z</time>
</trkpt>
<trkpt lat="31.9398420" lon="34.9502990">
<ele>98.100006</ele>
<time>2017-07-11T05:51:31.000Z</time>
</trkpt>
<trkpt lat="31.9398580" lon="34.9503320">
<ele>98.000000</ele>
<time>2017-07-11T05:51:33.000Z</time>
</trkpt>
<trkpt lat="31.9398830" lon="34.9503650">
<ele>98.000000</ele>
<time>2017-07-11T05:51:36.000Z</time>
</trkpt>
<trkpt lat="31.9399040" lon="34.9503960">
<ele>98.000000</ele>
<time>2017-07-11T05:51:39.000Z</time>
</trkpt>
<trkpt lat="31.9399240" lon="34.9504220">
<ele>98.000000</ele>
<time>2017-07-11T05:51:41.000Z</time>
</trkpt>
<trkpt lat="31.9399490" lon="34.9504580">
<ele>98.000000</ele>
<time>2017-07-11T05:51:44.000Z</time>
</trkpt>
<trkpt lat="31.9399710" lon="34.9504970">
<ele>98.199997</ele>
<time>2017-07-11T05:51:46.000Z</time>
</trkpt>
<trkpt lat="31.9399890" lon="34.9505210">
<ele>98.799995</ele>
<time>2017-07-11T05:51:48.000Z</time>
</trkpt>
<trkpt lat="31.9400120" lon="34.9505500">
<ele>99.400002</ele>
<time>2017-07-11T05:51:51.000Z</time>
</trkpt>
<trkpt lat="31.9400310" lon="34.9505760">
<ele>99.800003</ele>
<time>2017-07-11T05:51:53.000Z</time>
</trkpt>
<trkpt lat="31.9400560" lon="34.9506090">
<ele>100.099998</ele>
<time>2017-07-11T05:51:57.000Z</time>
</trkpt>
<trkpt lat="31.9400680" lon="34.9506410">
<ele>100.299995</ele>
<time>2017-07-11T05:52:00.000Z</time>
</trkpt>
<trkpt lat="31.9400930" lon="34.9506880">
<ele>100.599998</ele>
<time>2017-07-11T05:52:02.000Z</time>
</trkpt>
<trkpt lat="31.9401160" lon="34.9507240">
<ele>101.000000</ele>
<time>2017-07-11T05:52:05.000Z</time>
</trkpt>
<trkpt lat="31.9401360" lon="34.9507470">
<ele>101.199997</ele>
<time>2017-07-11T05:52:06.000Z</time>
</trkpt>
<trkpt lat="31.9401530" lon="34.9507760">
<ele>101.600006</ele>
<time>2017-07-11T05:52:08.000Z</time>
</trkpt>
<trkpt lat="31.9401660" lon="34.9508110">
<ele>102.000000</ele>
<time>2017-07-11T05:52:12.000Z</time>
</trkpt>
<trkpt lat="31.9401910" lon="34.9508490">
<ele>102.500008</ele>
<time>2017-07-11T05:52:16.000Z</time>
</trkpt>
<trkpt lat="31.9402090" lon="34.9508870">
<ele>102.900002</ele>
<time>2017-07-11T05:52:19.000Z</time>
</trkpt>
<trkpt lat="31.9402300" lon="34.9509240">
<ele>103.399994</ele>
<time>2017-07-11T05:52:22.000Z</time>
</trkpt>
<trkpt lat="31.9402410" lon="34.9509600">
<ele>103.900002</ele>
<time>2017-07-11T05:52:25.000Z</time>
</trkpt>
<trkpt lat="31.9402590" lon="34.9509880">
<ele>104.400002</ele>
<time>2017-07-11T05:52:29.000Z</time>
</trkpt>
<trkpt lat="31.9402840" lon="34.9510160">
<ele>104.899994</ele>
<time>2017-07-11T05:52:33.000Z</time>
</trkpt>
<trkpt lat="31.9403070" lon="34.9510520">
<ele>105.400002</ele>
<time>2017-07-11T05:52:36.000Z</time>
</trkpt>
<trkpt lat="31.9403290" lon="34.9510830">
<ele>105.900002</ele>
<time>2017-07-11T05:52:39.000Z</time>
</trkpt>
<trkpt lat="31.9403450" lon="34.9511130">
<ele>106.500000</ele>
<time>2017-07-11T05:52:42.000Z</time>
</trkpt>
<trkpt lat="31.9403770" lon="34.9511310">
<ele>107.199997</ele>
<time>2017-07-11T05:52:45.000Z</time>
</trkpt>
<trkpt lat="31.9404080" lon="34.9511460">
<ele>107.799995</ele>
<time>2017-07-11T05:52:47.000Z</time>
</trkpt>
<trkpt lat="31.9404410" lon="34.9511640">
<ele>108.399994</ele>
<time>2017-07-11T05:52:49.000Z</time>
</trkpt>
<trkpt lat="31.9404670" lon="34.9511820">
<ele>109.200005</ele>
<time>2017-07-11T05:52:51.000Z</time>
</trkpt>
<trkpt lat="31.9405010" lon="34.9511940">
<ele>109.299995</ele>
<time>2017-07-11T05:52:54.000Z</time>
</trkpt>
<trkpt lat="31.9405280" lon="34.9511990">
<ele>109.400002</ele>
<time>2017-07-11T05:52:56.000Z</time>
</trkpt>
<trkpt lat="31.9405660" lon="34.9512030">
<ele>109.599998</ele>
<time>2017-07-11T05:52:59.000Z</time>
</trkpt>
<trkpt lat="31.9405960" lon="34.9512080">
<ele>109.700005</ele>
<time>2017-07-11T05:53:02.000Z</time>
</trkpt>
<trkpt lat="31.9406260" lon="34.9512210">
<ele>109.900002</ele>
<time>2017-07-11T05:53:06.000Z</time>
</trkpt>
<trkpt lat="31.9406550" lon="34.9512310">
<ele>110.099998</ele>
<time>2017-07-11T05:53:09.000Z</time>
</trkpt>
<trkpt lat="31.9406880" lon="34.9512290">
<ele>110.300003</ele>
<time>2017-07-11T05:53:12.000Z</time>
</trkpt>
<trkpt lat="31.9407160" lon="34.9512300">
<ele>110.500000</ele>
<time>2017-07-11T05:53:15.000Z</time>
</trkpt>
<trkpt lat="31.9407510" lon="34.9512350">
<ele>110.699997</ele>
<time>2017-07-11T05:53:17.000Z</time>
</trkpt>
<trkpt lat="31.9408140" lon="34.9512640">
<ele>112.000000</ele>
<time>2017-07-11T05:53:21.000Z</time>
</trkpt>
<trkpt lat="31.9408500" lon="34.9512720">
<ele>112.400002</ele>
<time>2017-07-11T05:53:23.000Z</time>
</trkpt>
<trkpt lat="31.9408880" lon="34.9512690">
<ele>112.799995</ele>
<time>2017-07-11T05:53:26.000Z</time>
</trkpt>
<trkpt lat="31.9409190" lon="34.9512770">
<ele>113.200005</ele>
<time>2017-07-11T05:53:29.000Z</time>
</trkpt>
<trkpt lat="31.9409510" lon="34.9512870">
<ele>113.800003</ele>
<time>2017-07-11T05:53:31.000Z</time>
</trkpt>
<trkpt lat="31.9409880" lon="34.9512840">
<ele>114.500000</ele>
<time>2017-07-11T05:53:33.000Z</time>
</trkpt>
<trkpt lat="31.9410340" lon="34.9512780">
<ele>115.099998</ele>
<time>2017-07-11T05:53:35.000Z</time>
</trkpt>
<trkpt lat="31.9410610" lon="34.9512760">
<ele>115.300003</ele>
<time>2017-07-11T05:53:36.000Z</time>
</trkpt>
<trkpt lat="31.9411130" lon="34.9512710">
<ele>115.600006</ele>
<time>2017-07-11T05:53:38.000Z</time>
</trkpt>
<trkpt lat="31.9411450" lon="34.9512620">
<ele>115.800003</ele>
<time>2017-07-11T05:53:39.000Z</time>
</trkpt>
<trkpt lat="31.9411750" lon="34.9512620">
<ele>116.000000</ele>
<time>2017-07-11T05:53:40.000Z</time>
</trkpt>
<trkpt lat="31.9412050" lon="34.9512600">
<ele>116.000000</ele>
<time>2017-07-11T05:53:41.000Z</time>
</trkpt>
<trkpt lat="31.9412340" lon="34.9512520">
<ele>116.099998</ele>
<time>2017-07-11T05:53:42.000Z</time>
</trkpt>
<trkpt lat="31.9412610" lon="34.9512420">
<ele>116.099998</ele>
<time>2017-07-11T05:53:43.000Z</time>
</trkpt>
<trkpt lat="31.9412920" lon="34.9512290">
<ele>116.099998</ele>
<time>2017-07-11T05:53:44.000Z</time>
</trkpt>
<trkpt lat="31.9413420" lon="34.9512090">
<ele>116.199997</ele>
<time>2017-07-11T05:53:46.000Z</time>
</trkpt>
<trkpt lat="31.9413860" lon="34.9512040">
<ele>116.199997</ele>
<time>2017-07-11T05:53:47.000Z</time>
</trkpt>
<trkpt lat="31.9414590" lon="34.9511930">
<ele>116.199997</ele>
<time>2017-07-11T05:53:48.000Z</time>
</trkpt>
<trkpt lat="31.9415270" lon="34.9511970">
<ele>116.099998</ele>
<time>2017-07-11T05:53:49.000Z</time>
</trkpt>
<trkpt lat="31.9416040" lon="34.9512060">
<ele>116.099998</ele>
<time>2017-07-11T05:53:50.000Z</time>
</trkpt>
<trkpt lat="31.9416610" lon="34.9512170">
<ele>116.099998</ele>
<time>2017-07-11T05:53:51.000Z</time>
</trkpt>
<trkpt lat="31.9417080" lon="34.9512310">
<ele>116.000000</ele>
<time>2017-07-11T05:53:52.000Z</time>
</trkpt>
<trkpt lat="31.9417500" lon="34.9512460">
<ele>116.000000</ele>
<time>2017-07-11T05:53:53.000Z</time>
</trkpt>
<trkpt lat="31.9418000" lon="34.9512620">
<ele>116.000000</ele>
<time>2017-07-11T05:53:54.000Z</time>
</trkpt>
<trkpt lat="31.9418390" lon="34.9512770">
<ele>116.000000</ele>
<time>2017-07-11T05:53:55.000Z</time>
</trkpt>
<trkpt lat="31.9418680" lon="34.9512900">
<ele>116.000000</ele>
<time>2017-07-11T05:53:56.000Z</time>
</trkpt>
<trkpt lat="31.9418910" lon="34.9513060">
<ele>116.000000</ele>
<time>2017-07-11T05:53:57.000Z</time>
</trkpt>
<trkpt lat="31.9419180" lon="34.9513230">
<ele>116.000000</ele>
<time>2017-07-11T05:53:58.000Z</time>
</trkpt>
<trkpt lat="31.9419500" lon="34.9513390">
<ele>115.899994</ele>
<time>2017-07-11T05:53:59.000Z</time>
</trkpt>
<trkpt lat="31.9419840" lon="34.9513460">
<ele>115.800003</ele>
<time>2017-07-11T05:54:00.000Z</time>
</trkpt>
<trkpt lat="31.9420160" lon="34.9513420">
<ele>115.699997</ele>
<time>2017-07-11T05:54:01.000Z</time>
</trkpt>
<trkpt lat="31.9420520" lon="34.9513320">
<ele>115.600006</ele>
<time>2017-07-11T05:54:02.000Z</time>
</trkpt>
<trkpt lat="31.9420800" lon="34.9513170">
<ele>115.400002</ele>
<time>2017-07-11T05:54:03.000Z</time>
</trkpt>
<trkpt lat="31.9421180" lon="34.9512880">
<ele>115.099998</ele>
<time>2017-07-11T05:54:05.000Z</time>
</trkpt>
<trkpt lat="31.9421420" lon="34.9512520">
<ele>114.799995</ele>
<time>2017-07-11T05:54:07.000Z</time>
</trkpt>
<trkpt lat="31.9421750" lon="34.9512070">
<ele>114.500000</ele>
<time>2017-07-11T05:54:09.000Z</time>
</trkpt>
<trkpt lat="31.9422000" lon="34.9511860">
<ele>114.300003</ele>
<time>2017-07-11T05:54:10.000Z</time>
</trkpt>
<trkpt lat="31.9422350" lon="34.9511720">
<ele>114.000000</ele>
<time>2017-07-11T05:54:11.000Z</time>
</trkpt>
<trkpt lat="31.9422680" lon="34.9511550">
<ele>113.800003</ele>
<time>2017-07-11T05:54:12.000Z</time>
</trkpt>
<trkpt lat="31.9423100" lon="34.9511400">
<ele>113.500000</ele>
<time>2017-07-11T05:54:13.000Z</time>
</trkpt>
<trkpt lat="31.9423600" lon="34.9511250">
<ele>112.999992</ele>
<time>2017-07-11T05:54:14.000Z</time>
</trkpt>
<trkpt lat="31.9424110" lon="34.9511090">
<ele>112.599998</ele>
<time>2017-07-11T05:54:15.000Z</time>
</trkpt>
<trkpt lat="31.9424620" lon="34.9510950">
<ele>112.199997</ele>
<time>2017-07-11T05:54:16.000Z</time>
</trkpt>
<trkpt lat="31.9425240" lon="34.9510870">
<ele>110.900002</ele>
<time>2017-07-11T05:54:17.000Z</time>
</trkpt>
<trkpt lat="31.9425850" lon="34.9510980">
<ele>109.400002</ele>
<time>2017-07-11T05:54:18.000Z</time>
</trkpt>
<trkpt lat="31.9426370" lon="34.9511230">
<ele>108.000000</ele>
<time>2017-07-11T05:54:19.000Z</time>
</trkpt>
<trkpt lat="31.9426880" lon="34.9511480">
<ele>106.699997</ele>
<time>2017-07-11T05:54:20.000Z</time>
</trkpt>
<trkpt lat="31.9427220" lon="34.9511720">
<ele>105.799995</ele>
<time>2017-07-11T05:54:21.000Z</time>
</trkpt>
<trkpt lat="31.9427560" lon="34.9512150">
<ele>106.099998</ele>
<time>2017-07-11T05:54:23.000Z</time>
</trkpt>
<trkpt lat="31.9427910" lon="34.9512520">
<ele>106.500000</ele>
<time>2017-07-11T05:54:25.000Z</time>
</trkpt>
<trkpt lat="31.9428210" lon="34.9512990">
<ele>107.000000</ele>
<time>2017-07-11T05:54:27.000Z</time>
</trkpt>
<trkpt lat="31.9428310" lon="34.9513320">
<ele>107.199997</ele>
<time>2017-07-11T05:54:28.000Z</time>
</trkpt>
<trkpt lat="31.9428430" lon="34.9513800">
<ele>107.599998</ele>
<time>2017-07-11T05:54:30.000Z</time>
</trkpt>
<trkpt lat="31.9428310" lon="34.9514410">
<ele>108.300003</ele>
<time>2017-07-11T05:54:31.000Z</time>
</trkpt>
<trkpt lat="31.9428280" lon="34.9514970">
<ele>109.000000</ele>
<time>2017-07-11T05:54:32.000Z</time>
</trkpt>
<trkpt lat="31.9428340" lon="34.9515320">
<ele>109.500008</ele>
<time>2017-07-11T05:54:33.000Z</time>
</trkpt>
<trkpt lat="31.9428450" lon="34.9515690">
<ele>110.000000</ele>
<time>2017-07-11T05:54:34.000Z</time>
</trkpt>
<trkpt lat="31.9428570" lon="34.9516330">
<ele>110.600006</ele>
<time>2017-07-11T05:54:36.000Z</time>
</trkpt>
<trkpt lat="31.9428700" lon="34.9516830">
<ele>111.000000</ele>
<time>2017-07-11T05:54:38.000Z</time>
</trkpt>
<trkpt lat="31.9428730" lon="34.9517300">
<ele>111.299995</ele>
<time>2017-07-11T05:54:40.000Z</time>
</trkpt>
<trkpt lat="31.9428700" lon="34.9517950">
<ele>111.599998</ele>
<time>2017-07-11T05:54:42.000Z</time>
</trkpt>
<trkpt lat="31.9428810" lon="34.9518370">
<ele>111.800003</ele>
<time>2017-07-11T05:54:43.000Z</time>
</trkpt>
<trkpt lat="31.9428810" lon="34.9518690">
<ele>111.899994</ele>
<time>2017-07-11T05:54:44.000Z</time>
</trkpt>
<trkpt lat="31.9428840" lon="34.9519050">
<ele>112.100006</ele>
<time>2017-07-11T05:54:45.000Z</time>
</trkpt>
<trkpt lat="31.9428870" lon="34.9519680">
<ele>112.400002</ele>
<time>2017-07-11T05:54:47.000Z</time>
</trkpt>
<trkpt lat="31.9428820" lon="34.9520170">
<ele>112.599998</ele>
<time>2017-07-11T05:54:49.000Z</time>
</trkpt>
<trkpt lat="31.9428880" lon="34.9520520">
<ele>112.799995</ele>
<time>2017-07-11T05:54:50.000Z</time>
</trkpt>
<trkpt lat="31.9428980" lon="34.9521230">
<ele>113.099998</ele>
<time>2017-07-11T05:54:52.000Z</time>
</trkpt>
<trkpt lat="31.9429040" lon="34.9521610">
<ele>113.400002</ele>
<time>2017-07-11T05:54:53.000Z</time>
</trkpt>
<trkpt lat="31.9429110" lon="34.9521980">
<ele>113.899994</ele>
<time>2017-07-11T05:54:54.000Z</time>
</trkpt>
<trkpt lat="31.9429180" lon="34.9522360">
<ele>114.400002</ele>
<time>2017-07-11T05:54:55.000Z</time>
</trkpt>
<trkpt lat="31.9429300" lon="34.9522670">
<ele>114.900002</ele>
<time>2017-07-11T05:54:56.000Z</time>
</trkpt>
<trkpt lat="31.9429400" lon="34.9523230">
<ele>115.699997</ele>
<time>2017-07-11T05:54:58.000Z</time>
</trkpt>
<trkpt lat="31.9429610" lon="34.9523850">
<ele>116.299995</ele>
<time>2017-07-11T05:55:00.000Z</time>
</trkpt>
<trkpt lat="31.9429700" lon="34.9524190">
<ele>116.700005</ele>
<time>2017-07-11T05:55:01.000Z</time>
</trkpt>
<trkpt lat="31.9429760" lon="34.9524650">
<ele>117.000000</ele>
<time>2017-07-11T05:55:03.000Z</time>
</trkpt>
<trkpt lat="31.9429760" lon="34.9525110">
<ele>117.199997</ele>
<time>2017-07-11T05:55:05.000Z</time>
</trkpt>
<trkpt lat="31.9429760" lon="34.9525550">
<ele>117.399994</ele>
<time>2017-07-11T05:55:07.000Z</time>
</trkpt>
<trkpt lat="31.9429810" lon="34.9526100">
<ele>117.699997</ele>
<time>2017-07-11T05:55:09.000Z</time>
</trkpt>
<trkpt lat="31.9429850" lon="34.9526470">
<ele>117.900002</ele>
<time>2017-07-11T05:55:10.000Z</time>
</trkpt>
<trkpt lat="31.9429820" lon="34.9527150">
<ele>118.299995</ele>
<time>2017-07-11T05:55:12.000Z</time>
</trkpt>
<trkpt lat="31.9429790" lon="34.9527910">
<ele>118.599998</ele>
<time>2017-07-11T05:55:14.000Z</time>
</trkpt>
<trkpt lat="31.9429800" lon="34.9528260">
<ele>118.700005</ele>
<time>2017-07-11T05:55:15.000Z</time>
</trkpt>
<trkpt lat="31.9429720" lon="34.9528700">
<ele>118.800003</ele>
<time>2017-07-11T05:55:16.000Z</time>
</trkpt>
<trkpt lat="31.9429700" lon="34.9529090">
<ele>119.000000</ele>
<time>2017-07-11T05:55:17.000Z</time>
</trkpt>
<trkpt lat="31.9429690" lon="34.9529430">
<ele>119.000000</ele>
<time>2017-07-11T05:55:18.000Z</time>
</trkpt>
<trkpt lat="31.9429750" lon="34.9530010">
<ele>119.199997</ele>
<time>2017-07-11T05:55:20.000Z</time>
</trkpt>
<trkpt lat="31.9429710" lon="34.9530380">
<ele>119.199997</ele>
<time>2017-07-11T05:55:21.000Z</time>
</trkpt>
<trkpt lat="31.9429740" lon="34.9530790">
<ele>119.300003</ele>
<time>2017-07-11T05:55:22.000Z</time>
</trkpt>
<trkpt lat="31.9429720" lon="34.9531210">
<ele>119.399994</ele>
<time>2017-07-11T05:55:23.000Z</time>
</trkpt>
<trkpt lat="31.9429670" lon="34.9531540">
<ele>119.500000</ele>
<time>2017-07-11T05:55:24.000Z</time>
</trkpt>
<trkpt lat="31.9429680" lon="34.9531880">
<ele>119.599998</ele>
<time>2017-07-11T05:55:25.000Z</time>
</trkpt>
<trkpt lat="31.9429770" lon="34.9532450">
<ele>119.699997</ele>
<time>2017-07-11T05:55:27.000Z</time>
</trkpt>
<trkpt lat="31.9429810" lon="34.9532830">
<ele>119.799995</ele>
<time>2017-07-11T05:55:28.000Z</time>
</trkpt>
<trkpt lat="31.9429700" lon="34.9533430">
<ele>119.900002</ele>
<time>2017-07-11T05:55:29.000Z</time>
</trkpt>
<trkpt lat="31.9429820" lon="34.9533990">
<ele>120.099998</ele>
<time>2017-07-11T05:55:31.000Z</time>
</trkpt>
<trkpt lat="31.9429820" lon="34.9534440">
<ele>120.099998</ele>
<time>2017-07-11T05:55:32.000Z</time>
</trkpt>
<trkpt lat="31.9429830" lon="34.9534870">
<ele>120.200005</ele>
<time>2017-07-11T05:55:33.000Z</time>
</trkpt>
<trkpt lat="31.9429880" lon="34.9535240">
<ele>120.200005</ele>
<time>2017-07-11T05:55:34.000Z</time>
</trkpt>
<trkpt lat="31.9430000" lon="34.9535730">
<ele>120.299995</ele>
<time>2017-07-11T05:55:36.000Z</time>
</trkpt>
<trkpt lat="31.9430120" lon="34.9536060">
<ele>120.400002</ele>
<time>2017-07-11T05:55:37.000Z</time>
</trkpt>
<trkpt lat="31.9430200" lon="34.9536360">
<ele>120.400002</ele>
<time>2017-07-11T05:55:38.000Z</time>
</trkpt>
<trkpt lat="31.9430370" lon="34.9536760">
<ele>120.500000</ele>
<time>2017-07-11T05:55:39.000Z</time>
</trkpt>
<trkpt lat="31.9430640" lon="34.9537280">
<ele>120.599998</ele>
<time>2017-07-11T05:55:41.000Z</time>
</trkpt>
<trkpt lat="31.9430820" lon="34.9537690">
<ele>120.599998</ele>
<time>2017-07-11T05:55:43.000Z</time>
</trkpt>
<trkpt lat="31.9430990" lon="34.9538200">
<ele>120.699997</ele>
<time>2017-07-11T05:55:45.000Z</time>
</trkpt>
<trkpt lat="31.9431170" lon="34.9538810">
<ele>120.800003</ele>
<time>2017-07-11T05:55:47.000Z</time>
</trkpt>
<trkpt lat="31.9431130" lon="34.9539170">
<ele>120.800003</ele>
<time>2017-07-11T05:55:48.000Z</time>
</trkpt>
<trkpt lat="31.9431190" lon="34.9539500">
<ele>120.899994</ele>
<time>2017-07-11T05:55:49.000Z</time>
</trkpt>
<trkpt lat="31.9431380" lon="34.9540000">
<ele>120.899994</ele>
<time>2017-07-11T05:55:51.000Z</time>
</trkpt>
<trkpt lat="31.9431570" lon="34.9540410">
<ele>121.000000</ele>
<time>2017-07-11T05:55:53.000Z</time>
</trkpt>
<trkpt lat="31.9431730" lon="34.9540690">
<ele>121.000000</ele>
<time>2017-07-11T05:55:54.000Z</time>
</trkpt>
<trkpt lat="31.9431830" lon="34.9541020">
<ele>121.000000</ele>
<time>2017-07-11T05:55:55.000Z</time>
</trkpt>
<trkpt lat="31.9431930" lon="34.9541510">
<ele>121.100006</ele>
<time>2017-07-11T05:55:57.000Z</time>
</trkpt>
<trkpt lat="31.9431970" lon="34.9541900">
<ele>121.100006</ele>
<time>2017-07-11T05:55:59.000Z</time>
</trkpt>
<trkpt lat="31.9432100" lon="34.9542320">
<ele>121.100006</ele>
<time>2017-07-11T05:56:01.000Z</time>
</trkpt>
<trkpt lat="31.9432190" lon="34.9542670">
<ele>121.000000</ele>
<time>2017-07-11T05:56:03.000Z</time>
</trkpt>
<trkpt lat="31.9432390" lon="34.9543000">
<ele>121.000000</ele>
<time>2017-07-11T05:56:05.000Z</time>
</trkpt>
<trkpt lat="31.9432470" lon="34.9543560">
<ele>121.000000</ele>
<time>2017-07-11T05:56:07.000Z</time>
</trkpt>
<trkpt lat="31.9432660" lon="34.9544090">
<ele>121.000000</ele>
<time>2017-07-11T05:56:09.000Z</time>
</trkpt>
<trkpt lat="31.9432770" lon="34.9544600">
<ele>121.000000</ele>
<time>2017-07-11T05:56:11.000Z</time>
</trkpt>
<trkpt lat="31.9432820" lon="34.9545040">
<ele>121.000000</ele>
<time>2017-07-11T05:56:13.000Z</time>
</trkpt>
<trkpt lat="31.9432740" lon="34.9545500">
<ele>121.199997</ele>
<time>2017-07-11T05:56:15.000Z</time>
</trkpt>
<trkpt lat="31.9432690" lon="34.9545910">
<ele>121.500000</ele>
<time>2017-07-11T05:56:18.000Z</time>
</trkpt>
<trkpt lat="31.9432730" lon="34.9546330">
<ele>121.599998</ele>
<time>2017-07-11T05:56:20.000Z</time>
</trkpt>
<trkpt lat="31.9432800" lon="34.9546890">
<ele>121.799995</ele>
<time>2017-07-11T05:56:22.000Z</time>
</trkpt>
<trkpt lat="31.9432860" lon="34.9547540">
<ele>121.900002</ele>
<time>2017-07-11T05:56:24.000Z</time>
</trkpt>
<trkpt lat="31.9432860" lon="34.9547890">
<ele>122.000008</ele>
<time>2017-07-11T05:56:25.000Z</time>
</trkpt>
<trkpt lat="31.9432830" lon="34.9548220">
<ele>122.099998</ele>
<time>2017-07-11T05:56:26.000Z</time>
</trkpt>
<trkpt lat="31.9432810" lon="34.9548720">
<ele>122.299995</ele>
<time>2017-07-11T05:56:28.000Z</time>
</trkpt>
<trkpt lat="31.9432830" lon="34.9549170">
<ele>122.400002</ele>
<time>2017-07-11T05:56:30.000Z</time>
</trkpt>
<trkpt lat="31.9432880" lon="34.9549720">
<ele>122.500000</ele>
<time>2017-07-11T05:56:32.000Z</time>
</trkpt>
<trkpt lat="31.9432960" lon="34.9550160">
<ele>122.699997</ele>
<time>2017-07-11T05:56:34.000Z</time>
</trkpt>
<trkpt lat="31.9433050" lon="34.9550630">
<ele>122.899994</ele>
<time>2017-07-11T05:56:36.000Z</time>
</trkpt>
<trkpt lat="31.9433110" lon="34.9550940">
<ele>123.000000</ele>
<time>2017-07-11T05:56:37.000Z</time>
</trkpt>
<trkpt lat="31.9433180" lon="34.9551300">
<ele>123.100006</ele>
<time>2017-07-11T05:56:38.000Z</time>
</trkpt>
<trkpt lat="31.9433210" lon="34.9551790">
<ele>123.300003</ele>
<time>2017-07-11T05:56:40.000Z</time>
</trkpt>
<trkpt lat="31.9433210" lon="34.9552320">
<ele>123.599998</ele>
<time>2017-07-11T05:56:42.000Z</time>
</trkpt>
<trkpt lat="31.9433170" lon="34.9552690">
<ele>123.799995</ele>
<time>2017-07-11T05:56:45.000Z</time>
</trkpt>
<trkpt lat="31.9433340" lon="34.9553130">
<ele>124.099998</ele>
<time>2017-07-11T05:56:47.000Z</time>
</trkpt>
<trkpt lat="31.9433520" lon="34.9553660">
<ele>124.500000</ele>
<time>2017-07-11T05:56:49.000Z</time>
</trkpt>
<trkpt lat="31.9433570" lon="34.9553990">
<ele>124.699997</ele>
<time>2017-07-11T05:56:50.000Z</time>
</trkpt>
<trkpt lat="31.9433600" lon="34.9554370">
<ele>124.800003</ele>
<time>2017-07-11T05:56:51.000Z</time>
</trkpt>
<trkpt lat="31.9433600" lon="34.9554770">
<ele>125.000000</ele>
<time>2017-07-11T05:56:52.000Z</time>
</trkpt>
<trkpt lat="31.9433640" lon="34.9555170">
<ele>125.200005</ele>
<time>2017-07-11T05:56:53.000Z</time>
</trkpt>
<trkpt lat="31.9433760" lon="34.9555620">
<ele>125.299995</ele>
<time>2017-07-11T05:56:54.000Z</time>
</trkpt>
<trkpt lat="31.9433880" lon="34.9556040">
<ele>125.599998</ele>
<time>2017-07-11T05:56:55.000Z</time>
</trkpt>
<trkpt lat="31.9433950" lon="34.9556410">
<ele>125.799995</ele>
<time>2017-07-11T05:56:56.000Z</time>
</trkpt>
<trkpt lat="31.9434040" lon="34.9556770">
<ele>126.000000</ele>
<time>2017-07-11T05:56:57.000Z</time>
</trkpt>
<trkpt lat="31.9434080" lon="34.9557090">
<ele>126.199997</ele>
<time>2017-07-11T05:56:58.000Z</time>
</trkpt>
<trkpt lat="31.9434170" lon="34.9557740">
<ele>126.500000</ele>
<time>2017-07-11T05:57:00.000Z</time>
</trkpt>
<trkpt lat="31.9434210" lon="34.9558100">
<ele>126.699997</ele>
<time>2017-07-11T05:57:01.000Z</time>
</trkpt>
<trkpt lat="31.9434320" lon="34.9558770">
<ele>127.099998</ele>
<time>2017-07-11T05:57:03.000Z</time>
</trkpt>
<trkpt lat="31.9434260" lon="34.9559080">
<ele>127.299995</ele>
<time>2017-07-11T05:57:04.000Z</time>
</trkpt>
<trkpt lat="31.9434160" lon="34.9559420">
<ele>127.500000</ele>
<time>2017-07-11T05:57:05.000Z</time>
</trkpt>
<trkpt lat="31.9434020" lon="34.9559980">
<ele>127.800003</ele>
<time>2017-07-11T05:57:07.000Z</time>
</trkpt>
<trkpt lat="31.9434020" lon="34.9560390">
<ele>128.000000</ele>
<time>2017-07-11T05:57:09.000Z</time>
</trkpt>
<trkpt lat="31.9433790" lon="34.9560780">
<ele>128.199997</ele>
<time>2017-07-11T05:57:11.000Z</time>
</trkpt>
<trkpt lat="31.9433690" lon="34.9561160">
<ele>128.500000</ele>
<time>2017-07-11T05:57:13.000Z</time>
</trkpt>
<trkpt lat="31.9433680" lon="34.9561490">
<ele>128.699997</ele>
<time>2017-07-11T05:57:15.000Z</time>
</trkpt>
<trkpt lat="31.9433730" lon="34.9561830">
<ele>128.800003</ele>
<time>2017-07-11T05:57:17.000Z</time>
</trkpt>
<trkpt lat="31.9433820" lon="34.9562210">
<ele>129.100006</ele>
<time>2017-07-11T05:57:19.000Z</time>
</trkpt>
<trkpt lat="31.9433850" lon="34.9562610">
<ele>129.300003</ele>
<time>2017-07-11T05:57:21.000Z</time>
</trkpt>
<trkpt lat="31.9433720" lon="34.9563120">
<ele>129.599991</ele>
<time>2017-07-11T05:57:24.000Z</time>
</trkpt>
<trkpt lat="31.9433480" lon="34.9563630">
<ele>129.899994</ele>
<time>2017-07-11T05:57:26.000Z</time>
</trkpt>
<trkpt lat="31.9433280" lon="34.9564170">
<ele>130.100006</ele>
<time>2017-07-11T05:57:28.000Z</time>
</trkpt>
<trkpt lat="31.9433180" lon="34.9564480">
<ele>130.300003</ele>
<time>2017-07-11T05:57:29.000Z</time>
</trkpt>
<trkpt lat="31.9433030" lon="34.9564920">
<ele>130.400009</ele>
<time>2017-07-11T05:57:31.000Z</time>
</trkpt>
<trkpt lat="31.9432850" lon="34.9565200">
<ele>130.600006</ele>
<time>2017-07-11T05:57:33.000Z</time>
</trkpt>
<trkpt lat="31.9432760" lon="34.9565610">
<ele>130.800003</ele>
<time>2017-07-11T05:57:36.000Z</time>
</trkpt>
<trkpt lat="31.9432790" lon="34.9566280">
<ele>130.899994</ele>
<time>2017-07-11T05:57:38.000Z</time>
</trkpt>
<trkpt lat="31.9432860" lon="34.9566790">
<ele>131.000000</ele>
<time>2017-07-11T05:57:40.000Z</time>
</trkpt>
<trkpt lat="31.9432860" lon="34.9567330">
<ele>131.000000</ele>
<time>2017-07-11T05:57:42.000Z</time>
</trkpt>
<trkpt lat="31.9432810" lon="34.9567910">
<ele>131.099991</ele>
<time>2017-07-11T05:57:44.000Z</time>
</trkpt>
<trkpt lat="31.9432830" lon="34.9568380">
<ele>131.099991</ele>
<time>2017-07-11T05:57:46.000Z</time>
</trkpt>
<trkpt lat="31.9432720" lon="34.9568860">
<ele>131.099991</ele>
<time>2017-07-11T05:57:48.000Z</time>
</trkpt>
<trkpt lat="31.9432620" lon="34.9569300">
<ele>131.199997</ele>
<time>2017-07-11T05:57:50.000Z</time>
</trkpt>
<trkpt lat="31.9432630" lon="34.9569790">
<ele>131.300003</ele>
<time>2017-07-11T05:57:52.000Z</time>
</trkpt>
<trkpt lat="31.9432730" lon="34.9570130">
<ele>131.399994</ele>
<time>2017-07-11T05:57:54.000Z</time>
</trkpt>
<trkpt lat="31.9432680" lon="34.9570470">
<ele>131.500000</ele>
<time>2017-07-11T05:57:56.000Z</time>
</trkpt>
<trkpt lat="31.9432540" lon="34.9570890">
<ele>131.600006</ele>
<time>2017-07-11T05:57:58.000Z</time>
</trkpt>
<trkpt lat="31.9432510" lon="34.9571360">
<ele>131.699997</ele>
<time>2017-07-11T05:58:00.000Z</time>
</trkpt>
<trkpt lat="31.9432330" lon="34.9571650">
<ele>131.800003</ele>
<time>2017-07-11T05:58:02.000Z</time>
</trkpt>
<trkpt lat="31.9432350" lon="34.9572090">
<ele>131.800003</ele>
<time>2017-07-11T05:58:04.000Z</time>
</trkpt>
<trkpt lat="31.9432310" lon="34.9572460">
<ele>131.800003</ele>
<time>2017-07-11T05:58:06.000Z</time>
</trkpt>
<trkpt lat="31.9432130" lon="34.9573000">
<ele>131.899994</ele>
<time>2017-07-11T05:58:09.000Z</time>
</trkpt>
<trkpt lat="31.9431940" lon="34.9573430">
<ele>131.899994</ele>
<time>2017-07-11T05:58:11.000Z</time>
</trkpt>
<trkpt lat="31.9431830" lon="34.9573970">
<ele>131.899994</ele>
<time>2017-07-11T05:58:13.000Z</time>
</trkpt>
<trkpt lat="31.9431830" lon="34.9574380">
<ele>132.000000</ele>
<time>2017-07-11T05:58:15.000Z</time>
</trkpt>
<trkpt lat="31.9431700" lon="34.9574710">
<ele>132.000000</ele>
<time>2017-07-11T05:58:17.000Z</time>
</trkpt>
<trkpt lat="31.9431410" lon="34.9575040">
<ele>132.100006</ele>
<time>2017-07-11T05:58:19.000Z</time>
</trkpt>
<trkpt lat="31.9431050" lon="34.9575540">
<ele>132.199997</ele>
<time>2017-07-11T05:58:21.000Z</time>
</trkpt>
<trkpt lat="31.9430900" lon="34.9575830">
<ele>132.300003</ele>
<time>2017-07-11T05:58:22.000Z</time>
</trkpt>
<trkpt lat="31.9430950" lon="34.9576270">
<ele>132.400009</ele>
<time>2017-07-11T05:58:25.000Z</time>
</trkpt>
<trkpt lat="31.9431050" lon="34.9576650">
<ele>132.400009</ele>
<time>2017-07-11T05:58:27.000Z</time>
</trkpt>
<trkpt lat="31.9431120" lon="34.9577110">
<ele>132.400009</ele>
<time>2017-07-11T05:58:29.000Z</time>
</trkpt>
<trkpt lat="31.9431160" lon="34.9577440">
<ele>132.400009</ele>
<time>2017-07-11T05:58:30.000Z</time>
</trkpt>
<trkpt lat="31.9430990" lon="34.9577960">
<ele>132.400009</ele>
<time>2017-07-11T05:58:32.000Z</time>
</trkpt>
<trkpt lat="31.9430790" lon="34.9578420">
<ele>132.400009</ele>
<time>2017-07-11T05:58:34.000Z</time>
</trkpt>
<trkpt lat="31.9430650" lon="34.9578780">
<ele>132.300003</ele>
<time>2017-07-11T05:58:36.000Z</time>
</trkpt>
<trkpt lat="31.9430650" lon="34.9579260">
<ele>132.300003</ele>
<time>2017-07-11T05:58:38.000Z</time>
</trkpt>
<trkpt lat="31.9430660" lon="34.9579600">
<ele>132.199997</ele>
<time>2017-07-11T05:58:40.000Z</time>
</trkpt>
<trkpt lat="31.9430620" lon="34.9579980">
<ele>132.199997</ele>
<time>2017-07-11T05:58:42.000Z</time>
</trkpt>
<trkpt lat="31.9430590" lon="34.9580450">
<ele>132.000000</ele>
<time>2017-07-11T05:58:44.000Z</time>
</trkpt>
<trkpt lat="31.9430660" lon="34.9580990">
<ele>131.899994</ele>
<time>2017-07-11T05:58:46.000Z</time>
</trkpt>
<trkpt lat="31.9430800" lon="34.9581550">
<ele>131.800003</ele>
<time>2017-07-11T05:58:48.000Z</time>
</trkpt>
<trkpt lat="31.9431050" lon="34.9582100">
<ele>131.699997</ele>
<time>2017-07-11T05:58:50.000Z</time>
</trkpt>
<trkpt lat="31.9431180" lon="34.9582430">
<ele>131.699997</ele>
<time>2017-07-11T05:58:51.000Z</time>
</trkpt>
<trkpt lat="31.9431300" lon="34.9582740">
<ele>131.600006</ele>
<time>2017-07-11T05:58:52.000Z</time>
</trkpt>
<trkpt lat="31.9431400" lon="34.9583040">
<ele>131.600006</ele>
<time>2017-07-11T05:58:53.000Z</time>
</trkpt>
<trkpt lat="31.9431560" lon="34.9583630">
<ele>131.600006</ele>
<time>2017-07-11T05:58:55.000Z</time>
</trkpt>
<trkpt lat="31.9431860" lon="34.9584040">
<ele>131.600006</ele>
<time>2017-07-11T05:58:57.000Z</time>
</trkpt>
<trkpt lat="31.9432110" lon="34.9584570">
<ele>131.600006</ele>
<time>2017-07-11T05:58:59.000Z</time>
</trkpt>
<trkpt lat="31.9432220" lon="34.9584860">
<ele>131.600006</ele>
<time>2017-07-11T05:59:00.000Z</time>
</trkpt>
<trkpt lat="31.9432340" lon="34.9585370">
<ele>131.699997</ele>
<time>2017-07-11T05:59:02.000Z</time>
</trkpt>
<trkpt lat="31.9432520" lon="34.9585830">
<ele>131.800003</ele>
<time>2017-07-11T05:59:04.000Z</time>
</trkpt>
<trkpt lat="31.9432590" lon="34.9586350">
<ele>131.800003</ele>
<time>2017-07-11T05:59:06.000Z</time>
</trkpt>
<trkpt lat="31.9432700" lon="34.9586740">
<ele>131.899994</ele>
<time>2017-07-11T05:59:08.000Z</time>
</trkpt>
<trkpt lat="31.9432850" lon="34.9587280">
<ele>131.899994</ele>
<time>2017-07-11T05:59:10.000Z</time>
</trkpt>
<trkpt lat="31.9432960" lon="34.9587710">
<ele>131.899994</ele>
<time>2017-07-11T05:59:12.000Z</time>
</trkpt>
<trkpt lat="31.9433080" lon="34.9588160">
<ele>131.899994</ele>
<time>2017-07-11T05:59:14.000Z</time>
</trkpt>
<trkpt lat="31.9433340" lon="34.9588710">
<ele>131.899994</ele>
<time>2017-07-11T05:59:16.000Z</time>
</trkpt>
<trkpt lat="31.9433500" lon="34.9589130">
<ele>131.899994</ele>
<time>2017-07-11T05:59:18.000Z</time>
</trkpt>
<trkpt lat="31.9433650" lon="34.9589640">
<ele>131.899994</ele>
<time>2017-07-11T05:59:20.000Z</time>
</trkpt>
<trkpt lat="31.9433820" lon="34.9590100">
<ele>131.899994</ele>
<time>2017-07-11T05:59:22.000Z</time>
</trkpt>
<trkpt lat="31.9434000" lon="34.9590530">
<ele>131.899994</ele>
<time>2017-07-11T05:59:24.000Z</time>
</trkpt>
<trkpt lat="31.9434180" lon="34.9591000">
<ele>131.899994</ele>
<time>2017-07-11T05:59:26.000Z</time>
</trkpt>
<trkpt lat="31.9434360" lon="34.9591400">
<ele>131.899994</ele>
<time>2017-07-11T05:59:28.000Z</time>
</trkpt>
<trkpt lat="31.9434600" lon="34.9591980">
<ele>132.000000</ele>
<time>2017-07-11T05:59:30.000Z</time>
</trkpt>
<trkpt lat="31.9434870" lon="34.9592670">
<ele>132.000000</ele>
<time>2017-07-11T05:59:32.000Z</time>
</trkpt>
<trkpt lat="31.9435010" lon="34.9592990">
<ele>132.000000</ele>
<time>2017-07-11T05:59:33.000Z</time>
</trkpt>
<trkpt lat="31.9435160" lon="34.9593270">
<ele>132.000000</ele>
<time>2017-07-11T05:59:34.000Z</time>
</trkpt>
<trkpt lat="31.9435380" lon="34.9593590">
<ele>132.000000</ele>
<time>2017-07-11T05:59:35.000Z</time>
</trkpt>
<trkpt lat="31.9435720" lon="34.9594160">
<ele>132.000000</ele>
<time>2017-07-11T05:59:37.000Z</time>
</trkpt>
<trkpt lat="31.9435930" lon="34.9594650">
<ele>132.000000</ele>
<time>2017-07-11T05:59:39.000Z</time>
</trkpt>
<trkpt lat="31.9436050" lon="34.9594950">
<ele>132.000000</ele>
<time>2017-07-11T05:59:40.000Z</time>
</trkpt>
<trkpt lat="31.9436260" lon="34.9595460">
<ele>132.000000</ele>
<time>2017-07-11T05:59:42.000Z</time>
</trkpt>
<trkpt lat="31.9436450" lon="34.9595980">
<ele>132.000000</ele>
<time>2017-07-11T05:59:44.000Z</time>
</trkpt>
<trkpt lat="31.9436560" lon="34.9596510">
<ele>132.000000</ele>
<time>2017-07-11T05:59:46.000Z</time>
</trkpt>
<trkpt lat="31.9436630" lon="34.9597000">
<ele>132.100006</ele>
<time>2017-07-11T05:59:48.000Z</time>
</trkpt>
<trkpt lat="31.9436710" lon="34.9597560">
<ele>132.100006</ele>
<time>2017-07-11T05:59:50.000Z</time>
</trkpt>
<trkpt lat="31.9436800" lon="34.9598140">
<ele>132.199997</ele>
<time>2017-07-11T05:59:52.000Z</time>
</trkpt>
<trkpt lat="31.9436850" lon="34.9598700">
<ele>132.300003</ele>
<time>2017-07-11T05:59:54.000Z</time>
</trkpt>
<trkpt lat="31.9436880" lon="34.9599250">
<ele>132.300003</ele>
<time>2017-07-11T05:59:56.000Z</time>
</trkpt>
<trkpt lat="31.9436850" lon="34.9599750">
<ele>132.400009</ele>
<time>2017-07-11T05:59:58.000Z</time>
</trkpt>
<trkpt lat="31.9436790" lon="34.9600240">
<ele>132.500000</ele>
<time>2017-07-11T06:00:00.000Z</time>
</trkpt>
<trkpt lat="31.9436790" lon="34.9600830">
<ele>132.500000</ele>
<time>2017-07-11T06:00:02.000Z</time>
</trkpt>
<trkpt lat="31.9436760" lon="34.9601440">
<ele>132.600006</ele>
<time>2017-07-11T06:00:04.000Z</time>
</trkpt>
<trkpt lat="31.9436750" lon="34.9602010">
<ele>132.800003</ele>
<time>2017-07-11T06:00:06.000Z</time>
</trkpt>
<trkpt lat="31.9436610" lon="34.9602550">
<ele>132.899994</ele>
<time>2017-07-11T06:00:08.000Z</time>
</trkpt>
<trkpt lat="31.9436430" lon="34.9603100">
<ele>133.000000</ele>
<time>2017-07-11T06:00:10.000Z</time>
</trkpt>
<trkpt lat="31.9436270" lon="34.9603560">
<ele>133.099991</ele>
<time>2017-07-11T06:00:12.000Z</time>
</trkpt>
<trkpt lat="31.9435960" lon="34.9603990">
<ele>133.199997</ele>
<time>2017-07-11T06:00:14.000Z</time>
</trkpt>
<trkpt lat="31.9435720" lon="34.9604440">
<ele>133.399994</ele>
<time>2017-07-11T06:00:16.000Z</time>
</trkpt>
<trkpt lat="31.9435510" lon="34.9604850">
<ele>133.500000</ele>
<time>2017-07-11T06:00:18.000Z</time>
</trkpt>
<trkpt lat="31.9435280" lon="34.9605300">
<ele>133.699997</ele>
<time>2017-07-11T06:00:20.000Z</time>
</trkpt>
<trkpt lat="31.9435020" lon="34.9605740">
<ele>134.199997</ele>
<time>2017-07-11T06:00:22.000Z</time>
</trkpt>
<trkpt lat="31.9434710" lon="34.9606130">
<ele>134.599991</ele>
<time>2017-07-11T06:00:24.000Z</time>
</trkpt>
<trkpt lat="31.9434300" lon="34.9606520">
<ele>134.899994</ele>
<time>2017-07-11T06:00:26.000Z</time>
</trkpt>
<trkpt lat="31.9434140" lon="34.9606780">
<ele>135.000000</ele>
<time>2017-07-11T06:00:27.000Z</time>
</trkpt>
<trkpt lat="31.9433920" lon="34.9607190">
<ele>135.099991</ele>
<time>2017-07-11T06:00:29.000Z</time>
</trkpt>
<trkpt lat="31.9433790" lon="34.9607850">
<ele>135.399994</ele>
<time>2017-07-11T06:00:31.000Z</time>
</trkpt>
<trkpt lat="31.9433750" lon="34.9608270">
<ele>135.500000</ele>
<time>2017-07-11T06:00:32.000Z</time>
</trkpt>
<trkpt lat="31.9433730" lon="34.9608870">
<ele>135.699997</ele>
<time>2017-07-11T06:00:34.000Z</time>
</trkpt>
<trkpt lat="31.9433710" lon="34.9609220">
<ele>135.699997</ele>
<time>2017-07-11T06:00:35.000Z</time>
</trkpt>
<trkpt lat="31.9433720" lon="34.9609790">
<ele>135.900009</ele>
<time>2017-07-11T06:00:37.000Z</time>
</trkpt>
<trkpt lat="31.9433810" lon="34.9610340">
<ele>136.100006</ele>
<time>2017-07-11T06:00:39.000Z</time>
</trkpt>
<trkpt lat="31.9433900" lon="34.9610650">
<ele>136.199997</ele>
<time>2017-07-11T06:00:40.000Z</time>
</trkpt>
<trkpt lat="31.9434000" lon="34.9610980">
<ele>136.300003</ele>
<time>2017-07-11T06:00:41.000Z</time>
</trkpt>
<trkpt lat="31.9434140" lon="34.9611540">
<ele>136.500000</ele>
<time>2017-07-11T06:00:43.000Z</time>
</trkpt>
<trkpt lat="31.9434270" lon="34.9612110">
<ele>136.699997</ele>
<time>2017-07-11T06:00:45.000Z</time>
</trkpt>
<trkpt lat="31.9434360" lon="34.9612680">
<ele>136.899994</ele>
<time>2017-07-11T06:00:47.000Z</time>
</trkpt>
<trkpt lat="31.9434380" lon="34.9613220">
<ele>137.600006</ele>
<time>2017-07-11T06:00:49.000Z</time>
</trkpt>
<trkpt lat="31.9434320" lon="34.9613680">
<ele>138.399994</ele>
<time>2017-07-11T06:00:51.000Z</time>
</trkpt>
<trkpt lat="31.9434250" lon="34.9614090">
<ele>139.600006</ele>
<time>2017-07-11T06:00:53.000Z</time>
</trkpt>
<trkpt lat="31.9434250" lon="34.9614500">
<ele>140.699997</ele>
<time>2017-07-11T06:00:55.000Z</time>
</trkpt>
<trkpt lat="31.9434240" lon="34.9614920">
<ele>141.800003</ele>
<time>2017-07-11T06:00:57.000Z</time>
</trkpt>
<trkpt lat="31.9434250" lon="34.9615350">
<ele>143.000000</ele>
<time>2017-07-11T06:01:00.000Z</time>
</trkpt>
<trkpt lat="31.9434120" lon="34.9615730">
<ele>144.100006</ele>
<time>2017-07-11T06:01:03.000Z</time>
</trkpt>
<trkpt lat="31.9434090" lon="34.9616210">
<ele>145.000000</ele>
<time>2017-07-11T06:01:05.000Z</time>
</trkpt>
<trkpt lat="31.9434000" lon="34.9616530">
<ele>145.500000</ele>
<time>2017-07-11T06:01:08.000Z</time>
</trkpt>
<trkpt lat="31.9433800" lon="34.9616930">
<ele>146.199997</ele>
<time>2017-07-11T06:01:11.000Z</time>
</trkpt>
<trkpt lat="31.9433490" lon="34.9617220">
<ele>146.800003</ele>
<time>2017-07-11T06:01:13.000Z</time>
</trkpt>
<trkpt lat="31.9433230" lon="34.9617480">
<ele>147.300003</ele>
<time>2017-07-11T06:01:15.000Z</time>
</trkpt>
<trkpt lat="31.9432790" lon="34.9617880">
<ele>148.100006</ele>
<time>2017-07-11T06:01:17.000Z</time>
</trkpt>
<trkpt lat="31.9432500" lon="34.9618090">
<ele>148.500000</ele>
<time>2017-07-11T06:01:20.000Z</time>
</trkpt>
<trkpt lat="31.9432170" lon="34.9618240">
<ele>149.000000</ele>
<time>2017-07-11T06:01:22.000Z</time>
</trkpt>
<trkpt lat="31.9431830" lon="34.9618430">
<ele>149.399994</ele>
<time>2017-07-11T06:01:24.000Z</time>
</trkpt>
<trkpt lat="31.9431380" lon="34.9618370">
<ele>150.000000</ele>
<time>2017-07-11T06:01:26.000Z</time>
</trkpt>
<trkpt lat="31.9431000" lon="34.9618270">
<ele>150.500000</ele>
<time>2017-07-11T06:01:28.000Z</time>
</trkpt>
<trkpt lat="31.9430580" lon="34.9618060">
<ele>152.399994</ele>
<time>2017-07-11T06:01:30.000Z</time>
</trkpt>
<trkpt lat="31.9430240" lon="34.9618000">
<ele>153.899994</ele>
<time>2017-07-11T06:01:31.000Z</time>
</trkpt>
<trkpt lat="31.9429910" lon="34.9617910">
<ele>155.400009</ele>
<time>2017-07-11T06:01:33.000Z</time>
</trkpt>
<trkpt lat="31.9429630" lon="34.9617730">
<ele>156.000000</ele>
<time>2017-07-11T06:01:35.000Z</time>
</trkpt>
<trkpt lat="31.9429360" lon="34.9617510">
<ele>156.199997</ele>
<time>2017-07-11T06:01:37.000Z</time>
</trkpt>
<trkpt lat="31.9429110" lon="34.9617100">
<ele>156.300003</ele>
<time>2017-07-11T06:01:39.000Z</time>
</trkpt>
<trkpt lat="31.9428930" lon="34.9616840">
<ele>156.399994</ele>
<time>2017-07-11T06:01:41.000Z</time>
</trkpt>
<trkpt lat="31.9428670" lon="34.9616380">
<ele>156.499985</ele>
<time>2017-07-11T06:01:43.000Z</time>
</trkpt>
<trkpt lat="31.9428380" lon="34.9615730">
<ele>156.600006</ele>
<time>2017-07-11T06:01:45.000Z</time>
</trkpt>
<trkpt lat="31.9428270" lon="34.9615430">
<ele>156.699997</ele>
<time>2017-07-11T06:01:46.000Z</time>
</trkpt>
<trkpt lat="31.9427970" lon="34.9614960">
<ele>156.900009</ele>
<time>2017-07-11T06:01:48.000Z</time>
</trkpt>
<trkpt lat="31.9427740" lon="34.9614700">
<ele>157.099991</ele>
<time>2017-07-11T06:01:49.000Z</time>
</trkpt>
<trkpt lat="31.9427550" lon="34.9614320">
<ele>157.300003</ele>
<time>2017-07-11T06:01:50.000Z</time>
</trkpt>
<trkpt lat="31.9427330" lon="34.9613780">
<ele>157.600006</ele>
<time>2017-07-11T06:01:52.000Z</time>
</trkpt>
<trkpt lat="31.9427190" lon="34.9613390">
<ele>157.800003</ele>
<time>2017-07-11T06:01:53.000Z</time>
</trkpt>
<trkpt lat="31.9427030" lon="34.9612840">
<ele>158.000000</ele>
<time>2017-07-11T06:01:55.000Z</time>
</trkpt>
<trkpt lat="31.9426920" lon="34.9612510">
<ele>158.100006</ele>
<time>2017-07-11T06:01:56.000Z</time>
</trkpt>
<trkpt lat="31.9426680" lon="34.9611980">
<ele>158.299988</ele>
<time>2017-07-11T06:01:58.000Z</time>
</trkpt>
<trkpt lat="31.9426580" lon="34.9611590">
<ele>158.400009</ele>
<time>2017-07-11T06:01:59.000Z</time>
</trkpt>
<trkpt lat="31.9426470" lon="34.9611210">
<ele>158.599991</ele>
<time>2017-07-11T06:02:00.000Z</time>
</trkpt>
<trkpt lat="31.9426240" lon="34.9610900">
<ele>158.700012</ele>
<time>2017-07-11T06:02:01.000Z</time>
</trkpt>
<trkpt lat="31.9426010" lon="34.9610640">
<ele>158.899994</ele>
<time>2017-07-11T06:02:02.000Z</time>
</trkpt>
<trkpt lat="31.9425820" lon="34.9610420">
<ele>159.000000</ele>
<time>2017-07-11T06:02:03.000Z</time>
</trkpt>
<trkpt lat="31.9425610" lon="34.9610200">
<ele>159.100006</ele>
<time>2017-07-11T06:02:04.000Z</time>
</trkpt>
<trkpt lat="31.9425360" lon="34.9609880">
<ele>159.199997</ele>
<time>2017-07-11T06:02:05.000Z</time>
</trkpt>
<trkpt lat="31.9424840" lon="34.9609230">
<ele>159.399994</ele>
<time>2017-07-11T06:02:07.000Z</time>
</trkpt>
<trkpt lat="31.9424580" lon="34.9608900">
<ele>159.500000</ele>
<time>2017-07-11T06:02:08.000Z</time>
</trkpt>
<trkpt lat="31.9424390" lon="34.9608680">
<ele>159.500000</ele>
<time>2017-07-11T06:02:09.000Z</time>
</trkpt>
<trkpt lat="31.9424140" lon="34.9608430">
<ele>159.600006</ele>
<time>2017-07-11T06:02:11.000Z</time>
</trkpt>
<trkpt lat="31.9423830" lon="34.9608240">
<ele>160.000000</ele>
<time>2017-07-11T06:02:14.000Z</time>
</trkpt>
<trkpt lat="31.9423570" lon="34.9608110">
<ele>160.000000</ele>
<time>2017-07-11T06:02:17.000Z</time>
</trkpt>
<trkpt lat="31.9423280" lon="34.9608010">
<ele>160.000000</ele>
<time>2017-07-11T06:02:21.000Z</time>
</trkpt>
<trkpt lat="31.9422870" lon="34.9607810">
<ele>160.000000</ele>
<time>2017-07-11T06:02:25.000Z</time>
</trkpt>
<trkpt lat="31.9422540" lon="34.9607690">
<ele>160.000000</ele>
<time>2017-07-11T06:02:27.000Z</time>
</trkpt>
<trkpt lat="31.9422120" lon="34.9607620">
<ele>160.000000</ele>
<time>2017-07-11T06:02:29.000Z</time>
</trkpt>
<trkpt lat="31.9421880" lon="34.9607370">
<ele>160.000000</ele>
<time>2017-07-11T06:02:31.000Z</time>
</trkpt>
<trkpt lat="31.9421790" lon="34.9606880">
<ele>159.399994</ele>
<time>2017-07-11T06:03:59.000Z</time>
</trkpt>
<trkpt lat="31.9421520" lon="34.9606850">
<ele>160.000000</ele>
<time>2017-07-11T06:04:02.000Z</time>
</trkpt>
<trkpt lat="31.9421190" lon="34.9606600">
<ele>160.000000</ele>
<time>2017-07-11T06:04:05.000Z</time>
</trkpt>
<trkpt lat="31.9420880" lon="34.9606550">
<ele>160.000000</ele>
<time>2017-07-11T06:04:07.000Z</time>
</trkpt>
<trkpt lat="31.9420590" lon="34.9606560">
<ele>160.000000</ele>
<time>2017-07-11T06:04:09.000Z</time>
</trkpt>
<trkpt lat="31.9420320" lon="34.9606490">
<ele>160.000000</ele>
<time>2017-07-11T06:04:11.000Z</time>
</trkpt>
<trkpt lat="31.9419960" lon="34.9606400">
<ele>160.000000</ele>
<time>2017-07-11T06:04:14.000Z</time>
</trkpt>
<trkpt lat="31.9419650" lon="34.9606370">
<ele>160.000000</ele>
<time>2017-07-11T06:04:16.000Z</time>
</trkpt>
<trkpt lat="31.9419300" lon="34.9606370">
<ele>160.000000</ele>
<time>2017-07-11T06:04:19.000Z</time>
</trkpt>
<trkpt lat="31.9419010" lon="34.9606390">
<ele>160.000000</ele>
<time>2017-07-11T06:04:21.000Z</time>
</trkpt>
<trkpt lat="31.9418640" lon="34.9606350">
<ele>160.000000</ele>
<time>2017-07-11T06:04:24.000Z</time>
</trkpt>
<trkpt lat="31.9418300" lon="34.9606450">
<ele>160.000000</ele>
<time>2017-07-11T06:04:27.000Z</time>
</trkpt>
<trkpt lat="31.9417960" lon="34.9606580">
<ele>159.500000</ele>
<time>2017-07-11T06:04:29.000Z</time>
</trkpt>
<trkpt lat="31.9417700" lon="34.9606690">
<ele>159.100006</ele>
<time>2017-07-11T06:04:50.000Z</time>
</trkpt>
<trkpt lat="31.9417400" lon="34.9606570">
<ele>158.700012</ele>
<time>2017-07-11T06:04:53.000Z</time>
</trkpt>
<trkpt lat="31.9417070" lon="34.9606630">
<ele>158.299988</ele>
<time>2017-07-11T06:04:57.000Z</time>
</trkpt>
<trkpt lat="31.9416660" lon="34.9606730">
<ele>157.699997</ele>
<time>2017-07-11T06:05:00.000Z</time>
</trkpt>
<trkpt lat="31.9416430" lon="34.9606910">
<ele>157.500000</ele>
<time>2017-07-11T06:05:02.000Z</time>
</trkpt>
<trkpt lat="31.9416000" lon="34.9607270">
<ele>157.099991</ele>
<time>2017-07-11T06:05:04.000Z</time>
</trkpt>
<trkpt lat="31.9415510" lon="34.9607540">
<ele>156.699997</ele>
<time>2017-07-11T06:05:06.000Z</time>
</trkpt>
<trkpt lat="31.9415220" lon="34.9607660">
<ele>156.499985</ele>
<time>2017-07-11T06:05:07.000Z</time>
</trkpt>
<trkpt lat="31.9414940" lon="34.9607870">
<ele>156.300003</ele>
<time>2017-07-11T06:05:08.000Z</time>
</trkpt>
<trkpt lat="31.9414660" lon="34.9608320">
<ele>156.000000</ele>
<time>2017-07-11T06:05:09.000Z</time>
</trkpt>
<trkpt lat="31.9414210" lon="34.9608640">
<ele>155.600006</ele>
<time>2017-07-11T06:05:11.000Z</time>
</trkpt>
<trkpt lat="31.9413880" lon="34.9608810">
<ele>155.400009</ele>
<time>2017-07-11T06:05:12.000Z</time>
</trkpt>
<trkpt lat="31.9413440" lon="34.9609020">
<ele>154.800003</ele>
<time>2017-07-11T06:05:13.000Z</time>
</trkpt>
<trkpt lat="31.9412990" lon="34.9609490">
<ele>154.399994</ele>
<time>2017-07-11T06:05:14.000Z</time>
</trkpt>
<trkpt lat="31.9412660" lon="34.9609670">
<ele>154.100006</ele>
<time>2017-07-11T06:05:15.000Z</time>
</trkpt>
<trkpt lat="31.9412260" lon="34.9609870">
<ele>153.800003</ele>
<time>2017-07-11T06:05:16.000Z</time>
</trkpt>
<trkpt lat="31.9411720" lon="34.9610000">
<ele>153.500000</ele>
<time>2017-07-11T06:05:17.000Z</time>
</trkpt>
<trkpt lat="31.9411170" lon="34.9610040">
<ele>152.899994</ele>
<time>2017-07-11T06:05:18.000Z</time>
</trkpt>
<trkpt lat="31.9410670" lon="34.9610170">
<ele>152.399994</ele>
<time>2017-07-11T06:05:19.000Z</time>
</trkpt>
<trkpt lat="31.9410170" lon="34.9610250">
<ele>152.000000</ele>
<time>2017-07-11T06:05:20.000Z</time>
</trkpt>
<trkpt lat="31.9409640" lon="34.9610250">
<ele>151.600006</ele>
<time>2017-07-11T06:05:21.000Z</time>
</trkpt>
<trkpt lat="31.9409070" lon="34.9610220">
<ele>151.199997</ele>
<time>2017-07-11T06:05:22.000Z</time>
</trkpt>
<trkpt lat="31.9408560" lon="34.9610120">
<ele>149.800003</ele>
<time>2017-07-11T06:05:23.000Z</time>
</trkpt>
<trkpt lat="31.9407980" lon="34.9610030">
<ele>147.800003</ele>
<time>2017-07-11T06:05:24.000Z</time>
</trkpt>
<trkpt lat="31.9407370" lon="34.9609960">
<ele>146.000000</ele>
<time>2017-07-11T06:05:25.000Z</time>
</trkpt>
<trkpt lat="31.9406600" lon="34.9609800">
<ele>145.899994</ele>
<time>2017-07-11T06:05:26.000Z</time>
</trkpt>
<trkpt lat="31.9405850" lon="34.9609760">
<ele>145.800003</ele>
<time>2017-07-11T06:05:27.000Z</time>
</trkpt>
<trkpt lat="31.9405010" lon="34.9609710">
<ele>145.699997</ele>
<time>2017-07-11T06:05:28.000Z</time>
</trkpt>
<trkpt lat="31.9404180" lon="34.9609780">
<ele>145.599991</ele>
<time>2017-07-11T06:05:29.000Z</time>
</trkpt>
<trkpt lat="31.9403340" lon="34.9610040">
<ele>145.599991</ele>
<time>2017-07-11T06:05:30.000Z</time>
</trkpt>
<trkpt lat="31.9402570" lon="34.9610350">
<ele>145.500000</ele>
<time>2017-07-11T06:05:31.000Z</time>
</trkpt>
<trkpt lat="31.9401960" lon="34.9610760">
<ele>145.500000</ele>
<time>2017-07-11T06:05:32.000Z</time>
</trkpt>
<trkpt lat="31.9401330" lon="34.9611090">
<ele>145.399994</ele>
<time>2017-07-11T06:05:33.000Z</time>
</trkpt>
<trkpt lat="31.9400750" lon="34.9611440">
<ele>145.399994</ele>
<time>2017-07-11T06:05:34.000Z</time>
</trkpt>
<trkpt lat="31.9400110" lon="34.9611820">
<ele>145.399994</ele>
<time>2017-07-11T06:05:35.000Z</time>
</trkpt>
<trkpt lat="31.9399620" lon="34.9612510">
<ele>145.300003</ele>
<time>2017-07-11T06:05:36.000Z</time>
</trkpt>
<trkpt lat="31.9399060" lon="34.9613070">
<ele>145.300003</ele>
<time>2017-07-11T06:05:37.000Z</time>
</trkpt>
<trkpt lat="31.9398540" lon="34.9613590">
<ele>145.199997</ele>
<time>2017-07-11T06:05:38.000Z</time>
</trkpt>
<trkpt lat="31.9398060" lon="34.9614120">
<ele>145.100006</ele>
<time>2017-07-11T06:05:39.000Z</time>
</trkpt>
<trkpt lat="31.9397560" lon="34.9614690">
<ele>145.000000</ele>
<time>2017-07-11T06:05:40.000Z</time>
</trkpt>
<trkpt lat="31.9397070" lon="34.9615300">
<ele>144.900009</ele>
<time>2017-07-11T06:05:41.000Z</time>
</trkpt>
<trkpt lat="31.9396620" lon="34.9615920">
<ele>144.600006</ele>
<time>2017-07-11T06:05:42.000Z</time>
</trkpt>
<trkpt lat="31.9396160" lon="34.9616350">
<ele>144.300003</ele>
<time>2017-07-11T06:05:43.000Z</time>
</trkpt>
<trkpt lat="31.9395700" lon="34.9616720">
<ele>144.000000</ele>
<time>2017-07-11T06:05:44.000Z</time>
</trkpt>
<trkpt lat="31.9395280" lon="34.9617120">
<ele>143.699997</ele>
<time>2017-07-11T06:05:45.000Z</time>
</trkpt>
<trkpt lat="31.9394820" lon="34.9617570">
<ele>143.399994</ele>
<time>2017-07-11T06:05:46.000Z</time>
</trkpt>
<trkpt lat="31.9394390" lon="34.9618050">
<ele>142.900009</ele>
<time>2017-07-11T06:05:47.000Z</time>
</trkpt>
<trkpt lat="31.9394030" lon="34.9618660">
<ele>142.600006</ele>
<time>2017-07-11T06:05:48.000Z</time>
</trkpt>
<trkpt lat="31.9393680" lon="34.9619180">
<ele>142.399994</ele>
<time>2017-07-11T06:05:49.000Z</time>
</trkpt>
<trkpt lat="31.9393360" lon="34.9619650">
<ele>142.199997</ele>
<time>2017-07-11T06:05:50.000Z</time>
</trkpt>
<trkpt lat="31.9393010" lon="34.9620070">
<ele>142.000000</ele>
<time>2017-07-11T06:05:51.000Z</time>
</trkpt>
<trkpt lat="31.9392580" lon="34.9620380">
<ele>141.800003</ele>
<time>2017-07-11T06:05:52.000Z</time>
</trkpt>
<trkpt lat="31.9392190" lon="34.9620700">
<ele>141.699997</ele>
<time>2017-07-11T06:05:53.000Z</time>
</trkpt>
<trkpt lat="31.9391850" lon="34.9621050">
<ele>141.600006</ele>
<time>2017-07-11T06:05:54.000Z</time>
</trkpt>
<trkpt lat="31.9391530" lon="34.9621420">
<ele>141.500000</ele>
<time>2017-07-11T06:05:55.000Z</time>
</trkpt>
<trkpt lat="31.9391260" lon="34.9621940">
<ele>141.400009</ele>
<time>2017-07-11T06:05:56.000Z</time>
</trkpt>
<trkpt lat="31.9390990" lon="34.9622530">
<ele>141.300003</ele>
<time>2017-07-11T06:05:57.000Z</time>
</trkpt>
<trkpt lat="31.9390740" lon="34.9623000">
<ele>141.300003</ele>
<time>2017-07-11T06:05:58.000Z</time>
</trkpt>
<trkpt lat="31.9390550" lon="34.9623450">
<ele>141.199997</ele>
<time>2017-07-11T06:05:59.000Z</time>
</trkpt>
<trkpt lat="31.9390570" lon="34.9624020">
<ele>141.100006</ele>
<time>2017-07-11T06:06:00.000Z</time>
</trkpt>
<trkpt lat="31.9390490" lon="34.9624550">
<ele>141.100006</ele>
<time>2017-07-11T06:06:01.000Z</time>
</trkpt>
<trkpt lat="31.9390500" lon="34.9625160">
<ele>141.000000</ele>
<time>2017-07-11T06:06:02.000Z</time>
</trkpt>
<trkpt lat="31.9390580" lon="34.9625610">
<ele>141.100006</ele>
<time>2017-07-11T06:06:03.000Z</time>
</trkpt>
<trkpt lat="31.9390670" lon="34.9626000">
<ele>141.199997</ele>
<time>2017-07-11T06:06:04.000Z</time>
</trkpt>
<trkpt lat="31.9390730" lon="34.9626380">
<ele>141.300003</ele>
<time>2017-07-11T06:06:05.000Z</time>
</trkpt>
<trkpt lat="31.9390720" lon="34.9626750">
<ele>141.300003</ele>
<time>2017-07-11T06:06:06.000Z</time>
</trkpt>
<trkpt lat="31.9390660" lon="34.9627220">
<ele>141.400009</ele>
<time>2017-07-11T06:06:07.000Z</time>
</trkpt>
<trkpt lat="31.9390800" lon="34.9627810">
<ele>141.600006</ele>
<time>2017-07-11T06:06:08.000Z</time>
</trkpt>
<trkpt lat="31.9390200" lon="34.9628430">
<ele>141.800003</ele>
<time>2017-07-11T06:06:09.000Z</time>
</trkpt>
<trkpt lat="31.9389830" lon="34.9629070">
<ele>141.899994</ele>
<time>2017-07-11T06:06:10.000Z</time>
</trkpt>
<trkpt lat="31.9389490" lon="34.9629710">
<ele>142.000000</ele>
<time>2017-07-11T06:06:11.000Z</time>
</trkpt>
<trkpt lat="31.9389190" lon="34.9630330">
<ele>142.000000</ele>
<time>2017-07-11T06:06:12.000Z</time>
</trkpt>
<trkpt lat="31.9389170" lon="34.9630760">
<ele>142.000000</ele>
<time>2017-07-11T06:06:13.000Z</time>
</trkpt>
<trkpt lat="31.9389060" lon="34.9631380">
<ele>142.000000</ele>
<time>2017-07-11T06:06:14.000Z</time>
</trkpt>
<trkpt lat="31.9389000" lon="34.9632020">
<ele>142.000000</ele>
<time>2017-07-11T06:06:15.000Z</time>
</trkpt>
<trkpt lat="31.9388700" lon="34.9632740">
<ele>142.000000</ele>
<time>2017-07-11T06:06:16.000Z</time>
</trkpt>
<trkpt lat="31.9387940" lon="34.9634390">
<ele>142.000000</ele>
<time>2017-07-11T06:06:17.000Z</time>
</trkpt>
<trkpt lat="31.9388010" lon="34.9634930">
<ele>142.000000</ele>
<time>2017-07-11T06:06:18.000Z</time>
</trkpt>
<trkpt lat="31.9388050" lon="34.9635400">
<ele>142.199997</ele>
<time>2017-07-11T06:06:19.000Z</time>
</trkpt>
<trkpt lat="31.9387910" lon="34.9635880">
<ele>142.699997</ele>
<time>2017-07-11T06:06:20.000Z</time>
</trkpt>
<trkpt lat="31.9387450" lon="34.9636330">
<ele>143.100006</ele>
<time>2017-07-11T06:06:21.000Z</time>
</trkpt>
<trkpt lat="31.9387020" lon="34.9636880">
<ele>143.000000</ele>
<time>2017-07-11T06:06:22.000Z</time>
</trkpt>
<trkpt lat="31.9386500" lon="34.9637320">
<ele>142.699997</ele>
<time>2017-07-11T06:06:23.000Z</time>
</trkpt>
<trkpt lat="31.9385880" lon="34.9637670">
<ele>142.500000</ele>
<time>2017-07-11T06:06:24.000Z</time>
</trkpt>
<trkpt lat="31.9385270" lon="34.9637850">
<ele>141.500000</ele>
<time>2017-07-11T06:06:25.000Z</time>
</trkpt>
<trkpt lat="31.9384720" lon="34.9637720">
<ele>141.400009</ele>
<time>2017-07-11T06:06:26.000Z</time>
</trkpt>
<trkpt lat="31.9384160" lon="34.9637580">
<ele>141.199997</ele>
<time>2017-07-11T06:06:27.000Z</time>
</trkpt>
<trkpt lat="31.9383860" lon="34.9637450">
<ele>141.100006</ele>
<time>2017-07-11T06:06:28.000Z</time>
</trkpt>
<trkpt lat="31.9383410" lon="34.9637410">
<ele>141.000000</ele>
<time>2017-07-11T06:06:29.000Z</time>
</trkpt>
<trkpt lat="31.9382900" lon="34.9637150">
<ele>140.800003</ele>
<time>2017-07-11T06:06:30.000Z</time>
</trkpt>
<trkpt lat="31.9382270" lon="34.9637350">
<ele>140.399994</ele>
<time>2017-07-11T06:06:31.000Z</time>
</trkpt>
<trkpt lat="31.9381650" lon="34.9637260">
<ele>139.800003</ele>
<time>2017-07-11T06:06:32.000Z</time>
</trkpt>
<trkpt lat="31.9381000" lon="34.9637080">
<ele>139.199997</ele>
<time>2017-07-11T06:06:33.000Z</time>
</trkpt>
<trkpt lat="31.9380360" lon="34.9636820">
<ele>138.899994</ele>
<time>2017-07-11T06:06:34.000Z</time>
</trkpt>
<trkpt lat="31.9379790" lon="34.9636420">
<ele>138.599991</ele>
<time>2017-07-11T06:06:35.000Z</time>
</trkpt>
<trkpt lat="31.9379170" lon="34.9636080">
<ele>138.399994</ele>
<time>2017-07-11T06:06:36.000Z</time>
</trkpt>
<trkpt lat="31.9378620" lon="34.9635990">
<ele>138.199997</ele>
<time>2017-07-11T06:06:37.000Z</time>
</trkpt>
<trkpt lat="31.9378160" lon="34.9636240">
<ele>138.099991</ele>
<time>2017-07-11T06:06:38.000Z</time>
</trkpt>
<trkpt lat="31.9377830" lon="34.9636720">
<ele>137.899994</ele>
<time>2017-07-11T06:06:39.000Z</time>
</trkpt>
<trkpt lat="31.9377650" lon="34.9637350">
<ele>137.699997</ele>
<time>2017-07-11T06:06:40.000Z</time>
</trkpt>
<trkpt lat="31.9377630" lon="34.9638160">
<ele>137.400009</ele>
<time>2017-07-11T06:06:41.000Z</time>
</trkpt>
<trkpt lat="31.9377910" lon="34.9638930">
<ele>136.899994</ele>
<time>2017-07-11T06:06:42.000Z</time>
</trkpt>
<trkpt lat="31.9378160" lon="34.9639690">
<ele>136.500000</ele>
<time>2017-07-11T06:06:43.000Z</time>
</trkpt>
<trkpt lat="31.9378280" lon="34.9640480">
<ele>136.100006</ele>
<time>2017-07-11T06:06:44.000Z</time>
</trkpt>
<trkpt lat="31.9378330" lon="34.9641230">
<ele>135.699997</ele>
<time>2017-07-11T06:06:45.000Z</time>
</trkpt>
<trkpt lat="31.9378310" lon="34.9641750">
<ele>135.399994</ele>
<time>2017-07-11T06:06:46.000Z</time>
</trkpt>
<trkpt lat="31.9378090" lon="34.9642080">
<ele>135.199997</ele>
<time>2017-07-11T06:06:47.000Z</time>
</trkpt>
<trkpt lat="31.9377750" lon="34.9642080">
<ele>135.300003</ele>
<time>2017-07-11T06:06:48.000Z</time>
</trkpt>
<trkpt lat="31.9377400" lon="34.9641880">
<ele>135.699997</ele>
<time>2017-07-11T06:06:49.000Z</time>
</trkpt>
<trkpt lat="31.9377010" lon="34.9641490">
<ele>136.199997</ele>
<time>2017-07-11T06:06:50.000Z</time>
</trkpt>
<trkpt lat="31.9376630" lon="34.9641140">
<ele>136.699997</ele>
<time>2017-07-11T06:06:51.000Z</time>
</trkpt>
<trkpt lat="31.9376190" lon="34.9640750">
<ele>137.300003</ele>
<time>2017-07-11T06:06:52.000Z</time>
</trkpt>
<trkpt lat="31.9375790" lon="34.9640350">
<ele>137.800003</ele>
<time>2017-07-11T06:06:53.000Z</time>
</trkpt>
<trkpt lat="31.9375400" lon="34.9640050">
<ele>138.000000</ele>
<time>2017-07-11T06:06:54.000Z</time>
</trkpt>
<trkpt lat="31.9374210" lon="34.9639030">
<ele>137.899994</ele>
<time>2017-07-11T06:06:57.000Z</time>
</trkpt>
<trkpt lat="31.9373770" lon="34.9638720">
<ele>137.800003</ele>
<time>2017-07-11T06:06:58.000Z</time>
</trkpt>
<trkpt lat="31.9373300" lon="34.9638380">
<ele>137.699997</ele>
<time>2017-07-11T06:06:59.000Z</time>
</trkpt>
<trkpt lat="31.9372840" lon="34.9638070">
<ele>137.699997</ele>
<time>2017-07-11T06:07:00.000Z</time>
</trkpt>
<trkpt lat="31.9372350" lon="34.9637840">
<ele>137.600006</ele>
<time>2017-07-11T06:07:01.000Z</time>
</trkpt>
<trkpt lat="31.9372050" lon="34.9637620">
<ele>137.500000</ele>
<time>2017-07-11T06:07:02.000Z</time>
</trkpt>
<trkpt lat="31.9371750" lon="34.9637340">
<ele>137.400009</ele>
<time>2017-07-11T06:07:03.000Z</time>
</trkpt>
<trkpt lat="31.9371320" lon="34.9637190">
<ele>137.199997</ele>
<time>2017-07-11T06:07:04.000Z</time>
</trkpt>
<trkpt lat="31.9370860" lon="34.9637040">
<ele>136.899994</ele>
<time>2017-07-11T06:07:05.000Z</time>
</trkpt>
<trkpt lat="31.9370360" lon="34.9636930">
<ele>136.500000</ele>
<time>2017-07-11T06:07:06.000Z</time>
</trkpt>
<trkpt lat="31.9369800" lon="34.9636730">
<ele>136.399994</ele>
<time>2017-07-11T06:07:07.000Z</time>
</trkpt>
<trkpt lat="31.9369240" lon="34.9636480">
<ele>136.300003</ele>
<time>2017-07-11T06:07:08.000Z</time>
</trkpt>
<trkpt lat="31.9368780" lon="34.9636200">
<ele>136.199997</ele>
<time>2017-07-11T06:07:09.000Z</time>
</trkpt>
<trkpt lat="31.9368390" lon="34.9635950">
<ele>136.100006</ele>
<time>2017-07-11T06:07:10.000Z</time>
</trkpt>
<trkpt lat="31.9367920" lon="34.9635740">
<ele>136.000000</ele>
<time>2017-07-11T06:07:11.000Z</time>
</trkpt>
<trkpt lat="31.9367410" lon="34.9635640">
<ele>136.000000</ele>
<time>2017-07-11T06:07:12.000Z</time>
</trkpt>
<trkpt lat="31.9366970" lon="34.9635530">
<ele>136.000000</ele>
<time>2017-07-11T06:07:13.000Z</time>
</trkpt>
<trkpt lat="31.9366570" lon="34.9635340">
<ele>136.000000</ele>
<time>2017-07-11T06:07:14.000Z</time>
</trkpt>
<trkpt lat="31.9366220" lon="34.9635120">
<ele>136.000000</ele>
<time>2017-07-11T06:07:15.000Z</time>
</trkpt>
<trkpt lat="31.9365930" lon="34.9634960">
<ele>136.000000</ele>
<time>2017-07-11T06:07:16.000Z</time>
</trkpt>
<trkpt lat="31.9365660" lon="34.9634710">
<ele>135.800003</ele>
<time>2017-07-11T06:07:17.000Z</time>
</trkpt>
<trkpt lat="31.9365180" lon="34.9634380">
<ele>135.600006</ele>
<time>2017-07-11T06:07:18.000Z</time>
</trkpt>
<trkpt lat="31.9364790" lon="34.9634150">
<ele>135.399994</ele>
<time>2017-07-11T06:07:19.000Z</time>
</trkpt>
<trkpt lat="31.9364490" lon="34.9633860">
<ele>135.199997</ele>
<time>2017-07-11T06:07:20.000Z</time>
</trkpt>
<trkpt lat="31.9364170" lon="34.9633540">
<ele>134.699997</ele>
<time>2017-07-11T06:07:21.000Z</time>
</trkpt>
<trkpt lat="31.9363840" lon="34.9633210">
<ele>134.300003</ele>
<time>2017-07-11T06:07:22.000Z</time>
</trkpt>
<trkpt lat="31.9363530" lon="34.9632850">
<ele>133.800003</ele>
<time>2017-07-11T06:07:23.000Z</time>
</trkpt>
<trkpt lat="31.9363190" lon="34.9632540">
<ele>133.099991</ele>
<time>2017-07-11T06:07:24.000Z</time>
</trkpt>
<trkpt lat="31.9362850" lon="34.9632310">
<ele>132.300003</ele>
<time>2017-07-11T06:07:25.000Z</time>
</trkpt>
<trkpt lat="31.9362580" lon="34.9632020">
<ele>131.500000</ele>
<time>2017-07-11T06:07:26.000Z</time>
</trkpt>
<trkpt lat="31.9362370" lon="34.9631750">
<ele>130.800003</ele>
<time>2017-07-11T06:07:27.000Z</time>
</trkpt>
<trkpt lat="31.9362070" lon="34.9631190">
<ele>130.000000</ele>
<time>2017-07-11T06:07:28.000Z</time>
</trkpt>
<trkpt lat="31.9361920" lon="34.9630800">
<ele>129.399994</ele>
<time>2017-07-11T06:07:29.000Z</time>
</trkpt>
<trkpt lat="31.9361890" lon="34.9630410">
<ele>128.699997</ele>
<time>2017-07-11T06:07:30.000Z</time>
</trkpt>
<trkpt lat="31.9361720" lon="34.9629930">
<ele>128.000000</ele>
<time>2017-07-11T06:07:32.000Z</time>
</trkpt>
<trkpt lat="31.9361580" lon="34.9629350">
<ele>127.400002</ele>
<time>2017-07-11T06:07:34.000Z</time>
</trkpt>
<trkpt lat="31.9361570" lon="34.9628990">
<ele>127.200005</ele>
<time>2017-07-11T06:07:35.000Z</time>
</trkpt>
<trkpt lat="31.9361500" lon="34.9628590">
<ele>127.000000</ele>
<time>2017-07-11T06:07:36.000Z</time>
</trkpt>
<trkpt lat="31.9361410" lon="34.9628290">
<ele>126.800003</ele>
<time>2017-07-11T06:07:37.000Z</time>
</trkpt>
<trkpt lat="31.9361160" lon="34.9627710">
<ele>126.500000</ele>
<time>2017-07-11T06:07:39.000Z</time>
</trkpt>
<trkpt lat="31.9361080" lon="34.9627120">
<ele>126.300003</ele>
<time>2017-07-11T06:07:41.000Z</time>
</trkpt>
<trkpt lat="31.9361190" lon="34.9626770">
<ele>126.099998</ele>
<time>2017-07-11T06:07:42.000Z</time>
</trkpt>
<trkpt lat="31.9361360" lon="34.9626470">
<ele>125.900002</ele>
<time>2017-07-11T06:07:43.000Z</time>
</trkpt>
<trkpt lat="31.9361220" lon="34.9625870">
<ele>125.400002</ele>
<time>2017-07-11T06:07:45.000Z</time>
</trkpt>
<trkpt lat="31.9360990" lon="34.9625380">
<ele>125.099998</ele>
<time>2017-07-11T06:07:46.000Z</time>
</trkpt>
<trkpt lat="31.9360580" lon="34.9624800">
<ele>124.699997</ele>
<time>2017-07-11T06:07:47.000Z</time>
</trkpt>
<trkpt lat="31.9360310" lon="34.9624500">
<ele>124.399994</ele>
<time>2017-07-11T06:07:48.000Z</time>
</trkpt>
<trkpt lat="31.9359930" lon="34.9624280">
<ele>123.799995</ele>
<time>2017-07-11T06:07:49.000Z</time>
</trkpt>
<trkpt lat="31.9359430" lon="34.9623880">
<ele>122.899994</ele>
<time>2017-07-11T06:07:50.000Z</time>
</trkpt>
<trkpt lat="31.9359050" lon="34.9623370">
<ele>122.099998</ele>
<time>2017-07-11T06:07:51.000Z</time>
</trkpt>
<trkpt lat="31.9358910" lon="34.9623070">
<ele>121.900002</ele>
<time>2017-07-11T06:07:52.000Z</time>
</trkpt>
<trkpt lat="31.9358730" lon="34.9622560">
<ele>121.599998</ele>
<time>2017-07-11T06:07:53.000Z</time>
</trkpt>
<trkpt lat="31.9358610" lon="34.9621840">
<ele>121.100006</ele>
<time>2017-07-11T06:07:54.000Z</time>
</trkpt>
<trkpt lat="31.9358690" lon="34.9621270">
<ele>120.699997</ele>
<time>2017-07-11T06:07:55.000Z</time>
</trkpt>
<trkpt lat="31.9358740" lon="34.9620640">
<ele>120.000000</ele>
<time>2017-07-11T06:07:56.000Z</time>
</trkpt>
<trkpt lat="31.9358640" lon="34.9620040">
<ele>119.399994</ele>
<time>2017-07-11T06:07:57.000Z</time>
</trkpt>
<trkpt lat="31.9358560" lon="34.9619540">
<ele>118.900002</ele>
<time>2017-07-11T06:07:58.000Z</time>
</trkpt>
<trkpt lat="31.9358350" lon="34.9619070">
<ele>118.400002</ele>
<time>2017-07-11T06:07:59.000Z</time>
</trkpt>
<trkpt lat="31.9358160" lon="34.9618510">
<ele>117.800003</ele>
<time>2017-07-11T06:08:00.000Z</time>
</trkpt>
<trkpt lat="31.9358070" lon="34.9617920">
<ele>117.500000</ele>
<time>2017-07-11T06:08:01.000Z</time>
</trkpt>
<trkpt lat="31.9357900" lon="34.9617280">
<ele>117.199997</ele>
<time>2017-07-11T06:08:02.000Z</time>
</trkpt>
<trkpt lat="31.9357780" lon="34.9616930">
<ele>117.000000</ele>
<time>2017-07-11T06:08:03.000Z</time>
</trkpt>
<trkpt lat="31.9357500" lon="34.9616600">
<ele>116.799995</ele>
<time>2017-07-11T06:08:04.000Z</time>
</trkpt>
<trkpt lat="31.9357160" lon="34.9616090">
<ele>116.599998</ele>
<time>2017-07-11T06:08:05.000Z</time>
</trkpt>
<trkpt lat="31.9356960" lon="34.9615460">
<ele>116.400002</ele>
<time>2017-07-11T06:08:06.000Z</time>
</trkpt>
<trkpt lat="31.9356810" lon="34.9614890">
<ele>116.199997</ele>
<time>2017-07-11T06:08:07.000Z</time>
</trkpt>
<trkpt lat="31.9356800" lon="34.9614300">
<ele>116.000000</ele>
<time>2017-07-11T06:08:08.000Z</time>
</trkpt>
<trkpt lat="31.9356740" lon="34.9613700">
<ele>115.699997</ele>
<time>2017-07-11T06:08:09.000Z</time>
</trkpt>
<trkpt lat="31.9356590" lon="34.9613060">
<ele>115.300003</ele>
<time>2017-07-11T06:08:10.000Z</time>
</trkpt>
<trkpt lat="31.9356490" lon="34.9612480">
<ele>115.200005</ele>
<time>2017-07-11T06:08:11.000Z</time>
</trkpt>
<trkpt lat="31.9356440" lon="34.9611930">
<ele>115.099998</ele>
<time>2017-07-11T06:08:12.000Z</time>
</trkpt>
<trkpt lat="31.9356390" lon="34.9611340">
<ele>115.000000</ele>
<time>2017-07-11T06:08:13.000Z</time>
</trkpt>
<trkpt lat="31.9356370" lon="34.9610820">
<ele>114.900002</ele>
<time>2017-07-11T06:08:14.000Z</time>
</trkpt>
<trkpt lat="31.9356390" lon="34.9610160">
<ele>114.700005</ele>
<time>2017-07-11T06:08:15.000Z</time>
</trkpt>
<trkpt lat="31.9356530" lon="34.9609620">
<ele>114.599998</ele>
<time>2017-07-11T06:08:16.000Z</time>
</trkpt>
<trkpt lat="31.9356610" lon="34.9609050">
<ele>114.500000</ele>
<time>2017-07-11T06:08:17.000Z</time>
</trkpt>
<trkpt lat="31.9356660" lon="34.9608580">
<ele>114.400002</ele>
<time>2017-07-11T06:08:18.000Z</time>
</trkpt>
<trkpt lat="31.9356700" lon="34.9608140">
<ele>114.300003</ele>
<time>2017-07-11T06:08:19.000Z</time>
</trkpt>
<trkpt lat="31.9356750" lon="34.9607640">
<ele>114.199997</ele>
<time>2017-07-11T06:08:20.000Z</time>
</trkpt>
<trkpt lat="31.9356730" lon="34.9606980">
<ele>114.100006</ele>
<time>2017-07-11T06:08:21.000Z</time>
</trkpt>
<trkpt lat="31.9356740" lon="34.9606540">
<ele>114.000000</ele>
<time>2017-07-11T06:08:22.000Z</time>
</trkpt>
<trkpt lat="31.9356790" lon="34.9605850">
<ele>113.599998</ele>
<time>2017-07-11T06:08:23.000Z</time>
</trkpt>
<trkpt lat="31.9356870" lon="34.9605280">
<ele>113.299995</ele>
<time>2017-07-11T06:08:24.000Z</time>
</trkpt>
<trkpt lat="31.9356980" lon="34.9604770">
<ele>112.999992</ele>
<time>2017-07-11T06:08:25.000Z</time>
</trkpt>
<trkpt lat="31.9357050" lon="34.9604120">
<ele>112.700005</ele>
<time>2017-07-11T06:08:26.000Z</time>
</trkpt>
<trkpt lat="31.9357140" lon="34.9603480">
<ele>112.400002</ele>
<time>2017-07-11T06:08:27.000Z</time>
</trkpt>
<trkpt lat="31.9357120" lon="34.9602680">
<ele>112.100006</ele>
<time>2017-07-11T06:08:28.000Z</time>
</trkpt>
<trkpt lat="31.9357230" lon="34.9601940">
<ele>111.800003</ele>
<time>2017-07-11T06:08:29.000Z</time>
</trkpt>
<trkpt lat="31.9357370" lon="34.9601430">
<ele>111.699997</ele>
<time>2017-07-11T06:08:30.000Z</time>
</trkpt>
<trkpt lat="31.9357410" lon="34.9600850">
<ele>111.599998</ele>
<time>2017-07-11T06:08:31.000Z</time>
</trkpt>
<trkpt lat="31.9357400" lon="34.9600380">
<ele>111.500000</ele>
<time>2017-07-11T06:08:32.000Z</time>
</trkpt>
<trkpt lat="31.9357370" lon="34.9599960">
<ele>111.299995</ele>
<time>2017-07-11T06:08:33.000Z</time>
</trkpt>
<trkpt lat="31.9357330" lon="34.9599600">
<ele>111.299995</ele>
<time>2017-07-11T06:08:34.000Z</time>
</trkpt>
<trkpt lat="31.9357220" lon="34.9599150">
<ele>111.099998</ele>
<time>2017-07-11T06:08:35.000Z</time>
</trkpt>
<trkpt lat="31.9357140" lon="34.9598800">
<ele>111.099998</ele>
<time>2017-07-11T06:08:36.000Z</time>
</trkpt>
<trkpt lat="31.9356810" lon="34.9598100">
<ele>111.000000</ele>
<time>2017-07-11T06:08:38.000Z</time>
</trkpt>
<trkpt lat="31.9356520" lon="34.9597390">
<ele>111.000000</ele>
<time>2017-07-11T06:08:39.000Z</time>
</trkpt>
<trkpt lat="31.9356300" lon="34.9596880">
<ele>111.000000</ele>
<time>2017-07-11T06:08:40.000Z</time>
</trkpt>
<trkpt lat="31.9356030" lon="34.9596330">
<ele>111.000000</ele>
<time>2017-07-11T06:08:41.000Z</time>
</trkpt>
<trkpt lat="31.9355710" lon="34.9595760">
<ele>111.000000</ele>
<time>2017-07-11T06:08:42.000Z</time>
</trkpt>
<trkpt lat="31.9355430" lon="34.9595220">
<ele>111.000000</ele>
<time>2017-07-11T06:08:43.000Z</time>
</trkpt>
<trkpt lat="31.9355120" lon="34.9594820">
<ele>110.900002</ele>
<time>2017-07-11T06:08:44.000Z</time>
</trkpt>
<trkpt lat="31.9354610" lon="34.9594290">
<ele>110.900002</ele>
<time>2017-07-11T06:08:45.000Z</time>
</trkpt>
<trkpt lat="31.9354190" lon="34.9593910">
<ele>110.900002</ele>
<time>2017-07-11T06:08:46.000Z</time>
</trkpt>
<trkpt lat="31.9353720" lon="34.9593440">
<ele>110.800003</ele>
<time>2017-07-11T06:08:47.000Z</time>
</trkpt>
<trkpt lat="31.9353350" lon="34.9592990">
<ele>110.800003</ele>
<time>2017-07-11T06:08:48.000Z</time>
</trkpt>
<trkpt lat="31.9353130" lon="34.9592650">
<ele>110.800003</ele>
<time>2017-07-11T06:08:49.000Z</time>
</trkpt>
<trkpt lat="31.9352880" lon="34.9592350">
<ele>110.800003</ele>
<time>2017-07-11T06:08:50.000Z</time>
</trkpt>
<trkpt lat="31.9352470" lon="34.9591520">
<ele>110.699997</ele>
<time>2017-07-11T06:08:52.000Z</time>
</trkpt>
<trkpt lat="31.9352360" lon="34.9590990">
<ele>110.699997</ele>
<time>2017-07-11T06:08:53.000Z</time>
</trkpt>
<trkpt lat="31.9352250" lon="34.9590490">
<ele>110.699997</ele>
<time>2017-07-11T06:08:54.000Z</time>
</trkpt>
<trkpt lat="31.9352090" lon="34.9590020">
<ele>110.600006</ele>
<time>2017-07-11T06:08:55.000Z</time>
</trkpt>
<trkpt lat="31.9352030" lon="34.9589340">
<ele>110.500000</ele>
<time>2017-07-11T06:08:56.000Z</time>
</trkpt>
<trkpt lat="31.9351950" lon="34.9588860">
<ele>110.500000</ele>
<time>2017-07-11T06:08:57.000Z</time>
</trkpt>
<trkpt lat="31.9351960" lon="34.9588150">
<ele>110.399994</ele>
<time>2017-07-11T06:08:58.000Z</time>
</trkpt>
<trkpt lat="31.9352000" lon="34.9587520">
<ele>110.300003</ele>
<time>2017-07-11T06:08:59.000Z</time>
</trkpt>
<trkpt lat="31.9351960" lon="34.9587050">
<ele>110.199997</ele>
<time>2017-07-11T06:09:00.000Z</time>
</trkpt>
<trkpt lat="31.9351900" lon="34.9586360">
<ele>110.099998</ele>
<time>2017-07-11T06:09:01.000Z</time>
</trkpt>
<trkpt lat="31.9351910" lon="34.9585850">
<ele>110.099998</ele>
<time>2017-07-11T06:09:02.000Z</time>
</trkpt>
<trkpt lat="31.9352010" lon="34.9585160">
<ele>109.799995</ele>
<time>2017-07-11T06:09:03.000Z</time>
</trkpt>
<trkpt lat="31.9352160" lon="34.9584480">
<ele>109.700005</ele>
<time>2017-07-11T06:09:04.000Z</time>
</trkpt>
<trkpt lat="31.9352280" lon="34.9583700">
<ele>109.599998</ele>
<time>2017-07-11T06:09:05.000Z</time>
</trkpt>
<trkpt lat="31.9352360" lon="34.9582710">
<ele>109.200005</ele>
<time>2017-07-11T06:09:06.000Z</time>
</trkpt>
<trkpt lat="31.9352580" lon="34.9582020">
<ele>108.900002</ele>
<time>2017-07-11T06:09:07.000Z</time>
</trkpt>
<trkpt lat="31.9352730" lon="34.9581280">
<ele>108.600006</ele>
<time>2017-07-11T06:09:08.000Z</time>
</trkpt>
<trkpt lat="31.9352920" lon="34.9580550">
<ele>108.300003</ele>
<time>2017-07-11T06:09:09.000Z</time>
</trkpt>
<trkpt lat="31.9353120" lon="34.9579870">
<ele>108.199997</ele>
<time>2017-07-11T06:09:10.000Z</time>
</trkpt>
<trkpt lat="31.9353360" lon="34.9579220">
<ele>108.199997</ele>
<time>2017-07-11T06:09:11.000Z</time>
</trkpt>
<trkpt lat="31.9353560" lon="34.9578620">
<ele>108.099998</ele>
<time>2017-07-11T06:09:12.000Z</time>
</trkpt>
<trkpt lat="31.9353660" lon="34.9577980">
<ele>108.099998</ele>
<time>2017-07-11T06:09:13.000Z</time>
</trkpt>
<trkpt lat="31.9353760" lon="34.9577400">
<ele>108.000000</ele>
<time>2017-07-11T06:09:14.000Z</time>
</trkpt>
<trkpt lat="31.9353880" lon="34.9576820">
<ele>108.000000</ele>
<time>2017-07-11T06:09:15.000Z</time>
</trkpt>
<trkpt lat="31.9353960" lon="34.9576090">
<ele>108.000000</ele>
<time>2017-07-11T06:09:16.000Z</time>
</trkpt>
<trkpt lat="31.9354140" lon="34.9575480">
<ele>108.000000</ele>
<time>2017-07-11T06:09:17.000Z</time>
</trkpt>
<trkpt lat="31.9354270" lon="34.9574870">
<ele>108.000000</ele>
<time>2017-07-11T06:09:18.000Z</time>
</trkpt>
<trkpt lat="31.9354450" lon="34.9574340">
<ele>108.000000</ele>
<time>2017-07-11T06:09:19.000Z</time>
</trkpt>
<trkpt lat="31.9354580" lon="34.9573840">
<ele>108.000000</ele>
<time>2017-07-11T06:09:20.000Z</time>
</trkpt>
<trkpt lat="31.9354680" lon="34.9573270">
<ele>108.000000</ele>
<time>2017-07-11T06:09:21.000Z</time>
</trkpt>
<trkpt lat="31.9354810" lon="34.9572670">
<ele>108.000000</ele>
<time>2017-07-11T06:09:22.000Z</time>
</trkpt>
<trkpt lat="31.9355000" lon="34.9572150">
<ele>108.000000</ele>
<time>2017-07-11T06:09:23.000Z</time>
</trkpt>
<trkpt lat="31.9355150" lon="34.9571710">
<ele>108.000000</ele>
<time>2017-07-11T06:09:24.000Z</time>
</trkpt>
<trkpt lat="31.9355280" lon="34.9571230">
<ele>108.000000</ele>
<time>2017-07-11T06:09:25.000Z</time>
</trkpt>
<trkpt lat="31.9355420" lon="34.9570750">
<ele>108.000000</ele>
<time>2017-07-11T06:09:26.000Z</time>
</trkpt>
<trkpt lat="31.9355580" lon="34.9570170">
<ele>108.199997</ele>
<time>2017-07-11T06:09:27.000Z</time>
</trkpt>
<trkpt lat="31.9355650" lon="34.9569540">
<ele>108.300003</ele>
<time>2017-07-11T06:09:28.000Z</time>
</trkpt>
<trkpt lat="31.9355790" lon="34.9568950">
<ele>108.300003</ele>
<time>2017-07-11T06:09:29.000Z</time>
</trkpt>
<trkpt lat="31.9355940" lon="34.9568380">
<ele>108.399994</ele>
<time>2017-07-11T06:09:30.000Z</time>
</trkpt>
<trkpt lat="31.9356030" lon="34.9567860">
<ele>108.600006</ele>
<time>2017-07-11T06:09:31.000Z</time>
</trkpt>
<trkpt lat="31.9356110" lon="34.9567260">
<ele>108.699997</ele>
<time>2017-07-11T06:09:32.000Z</time>
</trkpt>
<trkpt lat="31.9356260" lon="34.9566760">
<ele>108.900002</ele>
<time>2017-07-11T06:09:33.000Z</time>
</trkpt>
<trkpt lat="31.9356400" lon="34.9566280">
<ele>109.000000</ele>
<time>2017-07-11T06:09:34.000Z</time>
</trkpt>
<trkpt lat="31.9356570" lon="34.9565810">
<ele>109.500008</ele>
<time>2017-07-11T06:09:35.000Z</time>
</trkpt>
<trkpt lat="31.9356590" lon="34.9565320">
<ele>110.000000</ele>
<time>2017-07-11T06:09:36.000Z</time>
</trkpt>
<trkpt lat="31.9356570" lon="34.9564810">
<ele>110.699997</ele>
<time>2017-07-11T06:09:37.000Z</time>
</trkpt>
<trkpt lat="31.9356450" lon="34.9564350">
<ele>111.299995</ele>
<time>2017-07-11T06:09:38.000Z</time>
</trkpt>
<trkpt lat="31.9356230" lon="34.9563990">
<ele>111.699997</ele>
<time>2017-07-11T06:09:39.000Z</time>
</trkpt>
<trkpt lat="31.9355980" lon="34.9563560">
<ele>112.100006</ele>
<time>2017-07-11T06:09:40.000Z</time>
</trkpt>
<trkpt lat="31.9355680" lon="34.9563290">
<ele>112.999992</ele>
<time>2017-07-11T06:09:41.000Z</time>
</trkpt>
<trkpt lat="31.9355220" lon="34.9563090">
<ele>112.999992</ele>
<time>2017-07-11T06:09:42.000Z</time>
</trkpt>
<trkpt lat="31.9354720" lon="34.9562920">
<ele>112.999992</ele>
<time>2017-07-11T06:09:43.000Z</time>
</trkpt>
<trkpt lat="31.9354370" lon="34.9562760">
<ele>112.999992</ele>
<time>2017-07-11T06:09:44.000Z</time>
</trkpt>
<trkpt lat="31.9354030" lon="34.9562640">
<ele>112.999992</ele>
<time>2017-07-11T06:09:45.000Z</time>
</trkpt>
<trkpt lat="31.9353410" lon="34.9562450">
<ele>112.999992</ele>
<time>2017-07-11T06:09:47.000Z</time>
</trkpt>
<trkpt lat="31.9353130" lon="34.9562290">
<ele>112.999992</ele>
<time>2017-07-11T06:09:48.000Z</time>
</trkpt>
<trkpt lat="31.9352760" lon="34.9562150">
<ele>112.999992</ele>
<time>2017-07-11T06:09:50.000Z</time>
</trkpt>
<trkpt lat="31.9352480" lon="34.9562060">
<ele>112.999992</ele>
<time>2017-07-11T06:09:51.000Z</time>
</trkpt>
<trkpt lat="31.9352060" lon="34.9561990">
<ele>112.999992</ele>
<time>2017-07-11T06:09:53.000Z</time>
</trkpt>
<trkpt lat="31.9351740" lon="34.9561910">
<ele>113.299995</ele>
<time>2017-07-11T06:09:55.000Z</time>
</trkpt>
<trkpt lat="31.9351380" lon="34.9561810">
<ele>113.599998</ele>
<time>2017-07-11T06:09:57.000Z</time>
</trkpt>
<trkpt lat="31.9351020" lon="34.9561790">
<ele>113.899994</ele>
<time>2017-07-11T06:09:59.000Z</time>
</trkpt>
<trkpt lat="31.9350550" lon="34.9561720">
<ele>114.300003</ele>
<time>2017-07-11T06:10:01.000Z</time>
</trkpt>
<trkpt lat="31.9350150" lon="34.9561620">
<ele>114.900002</ele>
<time>2017-07-11T06:10:03.000Z</time>
</trkpt>
<trkpt lat="31.9349750" lon="34.9561450">
<ele>115.400002</ele>
<time>2017-07-11T06:10:05.000Z</time>
</trkpt>
<trkpt lat="31.9349310" lon="34.9561290">
<ele>116.099998</ele>
<time>2017-07-11T06:10:08.000Z</time>
</trkpt>
<trkpt lat="31.9348940" lon="34.9561130">
<ele>116.299995</ele>
<time>2017-07-11T06:10:10.000Z</time>
</trkpt>
<trkpt lat="31.9348620" lon="34.9561050">
<ele>116.499992</ele>
<time>2017-07-11T06:10:13.000Z</time>
</trkpt>
<trkpt lat="31.9348320" lon="34.9560950">
<ele>116.700005</ele>
<time>2017-07-11T06:10:15.000Z</time>
</trkpt>
<trkpt lat="31.9347960" lon="34.9560790">
<ele>116.900002</ele>
<time>2017-07-11T06:10:17.000Z</time>
</trkpt>
<trkpt lat="31.9347560" lon="34.9560680">
<ele>117.199997</ele>
<time>2017-07-11T06:10:19.000Z</time>
</trkpt>
<trkpt lat="31.9347090" lon="34.9560530">
<ele>117.600006</ele>
<time>2017-07-11T06:10:21.000Z</time>
</trkpt>
<trkpt lat="31.9346730" lon="34.9560460">
<ele>118.099998</ele>
<time>2017-07-11T06:10:23.000Z</time>
</trkpt>
<trkpt lat="31.9346470" lon="34.9560330">
<ele>118.500008</ele>
<time>2017-07-11T06:10:25.000Z</time>
</trkpt>
<trkpt lat="31.9346180" lon="34.9560200">
<ele>118.900002</ele>
<time>2017-07-11T06:10:27.000Z</time>
</trkpt>
<trkpt lat="31.9345800" lon="34.9559990">
<ele>119.500000</ele>
<time>2017-07-11T06:10:30.000Z</time>
</trkpt>
<trkpt lat="31.9345490" lon="34.9559850">
<ele>119.900002</ele>
<time>2017-07-11T06:10:32.000Z</time>
</trkpt>
<trkpt lat="31.9345210" lon="34.9559760">
<ele>120.200005</ele>
<time>2017-07-11T06:10:34.000Z</time>
</trkpt>
<trkpt lat="31.9344900" lon="34.9559640">
<ele>120.400002</ele>
<time>2017-07-11T06:10:36.000Z</time>
</trkpt>
<trkpt lat="31.9344470" lon="34.9559420">
<ele>120.899994</ele>
<time>2017-07-11T06:10:38.000Z</time>
</trkpt>
<trkpt lat="31.9344070" lon="34.9559260">
<ele>121.599998</ele>
<time>2017-07-11T06:10:40.000Z</time>
</trkpt>
<trkpt lat="31.9343670" lon="34.9559150">
<ele>122.200005</ele>
<time>2017-07-11T06:10:42.000Z</time>
</trkpt>
<trkpt lat="31.9343300" lon="34.9559040">
<ele>122.800003</ele>
<time>2017-07-11T06:10:44.000Z</time>
</trkpt>
<trkpt lat="31.9342970" lon="34.9558830">
<ele>123.199997</ele>
<time>2017-07-11T06:10:47.000Z</time>
</trkpt>
<trkpt lat="31.9342740" lon="34.9558670">
<ele>123.400002</ele>
<time>2017-07-11T06:10:49.000Z</time>
</trkpt>
<trkpt lat="31.9342440" lon="34.9558460">
<ele>123.900002</ele>
<time>2017-07-11T06:10:51.000Z</time>
</trkpt>
<trkpt lat="31.9342080" lon="34.9558390">
<ele>124.399994</ele>
<time>2017-07-11T06:10:53.000Z</time>
</trkpt>
<trkpt lat="31.9341830" lon="34.9558230">
<ele>124.699997</ele>
<time>2017-07-11T06:10:55.000Z</time>
</trkpt>
<trkpt lat="31.9341500" lon="34.9557920">
<ele>125.099998</ele>
<time>2017-07-11T06:10:57.000Z</time>
</trkpt>
<trkpt lat="31.9341140" lon="34.9557680">
<ele>125.499992</ele>
<time>2017-07-11T06:10:59.000Z</time>
</trkpt>
<trkpt lat="31.9340830" lon="34.9557510">
<ele>125.700005</ele>
<time>2017-07-11T06:11:00.000Z</time>
</trkpt>
<trkpt lat="31.9340450" lon="34.9557190">
<ele>125.900002</ele>
<time>2017-07-11T06:11:02.000Z</time>
</trkpt>
<trkpt lat="31.9340120" lon="34.9556910">
<ele>126.099998</ele>
<time>2017-07-11T06:11:04.000Z</time>
</trkpt>
<trkpt lat="31.9339830" lon="34.9556510">
<ele>126.300003</ele>
<time>2017-07-11T06:11:06.000Z</time>
</trkpt>
<trkpt lat="31.9339480" lon="34.9556190">
<ele>126.399994</ele>
<time>2017-07-11T06:11:08.000Z</time>
</trkpt>
<trkpt lat="31.9339100" lon="34.9555850">
<ele>126.600006</ele>
<time>2017-07-11T06:11:10.000Z</time>
</trkpt>
<trkpt lat="31.9338580" lon="34.9555540">
<ele>126.800003</ele>
<time>2017-07-11T06:11:12.000Z</time>
</trkpt>
<trkpt lat="31.9338330" lon="34.9555300">
<ele>126.900002</ele>
<time>2017-07-11T06:11:13.000Z</time>
</trkpt>
<trkpt lat="31.9337950" lon="34.9554980">
<ele>127.000000</ele>
<time>2017-07-11T06:11:15.000Z</time>
</trkpt>
<trkpt lat="31.9337650" lon="34.9554880">
<ele>127.000000</ele>
<time>2017-07-11T06:11:17.000Z</time>
</trkpt>
<trkpt lat="31.9337340" lon="34.9554720">
<ele>127.000000</ele>
<time>2017-07-11T06:11:19.000Z</time>
</trkpt>
<trkpt lat="31.9337060" lon="34.9554510">
<ele>127.000000</ele>
<time>2017-07-11T06:11:21.000Z</time>
</trkpt>
<trkpt lat="31.9336880" lon="34.9554210">
<ele>127.000000</ele>
<time>2017-07-11T06:11:25.000Z</time>
</trkpt>
<trkpt lat="31.9336600" lon="34.9553910">
<ele>127.000000</ele>
<time>2017-07-11T06:11:27.000Z</time>
</trkpt>
<trkpt lat="31.9336210" lon="34.9553590">
<ele>127.099998</ele>
<time>2017-07-11T06:11:29.000Z</time>
</trkpt>
<trkpt lat="31.9335840" lon="34.9553370">
<ele>127.000000</ele>
<time>2017-07-11T06:11:30.000Z</time>
</trkpt>
<trkpt lat="31.9335490" lon="34.9553240">
<ele>126.900002</ele>
<time>2017-07-11T06:11:31.000Z</time>
</trkpt>
<trkpt lat="31.9335200" lon="34.9553160">
<ele>126.900002</ele>
<time>2017-07-11T06:11:32.000Z</time>
</trkpt>
<trkpt lat="31.9334760" lon="34.9553050">
<ele>127.000000</ele>
<time>2017-07-11T06:11:34.000Z</time>
</trkpt>
<trkpt lat="31.9334390" lon="34.9552900">
<ele>127.000000</ele>
<time>2017-07-11T06:11:36.000Z</time>
</trkpt>
<trkpt lat="31.9334010" lon="34.9552740">
<ele>127.000000</ele>
<time>2017-07-11T06:11:38.000Z</time>
</trkpt>
<trkpt lat="31.9333750" lon="34.9552610">
<ele>127.200005</ele>
<time>2017-07-11T06:11:39.000Z</time>
</trkpt>
<trkpt lat="31.9333450" lon="34.9552360">
<ele>127.400002</ele>
<time>2017-07-11T06:11:41.000Z</time>
</trkpt>
<trkpt lat="31.9333150" lon="34.9552200">
<ele>127.599998</ele>
<time>2017-07-11T06:11:43.000Z</time>
</trkpt>
<trkpt lat="31.9332760" lon="34.9551850">
<ele>127.800003</ele>
<time>2017-07-11T06:11:45.000Z</time>
</trkpt>
<trkpt lat="31.9332520" lon="34.9551650">
<ele>127.900002</ele>
<time>2017-07-11T06:11:47.000Z</time>
</trkpt>
<trkpt lat="31.9332230" lon="34.9551430">
<ele>128.100006</ele>
<time>2017-07-11T06:11:52.000Z</time>
</trkpt>
<trkpt lat="31.9332000" lon="34.9551220">
<ele>128.100006</ele>
<time>2017-07-11T06:11:55.000Z</time>
</trkpt>
<trkpt lat="31.9331690" lon="34.9551080">
<ele>128.199997</ele>
<time>2017-07-11T06:11:58.000Z</time>
</trkpt>
<trkpt lat="31.9331430" lon="34.9550910">
<ele>128.300003</ele>
<time>2017-07-11T06:12:00.000Z</time>
</trkpt>
<trkpt lat="31.9331160" lon="34.9550750">
<ele>128.400009</ele>
<time>2017-07-11T06:12:02.000Z</time>
</trkpt>
<trkpt lat="31.9330950" lon="34.9550490">
<ele>128.500000</ele>
<time>2017-07-11T06:12:05.000Z</time>
</trkpt>
<trkpt lat="31.9330530" lon="34.9550270">
<ele>128.600006</ele>
<time>2017-07-11T06:12:07.000Z</time>
</trkpt>
<trkpt lat="31.9330290" lon="34.9550080">
<ele>128.699997</ele>
<time>2017-07-11T06:12:08.000Z</time>
</trkpt>
<trkpt lat="31.9329890" lon="34.9549700">
<ele>128.900009</ele>
<time>2017-07-11T06:12:10.000Z</time>
</trkpt>
<trkpt lat="31.9329530" lon="34.9549480">
<ele>128.900009</ele>
<time>2017-07-11T06:12:12.000Z</time>
</trkpt>
<trkpt lat="31.9329040" lon="34.9549200">
<ele>129.199997</ele>
<time>2017-07-11T06:12:14.000Z</time>
</trkpt>
<trkpt lat="31.9328640" lon="34.9549090">
<ele>129.500000</ele>
<time>2017-07-11T06:12:16.000Z</time>
</trkpt>
<trkpt lat="31.9328330" lon="34.9548820">
<ele>130.000000</ele>
<time>2017-07-11T06:12:19.000Z</time>
</trkpt>
<trkpt lat="31.9328370" lon="34.9548430">
<ele>130.199997</ele>
<time>2017-07-11T06:12:30.000Z</time>
</trkpt>
<trkpt lat="31.9328350" lon="34.9548070">
<ele>130.500000</ele>
<time>2017-07-11T06:12:51.000Z</time>
</trkpt>
<trkpt lat="31.9328150" lon="34.9547850">
<ele>130.600006</ele>
<time>2017-07-11T06:12:59.000Z</time>
</trkpt>
<trkpt lat="31.9327970" lon="34.9547600">
<ele>131.000000</ele>
<time>2017-07-11T06:13:04.000Z</time>
</trkpt>
<trkpt lat="31.9327910" lon="34.9547270">
<ele>131.300003</ele>
<time>2017-07-11T06:13:27.000Z</time>
</trkpt>
<trkpt lat="31.9328170" lon="34.9547420">
<ele>131.500000</ele>
<time>2017-07-11T06:14:14.000Z</time>
</trkpt>
<trkpt lat="31.9328170" lon="34.9547780">
<ele>131.699997</ele>
<time>2017-07-11T06:15:10.000Z</time>
</trkpt>
<trkpt lat="31.9327760" lon="34.9547610">
<ele>132.000000</ele>
<time>2017-07-11T06:17:30.000Z</time>
</trkpt>
<trkpt lat="31.9327700" lon="34.9547280">
<ele>132.199997</ele>
<time>2017-07-11T06:17:32.000Z</time>
</trkpt>
<trkpt lat="31.9327370" lon="34.9547060">
<ele>132.400009</ele>
<time>2017-07-11T06:17:37.000Z</time>
</trkpt>
<trkpt lat="31.9327140" lon="34.9546830">
<ele>132.600006</ele>
<time>2017-07-11T06:17:39.000Z</time>
</trkpt>
<trkpt lat="31.9326890" lon="34.9546640">
<ele>132.699997</ele>
<time>2017-07-11T06:17:41.000Z</time>
</trkpt>
<trkpt lat="31.9326620" lon="34.9546420">
<ele>132.800003</ele>
<time>2017-07-11T06:17:44.000Z</time>
</trkpt>
<trkpt lat="31.9326310" lon="34.9546330">
<ele>132.899994</ele>
<time>2017-07-11T06:17:47.000Z</time>
</trkpt>
<trkpt lat="31.9325960" lon="34.9546090">
<ele>133.000000</ele>
<time>2017-07-11T06:17:50.000Z</time>
</trkpt>
<trkpt lat="31.9325730" lon="34.9545900">
<ele>133.099991</ele>
<time>2017-07-11T06:17:52.000Z</time>
</trkpt>
<trkpt lat="31.9325480" lon="34.9545650">
<ele>133.199997</ele>
<time>2017-07-11T06:17:54.000Z</time>
</trkpt>
<trkpt lat="31.9325150" lon="34.9545320">
<ele>133.300003</ele>
<time>2017-07-11T06:17:57.000Z</time>
</trkpt>
<trkpt lat="31.9324860" lon="34.9545130">
<ele>133.500000</ele>
<time>2017-07-11T06:17:59.000Z</time>
</trkpt>
<trkpt lat="31.9324550" lon="34.9544880">
<ele>133.800003</ele>
<time>2017-07-11T06:18:01.000Z</time>
</trkpt>
<trkpt lat="31.9324350" lon="34.9544580">
<ele>134.000000</ele>
<time>2017-07-11T06:18:03.000Z</time>
</trkpt>
<trkpt lat="31.9324150" lon="34.9544180">
<ele>134.300003</ele>
<time>2017-07-11T06:18:05.000Z</time>
</trkpt>
<trkpt lat="31.9324020" lon="34.9543740">
<ele>134.599991</ele>
<time>2017-07-11T06:18:08.000Z</time>
</trkpt>
<trkpt lat="31.9323870" lon="34.9543470">
<ele>134.800003</ele>
<time>2017-07-11T06:18:10.000Z</time>
</trkpt>
<trkpt lat="31.9323710" lon="34.9543210">
<ele>135.000000</ele>
<time>2017-07-11T06:18:12.000Z</time>
</trkpt>
<trkpt lat="31.9323390" lon="34.9542940">
<ele>135.000000</ele>
<time>2017-07-11T06:18:15.000Z</time>
</trkpt>
<trkpt lat="31.9323260" lon="34.9542650">
<ele>135.000000</ele>
<time>2017-07-11T06:18:17.000Z</time>
</trkpt>
<trkpt lat="31.9323200" lon="34.9542160">
<ele>134.899994</ele>
<time>2017-07-11T06:18:20.000Z</time>
</trkpt>
<trkpt lat="31.9323190" lon="34.9541730">
<ele>134.899994</ele>
<time>2017-07-11T06:18:22.000Z</time>
</trkpt>
<trkpt lat="31.9323290" lon="34.9541320">
<ele>134.899994</ele>
<time>2017-07-11T06:18:24.000Z</time>
</trkpt>
<trkpt lat="31.9323320" lon="34.9540830">
<ele>134.899994</ele>
<time>2017-07-11T06:18:26.000Z</time>
</trkpt>
<trkpt lat="31.9323090" lon="34.9540370">
<ele>134.899994</ele>
<time>2017-07-11T06:18:28.000Z</time>
</trkpt>
<trkpt lat="31.9322830" lon="34.9539950">
<ele>134.899994</ele>
<time>2017-07-11T06:18:30.000Z</time>
</trkpt>
<trkpt lat="31.9322660" lon="34.9539620">
<ele>134.899994</ele>
<time>2017-07-11T06:18:32.000Z</time>
</trkpt>
<trkpt lat="31.9322540" lon="34.9539200">
<ele>134.899994</ele>
<time>2017-07-11T06:18:35.000Z</time>
</trkpt>
<trkpt lat="31.9322380" lon="34.9538840">
<ele>134.899994</ele>
<time>2017-07-11T06:18:38.000Z</time>
</trkpt>
<trkpt lat="31.9322220" lon="34.9538440">
<ele>134.800003</ele>
<time>2017-07-11T06:18:41.000Z</time>
</trkpt>
<trkpt lat="31.9322140" lon="34.9538030">
<ele>134.800003</ele>
<time>2017-07-11T06:18:44.000Z</time>
</trkpt>
<trkpt lat="31.9322080" lon="34.9537590">
<ele>134.800003</ele>
<time>2017-07-11T06:18:47.000Z</time>
</trkpt>
<trkpt lat="31.9322000" lon="34.9537240">
<ele>134.699997</ele>
<time>2017-07-11T06:18:50.000Z</time>
</trkpt>
<trkpt lat="31.9321880" lon="34.9536780">
<ele>134.699997</ele>
<time>2017-07-11T06:18:53.000Z</time>
</trkpt>
<trkpt lat="31.9321750" lon="34.9536390">
<ele>134.800003</ele>
<time>2017-07-11T06:18:56.000Z</time>
</trkpt>
<trkpt lat="31.9321590" lon="34.9535970">
<ele>134.800003</ele>
<time>2017-07-11T06:18:59.000Z</time>
</trkpt>
<trkpt lat="31.9321440" lon="34.9535560">
<ele>134.800003</ele>
<time>2017-07-11T06:19:02.000Z</time>
</trkpt>
<trkpt lat="31.9321280" lon="34.9535290">
<ele>134.899994</ele>
<time>2017-07-11T06:19:04.000Z</time>
</trkpt>
<trkpt lat="31.9321210" lon="34.9534910">
<ele>134.899994</ele>
<time>2017-07-11T06:19:06.000Z</time>
</trkpt>
<trkpt lat="31.9321130" lon="34.9534570">
<ele>134.899994</ele>
<time>2017-07-11T06:19:08.000Z</time>
</trkpt>
<trkpt lat="31.9321090" lon="34.9534190">
<ele>135.000000</ele>
<time>2017-07-11T06:19:10.000Z</time>
</trkpt>
<trkpt lat="31.9321020" lon="34.9533850">
<ele>135.000000</ele>
<time>2017-07-11T06:19:12.000Z</time>
</trkpt>
<trkpt lat="31.9320890" lon="34.9533570">
<ele>135.099991</ele>
<time>2017-07-11T06:19:14.000Z</time>
</trkpt>
<trkpt lat="31.9320750" lon="34.9533270">
<ele>135.099991</ele>
<time>2017-07-11T06:19:16.000Z</time>
</trkpt>
<trkpt lat="31.9320590" lon="34.9532970">
<ele>135.199997</ele>
<time>2017-07-11T06:19:18.000Z</time>
</trkpt>
<trkpt lat="31.9320390" lon="34.9532580">
<ele>135.300003</ele>
<time>2017-07-11T06:19:21.000Z</time>
</trkpt>
<trkpt lat="31.9320220" lon="34.9532190">
<ele>135.399994</ele>
<time>2017-07-11T06:19:24.000Z</time>
</trkpt>
<trkpt lat="31.9320020" lon="34.9531760">
<ele>135.500000</ele>
<time>2017-07-11T06:19:27.000Z</time>
</trkpt>
<trkpt lat="31.9319810" lon="34.9531340">
<ele>135.600006</ele>
<time>2017-07-11T06:19:29.000Z</time>
</trkpt>
<trkpt lat="31.9319620" lon="34.9530930">
<ele>135.699997</ele>
<time>2017-07-11T06:19:31.000Z</time>
</trkpt>
<trkpt lat="31.9319380" lon="34.9530530">
<ele>135.800003</ele>
<time>2017-07-11T06:19:33.000Z</time>
</trkpt>
<trkpt lat="31.9319140" lon="34.9530180">
<ele>135.900009</ele>
<time>2017-07-11T06:19:35.000Z</time>
</trkpt>
<trkpt lat="31.9318910" lon="34.9529890">
<ele>136.100006</ele>
<time>2017-07-11T06:19:37.000Z</time>
</trkpt>
<trkpt lat="31.9318690" lon="34.9529650">
<ele>136.300003</ele>
<time>2017-07-11T06:19:39.000Z</time>
</trkpt>
<trkpt lat="31.9318450" lon="34.9529370">
<ele>136.500000</ele>
<time>2017-07-11T06:19:41.000Z</time>
</trkpt>
<trkpt lat="31.9318170" lon="34.9529030">
<ele>136.699997</ele>
<time>2017-07-11T06:19:43.000Z</time>
</trkpt>
<trkpt lat="31.9317830" lon="34.9528650">
<ele>137.000000</ele>
<time>2017-07-11T06:19:45.000Z</time>
</trkpt>
<trkpt lat="31.9317500" lon="34.9528280">
<ele>137.400009</ele>
<time>2017-07-11T06:19:47.000Z</time>
</trkpt>
<trkpt lat="31.9317130" lon="34.9527850">
<ele>138.000000</ele>
<time>2017-07-11T06:19:49.000Z</time>
</trkpt>
<trkpt lat="31.9316840" lon="34.9527510">
<ele>138.300003</ele>
<time>2017-07-11T06:19:51.000Z</time>
</trkpt>
<trkpt lat="31.9316560" lon="34.9527220">
<ele>138.399994</ele>
<time>2017-07-11T06:19:53.000Z</time>
</trkpt>
<trkpt lat="31.9316330" lon="34.9526880">
<ele>138.500000</ele>
<time>2017-07-11T06:19:55.000Z</time>
</trkpt>
<trkpt lat="31.9316040" lon="34.9526490">
<ele>138.699997</ele>
<time>2017-07-11T06:19:57.000Z</time>
</trkpt>
<trkpt lat="31.9315760" lon="34.9526170">
<ele>138.800003</ele>
<time>2017-07-11T06:19:59.000Z</time>
</trkpt>
<trkpt lat="31.9315480" lon="34.9525960">
<ele>139.000000</ele>
<time>2017-07-11T06:20:01.000Z</time>
</trkpt>
<trkpt lat="31.9315160" lon="34.9525670">
<ele>139.100006</ele>
<time>2017-07-11T06:20:03.000Z</time>
</trkpt>
<trkpt lat="31.9314870" lon="34.9525360">
<ele>139.199997</ele>
<time>2017-07-11T06:20:05.000Z</time>
</trkpt>
<trkpt lat="31.9314580" lon="34.9525030">
<ele>139.300003</ele>
<time>2017-07-11T06:20:07.000Z</time>
</trkpt>
<trkpt lat="31.9314310" lon="34.9524720">
<ele>139.400009</ele>
<time>2017-07-11T06:20:09.000Z</time>
</trkpt>
<trkpt lat="31.9314010" lon="34.9524310">
<ele>139.500000</ele>
<time>2017-07-11T06:20:11.000Z</time>
</trkpt>
<trkpt lat="31.9313740" lon="34.9523940">
<ele>139.600006</ele>
<time>2017-07-11T06:20:13.000Z</time>
</trkpt>
<trkpt lat="31.9313480" lon="34.9523590">
<ele>139.699997</ele>
<time>2017-07-11T06:20:15.000Z</time>
</trkpt>
<trkpt lat="31.9313210" lon="34.9523160">
<ele>139.800003</ele>
<time>2017-07-11T06:20:17.000Z</time>
</trkpt>
<trkpt lat="31.9312920" lon="34.9522800">
<ele>139.899994</ele>
<time>2017-07-11T06:20:19.000Z</time>
</trkpt>
<trkpt lat="31.9312640" lon="34.9522430">
<ele>140.000000</ele>
<time>2017-07-11T06:20:21.000Z</time>
</trkpt>
<trkpt lat="31.9312430" lon="34.9522000">
<ele>140.000000</ele>
<time>2017-07-11T06:20:23.000Z</time>
</trkpt>
<trkpt lat="31.9312290" lon="34.9521600">
<ele>138.899994</ele>
<time>2017-07-11T06:20:25.000Z</time>
</trkpt>
<trkpt lat="31.9312110" lon="34.9521140">
<ele>138.800003</ele>
<time>2017-07-11T06:20:27.000Z</time>
</trkpt>
<trkpt lat="31.9311960" lon="34.9520650">
<ele>138.599991</ele>
<time>2017-07-11T06:20:29.000Z</time>
</trkpt>
<trkpt lat="31.9311810" lon="34.9520080">
<ele>138.500000</ele>
<time>2017-07-11T06:20:31.000Z</time>
</trkpt>
<trkpt lat="31.9311600" lon="34.9519570">
<ele>138.500000</ele>
<time>2017-07-11T06:20:33.000Z</time>
</trkpt>
<trkpt lat="31.9311430" lon="34.9518990">
<ele>138.399994</ele>
<time>2017-07-11T06:20:35.000Z</time>
</trkpt>
<trkpt lat="31.9311370" lon="34.9518680">
<ele>138.399994</ele>
<time>2017-07-11T06:20:36.000Z</time>
</trkpt>
<trkpt lat="31.9311250" lon="34.9518090">
<ele>138.300003</ele>
<time>2017-07-11T06:20:38.000Z</time>
</trkpt>
<trkpt lat="31.9311180" lon="34.9517500">
<ele>138.300003</ele>
<time>2017-07-11T06:20:40.000Z</time>
</trkpt>
<trkpt lat="31.9311090" lon="34.9516960">
<ele>138.199997</ele>
<time>2017-07-11T06:20:42.000Z</time>
</trkpt>
<trkpt lat="31.9311080" lon="34.9516640">
<ele>138.199997</ele>
<time>2017-07-11T06:20:43.000Z</time>
</trkpt>
<trkpt lat="31.9311050" lon="34.9516310">
<ele>138.099991</ele>
<time>2017-07-11T06:20:44.000Z</time>
</trkpt>
<trkpt lat="31.9311040" lon="34.9515960">
<ele>138.099991</ele>
<time>2017-07-11T06:20:45.000Z</time>
</trkpt>
<trkpt lat="31.9310920" lon="34.9515450">
<ele>138.000000</ele>
<time>2017-07-11T06:20:47.000Z</time>
</trkpt>
<trkpt lat="31.9310580" lon="34.9515250">
<ele>138.000000</ele>
<time>2017-07-11T06:20:50.000Z</time>
</trkpt>
<trkpt lat="31.9310380" lon="34.9515510">
<ele>138.000000</ele>
<time>2017-07-11T06:20:52.000Z</time>
</trkpt>
<trkpt lat="31.9310070" lon="34.9515880">
<ele>137.699997</ele>
<time>2017-07-11T06:20:54.000Z</time>
</trkpt>
<trkpt lat="31.9309670" lon="34.9515880">
<ele>137.400009</ele>
<time>2017-07-11T06:20:56.000Z</time>
</trkpt>
<trkpt lat="31.9309280" lon="34.9515470">
<ele>137.100006</ele>
<time>2017-07-11T06:20:58.000Z</time>
</trkpt>
<trkpt lat="31.9309070" lon="34.9514840">
<ele>136.899994</ele>
<time>2017-07-11T06:21:00.000Z</time>
</trkpt>
<trkpt lat="31.9308940" lon="34.9514500">
<ele>136.800003</ele>
<time>2017-07-11T06:21:01.000Z</time>
</trkpt>
<trkpt lat="31.9308760" lon="34.9514160">
<ele>136.699997</ele>
<time>2017-07-11T06:21:02.000Z</time>
</trkpt>
<trkpt lat="31.9308510" lon="34.9513820">
<ele>136.599991</ele>
<time>2017-07-11T06:21:03.000Z</time>
</trkpt>
<trkpt lat="31.9308170" lon="34.9513450">
<ele>136.300003</ele>
<time>2017-07-11T06:21:04.000Z</time>
</trkpt>
<trkpt lat="31.9307820" lon="34.9513080">
<ele>136.100006</ele>
<time>2017-07-11T06:21:05.000Z</time>
</trkpt>
<trkpt lat="31.9307460" lon="34.9512730">
<ele>135.900009</ele>
<time>2017-07-11T06:21:06.000Z</time>
</trkpt>
<trkpt lat="31.9307180" lon="34.9512390">
<ele>135.699997</ele>
<time>2017-07-11T06:21:07.000Z</time>
</trkpt>
<trkpt lat="31.9306800" lon="34.9512030">
<ele>135.600006</ele>
<time>2017-07-11T06:21:08.000Z</time>
</trkpt>
<trkpt lat="31.9306400" lon="34.9511640">
<ele>135.399994</ele>
<time>2017-07-11T06:21:09.000Z</time>
</trkpt>
<trkpt lat="31.9305990" lon="34.9511200">
<ele>135.300003</ele>
<time>2017-07-11T06:21:10.000Z</time>
</trkpt>
<trkpt lat="31.9305540" lon="34.9510800">
<ele>135.099991</ele>
<time>2017-07-11T06:21:11.000Z</time>
</trkpt>
<trkpt lat="31.9305120" lon="34.9510340">
<ele>134.899994</ele>
<time>2017-07-11T06:21:12.000Z</time>
</trkpt>
<trkpt lat="31.9304630" lon="34.9509820">
<ele>134.599991</ele>
<time>2017-07-11T06:21:13.000Z</time>
</trkpt>
<trkpt lat="31.9304200" lon="34.9509350">
<ele>134.399994</ele>
<time>2017-07-11T06:21:14.000Z</time>
</trkpt>
<trkpt lat="31.9303720" lon="34.9508860">
<ele>134.300003</ele>
<time>2017-07-11T06:21:15.000Z</time>
</trkpt>
<trkpt lat="31.9303210" lon="34.9508380">
<ele>134.199997</ele>
<time>2017-07-11T06:21:16.000Z</time>
</trkpt>
<trkpt lat="31.9302680" lon="34.9507930">
<ele>134.100006</ele>
<time>2017-07-11T06:21:17.000Z</time>
</trkpt>
<trkpt lat="31.9302150" lon="34.9507480">
<ele>134.100006</ele>
<time>2017-07-11T06:21:18.000Z</time>
</trkpt>
<trkpt lat="31.9301560" lon="34.9507070">
<ele>134.000000</ele>
<time>2017-07-11T06:21:19.000Z</time>
</trkpt>
<trkpt lat="31.9300940" lon="34.9506700">
<ele>133.500000</ele>
<time>2017-07-11T06:21:20.000Z</time>
</trkpt>
<trkpt lat="31.9300290" lon="34.9506450">
<ele>132.400009</ele>
<time>2017-07-11T06:21:21.000Z</time>
</trkpt>
<trkpt lat="31.9299630" lon="34.9506200">
<ele>131.300003</ele>
<time>2017-07-11T06:21:22.000Z</time>
</trkpt>
<trkpt lat="31.9298970" lon="34.9505940">
<ele>130.600006</ele>
<time>2017-07-11T06:21:23.000Z</time>
</trkpt>
<trkpt lat="31.9298300" lon="34.9505710">
<ele>130.199997</ele>
<time>2017-07-11T06:21:24.000Z</time>
</trkpt>
<trkpt lat="31.9297620" lon="34.9505480">
<ele>129.800003</ele>
<time>2017-07-11T06:21:25.000Z</time>
</trkpt>
<trkpt lat="31.9296900" lon="34.9505200">
<ele>129.399994</ele>
<time>2017-07-11T06:21:26.000Z</time>
</trkpt>
<trkpt lat="31.9296150" lon="34.9504930">
<ele>129.000000</ele>
<time>2017-07-11T06:21:27.000Z</time>
</trkpt>
<trkpt lat="31.9295390" lon="34.9504650">
<ele>128.800003</ele>
<time>2017-07-11T06:21:28.000Z</time>
</trkpt>
<trkpt lat="31.9294630" lon="34.9504380">
<ele>128.699997</ele>
<time>2017-07-11T06:21:29.000Z</time>
</trkpt>
<trkpt lat="31.9293860" lon="34.9504160">
<ele>128.600006</ele>
<time>2017-07-11T06:21:30.000Z</time>
</trkpt>
<trkpt lat="31.9293130" lon="34.9503850">
<ele>128.400009</ele>
<time>2017-07-11T06:21:31.000Z</time>
</trkpt>
<trkpt lat="31.9292390" lon="34.9503500">
<ele>128.300003</ele>
<time>2017-07-11T06:21:32.000Z</time>
</trkpt>
<trkpt lat="31.9291680" lon="34.9503040">
<ele>128.199997</ele>
<time>2017-07-11T06:21:33.000Z</time>
</trkpt>
<trkpt lat="31.9290980" lon="34.9502550">
<ele>128.100006</ele>
<time>2017-07-11T06:21:34.000Z</time>
</trkpt>
<trkpt lat="31.9290210" lon="34.9502210">
<ele>127.900002</ele>
<time>2017-07-11T06:21:35.000Z</time>
</trkpt>
<trkpt lat="31.9289470" lon="34.9501850">
<ele>127.800003</ele>
<time>2017-07-11T06:21:36.000Z</time>
</trkpt>
<trkpt lat="31.9288720" lon="34.9501530">
<ele>127.599998</ele>
<time>2017-07-11T06:21:37.000Z</time>
</trkpt>
<trkpt lat="31.9288020" lon="34.9501150">
<ele>127.000000</ele>
<time>2017-07-11T06:21:38.000Z</time>
</trkpt>
<trkpt lat="31.9287360" lon="34.9500720">
<ele>126.300003</ele>
<time>2017-07-11T06:21:39.000Z</time>
</trkpt>
<trkpt lat="31.9286770" lon="34.9500270">
<ele>125.799995</ele>
<time>2017-07-11T06:21:40.000Z</time>
</trkpt>
<trkpt lat="31.9286210" lon="34.9499840">
<ele>125.599998</ele>
<time>2017-07-11T06:21:41.000Z</time>
</trkpt>
<trkpt lat="31.9285610" lon="34.9499580">
<ele>125.400002</ele>
<time>2017-07-11T06:21:42.000Z</time>
</trkpt>
<trkpt lat="31.9285000" lon="34.9499600">
<ele>125.200005</ele>
<time>2017-07-11T06:21:43.000Z</time>
</trkpt>
<trkpt lat="31.9284430" lon="34.9499800">
<ele>125.099998</ele>
<time>2017-07-11T06:21:44.000Z</time>
</trkpt>
<trkpt lat="31.9283930" lon="34.9500230">
<ele>124.900002</ele>
<time>2017-07-11T06:21:45.000Z</time>
</trkpt>
<trkpt lat="31.9283400" lon="34.9500480">
<ele>124.699997</ele>
<time>2017-07-11T06:21:46.000Z</time>
</trkpt>
<trkpt lat="31.9282770" lon="34.9500580">
<ele>124.399994</ele>
<time>2017-07-11T06:21:47.000Z</time>
</trkpt>
<trkpt lat="31.9282110" lon="34.9500580">
<ele>123.700005</ele>
<time>2017-07-11T06:21:48.000Z</time>
</trkpt>
<trkpt lat="31.9281470" lon="34.9500450">
<ele>122.899994</ele>
<time>2017-07-11T06:21:49.000Z</time>
</trkpt>
<trkpt lat="31.9280770" lon="34.9500220">
<ele>122.500000</ele>
<time>2017-07-11T06:21:50.000Z</time>
</trkpt>
<trkpt lat="31.9280060" lon="34.9499980">
<ele>122.200005</ele>
<time>2017-07-11T06:21:51.000Z</time>
</trkpt>
<trkpt lat="31.9279340" lon="34.9499710">
<ele>121.599998</ele>
<time>2017-07-11T06:21:52.000Z</time>
</trkpt>
<trkpt lat="31.9278620" lon="34.9499420">
<ele>120.699997</ele>
<time>2017-07-11T06:21:53.000Z</time>
</trkpt>
<trkpt lat="31.9277880" lon="34.9499100">
<ele>119.699997</ele>
<time>2017-07-11T06:21:54.000Z</time>
</trkpt>
<trkpt lat="31.9277190" lon="34.9498770">
<ele>118.800003</ele>
<time>2017-07-11T06:21:55.000Z</time>
</trkpt>
<trkpt lat="31.9276490" lon="34.9498430">
<ele>118.200005</ele>
<time>2017-07-11T06:21:56.000Z</time>
</trkpt>
<trkpt lat="31.9275830" lon="34.9497960">
<ele>117.800003</ele>
<time>2017-07-11T06:21:57.000Z</time>
</trkpt>
<trkpt lat="31.9275240" lon="34.9497360">
<ele>117.600006</ele>
<time>2017-07-11T06:21:58.000Z</time>
</trkpt>
<trkpt lat="31.9274720" lon="34.9496720">
<ele>117.500000</ele>
<time>2017-07-11T06:21:59.000Z</time>
</trkpt>
<trkpt lat="31.9274160" lon="34.9496120">
<ele>117.399994</ele>
<time>2017-07-11T06:22:00.000Z</time>
</trkpt>
<trkpt lat="31.9273560" lon="34.9495630">
<ele>117.399994</ele>
<time>2017-07-11T06:22:01.000Z</time>
</trkpt>
<trkpt lat="31.9272940" lon="34.9495180">
<ele>117.300003</ele>
<time>2017-07-11T06:22:02.000Z</time>
</trkpt>
<trkpt lat="31.9272310" lon="34.9494740">
<ele>117.300003</ele>
<time>2017-07-11T06:22:03.000Z</time>
</trkpt>
<trkpt lat="31.9271700" lon="34.9494300">
<ele>117.300003</ele>
<time>2017-07-11T06:22:04.000Z</time>
</trkpt>
<trkpt lat="31.9271100" lon="34.9493870">
<ele>117.099998</ele>
<time>2017-07-11T06:22:05.000Z</time>
</trkpt>
<trkpt lat="31.9270490" lon="34.9493480">
<ele>116.900002</ele>
<time>2017-07-11T06:22:06.000Z</time>
</trkpt>
<trkpt lat="31.9269880" lon="34.9493110">
<ele>116.599998</ele>
<time>2017-07-11T06:22:07.000Z</time>
</trkpt>
<trkpt lat="31.9269260" lon="34.9492780">
<ele>116.099998</ele>
<time>2017-07-11T06:22:08.000Z</time>
</trkpt>
<trkpt lat="31.9268620" lon="34.9492530">
<ele>115.500000</ele>
<time>2017-07-11T06:22:09.000Z</time>
</trkpt>
<trkpt lat="31.9267990" lon="34.9492300">
<ele>114.700005</ele>
<time>2017-07-11T06:22:10.000Z</time>
</trkpt>
<trkpt lat="31.9267370" lon="34.9492120">
<ele>114.000000</ele>
<time>2017-07-11T06:22:11.000Z</time>
</trkpt>
<trkpt lat="31.9266730" lon="34.9492000">
<ele>113.400002</ele>
<time>2017-07-11T06:22:12.000Z</time>
</trkpt>
<trkpt lat="31.9266090" lon="34.9491860">
<ele>112.900002</ele>
<time>2017-07-11T06:22:13.000Z</time>
</trkpt>
<trkpt lat="31.9265440" lon="34.9491780">
<ele>112.599998</ele>
<time>2017-07-11T06:22:14.000Z</time>
</trkpt>
<trkpt lat="31.9264770" lon="34.9491680">
<ele>112.400002</ele>
<time>2017-07-11T06:22:15.000Z</time>
</trkpt>
<trkpt lat="31.9264100" lon="34.9491590">
<ele>112.199997</ele>
<time>2017-07-11T06:22:16.000Z</time>
</trkpt>
<trkpt lat="31.9263420" lon="34.9491540">
<ele>112.000000</ele>
<time>2017-07-11T06:22:17.000Z</time>
</trkpt>
<trkpt lat="31.9262740" lon="34.9491530">
<ele>111.800003</ele>
<time>2017-07-11T06:22:18.000Z</time>
</trkpt>
<trkpt lat="31.9262050" lon="34.9491530">
<ele>111.500000</ele>
<time>2017-07-11T06:22:19.000Z</time>
</trkpt>
<trkpt lat="31.9261350" lon="34.9491580">
<ele>111.299995</ele>
<time>2017-07-11T06:22:20.000Z</time>
</trkpt>
<trkpt lat="31.9260660" lon="34.9491600">
<ele>111.099998</ele>
<time>2017-07-11T06:22:21.000Z</time>
</trkpt>
<trkpt lat="31.9259980" lon="34.9491490">
<ele>111.000000</ele>
<time>2017-07-11T06:22:22.000Z</time>
</trkpt>
<trkpt lat="31.9259310" lon="34.9491280">
<ele>110.900002</ele>
<time>2017-07-11T06:22:23.000Z</time>
</trkpt>
<trkpt lat="31.9258670" lon="34.9491020">
<ele>110.900002</ele>
<time>2017-07-11T06:22:24.000Z</time>
</trkpt>
<trkpt lat="31.9258060" lon="34.9490630">
<ele>110.800003</ele>
<time>2017-07-11T06:22:25.000Z</time>
</trkpt>
<trkpt lat="31.9257460" lon="34.9490290">
<ele>110.800003</ele>
<time>2017-07-11T06:22:26.000Z</time>
</trkpt>
<trkpt lat="31.9256840" lon="34.9490060">
<ele>110.699997</ele>
<time>2017-07-11T06:22:27.000Z</time>
</trkpt>
<trkpt lat="31.9256230" lon="34.9489860">
<ele>110.699997</ele>
<time>2017-07-11T06:22:28.000Z</time>
</trkpt>
<trkpt lat="31.9255560" lon="34.9489740">
<ele>110.600006</ele>
<time>2017-07-11T06:22:29.000Z</time>
</trkpt>
<trkpt lat="31.9254840" lon="34.9489700">
<ele>110.500000</ele>
<time>2017-07-11T06:22:30.000Z</time>
</trkpt>
<trkpt lat="31.9254120" lon="34.9489680">
<ele>110.300003</ele>
<time>2017-07-11T06:22:31.000Z</time>
</trkpt>
<trkpt lat="31.9253410" lon="34.9489640">
<ele>110.099998</ele>
<time>2017-07-11T06:22:32.000Z</time>
</trkpt>
<trkpt lat="31.9252700" lon="34.9489560">
<ele>109.700005</ele>
<time>2017-07-11T06:22:33.000Z</time>
</trkpt>
<trkpt lat="31.9251960" lon="34.9489490">
<ele>109.299995</ele>
<time>2017-07-11T06:22:34.000Z</time>
</trkpt>
<trkpt lat="31.9251210" lon="34.9489480">
<ele>108.900002</ele>
<time>2017-07-11T06:22:35.000Z</time>
</trkpt>
<trkpt lat="31.9250440" lon="34.9489500">
<ele>108.300003</ele>
<time>2017-07-11T06:22:36.000Z</time>
</trkpt>
<trkpt lat="31.9249690" lon="34.9489560">
<ele>107.900002</ele>
<time>2017-07-11T06:22:37.000Z</time>
</trkpt>
<trkpt lat="31.9248930" lon="34.9489590">
<ele>107.400002</ele>
<time>2017-07-11T06:22:38.000Z</time>
</trkpt>
<trkpt lat="31.9248180" lon="34.9489720">
<ele>106.899994</ele>
<time>2017-07-11T06:22:39.000Z</time>
</trkpt>
<trkpt lat="31.9247450" lon="34.9489990">
<ele>106.500000</ele>
<time>2017-07-11T06:22:40.000Z</time>
</trkpt>
<trkpt lat="31.9246750" lon="34.9490360">
<ele>106.099998</ele>
<time>2017-07-11T06:22:41.000Z</time>
</trkpt>
<trkpt lat="31.9246100" lon="34.9490820">
<ele>106.300003</ele>
<time>2017-07-11T06:22:42.000Z</time>
</trkpt>
<trkpt lat="31.9245450" lon="34.9491290">
<ele>106.800003</ele>
<time>2017-07-11T06:22:43.000Z</time>
</trkpt>
<trkpt lat="31.9244770" lon="34.9491660">
<ele>107.199997</ele>
<time>2017-07-11T06:22:44.000Z</time>
</trkpt>
<trkpt lat="31.9244140" lon="34.9492120">
<ele>107.599998</ele>
<time>2017-07-11T06:22:45.000Z</time>
</trkpt>
<trkpt lat="31.9243590" lon="34.9492690">
<ele>108.000000</ele>
<time>2017-07-11T06:22:46.000Z</time>
</trkpt>
<trkpt lat="31.9243060" lon="34.9493270">
<ele>108.600006</ele>
<time>2017-07-11T06:22:47.000Z</time>
</trkpt>
<trkpt lat="31.9242510" lon="34.9493770">
<ele>109.200005</ele>
<time>2017-07-11T06:22:48.000Z</time>
</trkpt>
<trkpt lat="31.9241910" lon="34.9494200">
<ele>109.900002</ele>
<time>2017-07-11T06:22:49.000Z</time>
</trkpt>
<trkpt lat="31.9241330" lon="34.9494600">
<ele>110.600006</ele>
<time>2017-07-11T06:22:50.000Z</time>
</trkpt>
<trkpt lat="31.9240740" lon="34.9494950">
<ele>111.099998</ele>
<time>2017-07-11T06:22:51.000Z</time>
</trkpt>
<trkpt lat="31.9240170" lon="34.9495240">
<ele>111.500000</ele>
<time>2017-07-11T06:22:52.000Z</time>
</trkpt>
<trkpt lat="31.9239590" lon="34.9495480">
<ele>112.000000</ele>
<time>2017-07-11T06:22:53.000Z</time>
</trkpt>
<trkpt lat="31.9239020" lon="34.9495700">
<ele>112.700005</ele>
<time>2017-07-11T06:22:54.000Z</time>
</trkpt>
<trkpt lat="31.9238440" lon="34.9495930">
<ele>113.200005</ele>
<time>2017-07-11T06:22:55.000Z</time>
</trkpt>
<trkpt lat="31.9237870" lon="34.9496140">
<ele>113.699997</ele>
<time>2017-07-11T06:22:56.000Z</time>
</trkpt>
<trkpt lat="31.9237330" lon="34.9496330">
<ele>114.100006</ele>
<time>2017-07-11T06:22:57.000Z</time>
</trkpt>
<trkpt lat="31.9236820" lon="34.9496530">
<ele>114.500000</ele>
<time>2017-07-11T06:22:58.000Z</time>
</trkpt>
<trkpt lat="31.9236330" lon="34.9496720">
<ele>114.799995</ele>
<time>2017-07-11T06:22:59.000Z</time>
</trkpt>
<trkpt lat="31.9235880" lon="34.9496930">
<ele>115.099998</ele>
<time>2017-07-11T06:23:00.000Z</time>
</trkpt>
<trkpt lat="31.9235420" lon="34.9497160">
<ele>115.500000</ele>
<time>2017-07-11T06:23:01.000Z</time>
</trkpt>
<trkpt lat="31.9234980" lon="34.9497430">
<ele>115.800003</ele>
<time>2017-07-11T06:23:02.000Z</time>
</trkpt>
<trkpt lat="31.9234560" lon="34.9497700">
<ele>116.099998</ele>
<time>2017-07-11T06:23:03.000Z</time>
</trkpt>
<trkpt lat="31.9234180" lon="34.9497950">
<ele>116.499992</ele>
<time>2017-07-11T06:23:04.000Z</time>
</trkpt>
<trkpt lat="31.9233820" lon="34.9498200">
<ele>116.900002</ele>
<time>2017-07-11T06:23:05.000Z</time>
</trkpt>
<trkpt lat="31.9233460" lon="34.9498440">
<ele>117.300003</ele>
<time>2017-07-11T06:23:06.000Z</time>
</trkpt>
<trkpt lat="31.9233150" lon="34.9498680">
<ele>117.600006</ele>
<time>2017-07-11T06:23:07.000Z</time>
</trkpt>
<trkpt lat="31.9232920" lon="34.9498960">
<ele>118.000000</ele>
<time>2017-07-11T06:23:08.000Z</time>
</trkpt>
<trkpt lat="31.9232800" lon="34.9499600">
<ele>118.000000</ele>
<time>2017-07-11T06:23:10.000Z</time>
</trkpt>
<trkpt lat="31.9233190" lon="34.9500070">
<ele>118.000000</ele>
<time>2017-07-11T06:23:12.000Z</time>
</trkpt>
<trkpt lat="31.9233460" lon="34.9500190">
<ele>118.000000</ele>
<time>2017-07-11T06:23:13.000Z</time>
</trkpt>
<trkpt lat="31.9233940" lon="34.9500340">
<ele>118.000000</ele>
<time>2017-07-11T06:23:15.000Z</time>
</trkpt>
<trkpt lat="31.9234360" lon="34.9500450">
<ele>118.000000</ele>
<time>2017-07-11T06:23:17.000Z</time>
</trkpt>
<trkpt lat="31.9234730" lon="34.9500560">
<ele>118.000000</ele>
<time>2017-07-11T06:23:19.000Z</time>
</trkpt>
<trkpt lat="31.9235080" lon="34.9500650">
<ele>117.900002</ele>
<time>2017-07-11T06:23:21.000Z</time>
</trkpt>
<trkpt lat="31.9235490" lon="34.9500770">
<ele>117.900002</ele>
<time>2017-07-11T06:23:23.000Z</time>
</trkpt>
<trkpt lat="31.9235950" lon="34.9500950">
<ele>117.900002</ele>
<time>2017-07-11T06:23:25.000Z</time>
</trkpt>
<trkpt lat="31.9236210" lon="34.9501080">
<ele>117.900002</ele>
<time>2017-07-11T06:23:26.000Z</time>
</trkpt>
<trkpt lat="31.9236680" lon="34.9501300">
<ele>117.900002</ele>
<time>2017-07-11T06:23:28.000Z</time>
</trkpt>
<trkpt lat="31.9237090" lon="34.9501470">
<ele>117.900002</ele>
<time>2017-07-11T06:23:30.000Z</time>
</trkpt>
<trkpt lat="31.9237570" lon="34.9501730">
<ele>117.800003</ele>
<time>2017-07-11T06:23:32.000Z</time>
</trkpt>
<trkpt lat="31.9238040" lon="34.9501930">
<ele>117.800003</ele>
<time>2017-07-11T06:23:34.000Z</time>
</trkpt>
<trkpt lat="31.9238490" lon="34.9502190">
<ele>117.800003</ele>
<time>2017-07-11T06:23:36.000Z</time>
</trkpt>
<trkpt lat="31.9238970" lon="34.9502520">
<ele>117.800003</ele>
<time>2017-07-11T06:23:38.000Z</time>
</trkpt>
<trkpt lat="31.9239210" lon="34.9502690">
<ele>117.800003</ele>
<time>2017-07-11T06:23:39.000Z</time>
</trkpt>
<trkpt lat="31.9239450" lon="34.9502880">
<ele>117.800003</ele>
<time>2017-07-11T06:23:40.000Z</time>
</trkpt>
<trkpt lat="31.9239710" lon="34.9503140">
<ele>117.800003</ele>
<time>2017-07-11T06:23:41.000Z</time>
</trkpt>
<trkpt lat="31.9239940" lon="34.9503400">
<ele>117.800003</ele>
<time>2017-07-11T06:23:42.000Z</time>
</trkpt>
<trkpt lat="31.9240170" lon="34.9503690">
<ele>117.800003</ele>
<time>2017-07-11T06:23:43.000Z</time>
</trkpt>
<trkpt lat="31.9240400" lon="34.9504020">
<ele>117.900002</ele>
<time>2017-07-11T06:23:44.000Z</time>
</trkpt>
<trkpt lat="31.9240610" lon="34.9504340">
<ele>117.900002</ele>
<time>2017-07-11T06:23:45.000Z</time>
</trkpt>
<trkpt lat="31.9240820" lon="34.9504620">
<ele>118.000000</ele>
<time>2017-07-11T06:23:46.000Z</time>
</trkpt>
<trkpt lat="31.9241060" lon="34.9504920">
<ele>118.000000</ele>
<time>2017-07-11T06:23:47.000Z</time>
</trkpt>
<trkpt lat="31.9241300" lon="34.9505230">
<ele>118.099998</ele>
<time>2017-07-11T06:23:48.000Z</time>
</trkpt>
<trkpt lat="31.9241520" lon="34.9505550">
<ele>118.200005</ele>
<time>2017-07-11T06:23:49.000Z</time>
</trkpt>
<trkpt lat="31.9241740" lon="34.9505960">
<ele>118.299995</ele>
<time>2017-07-11T06:23:50.000Z</time>
</trkpt>
<trkpt lat="31.9241950" lon="34.9506440">
<ele>118.400002</ele>
<time>2017-07-11T06:23:51.000Z</time>
</trkpt>
<trkpt lat="31.9242110" lon="34.9506950">
<ele>118.500008</ele>
<time>2017-07-11T06:23:52.000Z</time>
</trkpt>
<trkpt lat="31.9242190" lon="34.9507450">
<ele>118.500008</ele>
<time>2017-07-11T06:23:53.000Z</time>
</trkpt>
<trkpt lat="31.9242260" lon="34.9507930">
<ele>118.599998</ele>
<time>2017-07-11T06:23:54.000Z</time>
</trkpt>
<trkpt lat="31.9242360" lon="34.9508390">
<ele>118.700005</ele>
<time>2017-07-11T06:23:55.000Z</time>
</trkpt>
<trkpt lat="31.9242420" lon="34.9508760">
<ele>118.700005</ele>
<time>2017-07-11T06:23:56.000Z</time>
</trkpt>
<trkpt lat="31.9242470" lon="34.9509130">
<ele>118.800003</ele>
<time>2017-07-11T06:23:57.000Z</time>
</trkpt>
<trkpt lat="31.9242520" lon="34.9509550">
<ele>118.900002</ele>
<time>2017-07-11T06:23:58.000Z</time>
</trkpt>
<trkpt lat="31.9242580" lon="34.9509980">
<ele>118.900002</ele>
<time>2017-07-11T06:23:59.000Z</time>
</trkpt>
<trkpt lat="31.9242620" lon="34.9510380">
<ele>119.000000</ele>
<time>2017-07-11T06:24:00.000Z</time>
</trkpt>
<trkpt lat="31.9242650" lon="34.9510790">
<ele>119.099998</ele>
<time>2017-07-11T06:24:01.000Z</time>
</trkpt>
<trkpt lat="31.9242700" lon="34.9511170">
<ele>119.099998</ele>
<time>2017-07-11T06:24:02.000Z</time>
</trkpt>
<trkpt lat="31.9242740" lon="34.9511510">
<ele>119.199997</ele>
<time>2017-07-11T06:24:03.000Z</time>
</trkpt>
<trkpt lat="31.9242740" lon="34.9511860">
<ele>119.199997</ele>
<time>2017-07-11T06:24:04.000Z</time>
</trkpt>
<trkpt lat="31.9242750" lon="34.9512190">
<ele>119.300003</ele>
<time>2017-07-11T06:24:05.000Z</time>
</trkpt>
<trkpt lat="31.9242850" lon="34.9512880">
<ele>119.300003</ele>
<time>2017-07-11T06:24:07.000Z</time>
</trkpt>
<trkpt lat="31.9242860" lon="34.9513290">
<ele>119.399994</ele>
<time>2017-07-11T06:24:08.000Z</time>
</trkpt>
<trkpt lat="31.9242890" lon="34.9513680">
<ele>119.399994</ele>
<time>2017-07-11T06:24:09.000Z</time>
</trkpt>
<trkpt lat="31.9242900" lon="34.9514080">
<ele>119.399994</ele>
<time>2017-07-11T06:24:10.000Z</time>
</trkpt>
<trkpt lat="31.9242920" lon="34.9514440">
<ele>119.399994</ele>
<time>2017-07-11T06:24:11.000Z</time>
</trkpt>
<trkpt lat="31.9242900" lon="34.9514820">
<ele>119.399994</ele>
<time>2017-07-11T06:24:12.000Z</time>
</trkpt>
<trkpt lat="31.9242910" lon="34.9515200">
<ele>119.399994</ele>
<time>2017-07-11T06:24:13.000Z</time>
</trkpt>
<trkpt lat="31.9242910" lon="34.9515590">
<ele>119.500000</ele>
<time>2017-07-11T06:24:14.000Z</time>
</trkpt>
<trkpt lat="31.9242920" lon="34.9515970">
<ele>119.500000</ele>
<time>2017-07-11T06:24:15.000Z</time>
</trkpt>
<trkpt lat="31.9242930" lon="34.9516340">
<ele>119.500000</ele>
<time>2017-07-11T06:24:16.000Z</time>
</trkpt>
<trkpt lat="31.9242980" lon="34.9516670">
<ele>119.500000</ele>
<time>2017-07-11T06:24:17.000Z</time>
</trkpt>
<trkpt lat="31.9243070" lon="34.9517050">
<ele>119.500000</ele>
<time>2017-07-11T06:24:18.000Z</time>
</trkpt>
<trkpt lat="31.9243110" lon="34.9517450">
<ele>119.599998</ele>
<time>2017-07-11T06:24:19.000Z</time>
</trkpt>
<trkpt lat="31.9243210" lon="34.9517750">
<ele>119.599998</ele>
<time>2017-07-11T06:24:20.000Z</time>
</trkpt>
<trkpt lat="31.9243390" lon="34.9518070">
<ele>119.599998</ele>
<time>2017-07-11T06:24:21.000Z</time>
</trkpt>
<trkpt lat="31.9243560" lon="34.9518430">
<ele>119.599998</ele>
<time>2017-07-11T06:24:22.000Z</time>
</trkpt>
<trkpt lat="31.9243690" lon="34.9518750">
<ele>119.699997</ele>
<time>2017-07-11T06:24:23.000Z</time>
</trkpt>
<trkpt lat="31.9243830" lon="34.9519090">
<ele>119.699997</ele>
<time>2017-07-11T06:24:24.000Z</time>
</trkpt>
<trkpt lat="31.9244010" lon="34.9519440">
<ele>119.799995</ele>
<time>2017-07-11T06:24:25.000Z</time>
</trkpt>
<trkpt lat="31.9244140" lon="34.9519800">
<ele>119.900002</ele>
<time>2017-07-11T06:24:26.000Z</time>
</trkpt>
<trkpt lat="31.9244270" lon="34.9520160">
<ele>120.099998</ele>
<time>2017-07-11T06:24:27.000Z</time>
</trkpt>
<trkpt lat="31.9244410" lon="34.9520550">
<ele>120.200005</ele>
<time>2017-07-11T06:24:28.000Z</time>
</trkpt>
<trkpt lat="31.9244580" lon="34.9520920">
<ele>120.299995</ele>
<time>2017-07-11T06:24:29.000Z</time>
</trkpt>
<trkpt lat="31.9244750" lon="34.9521350">
<ele>120.500000</ele>
<time>2017-07-11T06:24:30.000Z</time>
</trkpt>
<trkpt lat="31.9244930" lon="34.9521800">
<ele>120.699997</ele>
<time>2017-07-11T06:24:31.000Z</time>
</trkpt>
<trkpt lat="31.9245110" lon="34.9522310">
<ele>120.899994</ele>
<time>2017-07-11T06:24:32.000Z</time>
</trkpt>
<trkpt lat="31.9245310" lon="34.9522850">
<ele>121.100006</ele>
<time>2017-07-11T06:24:33.000Z</time>
</trkpt>
<trkpt lat="31.9245390" lon="34.9523450">
<ele>121.199997</ele>
<time>2017-07-11T06:24:34.000Z</time>
</trkpt>
<trkpt lat="31.9245420" lon="34.9524020">
<ele>121.400002</ele>
<time>2017-07-11T06:24:35.000Z</time>
</trkpt>
<trkpt lat="31.9245370" lon="34.9524560">
<ele>121.500000</ele>
<time>2017-07-11T06:24:36.000Z</time>
</trkpt>
<trkpt lat="31.9245300" lon="34.9525100">
<ele>121.700005</ele>
<time>2017-07-11T06:24:37.000Z</time>
</trkpt>
<trkpt lat="31.9245230" lon="34.9525510">
<ele>121.799995</ele>
<time>2017-07-11T06:24:38.000Z</time>
</trkpt>
<trkpt lat="31.9245160" lon="34.9525830">
<ele>121.799995</ele>
<time>2017-07-11T06:24:39.000Z</time>
</trkpt>
<trkpt lat="31.9245100" lon="34.9526170">
<ele>121.900002</ele>
<time>2017-07-11T06:24:40.000Z</time>
</trkpt>
<trkpt lat="31.9244990" lon="34.9526660">
<ele>122.000008</ele>
<time>2017-07-11T06:24:42.000Z</time>
</trkpt>
<trkpt lat="31.9244880" lon="34.9527050">
<ele>122.099998</ele>
<time>2017-07-11T06:24:44.000Z</time>
</trkpt>
<trkpt lat="31.9244770" lon="34.9527490">
<ele>122.200005</ele>
<time>2017-07-11T06:24:46.000Z</time>
</trkpt>
<trkpt lat="31.9244660" lon="34.9527900">
<ele>122.299995</ele>
<time>2017-07-11T06:24:48.000Z</time>
</trkpt>
<trkpt lat="31.9244540" lon="34.9528300">
<ele>122.400002</ele>
<time>2017-07-11T06:24:50.000Z</time>
</trkpt>
<trkpt lat="31.9244490" lon="34.9528760">
<ele>122.500000</ele>
<time>2017-07-11T06:24:52.000Z</time>
</trkpt>
<trkpt lat="31.9244350" lon="34.9529190">
<ele>122.599998</ele>
<time>2017-07-11T06:24:54.000Z</time>
</trkpt>
<trkpt lat="31.9244290" lon="34.9529600">
<ele>122.699997</ele>
<time>2017-07-11T06:24:56.000Z</time>
</trkpt>
<trkpt lat="31.9244220" lon="34.9530000">
<ele>122.699997</ele>
<time>2017-07-11T06:24:58.000Z</time>
</trkpt>
<trkpt lat="31.9244130" lon="34.9530390">
<ele>122.800003</ele>
<time>2017-07-11T06:25:00.000Z</time>
</trkpt>
<trkpt lat="31.9244020" lon="34.9530850">
<ele>122.800003</ele>
<time>2017-07-11T06:25:02.000Z</time>
</trkpt>
<trkpt lat="31.9243880" lon="34.9531460">
<ele>122.800003</ele>
<time>2017-07-11T06:25:04.000Z</time>
</trkpt>
<trkpt lat="31.9243690" lon="34.9532000">
<ele>122.899994</ele>
<time>2017-07-11T06:25:06.000Z</time>
</trkpt>
<trkpt lat="31.9243520" lon="34.9532470">
<ele>122.899994</ele>
<time>2017-07-11T06:25:08.000Z</time>
</trkpt>
<trkpt lat="31.9243440" lon="34.9532830">
<ele>123.000000</ele>
<time>2017-07-11T06:25:10.000Z</time>
</trkpt>
<trkpt lat="31.9243320" lon="34.9533240">
<ele>123.000000</ele>
<time>2017-07-11T06:25:12.000Z</time>
</trkpt>
<trkpt lat="31.9243200" lon="34.9533630">
<ele>123.100006</ele>
<time>2017-07-11T06:25:14.000Z</time>
</trkpt>
<trkpt lat="31.9243040" lon="34.9534060">
<ele>123.300003</ele>
<time>2017-07-11T06:25:16.000Z</time>
</trkpt>
<trkpt lat="31.9242890" lon="34.9534440">
<ele>123.500000</ele>
<time>2017-07-11T06:25:18.000Z</time>
</trkpt>
<trkpt lat="31.9242780" lon="34.9534870">
<ele>123.700005</ele>
<time>2017-07-11T06:25:20.000Z</time>
</trkpt>
<trkpt lat="31.9242630" lon="34.9535340">
<ele>123.799995</ele>
<time>2017-07-11T06:25:22.000Z</time>
</trkpt>
<trkpt lat="31.9242490" lon="34.9535790">
<ele>124.000000</ele>
<time>2017-07-11T06:25:24.000Z</time>
</trkpt>
<trkpt lat="31.9242350" lon="34.9536260">
<ele>124.099998</ele>
<time>2017-07-11T06:25:26.000Z</time>
</trkpt>
<trkpt lat="31.9242240" lon="34.9536730">
<ele>124.199997</ele>
<time>2017-07-11T06:25:28.000Z</time>
</trkpt>
<trkpt lat="31.9242160" lon="34.9537220">
<ele>124.399994</ele>
<time>2017-07-11T06:25:30.000Z</time>
</trkpt>
<trkpt lat="31.9242160" lon="34.9537560">
<ele>124.500000</ele>
<time>2017-07-11T06:25:31.000Z</time>
</trkpt>
<trkpt lat="31.9242230" lon="34.9538190">
<ele>124.699997</ele>
<time>2017-07-11T06:25:33.000Z</time>
</trkpt>
<trkpt lat="31.9242270" lon="34.9538600">
<ele>124.900002</ele>
<time>2017-07-11T06:25:34.000Z</time>
</trkpt>
<trkpt lat="31.9242310" lon="34.9539030">
<ele>124.800003</ele>
<time>2017-07-11T06:25:35.000Z</time>
</trkpt>
<trkpt lat="31.9242340" lon="34.9539510">
<ele>124.500000</ele>
<time>2017-07-11T06:25:36.000Z</time>
</trkpt>
<trkpt lat="31.9242420" lon="34.9539910">
<ele>124.199997</ele>
<time>2017-07-11T06:25:37.000Z</time>
</trkpt>
<trkpt lat="31.9242480" lon="34.9540310">
<ele>124.000000</ele>
<time>2017-07-11T06:25:38.000Z</time>
</trkpt>
<trkpt lat="31.9242590" lon="34.9540720">
<ele>123.700005</ele>
<time>2017-07-11T06:25:39.000Z</time>
</trkpt>
<trkpt lat="31.9242690" lon="34.9541120">
<ele>123.500000</ele>
<time>2017-07-11T06:25:40.000Z</time>
</trkpt>
<trkpt lat="31.9242790" lon="34.9541540">
<ele>123.199997</ele>
<time>2017-07-11T06:25:41.000Z</time>
</trkpt>
<trkpt lat="31.9242920" lon="34.9541970">
<ele>122.899994</ele>
<time>2017-07-11T06:25:42.000Z</time>
</trkpt>
<trkpt lat="31.9243060" lon="34.9542390">
<ele>122.699997</ele>
<time>2017-07-11T06:25:43.000Z</time>
</trkpt>
<trkpt lat="31.9243220" lon="34.9542720">
<ele>122.599998</ele>
<time>2017-07-11T06:25:44.000Z</time>
</trkpt>
<trkpt lat="31.9243420" lon="34.9543230">
<ele>122.500000</ele>
<time>2017-07-11T06:25:46.000Z</time>
</trkpt>
<trkpt lat="31.9243600" lon="34.9543710">
<ele>122.500000</ele>
<time>2017-07-11T06:25:48.000Z</time>
</trkpt>
<trkpt lat="31.9243790" lon="34.9544290">
<ele>122.400002</ele>
<time>2017-07-11T06:25:50.000Z</time>
</trkpt>
<trkpt lat="31.9243880" lon="34.9544640">
<ele>122.299995</ele>
<time>2017-07-11T06:25:51.000Z</time>
</trkpt>
<trkpt lat="31.9244000" lon="34.9545010">
<ele>122.299995</ele>
<time>2017-07-11T06:25:52.000Z</time>
</trkpt>
<trkpt lat="31.9244150" lon="34.9545410">
<ele>122.299995</ele>
<time>2017-07-11T06:25:53.000Z</time>
</trkpt>
<trkpt lat="31.9244310" lon="34.9545830">
<ele>122.200005</ele>
<time>2017-07-11T06:25:54.000Z</time>
</trkpt>
<trkpt lat="31.9244400" lon="34.9546300">
<ele>122.200005</ele>
<time>2017-07-11T06:25:55.000Z</time>
</trkpt>
<trkpt lat="31.9244410" lon="34.9546740">
<ele>122.299995</ele>
<time>2017-07-11T06:25:56.000Z</time>
</trkpt>
<trkpt lat="31.9244350" lon="34.9547200">
<ele>122.299995</ele>
<time>2017-07-11T06:25:57.000Z</time>
</trkpt>
<trkpt lat="31.9244280" lon="34.9547640">
<ele>122.400002</ele>
<time>2017-07-11T06:25:58.000Z</time>
</trkpt>
<trkpt lat="31.9244180" lon="34.9548040">
<ele>122.500000</ele>
<time>2017-07-11T06:25:59.000Z</time>
</trkpt>
<trkpt lat="31.9244120" lon="34.9548430">
<ele>122.599998</ele>
<time>2017-07-11T06:26:00.000Z</time>
</trkpt>
<trkpt lat="31.9244020" lon="34.9548760">
<ele>122.699997</ele>
<time>2017-07-11T06:26:01.000Z</time>
</trkpt>
<trkpt lat="31.9243940" lon="34.9549080">
<ele>122.800003</ele>
<time>2017-07-11T06:26:02.000Z</time>
</trkpt>
<trkpt lat="31.9243840" lon="34.9549650">
<ele>123.000000</ele>
<time>2017-07-11T06:26:04.000Z</time>
</trkpt>
<trkpt lat="31.9243720" lon="34.9550220">
<ele>123.300003</ele>
<time>2017-07-11T06:26:06.000Z</time>
</trkpt>
<trkpt lat="31.9243640" lon="34.9550650">
<ele>123.599998</ele>
<time>2017-07-11T06:26:07.000Z</time>
</trkpt>
<trkpt lat="31.9243570" lon="34.9551310">
<ele>124.099998</ele>
<time>2017-07-11T06:26:09.000Z</time>
</trkpt>
<trkpt lat="31.9243520" lon="34.9551670">
<ele>124.399994</ele>
<time>2017-07-11T06:26:10.000Z</time>
</trkpt>
<trkpt lat="31.9243460" lon="34.9552030">
<ele>124.699997</ele>
<time>2017-07-11T06:26:11.000Z</time>
</trkpt>
<trkpt lat="31.9243410" lon="34.9552400">
<ele>124.900002</ele>
<time>2017-07-11T06:26:12.000Z</time>
</trkpt>
<trkpt lat="31.9243390" lon="34.9552750">
<ele>125.099998</ele>
<time>2017-07-11T06:26:13.000Z</time>
</trkpt>
<trkpt lat="31.9243390" lon="34.9553090">
<ele>125.200005</ele>
<time>2017-07-11T06:26:14.000Z</time>
</trkpt>
<trkpt lat="31.9243410" lon="34.9553450">
<ele>125.400002</ele>
<time>2017-07-11T06:26:15.000Z</time>
</trkpt>
<trkpt lat="31.9243430" lon="34.9553840">
<ele>125.499992</ele>
<time>2017-07-11T06:26:16.000Z</time>
</trkpt>
<trkpt lat="31.9243470" lon="34.9554230">
<ele>125.700005</ele>
<time>2017-07-11T06:26:17.000Z</time>
</trkpt>
<trkpt lat="31.9243490" lon="34.9554590">
<ele>125.799995</ele>
<time>2017-07-11T06:26:18.000Z</time>
</trkpt>
<trkpt lat="31.9243490" lon="34.9554970">
<ele>125.900002</ele>
<time>2017-07-11T06:26:19.000Z</time>
</trkpt>
<trkpt lat="31.9243500" lon="34.9555430">
<ele>126.000000</ele>
<time>2017-07-11T06:26:20.000Z</time>
</trkpt>
<trkpt lat="31.9243510" lon="34.9555830">
<ele>126.099998</ele>
<time>2017-07-11T06:26:21.000Z</time>
</trkpt>
<trkpt lat="31.9243510" lon="34.9556240">
<ele>126.199997</ele>
<time>2017-07-11T06:26:22.000Z</time>
</trkpt>
<trkpt lat="31.9243490" lon="34.9556580">
<ele>126.399994</ele>
<time>2017-07-11T06:26:23.000Z</time>
</trkpt>
<trkpt lat="31.9243450" lon="34.9556930">
<ele>126.500000</ele>
<time>2017-07-11T06:26:24.000Z</time>
</trkpt>
<trkpt lat="31.9243410" lon="34.9557540">
<ele>126.900002</ele>
<time>2017-07-11T06:26:26.000Z</time>
</trkpt>
<trkpt lat="31.9243370" lon="34.9557860">
<ele>127.099998</ele>
<time>2017-07-11T06:26:27.000Z</time>
</trkpt>
<trkpt lat="31.9243290" lon="34.9558470">
<ele>127.599998</ele>
<time>2017-07-11T06:26:29.000Z</time>
</trkpt>
<trkpt lat="31.9243210" lon="34.9558790">
<ele>127.900002</ele>
<time>2017-07-11T06:26:30.000Z</time>
</trkpt>
<trkpt lat="31.9243140" lon="34.9559150">
<ele>128.199997</ele>
<time>2017-07-11T06:26:31.000Z</time>
</trkpt>
<trkpt lat="31.9243090" lon="34.9559480">
<ele>128.500000</ele>
<time>2017-07-11T06:26:32.000Z</time>
</trkpt>
<trkpt lat="31.9242990" lon="34.9560070">
<ele>128.900009</ele>
<time>2017-07-11T06:26:34.000Z</time>
</trkpt>
<trkpt lat="31.9242890" lon="34.9560420">
<ele>129.000000</ele>
<time>2017-07-11T06:26:35.000Z</time>
</trkpt>
<trkpt lat="31.9242790" lon="34.9560740">
<ele>129.100006</ele>
<time>2017-07-11T06:26:36.000Z</time>
</trkpt>
<trkpt lat="31.9242680" lon="34.9561120">
<ele>129.199997</ele>
<time>2017-07-11T06:26:37.000Z</time>
</trkpt>
<trkpt lat="31.9242550" lon="34.9561450">
<ele>129.399994</ele>
<time>2017-07-11T06:26:38.000Z</time>
</trkpt>
<trkpt lat="31.9242420" lon="34.9561750">
<ele>129.500000</ele>
<time>2017-07-11T06:26:39.000Z</time>
</trkpt>
<trkpt lat="31.9242300" lon="34.9562050">
<ele>129.599991</ele>
<time>2017-07-11T06:26:40.000Z</time>
</trkpt>
<trkpt lat="31.9242140" lon="34.9562360">
<ele>129.800003</ele>
<time>2017-07-11T06:26:41.000Z</time>
</trkpt>
<trkpt lat="31.9241990" lon="34.9562640">
<ele>129.899994</ele>
<time>2017-07-11T06:26:42.000Z</time>
</trkpt>
<trkpt lat="31.9241760" lon="34.9563120">
<ele>130.199997</ele>
<time>2017-07-11T06:26:44.000Z</time>
</trkpt>
<trkpt lat="31.9241490" lon="34.9563560">
<ele>130.400009</ele>
<time>2017-07-11T06:26:46.000Z</time>
</trkpt>
<trkpt lat="31.9241210" lon="34.9563930">
<ele>130.800003</ele>
<time>2017-07-11T06:26:48.000Z</time>
</trkpt>
<trkpt lat="31.9241030" lon="34.9564170">
<ele>131.099991</ele>
<time>2017-07-11T06:26:49.000Z</time>
</trkpt>
<trkpt lat="31.9240700" lon="34.9564600">
<ele>131.699997</ele>
<time>2017-07-11T06:26:51.000Z</time>
</trkpt>
<trkpt lat="31.9240460" lon="34.9564980">
<ele>132.199997</ele>
<time>2017-07-11T06:26:53.000Z</time>
</trkpt>
<trkpt lat="31.9240210" lon="34.9565410">
<ele>132.500000</ele>
<time>2017-07-11T06:26:55.000Z</time>
</trkpt>
<trkpt lat="31.9239950" lon="34.9565840">
<ele>132.699997</ele>
<time>2017-07-11T06:26:57.000Z</time>
</trkpt>
<trkpt lat="31.9239660" lon="34.9566340">
<ele>133.000000</ele>
<time>2017-07-11T06:26:59.000Z</time>
</trkpt>
<trkpt lat="31.9239340" lon="34.9566830">
<ele>133.300003</ele>
<time>2017-07-11T06:27:01.000Z</time>
</trkpt>
<trkpt lat="31.9239120" lon="34.9567100">
<ele>133.600006</ele>
<time>2017-07-11T06:27:02.000Z</time>
</trkpt>
<trkpt lat="31.9238910" lon="34.9567350">
<ele>134.000000</ele>
<time>2017-07-11T06:27:03.000Z</time>
</trkpt>
<trkpt lat="31.9238690" lon="34.9567580">
<ele>134.300003</ele>
<time>2017-07-11T06:27:04.000Z</time>
</trkpt>
<trkpt lat="31.9238430" lon="34.9567780">
<ele>134.699997</ele>
<time>2017-07-11T06:27:05.000Z</time>
</trkpt>
<trkpt lat="31.9238190" lon="34.9567980">
<ele>135.000000</ele>
<time>2017-07-11T06:27:06.000Z</time>
</trkpt>
<trkpt lat="31.9237930" lon="34.9568180">
<ele>135.199997</ele>
<time>2017-07-11T06:27:07.000Z</time>
</trkpt>
<trkpt lat="31.9237560" lon="34.9568470">
<ele>135.500000</ele>
<time>2017-07-11T06:27:09.000Z</time>
</trkpt>
<trkpt lat="31.9237320" lon="34.9568620">
<ele>135.600006</ele>
<time>2017-07-11T06:27:10.000Z</time>
</trkpt>
<trkpt lat="31.9236880" lon="34.9568870">
<ele>136.000000</ele>
<time>2017-07-11T06:27:12.000Z</time>
</trkpt>
<trkpt lat="31.9236600" lon="34.9568990">
<ele>136.100006</ele>
<time>2017-07-11T06:27:13.000Z</time>
</trkpt>
<trkpt lat="31.9236130" lon="34.9569150">
<ele>136.500000</ele>
<time>2017-07-11T06:27:15.000Z</time>
</trkpt>
<trkpt lat="31.9235740" lon="34.9569250">
<ele>137.000000</ele>
<time>2017-07-11T06:27:17.000Z</time>
</trkpt>
<trkpt lat="31.9235470" lon="34.9569330">
<ele>137.300003</ele>
<time>2017-07-11T06:27:18.000Z</time>
</trkpt>
<trkpt lat="31.9235170" lon="34.9569430">
<ele>137.699997</ele>
<time>2017-07-11T06:27:20.000Z</time>
</trkpt>
<trkpt lat="31.9234860" lon="34.9569610">
<ele>138.099991</ele>
<time>2017-07-11T06:27:22.000Z</time>
</trkpt>
<trkpt lat="31.9234470" lon="34.9569900">
<ele>138.399994</ele>
<time>2017-07-11T06:27:24.000Z</time>
</trkpt>
<trkpt lat="31.9234290" lon="34.9570490">
<ele>138.599991</ele>
<time>2017-07-11T06:27:26.000Z</time>
</trkpt>
<trkpt lat="31.9234290" lon="34.9570820">
<ele>138.800003</ele>
<time>2017-07-11T06:27:27.000Z</time>
</trkpt>
<trkpt lat="31.9234360" lon="34.9571190">
<ele>139.000000</ele>
<time>2017-07-11T06:27:28.000Z</time>
</trkpt>
<trkpt lat="31.9234480" lon="34.9571500">
<ele>138.899994</ele>
<time>2017-07-11T06:27:29.000Z</time>
</trkpt>
<trkpt lat="31.9234690" lon="34.9571720">
<ele>138.899994</ele>
<time>2017-07-11T06:27:30.000Z</time>
</trkpt>
<trkpt lat="31.9235220" lon="34.9571970">
<ele>138.800003</ele>
<time>2017-07-11T06:27:32.000Z</time>
</trkpt>
<trkpt lat="31.9235520" lon="34.9572040">
<ele>138.800003</ele>
<time>2017-07-11T06:27:33.000Z</time>
</trkpt>
<trkpt lat="31.9235870" lon="34.9572150">
<ele>138.699997</ele>
<time>2017-07-11T06:27:34.000Z</time>
</trkpt>
<trkpt lat="31.9236240" lon="34.9572250">
<ele>138.699997</ele>
<time>2017-07-11T06:27:35.000Z</time>
</trkpt>
<trkpt lat="31.9236660" lon="34.9572250">
<ele>138.599991</ele>
<time>2017-07-11T06:27:36.000Z</time>
</trkpt>
<trkpt lat="31.9237110" lon="34.9572260">
<ele>138.500000</ele>
<time>2017-07-11T06:27:37.000Z</time>
</trkpt>
<trkpt lat="31.9237600" lon="34.9572240">
<ele>138.500000</ele>
<time>2017-07-11T06:27:38.000Z</time>
</trkpt>
<trkpt lat="31.9238110" lon="34.9572220">
<ele>138.399994</ele>
<time>2017-07-11T06:27:39.000Z</time>
</trkpt>
<trkpt lat="31.9238630" lon="34.9572070">
<ele>138.300003</ele>
<time>2017-07-11T06:27:40.000Z</time>
</trkpt>
<trkpt lat="31.9239110" lon="34.9571850">
<ele>138.199997</ele>
<time>2017-07-11T06:27:41.000Z</time>
</trkpt>
<trkpt lat="31.9239610" lon="34.9571660">
<ele>138.000000</ele>
<time>2017-07-11T06:27:42.000Z</time>
</trkpt>
<trkpt lat="31.9240160" lon="34.9571560">
<ele>137.800003</ele>
<time>2017-07-11T06:27:43.000Z</time>
</trkpt>
<trkpt lat="31.9240650" lon="34.9571560">
<ele>137.699997</ele>
<time>2017-07-11T06:27:44.000Z</time>
</trkpt>
<trkpt lat="31.9241180" lon="34.9571700">
<ele>137.500000</ele>
<time>2017-07-11T06:27:45.000Z</time>
</trkpt>
<trkpt lat="31.9241720" lon="34.9572050">
<ele>137.300003</ele>
<time>2017-07-11T06:27:46.000Z</time>
</trkpt>
<trkpt lat="31.9242230" lon="34.9572650">
<ele>136.899994</ele>
<time>2017-07-11T06:27:47.000Z</time>
</trkpt>
<trkpt lat="31.9242620" lon="34.9573270">
<ele>136.399994</ele>
<time>2017-07-11T06:27:48.000Z</time>
</trkpt>
<trkpt lat="31.9242820" lon="34.9573970">
<ele>135.900009</ele>
<time>2017-07-11T06:27:49.000Z</time>
</trkpt>
<trkpt lat="31.9242920" lon="34.9574620">
<ele>135.600006</ele>
<time>2017-07-11T06:27:50.000Z</time>
</trkpt>
<trkpt lat="31.9242970" lon="34.9575270">
<ele>135.399994</ele>
<time>2017-07-11T06:27:51.000Z</time>
</trkpt>
<trkpt lat="31.9242970" lon="34.9575870">
<ele>135.300003</ele>
<time>2017-07-11T06:27:52.000Z</time>
</trkpt>
<trkpt lat="31.9242860" lon="34.9576370">
<ele>135.199997</ele>
<time>2017-07-11T06:27:53.000Z</time>
</trkpt>
<trkpt lat="31.9242710" lon="34.9576870">
<ele>135.099991</ele>
<time>2017-07-11T06:27:54.000Z</time>
</trkpt>
<trkpt lat="31.9242590" lon="34.9577320">
<ele>135.000000</ele>
<time>2017-07-11T06:27:55.000Z</time>
</trkpt>
<trkpt lat="31.9242480" lon="34.9577720">
<ele>135.000000</ele>
<time>2017-07-11T06:27:56.000Z</time>
</trkpt>
<trkpt lat="31.9242360" lon="34.9578110">
<ele>135.000000</ele>
<time>2017-07-11T06:27:57.000Z</time>
</trkpt>
<trkpt lat="31.9242260" lon="34.9578520">
<ele>134.899994</ele>
<time>2017-07-11T06:27:58.000Z</time>
</trkpt>
<trkpt lat="31.9242210" lon="34.9578890">
<ele>134.899994</ele>
<time>2017-07-11T06:27:59.000Z</time>
</trkpt>
<trkpt lat="31.9242140" lon="34.9579230">
<ele>134.899994</ele>
<time>2017-07-11T06:28:00.000Z</time>
</trkpt>
<trkpt lat="31.9242080" lon="34.9579600">
<ele>134.899994</ele>
<time>2017-07-11T06:28:01.000Z</time>
</trkpt>
<trkpt lat="31.9242070" lon="34.9579960">
<ele>134.899994</ele>
<time>2017-07-11T06:28:02.000Z</time>
</trkpt>
<trkpt lat="31.9242040" lon="34.9580370">
<ele>134.899994</ele>
<time>2017-07-11T06:28:03.000Z</time>
</trkpt>
<trkpt lat="31.9242040" lon="34.9580740">
<ele>134.899994</ele>
<time>2017-07-11T06:28:04.000Z</time>
</trkpt>
<trkpt lat="31.9242090" lon="34.9581160">
<ele>134.899994</ele>
<time>2017-07-11T06:28:05.000Z</time>
</trkpt>
<trkpt lat="31.9242230" lon="34.9581530">
<ele>134.899994</ele>
<time>2017-07-11T06:28:06.000Z</time>
</trkpt>
<trkpt lat="31.9242380" lon="34.9581890">
<ele>134.899994</ele>
<time>2017-07-11T06:28:07.000Z</time>
</trkpt>
<trkpt lat="31.9242570" lon="34.9582200">
<ele>135.000000</ele>
<time>2017-07-11T06:28:08.000Z</time>
</trkpt>
<trkpt lat="31.9242810" lon="34.9582470">
<ele>135.000000</ele>
<time>2017-07-11T06:28:09.000Z</time>
</trkpt>
<trkpt lat="31.9243120" lon="34.9582700">
<ele>135.099991</ele>
<time>2017-07-11T06:28:10.000Z</time>
</trkpt>
<trkpt lat="31.9243430" lon="34.9582900">
<ele>135.199997</ele>
<time>2017-07-11T06:28:11.000Z</time>
</trkpt>
<trkpt lat="31.9243760" lon="34.9583070">
<ele>135.300003</ele>
<time>2017-07-11T06:28:12.000Z</time>
</trkpt>
<trkpt lat="31.9244200" lon="34.9583230">
<ele>135.500000</ele>
<time>2017-07-11T06:28:13.000Z</time>
</trkpt>
<trkpt lat="31.9244640" lon="34.9583310">
<ele>135.600006</ele>
<time>2017-07-11T06:28:14.000Z</time>
</trkpt>
<trkpt lat="31.9245070" lon="34.9583320">
<ele>135.699997</ele>
<time>2017-07-11T06:28:15.000Z</time>
</trkpt>
<trkpt lat="31.9245460" lon="34.9583270">
<ele>135.699997</ele>
<time>2017-07-11T06:28:16.000Z</time>
</trkpt>
<trkpt lat="31.9245830" lon="34.9583110">
<ele>135.699997</ele>
<time>2017-07-11T06:28:17.000Z</time>
</trkpt>
<trkpt lat="31.9246150" lon="34.9582870">
<ele>135.800003</ele>
<time>2017-07-11T06:28:18.000Z</time>
</trkpt>
<trkpt lat="31.9246470" lon="34.9582570">
<ele>135.699997</ele>
<time>2017-07-11T06:28:19.000Z</time>
</trkpt>
<trkpt lat="31.9246760" lon="34.9582160">
<ele>135.699997</ele>
<time>2017-07-11T06:28:20.000Z</time>
</trkpt>
<trkpt lat="31.9246960" lon="34.9581680">
<ele>135.699997</ele>
<time>2017-07-11T06:28:21.000Z</time>
</trkpt>
<trkpt lat="31.9247170" lon="34.9581160">
<ele>135.699997</ele>
<time>2017-07-11T06:28:22.000Z</time>
</trkpt>
<trkpt lat="31.9247380" lon="34.9580590">
<ele>135.699997</ele>
<time>2017-07-11T06:28:23.000Z</time>
</trkpt>
<trkpt lat="31.9247530" lon="34.9579920">
<ele>135.600006</ele>
<time>2017-07-11T06:28:24.000Z</time>
</trkpt>
<trkpt lat="31.9247750" lon="34.9579200">
<ele>135.600006</ele>
<time>2017-07-11T06:28:25.000Z</time>
</trkpt>
<trkpt lat="31.9247990" lon="34.9578400">
<ele>135.500000</ele>
<time>2017-07-11T06:28:26.000Z</time>
</trkpt>
<trkpt lat="31.9248240" lon="34.9577640">
<ele>135.399994</ele>
<time>2017-07-11T06:28:27.000Z</time>
</trkpt>
<trkpt lat="31.9248550" lon="34.9576860">
<ele>135.300003</ele>
<time>2017-07-11T06:28:28.000Z</time>
</trkpt>
<trkpt lat="31.9248970" lon="34.9576120">
<ele>135.199997</ele>
<time>2017-07-11T06:28:29.000Z</time>
</trkpt>
<trkpt lat="31.9249400" lon="34.9575360">
<ele>135.000000</ele>
<time>2017-07-11T06:28:30.000Z</time>
</trkpt>
<trkpt lat="31.9249850" lon="34.9574620">
<ele>134.800003</ele>
<time>2017-07-11T06:28:31.000Z</time>
</trkpt>
<trkpt lat="31.9250370" lon="34.9574010">
<ele>134.500000</ele>
<time>2017-07-11T06:28:32.000Z</time>
</trkpt>
<trkpt lat="31.9251000" lon="34.9573580">
<ele>134.199997</ele>
<time>2017-07-11T06:28:33.000Z</time>
</trkpt>
<trkpt lat="31.9251680" lon="34.9573350">
<ele>133.800003</ele>
<time>2017-07-11T06:28:34.000Z</time>
</trkpt>
<trkpt lat="31.9252330" lon="34.9573290">
<ele>133.399994</ele>
<time>2017-07-11T06:28:35.000Z</time>
</trkpt>
<trkpt lat="31.9252930" lon="34.9573430">
<ele>132.899994</ele>
<time>2017-07-11T06:28:36.000Z</time>
</trkpt>
<trkpt lat="31.9253480" lon="34.9573750">
<ele>132.400009</ele>
<time>2017-07-11T06:28:37.000Z</time>
</trkpt>
<trkpt lat="31.9254020" lon="34.9574250">
<ele>131.800003</ele>
<time>2017-07-11T06:28:38.000Z</time>
</trkpt>
<trkpt lat="31.9254500" lon="34.9574730">
<ele>131.199997</ele>
<time>2017-07-11T06:28:39.000Z</time>
</trkpt>
<trkpt lat="31.9254940" lon="34.9575160">
<ele>131.000000</ele>
<time>2017-07-11T06:28:40.000Z</time>
</trkpt>
<trkpt lat="31.9255450" lon="34.9575450">
<ele>131.000000</ele>
<time>2017-07-11T06:28:41.000Z</time>
</trkpt>
<trkpt lat="31.9256040" lon="34.9575570">
<ele>131.000000</ele>
<time>2017-07-11T06:28:42.000Z</time>
</trkpt>
<trkpt lat="31.9256580" lon="34.9575510">
<ele>130.899994</ele>
<time>2017-07-11T06:28:43.000Z</time>
</trkpt>
<trkpt lat="31.9257050" lon="34.9575280">
<ele>130.500000</ele>
<time>2017-07-11T06:28:44.000Z</time>
</trkpt>
<trkpt lat="31.9257450" lon="34.9574910">
<ele>130.000000</ele>
<time>2017-07-11T06:28:45.000Z</time>
</trkpt>
<trkpt lat="31.9257740" lon="34.9574400">
<ele>129.399994</ele>
<time>2017-07-11T06:28:46.000Z</time>
</trkpt>
<trkpt lat="31.9258000" lon="34.9573870">
<ele>128.699997</ele>
<time>2017-07-11T06:28:47.000Z</time>
</trkpt>
<trkpt lat="31.9258250" lon="34.9573310">
<ele>128.199997</ele>
<time>2017-07-11T06:28:48.000Z</time>
</trkpt>
<trkpt lat="31.9258450" lon="34.9572750">
<ele>127.900002</ele>
<time>2017-07-11T06:28:49.000Z</time>
</trkpt>
<trkpt lat="31.9258610" lon="34.9572180">
<ele>127.699997</ele>
<time>2017-07-11T06:28:50.000Z</time>
</trkpt>
<trkpt lat="31.9258730" lon="34.9571580">
<ele>127.400002</ele>
<time>2017-07-11T06:28:51.000Z</time>
</trkpt>
<trkpt lat="31.9258860" lon="34.9570960">
<ele>127.099998</ele>
<time>2017-07-11T06:28:52.000Z</time>
</trkpt>
<trkpt lat="31.9258900" lon="34.9570310">
<ele>126.800003</ele>
<time>2017-07-11T06:28:53.000Z</time>
</trkpt>
<trkpt lat="31.9258970" lon="34.9569700">
<ele>126.500000</ele>
<time>2017-07-11T06:28:54.000Z</time>
</trkpt>
<trkpt lat="31.9259130" lon="34.9569120">
<ele>126.099998</ele>
<time>2017-07-11T06:28:55.000Z</time>
</trkpt>
<trkpt lat="31.9259300" lon="34.9568570">
<ele>125.799995</ele>
<time>2017-07-11T06:28:56.000Z</time>
</trkpt>
<trkpt lat="31.9259510" lon="34.9568010">
<ele>125.599998</ele>
<time>2017-07-11T06:28:57.000Z</time>
</trkpt>
<trkpt lat="31.9259740" lon="34.9567460">
<ele>125.299995</ele>
<time>2017-07-11T06:28:58.000Z</time>
</trkpt>
<trkpt lat="31.9260010" lon="34.9566890">
<ele>124.800003</ele>
<time>2017-07-11T06:28:59.000Z</time>
</trkpt>
<trkpt lat="31.9260300" lon="34.9566320">
<ele>124.300003</ele>
<time>2017-07-11T06:29:00.000Z</time>
</trkpt>
<trkpt lat="31.9260630" lon="34.9565750">
<ele>124.000000</ele>
<time>2017-07-11T06:29:01.000Z</time>
</trkpt>
<trkpt lat="31.9261030" lon="34.9565240">
<ele>123.599998</ele>
<time>2017-07-11T06:29:02.000Z</time>
</trkpt>
<trkpt lat="31.9261470" lon="34.9564790">
<ele>122.899994</ele>
<time>2017-07-11T06:29:03.000Z</time>
</trkpt>
<trkpt lat="31.9262040" lon="34.9564470">
<ele>122.299995</ele>
<time>2017-07-11T06:29:04.000Z</time>
</trkpt>
<trkpt lat="31.9262660" lon="34.9564210">
<ele>121.900002</ele>
<time>2017-07-11T06:29:05.000Z</time>
</trkpt>
<trkpt lat="31.9263340" lon="34.9564000">
<ele>121.500000</ele>
<time>2017-07-11T06:29:06.000Z</time>
</trkpt>
<trkpt lat="31.9264070" lon="34.9563850">
<ele>121.000000</ele>
<time>2017-07-11T06:29:07.000Z</time>
</trkpt>
<trkpt lat="31.9264780" lon="34.9563820">
<ele>121.100006</ele>
<time>2017-07-11T06:29:08.000Z</time>
</trkpt>
<trkpt lat="31.9265430" lon="34.9563890">
<ele>121.100006</ele>
<time>2017-07-11T06:29:09.000Z</time>
</trkpt>
<trkpt lat="31.9266090" lon="34.9563920">
<ele>121.199997</ele>
<time>2017-07-11T06:29:10.000Z</time>
</trkpt>
<trkpt lat="31.9266740" lon="34.9563930">
<ele>121.300003</ele>
<time>2017-07-11T06:29:11.000Z</time>
</trkpt>
<trkpt lat="31.9267370" lon="34.9563970">
<ele>121.400002</ele>
<time>2017-07-11T06:29:12.000Z</time>
</trkpt>
<trkpt lat="31.9267970" lon="34.9563960">
<ele>121.400002</ele>
<time>2017-07-11T06:29:13.000Z</time>
</trkpt>
<trkpt lat="31.9268560" lon="34.9563910">
<ele>121.500000</ele>
<time>2017-07-11T06:29:14.000Z</time>
</trkpt>
<trkpt lat="31.9269170" lon="34.9563900">
<ele>121.599998</ele>
<time>2017-07-11T06:29:15.000Z</time>
</trkpt>
<trkpt lat="31.9269730" lon="34.9563910">
<ele>121.599998</ele>
<time>2017-07-11T06:29:16.000Z</time>
</trkpt>
<trkpt lat="31.9270290" lon="34.9563960">
<ele>121.700005</ele>
<time>2017-07-11T06:29:17.000Z</time>
</trkpt>
<trkpt lat="31.9270840" lon="34.9564060">
<ele>121.799995</ele>
<time>2017-07-11T06:29:18.000Z</time>
</trkpt>
<trkpt lat="31.9271340" lon="34.9564210">
<ele>121.900002</ele>
<time>2017-07-11T06:29:19.000Z</time>
</trkpt>
<trkpt lat="31.9271810" lon="34.9564390">
<ele>122.000008</ele>
<time>2017-07-11T06:29:20.000Z</time>
</trkpt>
<trkpt lat="31.9272230" lon="34.9564640">
<ele>122.200005</ele>
<time>2017-07-11T06:29:21.000Z</time>
</trkpt>
<trkpt lat="31.9272600" lon="34.9564910">
<ele>122.299995</ele>
<time>2017-07-11T06:29:22.000Z</time>
</trkpt>
<trkpt lat="31.9272890" lon="34.9565170">
<ele>122.500000</ele>
<time>2017-07-11T06:29:23.000Z</time>
</trkpt>
<trkpt lat="31.9273110" lon="34.9565480">
<ele>122.599998</ele>
<time>2017-07-11T06:29:24.000Z</time>
</trkpt>
<trkpt lat="31.9273320" lon="34.9565800">
<ele>122.800003</ele>
<time>2017-07-11T06:29:25.000Z</time>
</trkpt>
<trkpt lat="31.9273470" lon="34.9566100">
<ele>122.899994</ele>
<time>2017-07-11T06:29:26.000Z</time>
</trkpt>
<trkpt lat="31.9273620" lon="34.9566390">
<ele>123.199997</ele>
<time>2017-07-11T06:29:27.000Z</time>
</trkpt>
<trkpt lat="31.9273760" lon="34.9566720">
<ele>123.500000</ele>
<time>2017-07-11T06:29:28.000Z</time>
</trkpt>
<trkpt lat="31.9273900" lon="34.9567030">
<ele>123.799995</ele>
<time>2017-07-11T06:29:29.000Z</time>
</trkpt>
<trkpt lat="31.9274030" lon="34.9567330">
<ele>124.199997</ele>
<time>2017-07-11T06:29:30.000Z</time>
</trkpt>
<trkpt lat="31.9274120" lon="34.9567640">
<ele>124.399994</ele>
<time>2017-07-11T06:29:31.000Z</time>
</trkpt>
<trkpt lat="31.9274210" lon="34.9567960">
<ele>124.699997</ele>
<time>2017-07-11T06:29:32.000Z</time>
</trkpt>
<trkpt lat="31.9274310" lon="34.9568270">
<ele>125.000000</ele>
<time>2017-07-11T06:29:33.000Z</time>
</trkpt>
<trkpt lat="31.9274530" lon="34.9568890">
<ele>125.400002</ele>
<time>2017-07-11T06:29:35.000Z</time>
</trkpt>
<trkpt lat="31.9274630" lon="34.9569220">
<ele>125.700005</ele>
<time>2017-07-11T06:29:36.000Z</time>
</trkpt>
<trkpt lat="31.9274740" lon="34.9569540">
<ele>125.900002</ele>
<time>2017-07-11T06:29:37.000Z</time>
</trkpt>
<trkpt lat="31.9274840" lon="34.9569870">
<ele>126.300003</ele>
<time>2017-07-11T06:29:38.000Z</time>
</trkpt>
<trkpt lat="31.9274920" lon="34.9570180">
<ele>126.600006</ele>
<time>2017-07-11T06:29:39.000Z</time>
</trkpt>
<trkpt lat="31.9275110" lon="34.9570770">
<ele>127.099998</ele>
<time>2017-07-11T06:29:41.000Z</time>
</trkpt>
<trkpt lat="31.9275360" lon="34.9571300">
<ele>127.500000</ele>
<time>2017-07-11T06:29:43.000Z</time>
</trkpt>
<trkpt lat="31.9275620" lon="34.9571850">
<ele>127.699997</ele>
<time>2017-07-11T06:29:45.000Z</time>
</trkpt>
<trkpt lat="31.9275780" lon="34.9572130">
<ele>127.800003</ele>
<time>2017-07-11T06:29:46.000Z</time>
</trkpt>
<trkpt lat="31.9275940" lon="34.9572400">
<ele>127.900002</ele>
<time>2017-07-11T06:29:47.000Z</time>
</trkpt>
<trkpt lat="31.9276120" lon="34.9572660">
<ele>128.000000</ele>
<time>2017-07-11T06:29:48.000Z</time>
</trkpt>
<trkpt lat="31.9276310" lon="34.9572950">
<ele>128.100006</ele>
<time>2017-07-11T06:29:49.000Z</time>
</trkpt>
<trkpt lat="31.9276510" lon="34.9573230">
<ele>128.300003</ele>
<time>2017-07-11T06:29:50.000Z</time>
</trkpt>
<trkpt lat="31.9276690" lon="34.9573500">
<ele>128.500000</ele>
<time>2017-07-11T06:29:51.000Z</time>
</trkpt>
<trkpt lat="31.9276860" lon="34.9573770">
<ele>128.699997</ele>
<time>2017-07-11T06:29:52.000Z</time>
</trkpt>
<trkpt lat="31.9277220" lon="34.9574250">
<ele>129.199997</ele>
<time>2017-07-11T06:29:54.000Z</time>
</trkpt>
<trkpt lat="31.9277570" lon="34.9574690">
<ele>129.800003</ele>
<time>2017-07-11T06:29:56.000Z</time>
</trkpt>
<trkpt lat="31.9277750" lon="34.9574920">
<ele>130.000000</ele>
<time>2017-07-11T06:29:57.000Z</time>
</trkpt>
<trkpt lat="31.9278140" lon="34.9575380">
<ele>130.300003</ele>
<time>2017-07-11T06:29:59.000Z</time>
</trkpt>
<trkpt lat="31.9278330" lon="34.9575620">
<ele>130.400009</ele>
<time>2017-07-11T06:30:00.000Z</time>
</trkpt>
<trkpt lat="31.9278710" lon="34.9576060">
<ele>130.500000</ele>
<time>2017-07-11T06:30:02.000Z</time>
</trkpt>
<trkpt lat="31.9279000" lon="34.9576470">
<ele>130.699997</ele>
<time>2017-07-11T06:30:04.000Z</time>
</trkpt>
<trkpt lat="31.9279190" lon="34.9576890">
<ele>130.800003</ele>
<time>2017-07-11T06:30:06.000Z</time>
</trkpt>
<trkpt lat="31.9279380" lon="34.9577320">
<ele>130.899994</ele>
<time>2017-07-11T06:30:08.000Z</time>
</trkpt>
<trkpt lat="31.9279540" lon="34.9577700">
<ele>131.099991</ele>
<time>2017-07-11T06:30:10.000Z</time>
</trkpt>
<trkpt lat="31.9279660" lon="34.9578150">
<ele>131.500000</ele>
<time>2017-07-11T06:30:12.000Z</time>
</trkpt>
<trkpt lat="31.9279760" lon="34.9578560">
<ele>131.800003</ele>
<time>2017-07-11T06:30:14.000Z</time>
</trkpt>
<trkpt lat="31.9279940" lon="34.9578960">
<ele>132.199997</ele>
<time>2017-07-11T06:30:16.000Z</time>
</trkpt>
<trkpt lat="31.9280150" lon="34.9579310">
<ele>132.500000</ele>
<time>2017-07-11T06:30:18.000Z</time>
</trkpt>
<trkpt lat="31.9280390" lon="34.9579640">
<ele>132.699997</ele>
<time>2017-07-11T06:30:20.000Z</time>
</trkpt>
<trkpt lat="31.9280680" lon="34.9579970">
<ele>132.899994</ele>
<time>2017-07-11T06:30:22.000Z</time>
</trkpt>
<trkpt lat="31.9281060" lon="34.9580270">
<ele>133.099991</ele>
<time>2017-07-11T06:30:24.000Z</time>
</trkpt>
<trkpt lat="31.9281450" lon="34.9580570">
<ele>133.300003</ele>
<time>2017-07-11T06:30:26.000Z</time>
</trkpt>
<trkpt lat="31.9281830" lon="34.9580840">
<ele>133.600006</ele>
<time>2017-07-11T06:30:28.000Z</time>
</trkpt>
<trkpt lat="31.9282190" lon="34.9581090">
<ele>133.699997</ele>
<time>2017-07-11T06:30:30.000Z</time>
</trkpt>
<trkpt lat="31.9282620" lon="34.9581300">
<ele>134.000000</ele>
<time>2017-07-11T06:30:32.000Z</time>
</trkpt>
<trkpt lat="31.9283100" lon="34.9581420">
<ele>134.300003</ele>
<time>2017-07-11T06:30:34.000Z</time>
</trkpt>
<trkpt lat="31.9283630" lon="34.9581510">
<ele>134.800003</ele>
<time>2017-07-11T06:30:36.000Z</time>
</trkpt>
<trkpt lat="31.9284120" lon="34.9581520">
<ele>135.300003</ele>
<time>2017-07-11T06:30:38.000Z</time>
</trkpt>
<trkpt lat="31.9284590" lon="34.9581560">
<ele>135.500000</ele>
<time>2017-07-11T06:30:40.000Z</time>
</trkpt>
<trkpt lat="31.9285040" lon="34.9581560">
<ele>135.699997</ele>
<time>2017-07-11T06:30:42.000Z</time>
</trkpt>
<trkpt lat="31.9285430" lon="34.9581510">
<ele>135.800003</ele>
<time>2017-07-11T06:30:45.000Z</time>
</trkpt>
<trkpt lat="31.9285700" lon="34.9582000">
<ele>135.900009</ele>
<time>2017-07-11T06:30:47.000Z</time>
</trkpt>
<trkpt lat="31.9285660" lon="34.9582510">
<ele>136.000000</ele>
<time>2017-07-11T06:30:49.000Z</time>
</trkpt>
<trkpt lat="31.9285550" lon="34.9582850">
<ele>136.000000</ele>
<time>2017-07-11T06:30:51.000Z</time>
</trkpt>
<trkpt lat="31.9285300" lon="34.9583230">
<ele>136.000000</ele>
<time>2017-07-11T06:30:53.000Z</time>
</trkpt>
<trkpt lat="31.9285070" lon="34.9583630">
<ele>136.300003</ele>
<time>2017-07-11T06:30:55.000Z</time>
</trkpt>
<trkpt lat="31.9285200" lon="34.9583920">
<ele>136.599991</ele>
<time>2017-07-11T06:30:57.000Z</time>
</trkpt>
<trkpt lat="31.9285480" lon="34.9583990">
<ele>137.000000</ele>
<time>2017-07-11T06:30:59.000Z</time>
</trkpt>
<trkpt lat="31.9285910" lon="34.9583970">
<ele>137.400009</ele>
<time>2017-07-11T06:31:01.000Z</time>
</trkpt>
<trkpt lat="31.9286360" lon="34.9583940">
<ele>137.899994</ele>
<time>2017-07-11T06:31:03.000Z</time>
</trkpt>
<trkpt lat="31.9286660" lon="34.9583950">
<ele>138.300003</ele>
<time>2017-07-11T06:31:04.000Z</time>
</trkpt>
<trkpt lat="31.9286950" lon="34.9583920">
<ele>138.599991</ele>
<time>2017-07-11T06:31:05.000Z</time>
</trkpt>
<trkpt lat="31.9287250" lon="34.9583910">
<ele>138.800003</ele>
<time>2017-07-11T06:31:06.000Z</time>
</trkpt>
<trkpt lat="31.9287700" lon="34.9583980">
<ele>139.300003</ele>
<time>2017-07-11T06:31:08.000Z</time>
</trkpt>
<trkpt lat="31.9288060" lon="34.9583960">
<ele>139.600006</ele>
<time>2017-07-11T06:31:09.000Z</time>
</trkpt>
<trkpt lat="31.9288360" lon="34.9583890">
<ele>139.899994</ele>
<time>2017-07-11T06:31:10.000Z</time>
</trkpt>
<trkpt lat="31.9288650" lon="34.9583860">
<ele>140.099991</ele>
<time>2017-07-11T06:31:11.000Z</time>
</trkpt>
<trkpt lat="31.9288970" lon="34.9583870">
<ele>140.399994</ele>
<time>2017-07-11T06:31:12.000Z</time>
</trkpt>
<trkpt lat="31.9289290" lon="34.9583880">
<ele>140.699997</ele>
<time>2017-07-11T06:31:13.000Z</time>
</trkpt>
<trkpt lat="31.9289610" lon="34.9583920">
<ele>141.000000</ele>
<time>2017-07-11T06:31:14.000Z</time>
</trkpt>
<trkpt lat="31.9289930" lon="34.9583960">
<ele>141.300003</ele>
<time>2017-07-11T06:31:15.000Z</time>
</trkpt>
<trkpt lat="31.9290260" lon="34.9583960">
<ele>141.600006</ele>
<time>2017-07-11T06:31:16.000Z</time>
</trkpt>
<trkpt lat="31.9290570" lon="34.9583990">
<ele>141.899994</ele>
<time>2017-07-11T06:31:17.000Z</time>
</trkpt>
<trkpt lat="31.9290840" lon="34.9584150">
<ele>142.399994</ele>
<time>2017-07-11T06:31:18.000Z</time>
</trkpt>
<trkpt lat="31.9291080" lon="34.9584330">
<ele>142.800003</ele>
<time>2017-07-11T06:31:19.000Z</time>
</trkpt>
<trkpt lat="31.9291370" lon="34.9584760">
<ele>143.300003</ele>
<time>2017-07-11T06:31:21.000Z</time>
</trkpt>
<trkpt lat="31.9291520" lon="34.9585030">
<ele>143.500000</ele>
<time>2017-07-11T06:31:22.000Z</time>
</trkpt>
<trkpt lat="31.9291710" lon="34.9585310">
<ele>143.800003</ele>
<time>2017-07-11T06:31:23.000Z</time>
</trkpt>
<trkpt lat="31.9292000" lon="34.9585510">
<ele>144.199997</ele>
<time>2017-07-11T06:31:24.000Z</time>
</trkpt>
<trkpt lat="31.9292220" lon="34.9585760">
<ele>144.600006</ele>
<time>2017-07-11T06:31:25.000Z</time>
</trkpt>
<trkpt lat="31.9292460" lon="34.9585970">
<ele>144.900009</ele>
<time>2017-07-11T06:31:26.000Z</time>
</trkpt>
<trkpt lat="31.9292720" lon="34.9586170">
<ele>145.199997</ele>
<time>2017-07-11T06:31:27.000Z</time>
</trkpt>
<trkpt lat="31.9292920" lon="34.9586420">
<ele>145.399994</ele>
<time>2017-07-11T06:31:28.000Z</time>
</trkpt>
<trkpt lat="31.9293240" lon="34.9586800">
<ele>145.599991</ele>
<time>2017-07-11T06:31:30.000Z</time>
</trkpt>
<trkpt lat="31.9293690" lon="34.9587290">
<ele>145.899994</ele>
<time>2017-07-11T06:31:32.000Z</time>
</trkpt>
<trkpt lat="31.9293920" lon="34.9587570">
<ele>145.899994</ele>
<time>2017-07-11T06:31:33.000Z</time>
</trkpt>
<trkpt lat="31.9294170" lon="34.9587810">
<ele>146.000000</ele>
<time>2017-07-11T06:31:34.000Z</time>
</trkpt>
<trkpt lat="31.9294430" lon="34.9588100">
<ele>146.000000</ele>
<time>2017-07-11T06:31:35.000Z</time>
</trkpt>
<trkpt lat="31.9294710" lon="34.9588430">
<ele>146.000000</ele>
<time>2017-07-11T06:31:36.000Z</time>
</trkpt>
<trkpt lat="31.9294970" lon="34.9588730">
<ele>145.899994</ele>
<time>2017-07-11T06:31:37.000Z</time>
</trkpt>
<trkpt lat="31.9295270" lon="34.9588990">
<ele>145.800003</ele>
<time>2017-07-11T06:31:38.000Z</time>
</trkpt>
<trkpt lat="31.9295580" lon="34.9589220">
<ele>145.599991</ele>
<time>2017-07-11T06:31:39.000Z</time>
</trkpt>
<trkpt lat="31.9295970" lon="34.9589380">
<ele>145.399994</ele>
<time>2017-07-11T06:31:40.000Z</time>
</trkpt>
<trkpt lat="31.9296350" lon="34.9589460">
<ele>145.199997</ele>
<time>2017-07-11T06:31:41.000Z</time>
</trkpt>
<trkpt lat="31.9296880" lon="34.9589520">
<ele>145.100006</ele>
<time>2017-07-11T06:31:42.000Z</time>
</trkpt>
<trkpt lat="31.9297510" lon="34.9589590">
<ele>145.000000</ele>
<time>2017-07-11T06:31:43.000Z</time>
</trkpt>
<trkpt lat="31.9298060" lon="34.9589590">
<ele>144.800003</ele>
<time>2017-07-11T06:31:44.000Z</time>
</trkpt>
<trkpt lat="31.9298700" lon="34.9589500">
<ele>144.300003</ele>
<time>2017-07-11T06:31:45.000Z</time>
</trkpt>
<trkpt lat="31.9299480" lon="34.9589410">
<ele>143.899994</ele>
<time>2017-07-11T06:31:46.000Z</time>
</trkpt>
<trkpt lat="31.9300050" lon="34.9589410">
<ele>143.599991</ele>
<time>2017-07-11T06:31:47.000Z</time>
</trkpt>
<trkpt lat="31.9300640" lon="34.9589430">
<ele>143.199997</ele>
<time>2017-07-11T06:31:48.000Z</time>
</trkpt>
<trkpt lat="31.9301100" lon="34.9589370">
<ele>143.000000</ele>
<time>2017-07-11T06:31:49.000Z</time>
</trkpt>
<trkpt lat="31.9301670" lon="34.9589510">
<ele>143.000000</ele>
<time>2017-07-11T06:31:50.000Z</time>
</trkpt>
<trkpt lat="31.9302230" lon="34.9589790">
<ele>142.800003</ele>
<time>2017-07-11T06:31:51.000Z</time>
</trkpt>
<trkpt lat="31.9302690" lon="34.9590130">
<ele>142.699997</ele>
<time>2017-07-11T06:31:52.000Z</time>
</trkpt>
<trkpt lat="31.9303130" lon="34.9590550">
<ele>142.600006</ele>
<time>2017-07-11T06:31:53.000Z</time>
</trkpt>
<trkpt lat="31.9303550" lon="34.9590730">
<ele>142.500000</ele>
<time>2017-07-11T06:31:54.000Z</time>
</trkpt>
<trkpt lat="31.9304020" lon="34.9590810">
<ele>142.399994</ele>
<time>2017-07-11T06:31:55.000Z</time>
</trkpt>
<trkpt lat="31.9304590" lon="34.9590960">
<ele>142.199997</ele>
<time>2017-07-11T06:31:56.000Z</time>
</trkpt>
<trkpt lat="31.9305140" lon="34.9591250">
<ele>142.000000</ele>
<time>2017-07-11T06:31:57.000Z</time>
</trkpt>
<trkpt lat="31.9305940" lon="34.9591480">
<ele>141.600006</ele>
<time>2017-07-11T06:31:58.000Z</time>
</trkpt>
<trkpt lat="31.9306500" lon="34.9591800">
<ele>141.199997</ele>
<time>2017-07-11T06:31:59.000Z</time>
</trkpt>
<trkpt lat="31.9306990" lon="34.9592290">
<ele>141.000000</ele>
<time>2017-07-11T06:32:00.000Z</time>
</trkpt>
<trkpt lat="31.9307440" lon="34.9592770">
<ele>140.699997</ele>
<time>2017-07-11T06:32:01.000Z</time>
</trkpt>
<trkpt lat="31.9308160" lon="34.9593320">
<ele>140.399994</ele>
<time>2017-07-11T06:32:02.000Z</time>
</trkpt>
<trkpt lat="31.9308450" lon="34.9594200">
<ele>140.099991</ele>
<time>2017-07-11T06:32:03.000Z</time>
</trkpt>
<trkpt lat="31.9308820" lon="34.9595090">
<ele>139.600006</ele>
<time>2017-07-11T06:32:04.000Z</time>
</trkpt>
<trkpt lat="31.9309010" lon="34.9596150">
<ele>139.300003</ele>
<time>2017-07-11T06:32:05.000Z</time>
</trkpt>
<trkpt lat="31.9309010" lon="34.9596760">
<ele>139.199997</ele>
<time>2017-07-11T06:32:06.000Z</time>
</trkpt>
<trkpt lat="31.9308950" lon="34.9597440">
<ele>139.100006</ele>
<time>2017-07-11T06:32:07.000Z</time>
</trkpt>
<trkpt lat="31.9308900" lon="34.9598220">
<ele>139.000000</ele>
<time>2017-07-11T06:32:08.000Z</time>
</trkpt>
<trkpt lat="31.9309150" lon="34.9599040">
<ele>139.000000</ele>
<time>2017-07-11T06:32:09.000Z</time>
</trkpt>
<trkpt lat="31.9309280" lon="34.9599550">
<ele>139.000000</ele>
<time>2017-07-11T06:32:10.000Z</time>
</trkpt>
<trkpt lat="31.9309580" lon="34.9600130">
<ele>139.000000</ele>
<time>2017-07-11T06:32:11.000Z</time>
</trkpt>
<trkpt lat="31.9309770" lon="34.9600660">
<ele>139.000000</ele>
<time>2017-07-11T06:32:12.000Z</time>
</trkpt>
<trkpt lat="31.9309940" lon="34.9601150">
<ele>139.000000</ele>
<time>2017-07-11T06:32:13.000Z</time>
</trkpt>
<trkpt lat="31.9310220" lon="34.9601720">
<ele>139.000000</ele>
<time>2017-07-11T06:32:14.000Z</time>
</trkpt>
<trkpt lat="31.9310370" lon="34.9602140">
<ele>139.000000</ele>
<time>2017-07-11T06:32:15.000Z</time>
</trkpt>
<trkpt lat="31.9310480" lon="34.9602480">
<ele>139.000000</ele>
<time>2017-07-11T06:32:16.000Z</time>
</trkpt>
<trkpt lat="31.9310530" lon="34.9602840">
<ele>139.000000</ele>
<time>2017-07-11T06:32:17.000Z</time>
</trkpt>
<trkpt lat="31.9310620" lon="34.9603370">
<ele>139.000000</ele>
<time>2017-07-11T06:32:19.000Z</time>
</trkpt>
<trkpt lat="31.9310980" lon="34.9603520">
<ele>138.300003</ele>
<time>2017-07-11T06:32:32.000Z</time>
</trkpt>
<trkpt lat="31.9311250" lon="34.9603450">
<ele>138.099991</ele>
<time>2017-07-11T06:32:34.000Z</time>
</trkpt>
<trkpt lat="31.9311530" lon="34.9603650">
<ele>137.800003</ele>
<time>2017-07-11T06:33:49.000Z</time>
</trkpt>
<trkpt lat="31.9311780" lon="34.9603490">
<ele>137.600006</ele>
<time>2017-07-11T06:33:52.000Z</time>
</trkpt>
<trkpt lat="31.9312090" lon="34.9603200">
<ele>137.300003</ele>
<time>2017-07-11T06:33:55.000Z</time>
</trkpt>
<trkpt lat="31.9312480" lon="34.9603030">
<ele>136.899994</ele>
<time>2017-07-11T06:33:57.000Z</time>
</trkpt>
<trkpt lat="31.9312850" lon="34.9602590">
<ele>136.500000</ele>
<time>2017-07-11T06:33:59.000Z</time>
</trkpt>
<trkpt lat="31.9313140" lon="34.9602130">
<ele>136.199997</ele>
<time>2017-07-11T06:34:01.000Z</time>
</trkpt>
<trkpt lat="31.9313580" lon="34.9601880">
<ele>135.800003</ele>
<time>2017-07-11T06:34:03.000Z</time>
</trkpt>
<trkpt lat="31.9313920" lon="34.9601740">
<ele>135.600006</ele>
<time>2017-07-11T06:34:04.000Z</time>
</trkpt>
<trkpt lat="31.9314260" lon="34.9601620">
<ele>135.300003</ele>
<time>2017-07-11T06:34:05.000Z</time>
</trkpt>
<trkpt lat="31.9314610" lon="34.9601510">
<ele>135.099991</ele>
<time>2017-07-11T06:34:06.000Z</time>
</trkpt>
<trkpt lat="31.9314950" lon="34.9601360">
<ele>134.899994</ele>
<time>2017-07-11T06:34:07.000Z</time>
</trkpt>
<trkpt lat="31.9315220" lon="34.9601190">
<ele>134.699997</ele>
<time>2017-07-11T06:34:08.000Z</time>
</trkpt>
<trkpt lat="31.9315460" lon="34.9601010">
<ele>134.599991</ele>
<time>2017-07-11T06:34:09.000Z</time>
</trkpt>
<trkpt lat="31.9315720" lon="34.9600840">
<ele>134.399994</ele>
<time>2017-07-11T06:34:10.000Z</time>
</trkpt>
<trkpt lat="31.9316010" lon="34.9600700">
<ele>134.300003</ele>
<time>2017-07-11T06:34:11.000Z</time>
</trkpt>
<trkpt lat="31.9316510" lon="34.9600490">
<ele>134.000000</ele>
<time>2017-07-11T06:34:13.000Z</time>
</trkpt>
<trkpt lat="31.9316760" lon="34.9600360">
<ele>133.900009</ele>
<time>2017-07-11T06:34:14.000Z</time>
</trkpt>
<trkpt lat="31.9317040" lon="34.9600190">
<ele>133.699997</ele>
<time>2017-07-11T06:34:15.000Z</time>
</trkpt>
<trkpt lat="31.9317280" lon="34.9599930">
<ele>133.600006</ele>
<time>2017-07-11T06:34:16.000Z</time>
</trkpt>
<trkpt lat="31.9317550" lon="34.9599700">
<ele>133.500000</ele>
<time>2017-07-11T06:34:17.000Z</time>
</trkpt>
<trkpt lat="31.9317790" lon="34.9599530">
<ele>133.399994</ele>
<time>2017-07-11T06:34:18.000Z</time>
</trkpt>
<trkpt lat="31.9318020" lon="34.9599360">
<ele>133.399994</ele>
<time>2017-07-11T06:34:19.000Z</time>
</trkpt>
<trkpt lat="31.9318270" lon="34.9599170">
<ele>133.300003</ele>
<time>2017-07-11T06:34:20.000Z</time>
</trkpt>
<trkpt lat="31.9318490" lon="34.9598920">
<ele>133.300003</ele>
<time>2017-07-11T06:34:21.000Z</time>
</trkpt>
<trkpt lat="31.9318710" lon="34.9598490">
<ele>133.199997</ele>
<time>2017-07-11T06:34:23.000Z</time>
</trkpt>
<trkpt lat="31.9318810" lon="34.9597930">
<ele>133.099991</ele>
<time>2017-07-11T06:34:25.000Z</time>
</trkpt>
<trkpt lat="31.9318960" lon="34.9597500">
<ele>133.099991</ele>
<time>2017-07-11T06:34:26.000Z</time>
</trkpt>
<trkpt lat="31.9319100" lon="34.9597120">
<ele>133.099991</ele>
<time>2017-07-11T06:34:27.000Z</time>
</trkpt>
<trkpt lat="31.9319220" lon="34.9596690">
<ele>133.199997</ele>
<time>2017-07-11T06:34:28.000Z</time>
</trkpt>
<trkpt lat="31.9319350" lon="34.9596250">
<ele>133.199997</ele>
<time>2017-07-11T06:34:29.000Z</time>
</trkpt>
<trkpt lat="31.9319480" lon="34.9595810">
<ele>133.300003</ele>
<time>2017-07-11T06:34:30.000Z</time>
</trkpt>
<trkpt lat="31.9319640" lon="34.9595460">
<ele>133.300003</ele>
<time>2017-07-11T06:34:31.000Z</time>
</trkpt>
<trkpt lat="31.9319850" lon="34.9595110">
<ele>133.300003</ele>
<time>2017-07-11T06:34:32.000Z</time>
</trkpt>
<trkpt lat="31.9320110" lon="34.9594710">
<ele>133.300003</ele>
<time>2017-07-11T06:34:33.000Z</time>
</trkpt>
<trkpt lat="31.9320370" lon="34.9594360">
<ele>133.300003</ele>
<time>2017-07-11T06:34:34.000Z</time>
</trkpt>
<trkpt lat="31.9320600" lon="34.9593880">
<ele>133.199997</ele>
<time>2017-07-11T06:34:35.000Z</time>
</trkpt>
<trkpt lat="31.9320810" lon="34.9593450">
<ele>133.099991</ele>
<time>2017-07-11T06:34:36.000Z</time>
</trkpt>
<trkpt lat="31.9321020" lon="34.9593090">
<ele>133.000000</ele>
<time>2017-07-11T06:34:37.000Z</time>
</trkpt>
<trkpt lat="31.9321240" lon="34.9592800">
<ele>133.000000</ele>
<time>2017-07-11T06:34:38.000Z</time>
</trkpt>
<trkpt lat="31.9321590" lon="34.9592460">
<ele>133.000000</ele>
<time>2017-07-11T06:34:39.000Z</time>
</trkpt>
<trkpt lat="31.9322080" lon="34.9592100">
<ele>133.000000</ele>
<time>2017-07-11T06:34:40.000Z</time>
</trkpt>
<trkpt lat="31.9322510" lon="34.9591800">
<ele>133.000000</ele>
<time>2017-07-11T06:34:41.000Z</time>
</trkpt>
<trkpt lat="31.9322860" lon="34.9591720">
<ele>132.500000</ele>
<time>2017-07-11T06:34:42.000Z</time>
</trkpt>
<trkpt lat="31.9323290" lon="34.9591710">
<ele>132.000000</ele>
<time>2017-07-11T06:34:43.000Z</time>
</trkpt>
<trkpt lat="31.9323710" lon="34.9591740">
<ele>131.500000</ele>
<time>2017-07-11T06:34:44.000Z</time>
</trkpt>
<trkpt lat="31.9324140" lon="34.9591720">
<ele>131.000000</ele>
<time>2017-07-11T06:34:45.000Z</time>
</trkpt>
<trkpt lat="31.9324560" lon="34.9591650">
<ele>130.500000</ele>
<time>2017-07-11T06:34:46.000Z</time>
</trkpt>
<trkpt lat="31.9324890" lon="34.9591550">
<ele>130.100006</ele>
<time>2017-07-11T06:34:47.000Z</time>
</trkpt>
<trkpt lat="31.9325170" lon="34.9591530">
<ele>129.699997</ele>
<time>2017-07-11T06:34:48.000Z</time>
</trkpt>
<trkpt lat="31.9325500" lon="34.9591560">
<ele>129.300003</ele>
<time>2017-07-11T06:34:49.000Z</time>
</trkpt>
<trkpt lat="31.9325840" lon="34.9591640">
<ele>128.900009</ele>
<time>2017-07-11T06:34:50.000Z</time>
</trkpt>
<trkpt lat="31.9326170" lon="34.9591680">
<ele>128.500000</ele>
<time>2017-07-11T06:34:51.000Z</time>
</trkpt>
<trkpt lat="31.9326650" lon="34.9591720">
<ele>128.000000</ele>
<time>2017-07-11T06:34:53.000Z</time>
</trkpt>
<trkpt lat="31.9327270" lon="34.9591730">
<ele>127.599998</ele>
<time>2017-07-11T06:34:55.000Z</time>
</trkpt>
<trkpt lat="31.9327650" lon="34.9591670">
<ele>127.400002</ele>
<time>2017-07-11T06:34:56.000Z</time>
</trkpt>
<trkpt lat="31.9328080" lon="34.9591670">
<ele>127.200005</ele>
<time>2017-07-11T06:34:57.000Z</time>
</trkpt>
<trkpt lat="31.9328620" lon="34.9591710">
<ele>126.900002</ele>
<time>2017-07-11T06:34:58.000Z</time>
</trkpt>
<trkpt lat="31.9329120" lon="34.9591640">
<ele>126.600006</ele>
<time>2017-07-11T06:34:59.000Z</time>
</trkpt>
<trkpt lat="31.9329730" lon="34.9591600">
<ele>126.399994</ele>
<time>2017-07-11T06:35:00.000Z</time>
</trkpt>
<trkpt lat="31.9330450" lon="34.9591660">
<ele>126.199997</ele>
<time>2017-07-11T06:35:01.000Z</time>
</trkpt>
<trkpt lat="31.9330980" lon="34.9591530">
<ele>126.000000</ele>
<time>2017-07-11T06:35:02.000Z</time>
</trkpt>
<trkpt lat="31.9331470" lon="34.9591430">
<ele>125.900002</ele>
<time>2017-07-11T06:35:03.000Z</time>
</trkpt>
<trkpt lat="31.9332060" lon="34.9591330">
<ele>125.799995</ele>
<time>2017-07-11T06:35:04.000Z</time>
</trkpt>
<trkpt lat="31.9332610" lon="34.9591220">
<ele>125.499992</ele>
<time>2017-07-11T06:35:05.000Z</time>
</trkpt>
<trkpt lat="31.9333260" lon="34.9591210">
<ele>125.299995</ele>
<time>2017-07-11T06:35:06.000Z</time>
</trkpt>
<trkpt lat="31.9334690" lon="34.9591220">
<ele>124.600006</ele>
<time>2017-07-11T06:35:07.000Z</time>
</trkpt>
<trkpt lat="31.9335900" lon="34.9591240">
<ele>124.000000</ele>
<time>2017-07-11T06:35:08.000Z</time>
</trkpt>
<trkpt lat="31.9336960" lon="34.9591230">
<ele>123.400002</ele>
<time>2017-07-11T06:35:09.000Z</time>
</trkpt>
<trkpt lat="31.9338120" lon="34.9591260">
<ele>122.800003</ele>
<time>2017-07-11T06:35:10.000Z</time>
</trkpt>
<trkpt lat="31.9339370" lon="34.9591350">
<ele>122.000008</ele>
<time>2017-07-11T06:35:11.000Z</time>
</trkpt>
<trkpt lat="31.9340410" lon="34.9591390">
<ele>121.199997</ele>
<time>2017-07-11T06:35:12.000Z</time>
</trkpt>
<trkpt lat="31.9341210" lon="34.9591420">
<ele>120.699997</ele>
<time>2017-07-11T06:35:13.000Z</time>
</trkpt>
<trkpt lat="31.9341850" lon="34.9591430">
<ele>120.200005</ele>
<time>2017-07-11T06:35:14.000Z</time>
</trkpt>
<trkpt lat="31.9342480" lon="34.9591420">
<ele>119.799995</ele>
<time>2017-07-11T06:35:15.000Z</time>
</trkpt>
<trkpt lat="31.9343070" lon="34.9591410">
<ele>119.500000</ele>
<time>2017-07-11T06:35:16.000Z</time>
</trkpt>
<trkpt lat="31.9343670" lon="34.9591310">
<ele>119.099998</ele>
<time>2017-07-11T06:35:17.000Z</time>
</trkpt>
<trkpt lat="31.9344330" lon="34.9591070">
<ele>118.800003</ele>
<time>2017-07-11T06:35:18.000Z</time>
</trkpt>
<trkpt lat="31.9344900" lon="34.9590760">
<ele>118.400002</ele>
<time>2017-07-11T06:35:19.000Z</time>
</trkpt>
<trkpt lat="31.9345590" lon="34.9590550">
<ele>120.099998</ele>
<time>2017-07-11T06:35:20.000Z</time>
</trkpt>
<trkpt lat="31.9346220" lon="34.9590360">
<ele>121.000000</ele>
<time>2017-07-11T06:35:21.000Z</time>
</trkpt>
<trkpt lat="31.9346520" lon="34.9590190">
<ele>121.500000</ele>
<time>2017-07-11T06:35:22.000Z</time>
</trkpt>
<trkpt lat="31.9346810" lon="34.9590110">
<ele>121.900002</ele>
<time>2017-07-11T06:35:23.000Z</time>
</trkpt>
<trkpt lat="31.9347260" lon="34.9590350">
<ele>122.599998</ele>
<time>2017-07-11T06:35:24.000Z</time>
</trkpt>
<trkpt lat="31.9347420" lon="34.9590680">
<ele>123.100006</ele>
<time>2017-07-11T06:35:25.000Z</time>
</trkpt>
<trkpt lat="31.9347440" lon="34.9591120">
<ele>125.000000</ele>
<time>2017-07-11T06:35:26.000Z</time>
</trkpt>
<trkpt lat="31.9347410" lon="34.9591610">
<ele>123.400002</ele>
<time>2017-07-11T06:35:27.000Z</time>
</trkpt>
<trkpt lat="31.9347350" lon="34.9592070">
<ele>122.899994</ele>
<time>2017-07-11T06:35:28.000Z</time>
</trkpt>
<trkpt lat="31.9347410" lon="34.9592570">
<ele>122.400002</ele>
<time>2017-07-11T06:35:29.000Z</time>
</trkpt>
<trkpt lat="31.9347400" lon="34.9593010">
<ele>122.000008</ele>
<time>2017-07-11T06:35:30.000Z</time>
</trkpt>
<trkpt lat="31.9347370" lon="34.9593370">
<ele>121.700005</ele>
<time>2017-07-11T06:35:31.000Z</time>
</trkpt>
<trkpt lat="31.9347320" lon="34.9593760">
<ele>121.300003</ele>
<time>2017-07-11T06:35:32.000Z</time>
</trkpt>
<trkpt lat="31.9347230" lon="34.9594130">
<ele>121.000000</ele>
<time>2017-07-11T06:35:33.000Z</time>
</trkpt>
<trkpt lat="31.9347130" lon="34.9594450">
<ele>120.800003</ele>
<time>2017-07-11T06:35:34.000Z</time>
</trkpt>
<trkpt lat="31.9346980" lon="34.9595000">
<ele>120.299995</ele>
<time>2017-07-11T06:35:36.000Z</time>
</trkpt>
<trkpt lat="31.9346910" lon="34.9595390">
<ele>120.200005</ele>
<time>2017-07-11T06:35:38.000Z</time>
</trkpt>
<trkpt lat="31.9347040" lon="34.9595930">
<ele>119.900002</ele>
<time>2017-07-11T06:35:41.000Z</time>
</trkpt>
<trkpt lat="31.9347010" lon="34.9596300">
<ele>119.799995</ele>
<time>2017-07-11T06:35:43.000Z</time>
</trkpt>
<trkpt lat="31.9346830" lon="34.9597300">
<ele>119.399994</ele>
<time>2017-07-11T06:36:14.000Z</time>
</trkpt>
<trkpt lat="31.9346610" lon="34.9597670">
<ele>119.199997</ele>
<time>2017-07-11T06:36:16.000Z</time>
</trkpt>
<trkpt lat="31.9346340" lon="34.9598010">
<ele>119.000000</ele>
<time>2017-07-11T06:36:18.000Z</time>
</trkpt>
<trkpt lat="31.9346030" lon="34.9598410">
<ele>118.700005</ele>
<time>2017-07-11T06:36:20.000Z</time>
</trkpt>
<trkpt lat="31.9345720" lon="34.9598450">
<ele>118.500008</ele>
<time>2017-07-11T06:36:22.000Z</time>
</trkpt>
<trkpt lat="31.9345460" lon="34.9598260">
<ele>118.299995</ele>
<time>2017-07-11T06:36:23.000Z</time>
</trkpt>
<trkpt lat="31.9345180" lon="34.9598090">
<ele>118.000000</ele>
<time>2017-07-11T06:36:24.000Z</time>
</trkpt>
<trkpt lat="31.9344900" lon="34.9597950">
<ele>116.700005</ele>
<time>2017-07-11T06:36:25.000Z</time>
</trkpt>
<trkpt lat="31.9344630" lon="34.9597920">
<ele>115.400002</ele>
<time>2017-07-11T06:36:26.000Z</time>
</trkpt>
<trkpt lat="31.9344230" lon="34.9598020">
<ele>115.200005</ele>
<time>2017-07-11T06:36:28.000Z</time>
</trkpt>
<trkpt lat="31.9343920" lon="34.9598460">
<ele>114.900002</ele>
<time>2017-07-11T06:36:30.000Z</time>
</trkpt>
<trkpt lat="31.9343660" lon="34.9598820">
<ele>114.799995</ele>
<time>2017-07-11T06:36:32.000Z</time>
</trkpt>
<trkpt lat="31.9343400" lon="34.9599350">
<ele>114.599998</ele>
<time>2017-07-11T06:36:34.000Z</time>
</trkpt>
<trkpt lat="31.9343150" lon="34.9599840">
<ele>114.500000</ele>
<time>2017-07-11T06:36:36.000Z</time>
</trkpt>
<trkpt lat="31.9342880" lon="34.9600460">
<ele>114.400002</ele>
<time>2017-07-11T06:36:38.000Z</time>
</trkpt>
<trkpt lat="31.9342740" lon="34.9600770">
<ele>114.300003</ele>
<time>2017-07-11T06:36:39.000Z</time>
</trkpt>
<trkpt lat="31.9342620" lon="34.9601070">
<ele>114.199997</ele>
<time>2017-07-11T06:36:40.000Z</time>
</trkpt>
<trkpt lat="31.9342360" lon="34.9601670">
<ele>114.100006</ele>
<time>2017-07-11T06:36:42.000Z</time>
</trkpt>
<trkpt lat="31.9342230" lon="34.9602060">
<ele>114.000000</ele>
<time>2017-07-11T06:36:43.000Z</time>
</trkpt>
<trkpt lat="31.9342050" lon="34.9602630">
<ele>114.400002</ele>
<time>2017-07-11T06:36:45.000Z</time>
</trkpt>
<trkpt lat="31.9341850" lon="34.9603280">
<ele>114.900002</ele>
<time>2017-07-11T06:36:47.000Z</time>
</trkpt>
<trkpt lat="31.9341650" lon="34.9603760">
<ele>115.300003</ele>
<time>2017-07-11T06:36:49.000Z</time>
</trkpt>
<trkpt lat="31.9341500" lon="34.9604140">
<ele>115.699997</ele>
<time>2017-07-11T06:36:50.000Z</time>
</trkpt>
<trkpt lat="31.9341380" lon="34.9604520">
<ele>116.000000</ele>
<time>2017-07-11T06:36:51.000Z</time>
</trkpt>
<trkpt lat="31.9341240" lon="34.9604880">
<ele>116.199997</ele>
<time>2017-07-11T06:36:52.000Z</time>
</trkpt>
<trkpt lat="31.9341050" lon="34.9605240">
<ele>116.599998</ele>
<time>2017-07-11T06:36:53.000Z</time>
</trkpt>
<trkpt lat="31.9340860" lon="34.9605610">
<ele>116.900002</ele>
<time>2017-07-11T06:36:54.000Z</time>
</trkpt>
<trkpt lat="31.9340660" lon="34.9605940">
<ele>117.199997</ele>
<time>2017-07-11T06:36:55.000Z</time>
</trkpt>
<trkpt lat="31.9340460" lon="34.9606310">
<ele>117.500000</ele>
<time>2017-07-11T06:36:56.000Z</time>
</trkpt>
<trkpt lat="31.9340300" lon="34.9606670">
<ele>117.800003</ele>
<time>2017-07-11T06:36:57.000Z</time>
</trkpt>
<trkpt lat="31.9340170" lon="34.9606980">
<ele>118.099998</ele>
<time>2017-07-11T06:36:58.000Z</time>
</trkpt>
<trkpt lat="31.9340040" lon="34.9607310">
<ele>118.400002</ele>
<time>2017-07-11T06:36:59.000Z</time>
</trkpt>
<trkpt lat="31.9339900" lon="34.9607640">
<ele>118.599998</ele>
<time>2017-07-11T06:37:00.000Z</time>
</trkpt>
<trkpt lat="31.9339750" lon="34.9608030">
<ele>119.099998</ele>
<time>2017-07-11T06:37:01.000Z</time>
</trkpt>
<trkpt lat="31.9339610" lon="34.9608370">
<ele>119.500000</ele>
<time>2017-07-11T06:37:02.000Z</time>
</trkpt>
<trkpt lat="31.9339500" lon="34.9608690">
<ele>119.799995</ele>
<time>2017-07-11T06:37:03.000Z</time>
</trkpt>
<trkpt lat="31.9339400" lon="34.9609060">
<ele>120.200005</ele>
<time>2017-07-11T06:37:04.000Z</time>
</trkpt>
<trkpt lat="31.9339290" lon="34.9609440">
<ele>120.699997</ele>
<time>2017-07-11T06:37:05.000Z</time>
</trkpt>
<trkpt lat="31.9339190" lon="34.9609750">
<ele>121.000000</ele>
<time>2017-07-11T06:37:06.000Z</time>
</trkpt>
<trkpt lat="31.9339070" lon="34.9610070">
<ele>121.400002</ele>
<time>2017-07-11T06:37:07.000Z</time>
</trkpt>
<trkpt lat="31.9338980" lon="34.9610390">
<ele>121.700005</ele>
<time>2017-07-11T06:37:08.000Z</time>
</trkpt>
<trkpt lat="31.9338910" lon="34.9610710">
<ele>122.200005</ele>
<time>2017-07-11T06:37:09.000Z</time>
</trkpt>
<trkpt lat="31.9338780" lon="34.9611250">
<ele>123.000000</ele>
<time>2017-07-11T06:37:11.000Z</time>
</trkpt>
<trkpt lat="31.9338700" lon="34.9611770">
<ele>123.799995</ele>
<time>2017-07-11T06:37:13.000Z</time>
</trkpt>
<trkpt lat="31.9338600" lon="34.9612110">
<ele>124.000000</ele>
<time>2017-07-11T06:37:14.000Z</time>
</trkpt>
<trkpt lat="31.9338290" lon="34.9612690">
<ele>124.000000</ele>
<time>2017-07-11T06:37:15.000Z</time>
</trkpt>
<trkpt lat="31.9338010" lon="34.9613200">
<ele>124.000000</ele>
<time>2017-07-11T06:37:16.000Z</time>
</trkpt>
<trkpt lat="31.9337740" lon="34.9613610">
<ele>124.000000</ele>
<time>2017-07-11T06:37:17.000Z</time>
</trkpt>
<trkpt lat="31.9337490" lon="34.9613950">
<ele>124.099998</ele>
<time>2017-07-11T06:37:18.000Z</time>
</trkpt>
<trkpt lat="31.9337240" lon="34.9614220">
<ele>124.199997</ele>
<time>2017-07-11T06:37:19.000Z</time>
</trkpt>
<trkpt lat="31.9337020" lon="34.9614490">
<ele>124.199997</ele>
<time>2017-07-11T06:37:20.000Z</time>
</trkpt>
<trkpt lat="31.9336890" lon="34.9614780">
<ele>124.300003</ele>
<time>2017-07-11T06:37:21.000Z</time>
</trkpt>
<trkpt lat="31.9336700" lon="34.9615130">
<ele>124.300003</ele>
<time>2017-07-11T06:37:22.000Z</time>
</trkpt>
<trkpt lat="31.9336460" lon="34.9615460">
<ele>124.399994</ele>
<time>2017-07-11T06:37:23.000Z</time>
</trkpt>
<trkpt lat="31.9336220" lon="34.9615790">
<ele>124.500000</ele>
<time>2017-07-11T06:37:24.000Z</time>
</trkpt>
<trkpt lat="31.9335970" lon="34.9616110">
<ele>124.500000</ele>
<time>2017-07-11T06:37:25.000Z</time>
</trkpt>
<trkpt lat="31.9335760" lon="34.9616370">
<ele>124.600006</ele>
<time>2017-07-11T06:37:26.000Z</time>
</trkpt>
<trkpt lat="31.9335550" lon="34.9616630">
<ele>124.800003</ele>
<time>2017-07-11T06:37:27.000Z</time>
</trkpt>
<trkpt lat="31.9335320" lon="34.9616980">
<ele>125.000000</ele>
<time>2017-07-11T06:37:28.000Z</time>
</trkpt>
<trkpt lat="31.9335150" lon="34.9617430">
<ele>125.200005</ele>
<time>2017-07-11T06:37:29.000Z</time>
</trkpt>
<trkpt lat="31.9334780" lon="34.9617910">
<ele>125.599998</ele>
<time>2017-07-11T06:37:31.000Z</time>
</trkpt>
<trkpt lat="31.9334360" lon="34.9618320">
<ele>125.900002</ele>
<time>2017-07-11T06:37:33.000Z</time>
</trkpt>
<trkpt lat="31.9334120" lon="34.9618720">
<ele>126.099998</ele>
<time>2017-07-11T06:37:34.000Z</time>
</trkpt>
<trkpt lat="31.9333840" lon="34.9619010">
<ele>126.199997</ele>
<time>2017-07-11T06:37:35.000Z</time>
</trkpt>
<trkpt lat="31.9333590" lon="34.9619240">
<ele>126.199997</ele>
<time>2017-07-11T06:37:36.000Z</time>
</trkpt>
<trkpt lat="31.9333320" lon="34.9619500">
<ele>126.300003</ele>
<time>2017-07-11T06:37:37.000Z</time>
</trkpt>
<trkpt lat="31.9333000" lon="34.9619760">
<ele>126.399994</ele>
<time>2017-07-11T06:37:38.000Z</time>
</trkpt>
<trkpt lat="31.9332730" lon="34.9619970">
<ele>126.500000</ele>
<time>2017-07-11T06:37:39.000Z</time>
</trkpt>
<trkpt lat="31.9332250" lon="34.9620350">
<ele>126.600006</ele>
<time>2017-07-11T06:37:41.000Z</time>
</trkpt>
<trkpt lat="31.9331960" lon="34.9620580">
<ele>126.600006</ele>
<time>2017-07-11T06:37:42.000Z</time>
</trkpt>
<trkpt lat="31.9331660" lon="34.9620830">
<ele>126.699997</ele>
<time>2017-07-11T06:37:43.000Z</time>
</trkpt>
<trkpt lat="31.9331360" lon="34.9621010">
<ele>126.699997</ele>
<time>2017-07-11T06:37:44.000Z</time>
</trkpt>
<trkpt lat="31.9331050" lon="34.9621180">
<ele>126.800003</ele>
<time>2017-07-11T06:37:45.000Z</time>
</trkpt>
<trkpt lat="31.9330730" lon="34.9621400">
<ele>126.800003</ele>
<time>2017-07-11T06:37:46.000Z</time>
</trkpt>
<trkpt lat="31.9330400" lon="34.9621650">
<ele>126.900002</ele>
<time>2017-07-11T06:37:47.000Z</time>
</trkpt>
<trkpt lat="31.9330140" lon="34.9621860">
<ele>126.900002</ele>
<time>2017-07-11T06:37:48.000Z</time>
</trkpt>
<trkpt lat="31.9329850" lon="34.9622070">
<ele>127.000000</ele>
<time>2017-07-11T06:37:49.000Z</time>
</trkpt>
<trkpt lat="31.9329570" lon="34.9622310">
<ele>127.000000</ele>
<time>2017-07-11T06:37:50.000Z</time>
</trkpt>
<trkpt lat="31.9329330" lon="34.9622520">
<ele>126.900002</ele>
<time>2017-07-11T06:37:51.000Z</time>
</trkpt>
<trkpt lat="31.9329060" lon="34.9622750">
<ele>126.800003</ele>
<time>2017-07-11T06:37:52.000Z</time>
</trkpt>
<trkpt lat="31.9328780" lon="34.9623000">
<ele>126.699997</ele>
<time>2017-07-11T06:37:53.000Z</time>
</trkpt>
<trkpt lat="31.9328490" lon="34.9623200">
<ele>126.600006</ele>
<time>2017-07-11T06:37:54.000Z</time>
</trkpt>
<trkpt lat="31.9328210" lon="34.9623420">
<ele>126.500000</ele>
<time>2017-07-11T06:37:55.000Z</time>
</trkpt>
<trkpt lat="31.9327920" lon="34.9623640">
<ele>126.399994</ele>
<time>2017-07-11T06:37:56.000Z</time>
</trkpt>
<trkpt lat="31.9327610" lon="34.9623870">
<ele>126.300003</ele>
<time>2017-07-11T06:37:57.000Z</time>
</trkpt>
<trkpt lat="31.9327290" lon="34.9624090">
<ele>126.199997</ele>
<time>2017-07-11T06:37:58.000Z</time>
</trkpt>
<trkpt lat="31.9326900" lon="34.9624280">
<ele>126.099998</ele>
<time>2017-07-11T06:37:59.000Z</time>
</trkpt>
<trkpt lat="31.9326610" lon="34.9624520">
<ele>126.000000</ele>
<time>2017-07-11T06:38:00.000Z</time>
</trkpt>
<trkpt lat="31.9326320" lon="34.9624760">
<ele>125.900002</ele>
<time>2017-07-11T06:38:01.000Z</time>
</trkpt>
<trkpt lat="31.9326030" lon="34.9625000">
<ele>125.700005</ele>
<time>2017-07-11T06:38:02.000Z</time>
</trkpt>
<trkpt lat="31.9325680" lon="34.9625170">
<ele>125.499992</ele>
<time>2017-07-11T06:38:03.000Z</time>
</trkpt>
<trkpt lat="31.9325410" lon="34.9625380">
<ele>125.299995</ele>
<time>2017-07-11T06:38:04.000Z</time>
</trkpt>
<trkpt lat="31.9325100" lon="34.9625670">
<ele>125.200005</ele>
<time>2017-07-11T06:38:06.000Z</time>
</trkpt>
<trkpt lat="31.9324610" lon="34.9626070">
<ele>124.900002</ele>
<time>2017-07-11T06:38:08.000Z</time>
</trkpt>
<trkpt lat="31.9324370" lon="34.9626320">
<ele>124.800003</ele>
<time>2017-07-11T06:38:09.000Z</time>
</trkpt>
<trkpt lat="31.9324100" lon="34.9626540">
<ele>124.600006</ele>
<time>2017-07-11T06:38:10.000Z</time>
</trkpt>
<trkpt lat="31.9323840" lon="34.9626750">
<ele>124.500000</ele>
<time>2017-07-11T06:38:11.000Z</time>
</trkpt>
<trkpt lat="31.9323570" lon="34.9626930">
<ele>124.399994</ele>
<time>2017-07-11T06:38:12.000Z</time>
</trkpt>
<trkpt lat="31.9323250" lon="34.9627210">
<ele>124.300003</ele>
<time>2017-07-11T06:38:13.000Z</time>
</trkpt>
<trkpt lat="31.9322770" lon="34.9627220">
<ele>124.099998</ele>
<time>2017-07-11T06:38:15.000Z</time>
</trkpt>
<trkpt lat="31.9322310" lon="34.9627550">
<ele>124.399994</ele>
<time>2017-07-11T06:38:17.000Z</time>
</trkpt>
<trkpt lat="31.9322030" lon="34.9627780">
<ele>125.200005</ele>
<time>2017-07-11T06:38:18.000Z</time>
</trkpt>
<trkpt lat="31.9321760" lon="34.9627950">
<ele>126.000000</ele>
<time>2017-07-11T06:38:19.000Z</time>
</trkpt>
<trkpt lat="31.9321480" lon="34.9628140">
<ele>126.699997</ele>
<time>2017-07-11T06:38:20.000Z</time>
</trkpt>
<trkpt lat="31.9321200" lon="34.9628350">
<ele>127.400002</ele>
<time>2017-07-11T06:38:21.000Z</time>
</trkpt>
<trkpt lat="31.9320970" lon="34.9628530">
<ele>128.000000</ele>
<time>2017-07-11T06:38:22.000Z</time>
</trkpt>
<trkpt lat="31.9320460" lon="34.9628850">
<ele>129.000000</ele>
<time>2017-07-11T06:38:24.000Z</time>
</trkpt>
<trkpt lat="31.9320110" lon="34.9629180">
<ele>129.699997</ele>
<time>2017-07-11T06:38:25.000Z</time>
</trkpt>
<trkpt lat="31.9319830" lon="34.9629440">
<ele>130.000000</ele>
<time>2017-07-11T06:38:26.000Z</time>
</trkpt>
<trkpt lat="31.9319610" lon="34.9629700">
<ele>130.199997</ele>
<time>2017-07-11T06:38:27.000Z</time>
</trkpt>
<trkpt lat="31.9319280" lon="34.9629920">
<ele>130.400009</ele>
<time>2017-07-11T06:38:28.000Z</time>
</trkpt>
<trkpt lat="31.9318990" lon="34.9630130">
<ele>130.600006</ele>
<time>2017-07-11T06:38:29.000Z</time>
</trkpt>
<trkpt lat="31.9318740" lon="34.9630310">
<ele>130.800003</ele>
<time>2017-07-11T06:38:30.000Z</time>
</trkpt>
<trkpt lat="31.9318490" lon="34.9630430">
<ele>131.000000</ele>
<time>2017-07-11T06:38:31.000Z</time>
</trkpt>
<trkpt lat="31.9318190" lon="34.9630600">
<ele>131.300003</ele>
<time>2017-07-11T06:38:32.000Z</time>
</trkpt>
<trkpt lat="31.9317940" lon="34.9630850">
<ele>131.600006</ele>
<time>2017-07-11T06:38:33.000Z</time>
</trkpt>
<trkpt lat="31.9317700" lon="34.9631100">
<ele>131.800003</ele>
<time>2017-07-11T06:38:34.000Z</time>
</trkpt>
<trkpt lat="31.9317480" lon="34.9631380">
<ele>132.000000</ele>
<time>2017-07-11T06:38:35.000Z</time>
</trkpt>
<trkpt lat="31.9317080" lon="34.9631790">
<ele>132.199997</ele>
<time>2017-07-11T06:38:37.000Z</time>
</trkpt>
<trkpt lat="31.9316760" lon="34.9632190">
<ele>132.400009</ele>
<time>2017-07-11T06:38:39.000Z</time>
</trkpt>
<trkpt lat="31.9316610" lon="34.9632480">
<ele>132.500000</ele>
<time>2017-07-11T06:38:40.000Z</time>
</trkpt>
<trkpt lat="31.9316460" lon="34.9632950">
<ele>132.699997</ele>
<time>2017-07-11T06:38:41.000Z</time>
</trkpt>
<trkpt lat="31.9316280" lon="34.9633370">
<ele>132.899994</ele>
<time>2017-07-11T06:38:42.000Z</time>
</trkpt>
<trkpt lat="31.9316070" lon="34.9633820">
<ele>133.099991</ele>
<time>2017-07-11T06:38:43.000Z</time>
</trkpt>
<trkpt lat="31.9315860" lon="34.9634230">
<ele>133.199997</ele>
<time>2017-07-11T06:38:44.000Z</time>
</trkpt>
<trkpt lat="31.9315680" lon="34.9634600">
<ele>133.399994</ele>
<time>2017-07-11T06:38:45.000Z</time>
</trkpt>
<trkpt lat="31.9315510" lon="34.9635020">
<ele>133.600006</ele>
<time>2017-07-11T06:38:46.000Z</time>
</trkpt>
<trkpt lat="31.9315360" lon="34.9635370">
<ele>133.699997</ele>
<time>2017-07-11T06:38:47.000Z</time>
</trkpt>
<trkpt lat="31.9315250" lon="34.9635960">
<ele>134.000000</ele>
<time>2017-07-11T06:38:49.000Z</time>
</trkpt>
<trkpt lat="31.9315310" lon="34.9636290">
<ele>134.100006</ele>
<time>2017-07-11T06:38:50.000Z</time>
</trkpt>
<trkpt lat="31.9315200" lon="34.9636900">
<ele>134.300003</ele>
<time>2017-07-11T06:38:52.000Z</time>
</trkpt>
<trkpt lat="31.9315190" lon="34.9637480">
<ele>134.500000</ele>
<time>2017-07-11T06:38:54.000Z</time>
</trkpt>
<trkpt lat="31.9315200" lon="34.9637860">
<ele>134.599991</ele>
<time>2017-07-11T06:38:55.000Z</time>
</trkpt>
<trkpt lat="31.9315240" lon="34.9638330">
<ele>134.699997</ele>
<time>2017-07-11T06:38:56.000Z</time>
</trkpt>
<trkpt lat="31.9315250" lon="34.9638770">
<ele>134.899994</ele>
<time>2017-07-11T06:38:57.000Z</time>
</trkpt>
<trkpt lat="31.9315330" lon="34.9639390">
<ele>135.099991</ele>
<time>2017-07-11T06:38:59.000Z</time>
</trkpt>
<trkpt lat="31.9315330" lon="34.9639850">
<ele>135.199997</ele>
<time>2017-07-11T06:39:01.000Z</time>
</trkpt>
<trkpt lat="31.9315390" lon="34.9640320">
<ele>135.399994</ele>
<time>2017-07-11T06:39:03.000Z</time>
</trkpt>
<trkpt lat="31.9315520" lon="34.9640710">
<ele>135.500000</ele>
<time>2017-07-11T06:39:05.000Z</time>
</trkpt>
<trkpt lat="31.9315670" lon="34.9641010">
<ele>135.600006</ele>
<time>2017-07-11T06:39:15.000Z</time>
</trkpt>
<trkpt lat="31.9315950" lon="34.9641380">
<ele>135.800003</ele>
<time>2017-07-11T06:39:17.000Z</time>
</trkpt>
<trkpt lat="31.9317080" lon="34.9641790">
<ele>128.400009</ele>
<time>2017-07-11T06:41:50.000Z</time>
</trkpt>
<trkpt lat="31.9317320" lon="34.9642310">
<ele>125.400002</ele>
<time>2017-07-11T06:41:52.000Z</time>
</trkpt>
<trkpt lat="31.9317440" lon="34.9642600">
<ele>125.599998</ele>
<time>2017-07-11T06:41:53.000Z</time>
</trkpt>
<trkpt lat="31.9317590" lon="34.9642930">
<ele>125.799995</ele>
<time>2017-07-11T06:41:54.000Z</time>
</trkpt>
<trkpt lat="31.9317700" lon="34.9643430">
<ele>126.000000</ele>
<time>2017-07-11T06:41:56.000Z</time>
</trkpt>
<trkpt lat="31.9317890" lon="34.9643960">
<ele>126.300003</ele>
<time>2017-07-11T06:41:58.000Z</time>
</trkpt>
<trkpt lat="31.9317990" lon="34.9644300">
<ele>126.500000</ele>
<time>2017-07-11T06:41:59.000Z</time>
</trkpt>
<trkpt lat="31.9318110" lon="34.9644620">
<ele>126.699997</ele>
<time>2017-07-11T06:42:00.000Z</time>
</trkpt>
<trkpt lat="31.9318270" lon="34.9644940">
<ele>126.900002</ele>
<time>2017-07-11T06:42:01.000Z</time>
</trkpt>
<trkpt lat="31.9318430" lon="34.9645250">
<ele>127.099998</ele>
<time>2017-07-11T06:42:02.000Z</time>
</trkpt>
<trkpt lat="31.9318570" lon="34.9645610">
<ele>127.299995</ele>
<time>2017-07-11T06:42:03.000Z</time>
</trkpt>
<trkpt lat="31.9318700" lon="34.9645940">
<ele>127.500000</ele>
<time>2017-07-11T06:42:04.000Z</time>
</trkpt>
<trkpt lat="31.9318790" lon="34.9646270">
<ele>127.699997</ele>
<time>2017-07-11T06:42:05.000Z</time>
</trkpt>
<trkpt lat="31.9318850" lon="34.9646660">
<ele>127.900002</ele>
<time>2017-07-11T06:42:06.000Z</time>
</trkpt>
<trkpt lat="31.9319050" lon="34.9647270">
<ele>128.100006</ele>
<time>2017-07-11T06:42:08.000Z</time>
</trkpt>
<trkpt lat="31.9319150" lon="34.9647680">
<ele>128.199997</ele>
<time>2017-07-11T06:42:09.000Z</time>
</trkpt>
<trkpt lat="31.9319230" lon="34.9648080">
<ele>128.300003</ele>
<time>2017-07-11T06:42:10.000Z</time>
</trkpt>
<trkpt lat="31.9319330" lon="34.9648520">
<ele>128.400009</ele>
<time>2017-07-11T06:42:11.000Z</time>
</trkpt>
<trkpt lat="31.9319430" lon="34.9648940">
<ele>128.600006</ele>
<time>2017-07-11T06:42:12.000Z</time>
</trkpt>
<trkpt lat="31.9319510" lon="34.9649340">
<ele>128.699997</ele>
<time>2017-07-11T06:42:13.000Z</time>
</trkpt>
<trkpt lat="31.9319560" lon="34.9649780">
<ele>128.800003</ele>
<time>2017-07-11T06:42:14.000Z</time>
</trkpt>
<trkpt lat="31.9319600" lon="34.9650200">
<ele>128.900009</ele>
<time>2017-07-11T06:42:15.000Z</time>
</trkpt>
<trkpt lat="31.9319670" lon="34.9650610">
<ele>129.000000</ele>
<time>2017-07-11T06:42:16.000Z</time>
</trkpt>
<trkpt lat="31.9319750" lon="34.9651020">
<ele>129.000000</ele>
<time>2017-07-11T06:42:17.000Z</time>
</trkpt>
<trkpt lat="31.9319830" lon="34.9651420">
<ele>129.000000</ele>
<time>2017-07-11T06:42:18.000Z</time>
</trkpt>
<trkpt lat="31.9319920" lon="34.9651960">
<ele>129.000000</ele>
<time>2017-07-11T06:42:19.000Z</time>
</trkpt>
<trkpt lat="31.9320070" lon="34.9652640">
<ele>129.000000</ele>
<time>2017-07-11T06:42:20.000Z</time>
</trkpt>
<trkpt lat="31.9320060" lon="34.9653310">
<ele>129.000000</ele>
<time>2017-07-11T06:42:21.000Z</time>
</trkpt>
<trkpt lat="31.9320040" lon="34.9653940">
<ele>129.000000</ele>
<time>2017-07-11T06:42:22.000Z</time>
</trkpt>
<trkpt lat="31.9320030" lon="34.9654440">
<ele>129.000000</ele>
<time>2017-07-11T06:42:23.000Z</time>
</trkpt>
<trkpt lat="31.9320050" lon="34.9654950">
<ele>129.100006</ele>
<time>2017-07-11T06:42:24.000Z</time>
</trkpt>
<trkpt lat="31.9320030" lon="34.9655450">
<ele>129.300003</ele>
<time>2017-07-11T06:42:25.000Z</time>
</trkpt>
<trkpt lat="31.9320040" lon="34.9655860">
<ele>129.500000</ele>
<time>2017-07-11T06:42:26.000Z</time>
</trkpt>
<trkpt lat="31.9320020" lon="34.9656320">
<ele>129.699997</ele>
<time>2017-07-11T06:42:27.000Z</time>
</trkpt>
<trkpt lat="31.9319960" lon="34.9656790">
<ele>129.899994</ele>
<time>2017-07-11T06:42:28.000Z</time>
</trkpt>
<trkpt lat="31.9319920" lon="34.9657250">
<ele>130.100006</ele>
<time>2017-07-11T06:42:29.000Z</time>
</trkpt>
<trkpt lat="31.9319860" lon="34.9657700">
<ele>130.300003</ele>
<time>2017-07-11T06:42:30.000Z</time>
</trkpt>
<trkpt lat="31.9319820" lon="34.9658110">
<ele>130.400009</ele>
<time>2017-07-11T06:42:31.000Z</time>
</trkpt>
<trkpt lat="31.9319810" lon="34.9658480">
<ele>130.600006</ele>
<time>2017-07-11T06:42:32.000Z</time>
</trkpt>
<trkpt lat="31.9319810" lon="34.9658900">
<ele>130.800003</ele>
<time>2017-07-11T06:42:33.000Z</time>
</trkpt>
<trkpt lat="31.9319800" lon="34.9659270">
<ele>131.000000</ele>
<time>2017-07-11T06:42:34.000Z</time>
</trkpt>
<trkpt lat="31.9319750" lon="34.9659660">
<ele>131.199997</ele>
<time>2017-07-11T06:42:35.000Z</time>
</trkpt>
<trkpt lat="31.9319690" lon="34.9660170">
<ele>131.500000</ele>
<time>2017-07-11T06:42:36.000Z</time>
</trkpt>
<trkpt lat="31.9319610" lon="34.9660710">
<ele>131.899994</ele>
<time>2017-07-11T06:42:37.000Z</time>
</trkpt>
<trkpt lat="31.9319530" lon="34.9661190">
<ele>132.199997</ele>
<time>2017-07-11T06:42:38.000Z</time>
</trkpt>
<trkpt lat="31.9319440" lon="34.9661660">
<ele>132.400009</ele>
<time>2017-07-11T06:42:39.000Z</time>
</trkpt>
<trkpt lat="31.9319390" lon="34.9662080">
<ele>132.600006</ele>
<time>2017-07-11T06:42:40.000Z</time>
</trkpt>
<trkpt lat="31.9319320" lon="34.9662470">
<ele>132.800003</ele>
<time>2017-07-11T06:42:41.000Z</time>
</trkpt>
<trkpt lat="31.9319240" lon="34.9662870">
<ele>133.000000</ele>
<time>2017-07-11T06:42:42.000Z</time>
</trkpt>
<trkpt lat="31.9319150" lon="34.9663300">
<ele>133.199997</ele>
<time>2017-07-11T06:42:43.000Z</time>
</trkpt>
<trkpt lat="31.9319070" lon="34.9663720">
<ele>133.399994</ele>
<time>2017-07-11T06:42:44.000Z</time>
</trkpt>
<trkpt lat="31.9318980" lon="34.9664130">
<ele>133.699997</ele>
<time>2017-07-11T06:42:45.000Z</time>
</trkpt>
<trkpt lat="31.9318910" lon="34.9664540">
<ele>133.900009</ele>
<time>2017-07-11T06:42:46.000Z</time>
</trkpt>
<trkpt lat="31.9318810" lon="34.9664960">
<ele>134.100006</ele>
<time>2017-07-11T06:42:47.000Z</time>
</trkpt>
<trkpt lat="31.9318720" lon="34.9665320">
<ele>134.300003</ele>
<time>2017-07-11T06:42:48.000Z</time>
</trkpt>
<trkpt lat="31.9318640" lon="34.9665700">
<ele>134.500000</ele>
<time>2017-07-11T06:42:49.000Z</time>
</trkpt>
<trkpt lat="31.9318530" lon="34.9666110">
<ele>134.899994</ele>
<time>2017-07-11T06:42:50.000Z</time>
</trkpt>
<trkpt lat="31.9318430" lon="34.9666560">
<ele>135.300003</ele>
<time>2017-07-11T06:42:51.000Z</time>
</trkpt>
<trkpt lat="31.9318290" lon="34.9667060">
<ele>135.699997</ele>
<time>2017-07-11T06:42:52.000Z</time>
</trkpt>
<trkpt lat="31.9318140" lon="34.9667620">
<ele>136.000000</ele>
<time>2017-07-11T06:42:53.000Z</time>
</trkpt>
<trkpt lat="31.9317970" lon="34.9668130">
<ele>136.199997</ele>
<time>2017-07-11T06:42:54.000Z</time>
</trkpt>
<trkpt lat="31.9317810" lon="34.9668610">
<ele>136.500000</ele>
<time>2017-07-11T06:42:55.000Z</time>
</trkpt>
<trkpt lat="31.9317630" lon="34.9669090">
<ele>136.699997</ele>
<time>2017-07-11T06:42:56.000Z</time>
</trkpt>
<trkpt lat="31.9317470" lon="34.9669500">
<ele>136.899994</ele>
<time>2017-07-11T06:42:57.000Z</time>
</trkpt>
<trkpt lat="31.9317270" lon="34.9669900">
<ele>137.100006</ele>
<time>2017-07-11T06:42:58.000Z</time>
</trkpt>
<trkpt lat="31.9317080" lon="34.9670310">
<ele>137.300003</ele>
<time>2017-07-11T06:42:59.000Z</time>
</trkpt>
<trkpt lat="31.9316890" lon="34.9670690">
<ele>137.500000</ele>
<time>2017-07-11T06:43:00.000Z</time>
</trkpt>
<trkpt lat="31.9316680" lon="34.9671100">
<ele>137.800003</ele>
<time>2017-07-11T06:43:01.000Z</time>
</trkpt>
<trkpt lat="31.9316500" lon="34.9671440">
<ele>138.099991</ele>
<time>2017-07-11T06:43:02.000Z</time>
</trkpt>
<trkpt lat="31.9316360" lon="34.9671750">
<ele>138.300003</ele>
<time>2017-07-11T06:43:03.000Z</time>
</trkpt>
<trkpt lat="31.9316130" lon="34.9672150">
<ele>138.699997</ele>
<time>2017-07-11T06:43:05.000Z</time>
</trkpt>
<trkpt lat="31.9315960" lon="34.9672420">
<ele>138.899994</ele>
<time>2017-07-11T06:43:07.000Z</time>
</trkpt>
<trkpt lat="31.9315780" lon="34.9672680">
<ele>139.100006</ele>
<time>2017-07-11T06:43:08.000Z</time>
</trkpt>
<trkpt lat="31.9315560" lon="34.9673000">
<ele>139.400009</ele>
<time>2017-07-11T06:43:09.000Z</time>
</trkpt>
<trkpt lat="31.9315280" lon="34.9673440">
<ele>139.800003</ele>
<time>2017-07-11T06:43:10.000Z</time>
</trkpt>
<trkpt lat="31.9314810" lon="34.9674110">
<ele>139.600006</ele>
<time>2017-07-11T06:43:11.000Z</time>
</trkpt>
<trkpt lat="31.9314450" lon="34.9674750">
<ele>139.199997</ele>
<time>2017-07-11T06:43:12.000Z</time>
</trkpt>
<trkpt lat="31.9314150" lon="34.9675190">
<ele>138.699997</ele>
<time>2017-07-11T06:43:13.000Z</time>
</trkpt>
<trkpt lat="31.9313910" lon="34.9675550">
<ele>138.399994</ele>
<time>2017-07-11T06:43:14.000Z</time>
</trkpt>
<trkpt lat="31.9313640" lon="34.9675970">
<ele>138.000000</ele>
<time>2017-07-11T06:43:15.000Z</time>
</trkpt>
<trkpt lat="31.9313350" lon="34.9676400">
<ele>137.699997</ele>
<time>2017-07-11T06:43:16.000Z</time>
</trkpt>
<trkpt lat="31.9313010" lon="34.9676940">
<ele>137.199997</ele>
<time>2017-07-11T06:43:17.000Z</time>
</trkpt>
<trkpt lat="31.9312780" lon="34.9677220">
<ele>136.899994</ele>
<time>2017-07-11T06:43:18.000Z</time>
</trkpt>
<trkpt lat="31.9312340" lon="34.9677700">
<ele>136.500000</ele>
<time>2017-07-11T06:43:20.000Z</time>
</trkpt>
<trkpt lat="31.9312030" lon="34.9678030">
<ele>136.199997</ele>
<time>2017-07-11T06:43:21.000Z</time>
</trkpt>
<trkpt lat="31.9311720" lon="34.9678420">
<ele>136.000000</ele>
<time>2017-07-11T06:43:23.000Z</time>
</trkpt>
<trkpt lat="31.9311540" lon="34.9678670">
<ele>136.100006</ele>
<time>2017-07-11T06:43:25.000Z</time>
</trkpt>
<trkpt lat="31.9311270" lon="34.9678950">
<ele>136.100006</ele>
<time>2017-07-11T06:43:27.000Z</time>
</trkpt>
<trkpt lat="31.9310830" lon="34.9679420">
<ele>136.199997</ele>
<time>2017-07-11T06:43:29.000Z</time>
</trkpt>
<trkpt lat="31.9310550" lon="34.9679760">
<ele>136.199997</ele>
<time>2017-07-11T06:43:30.000Z</time>
</trkpt>
<trkpt lat="31.9310310" lon="34.9680140">
<ele>136.300003</ele>
<time>2017-07-11T06:43:31.000Z</time>
</trkpt>
<trkpt lat="31.9310040" lon="34.9680570">
<ele>136.399994</ele>
<time>2017-07-11T06:43:32.000Z</time>
</trkpt>
<trkpt lat="31.9309790" lon="34.9680960">
<ele>136.500000</ele>
<time>2017-07-11T06:43:33.000Z</time>
</trkpt>
<trkpt lat="31.9309570" lon="34.9681530">
<ele>136.599991</ele>
<time>2017-07-11T06:43:34.000Z</time>
</trkpt>
<trkpt lat="31.9309200" lon="34.9682000">
<ele>136.899994</ele>
<time>2017-07-11T06:43:36.000Z</time>
</trkpt>
<trkpt lat="31.9308930" lon="34.9682300">
<ele>137.000000</ele>
<time>2017-07-11T06:43:37.000Z</time>
</trkpt>
<trkpt lat="31.9308680" lon="34.9682630">
<ele>137.199997</ele>
<time>2017-07-11T06:43:38.000Z</time>
</trkpt>
<trkpt lat="31.9308380" lon="34.9682990">
<ele>137.400009</ele>
<time>2017-07-11T06:43:39.000Z</time>
</trkpt>
<trkpt lat="31.9308090" lon="34.9683310">
<ele>137.500000</ele>
<time>2017-07-11T06:43:40.000Z</time>
</trkpt>
<trkpt lat="31.9307820" lon="34.9683610">
<ele>137.699997</ele>
<time>2017-07-11T06:43:41.000Z</time>
</trkpt>
<trkpt lat="31.9307560" lon="34.9683880">
<ele>137.899994</ele>
<time>2017-07-11T06:43:42.000Z</time>
</trkpt>
<trkpt lat="31.9307320" lon="34.9684130">
<ele>138.099991</ele>
<time>2017-07-11T06:43:43.000Z</time>
</trkpt>
<trkpt lat="31.9307090" lon="34.9684380">
<ele>138.199997</ele>
<time>2017-07-11T06:43:44.000Z</time>
</trkpt>
<trkpt lat="31.9306820" lon="34.9684640">
<ele>138.399994</ele>
<time>2017-07-11T06:43:45.000Z</time>
</trkpt>
<trkpt lat="31.9306550" lon="34.9684900">
<ele>138.699997</ele>
<time>2017-07-11T06:43:46.000Z</time>
</trkpt>
<trkpt lat="31.9306280" lon="34.9685160">
<ele>139.100006</ele>
<time>2017-07-11T06:43:47.000Z</time>
</trkpt>
<trkpt lat="31.9306020" lon="34.9685420">
<ele>139.600006</ele>
<time>2017-07-11T06:43:48.000Z</time>
</trkpt>
<trkpt lat="31.9305740" lon="34.9685720">
<ele>140.199997</ele>
<time>2017-07-11T06:43:49.000Z</time>
</trkpt>
<trkpt lat="31.9305520" lon="34.9685960">
<ele>140.500000</ele>
<time>2017-07-11T06:43:50.000Z</time>
</trkpt>
<trkpt lat="31.9305260" lon="34.9686240">
<ele>140.800003</ele>
<time>2017-07-11T06:43:51.000Z</time>
</trkpt>
<trkpt lat="31.9305000" lon="34.9686520">
<ele>141.000000</ele>
<time>2017-07-11T06:43:52.000Z</time>
</trkpt>
<trkpt lat="31.9304800" lon="34.9686790">
<ele>141.100006</ele>
<time>2017-07-11T06:43:53.000Z</time>
</trkpt>
<trkpt lat="31.9304570" lon="34.9687170">
<ele>141.300003</ele>
<time>2017-07-11T06:43:54.000Z</time>
</trkpt>
<trkpt lat="31.9304370" lon="34.9687510">
<ele>141.500000</ele>
<time>2017-07-11T06:43:55.000Z</time>
</trkpt>
<trkpt lat="31.9304110" lon="34.9688000">
<ele>141.699997</ele>
<time>2017-07-11T06:43:57.000Z</time>
</trkpt>
<trkpt lat="31.9303980" lon="34.9688290">
<ele>141.800003</ele>
<time>2017-07-11T06:43:58.000Z</time>
</trkpt>
<trkpt lat="31.9303780" lon="34.9688920">
<ele>141.899994</ele>
<time>2017-07-11T06:44:00.000Z</time>
</trkpt>
<trkpt lat="31.9303680" lon="34.9689360">
<ele>141.600006</ele>
<time>2017-07-11T06:44:01.000Z</time>
</trkpt>
<trkpt lat="31.9303620" lon="34.9689680">
<ele>141.100006</ele>
<time>2017-07-11T06:44:02.000Z</time>
</trkpt>
<trkpt lat="31.9303570" lon="34.9690010">
<ele>140.699997</ele>
<time>2017-07-11T06:44:03.000Z</time>
</trkpt>
<trkpt lat="31.9303470" lon="34.9690520">
<ele>140.000000</ele>
<time>2017-07-11T06:44:04.000Z</time>
</trkpt>
<trkpt lat="31.9303360" lon="34.9691060">
<ele>139.199997</ele>
<time>2017-07-11T06:44:05.000Z</time>
</trkpt>
<trkpt lat="31.9303280" lon="34.9691480">
<ele>138.599991</ele>
<time>2017-07-11T06:44:06.000Z</time>
</trkpt>
<trkpt lat="31.9303230" lon="34.9691870">
<ele>138.099991</ele>
<time>2017-07-11T06:44:07.000Z</time>
</trkpt>
<trkpt lat="31.9303180" lon="34.9692210">
<ele>137.600006</ele>
<time>2017-07-11T06:44:08.000Z</time>
</trkpt>
<trkpt lat="31.9303160" lon="34.9692540">
<ele>137.100006</ele>
<time>2017-07-11T06:44:09.000Z</time>
</trkpt>
<trkpt lat="31.9303090" lon="34.9693170">
<ele>136.300003</ele>
<time>2017-07-11T06:44:11.000Z</time>
</trkpt>
<trkpt lat="31.9303080" lon="34.9693790">
<ele>135.399994</ele>
<time>2017-07-11T06:44:13.000Z</time>
</trkpt>
<trkpt lat="31.9303080" lon="34.9694110">
<ele>135.000000</ele>
<time>2017-07-11T06:44:14.000Z</time>
</trkpt>
<trkpt lat="31.9303110" lon="34.9694460">
<ele>135.000000</ele>
<time>2017-07-11T06:44:15.000Z</time>
</trkpt>
<trkpt lat="31.9303110" lon="34.9694870">
<ele>135.000000</ele>
<time>2017-07-11T06:44:16.000Z</time>
</trkpt>
<trkpt lat="31.9303130" lon="34.9695350">
<ele>135.000000</ele>
<time>2017-07-11T06:44:17.000Z</time>
</trkpt>
<trkpt lat="31.9303160" lon="34.9695940">
<ele>135.000000</ele>
<time>2017-07-11T06:44:19.000Z</time>
</trkpt>
<trkpt lat="31.9303230" lon="34.9696600">
<ele>135.000000</ele>
<time>2017-07-11T06:44:21.000Z</time>
</trkpt>
<trkpt lat="31.9303260" lon="34.9696940">
<ele>135.000000</ele>
<time>2017-07-11T06:44:22.000Z</time>
</trkpt>
<trkpt lat="31.9303310" lon="34.9697310">
<ele>135.000000</ele>
<time>2017-07-11T06:44:23.000Z</time>
</trkpt>
<trkpt lat="31.9303420" lon="34.9697940">
<ele>135.000000</ele>
<time>2017-07-11T06:44:25.000Z</time>
</trkpt>
<trkpt lat="31.9303460" lon="34.9698270">
<ele>135.000000</ele>
<time>2017-07-11T06:44:26.000Z</time>
</trkpt>
<trkpt lat="31.9303560" lon="34.9698790">
<ele>135.000000</ele>
<time>2017-07-11T06:44:28.000Z</time>
</trkpt>
<trkpt lat="31.9303640" lon="34.9699160">
<ele>135.000000</ele>
<time>2017-07-11T06:44:29.000Z</time>
</trkpt>
<trkpt lat="31.9303710" lon="34.9699480">
<ele>135.000000</ele>
<time>2017-07-11T06:44:30.000Z</time>
</trkpt>
<trkpt lat="31.9303810" lon="34.9699830">
<ele>135.000000</ele>
<time>2017-07-11T06:44:31.000Z</time>
</trkpt>
<trkpt lat="31.9303990" lon="34.9700450">
<ele>135.000000</ele>
<time>2017-07-11T06:44:33.000Z</time>
</trkpt>
<trkpt lat="31.9304080" lon="34.9700760">
<ele>135.000000</ele>
<time>2017-07-11T06:44:34.000Z</time>
</trkpt>
<trkpt lat="31.9304200" lon="34.9701070">
<ele>135.000000</ele>
<time>2017-07-11T06:44:35.000Z</time>
</trkpt>
<trkpt lat="31.9304280" lon="34.9701410">
<ele>135.000000</ele>
<time>2017-07-11T06:44:36.000Z</time>
</trkpt>
<trkpt lat="31.9304370" lon="34.9701760">
<ele>135.099991</ele>
<time>2017-07-11T06:44:37.000Z</time>
</trkpt>
<trkpt lat="31.9304450" lon="34.9702180">
<ele>135.300003</ele>
<time>2017-07-11T06:44:38.000Z</time>
</trkpt>
<trkpt lat="31.9304560" lon="34.9702600">
<ele>135.500000</ele>
<time>2017-07-11T06:44:39.000Z</time>
</trkpt>
<trkpt lat="31.9304650" lon="34.9703020">
<ele>135.600006</ele>
<time>2017-07-11T06:44:40.000Z</time>
</trkpt>
<trkpt lat="31.9304770" lon="34.9703400">
<ele>135.800003</ele>
<time>2017-07-11T06:44:41.000Z</time>
</trkpt>
<trkpt lat="31.9304850" lon="34.9703870">
<ele>136.000000</ele>
<time>2017-07-11T06:44:42.000Z</time>
</trkpt>
<trkpt lat="31.9305000" lon="34.9704460">
<ele>136.199997</ele>
<time>2017-07-11T06:44:43.000Z</time>
</trkpt>
<trkpt lat="31.9305110" lon="34.9704880">
<ele>136.399994</ele>
<time>2017-07-11T06:44:44.000Z</time>
</trkpt>
<trkpt lat="31.9305240" lon="34.9705300">
<ele>136.599991</ele>
<time>2017-07-11T06:44:45.000Z</time>
</trkpt>
<trkpt lat="31.9305340" lon="34.9705670">
<ele>136.699997</ele>
<time>2017-07-11T06:44:46.000Z</time>
</trkpt>
<trkpt lat="31.9305450" lon="34.9706080">
<ele>136.899994</ele>
<time>2017-07-11T06:44:47.000Z</time>
</trkpt>
<trkpt lat="31.9305540" lon="34.9706380">
<ele>137.000000</ele>
<time>2017-07-11T06:44:48.000Z</time>
</trkpt>
<trkpt lat="31.9305640" lon="34.9706700">
<ele>137.100006</ele>
<time>2017-07-11T06:44:49.000Z</time>
</trkpt>
<trkpt lat="31.9305730" lon="34.9707010">
<ele>137.300003</ele>
<time>2017-07-11T06:44:50.000Z</time>
</trkpt>
<trkpt lat="31.9305830" lon="34.9707430">
<ele>137.600006</ele>
<time>2017-07-11T06:44:51.000Z</time>
</trkpt>
<trkpt lat="31.9305930" lon="34.9707790">
<ele>137.899994</ele>
<time>2017-07-11T06:44:52.000Z</time>
</trkpt>
<trkpt lat="31.9306070" lon="34.9708200">
<ele>138.199997</ele>
<time>2017-07-11T06:44:53.000Z</time>
</trkpt>
<trkpt lat="31.9306310" lon="34.9708670">
<ele>138.599991</ele>
<time>2017-07-11T06:44:55.000Z</time>
</trkpt>
<trkpt lat="31.9306570" lon="34.9708990">
<ele>139.000000</ele>
<time>2017-07-11T06:44:57.000Z</time>
</trkpt>
<trkpt lat="31.9306820" lon="34.9709330">
<ele>139.300003</ele>
<time>2017-07-11T06:44:59.000Z</time>
</trkpt>
<trkpt lat="31.9307260" lon="34.9709790">
<ele>139.699997</ele>
<time>2017-07-11T06:45:01.000Z</time>
</trkpt>
<trkpt lat="31.9307510" lon="34.9710000">
<ele>139.899994</ele>
<time>2017-07-11T06:45:02.000Z</time>
</trkpt>
<trkpt lat="31.9307770" lon="34.9710230">
<ele>140.099991</ele>
<time>2017-07-11T06:45:03.000Z</time>
</trkpt>
<trkpt lat="31.9308170" lon="34.9710600">
<ele>140.300003</ele>
<time>2017-07-11T06:45:05.000Z</time>
</trkpt>
<trkpt lat="31.9308500" lon="34.9710900">
<ele>140.500000</ele>
<time>2017-07-11T06:45:07.000Z</time>
</trkpt>
<trkpt lat="31.9308730" lon="34.9711100">
<ele>140.600006</ele>
<time>2017-07-11T06:45:08.000Z</time>
</trkpt>
<trkpt lat="31.9309010" lon="34.9711310">
<ele>140.800003</ele>
<time>2017-07-11T06:45:09.000Z</time>
</trkpt>
<trkpt lat="31.9309300" lon="34.9711500">
<ele>140.900009</ele>
<time>2017-07-11T06:45:10.000Z</time>
</trkpt>
<trkpt lat="31.9309690" lon="34.9711750">
<ele>141.100006</ele>
<time>2017-07-11T06:45:11.000Z</time>
</trkpt>
<trkpt lat="31.9310110" lon="34.9712090">
<ele>141.300003</ele>
<time>2017-07-11T06:45:13.000Z</time>
</trkpt>
<trkpt lat="31.9310540" lon="34.9712530">
<ele>141.600006</ele>
<time>2017-07-11T06:45:15.000Z</time>
</trkpt>
<trkpt lat="31.9310960" lon="34.9712970">
<ele>141.800003</ele>
<time>2017-07-11T06:45:17.000Z</time>
</trkpt>
<trkpt lat="31.9311200" lon="34.9713210">
<ele>142.000000</ele>
<time>2017-07-11T06:45:18.000Z</time>
</trkpt>
<trkpt lat="31.9311510" lon="34.9713450">
<ele>142.199997</ele>
<time>2017-07-11T06:45:19.000Z</time>
</trkpt>
<trkpt lat="31.9311740" lon="34.9713650">
<ele>142.300003</ele>
<time>2017-07-11T06:45:20.000Z</time>
</trkpt>
<trkpt lat="31.9312180" lon="34.9713980">
<ele>142.500000</ele>
<time>2017-07-11T06:45:22.000Z</time>
</trkpt>
<trkpt lat="31.9312630" lon="34.9714360">
<ele>142.800003</ele>
<time>2017-07-11T06:45:24.000Z</time>
</trkpt>
<trkpt lat="31.9312870" lon="34.9714580">
<ele>142.900009</ele>
<time>2017-07-11T06:45:25.000Z</time>
</trkpt>
<trkpt lat="31.9313120" lon="34.9714800">
<ele>143.000000</ele>
<time>2017-07-11T06:45:26.000Z</time>
</trkpt>
<trkpt lat="31.9313380" lon="34.9714970">
<ele>143.199997</ele>
<time>2017-07-11T06:45:27.000Z</time>
</trkpt>
<trkpt lat="31.9313620" lon="34.9715180">
<ele>143.300003</ele>
<time>2017-07-11T06:45:28.000Z</time>
</trkpt>
<trkpt lat="31.9313870" lon="34.9715410">
<ele>143.399994</ele>
<time>2017-07-11T06:45:29.000Z</time>
</trkpt>
<trkpt lat="31.9314140" lon="34.9715640">
<ele>143.500000</ele>
<time>2017-07-11T06:45:30.000Z</time>
</trkpt>
<trkpt lat="31.9314410" lon="34.9715900">
<ele>143.699997</ele>
<time>2017-07-11T06:45:31.000Z</time>
</trkpt>
<trkpt lat="31.9314670" lon="34.9716140">
<ele>143.800003</ele>
<time>2017-07-11T06:45:32.000Z</time>
</trkpt>
<trkpt lat="31.9314920" lon="34.9716340">
<ele>143.899994</ele>
<time>2017-07-11T06:45:33.000Z</time>
</trkpt>
<trkpt lat="31.9315160" lon="34.9716530">
<ele>144.000000</ele>
<time>2017-07-11T06:45:34.000Z</time>
</trkpt>
<trkpt lat="31.9315410" lon="34.9716750">
<ele>144.000000</ele>
<time>2017-07-11T06:45:35.000Z</time>
</trkpt>
<trkpt lat="31.9315660" lon="34.9716990">
<ele>144.100006</ele>
<time>2017-07-11T06:45:36.000Z</time>
</trkpt>
<trkpt lat="31.9315910" lon="34.9717260">
<ele>144.100006</ele>
<time>2017-07-11T06:45:37.000Z</time>
</trkpt>
<trkpt lat="31.9316180" lon="34.9717530">
<ele>144.199997</ele>
<time>2017-07-11T06:45:38.000Z</time>
</trkpt>
<trkpt lat="31.9316430" lon="34.9717840">
<ele>144.199997</ele>
<time>2017-07-11T06:45:39.000Z</time>
</trkpt>
<trkpt lat="31.9316670" lon="34.9718070">
<ele>144.199997</ele>
<time>2017-07-11T06:45:40.000Z</time>
</trkpt>
<trkpt lat="31.9316930" lon="34.9718290">
<ele>144.300003</ele>
<time>2017-07-11T06:45:41.000Z</time>
</trkpt>
<trkpt lat="31.9317180" lon="34.9718500">
<ele>144.300003</ele>
<time>2017-07-11T06:45:42.000Z</time>
</trkpt>
<trkpt lat="31.9317610" lon="34.9718850">
<ele>144.300003</ele>
<time>2017-07-11T06:45:44.000Z</time>
</trkpt>
<trkpt lat="31.9317960" lon="34.9719190">
<ele>144.400009</ele>
<time>2017-07-11T06:45:46.000Z</time>
</trkpt>
<trkpt lat="31.9318350" lon="34.9719620">
<ele>144.400009</ele>
<time>2017-07-11T06:45:48.000Z</time>
</trkpt>
<trkpt lat="31.9318600" lon="34.9719860">
<ele>144.500000</ele>
<time>2017-07-11T06:45:49.000Z</time>
</trkpt>
<trkpt lat="31.9318860" lon="34.9720130">
<ele>144.500000</ele>
<time>2017-07-11T06:45:50.000Z</time>
</trkpt>
<trkpt lat="31.9319100" lon="34.9720370">
<ele>144.600006</ele>
<time>2017-07-11T06:45:51.000Z</time>
</trkpt>
<trkpt lat="31.9319360" lon="34.9720580">
<ele>144.600006</ele>
<time>2017-07-11T06:45:52.000Z</time>
</trkpt>
<trkpt lat="31.9319570" lon="34.9720800">
<ele>144.699997</ele>
<time>2017-07-11T06:45:53.000Z</time>
</trkpt>
<trkpt lat="31.9319820" lon="34.9721030">
<ele>144.699997</ele>
<time>2017-07-11T06:45:54.000Z</time>
</trkpt>
<trkpt lat="31.9320120" lon="34.9721350">
<ele>144.800003</ele>
<time>2017-07-11T06:45:55.000Z</time>
</trkpt>
<trkpt lat="31.9320340" lon="34.9721640">
<ele>144.800003</ele>
<time>2017-07-11T06:45:56.000Z</time>
</trkpt>
<trkpt lat="31.9320520" lon="34.9721960">
<ele>144.800003</ele>
<time>2017-07-11T06:45:57.000Z</time>
</trkpt>
<trkpt lat="31.9320600" lon="34.9722280">
<ele>144.900009</ele>
<time>2017-07-11T06:45:58.000Z</time>
</trkpt>
<trkpt lat="31.9320510" lon="34.9722760">
<ele>144.900009</ele>
<time>2017-07-11T06:46:00.000Z</time>
</trkpt>
<trkpt lat="31.9320410" lon="34.9723190">
<ele>145.100006</ele>
<time>2017-07-11T06:46:02.000Z</time>
</trkpt>
<trkpt lat="31.9320520" lon="34.9723620">
<ele>145.100006</ele>
<time>2017-07-11T06:46:04.000Z</time>
</trkpt>
<trkpt lat="31.9320740" lon="34.9723930">
<ele>145.199997</ele>
<time>2017-07-11T06:46:06.000Z</time>
</trkpt>
<trkpt lat="31.9320950" lon="34.9724280">
<ele>145.399994</ele>
<time>2017-07-11T06:46:08.000Z</time>
</trkpt>
<trkpt lat="31.9321060" lon="34.9724670">
<ele>145.599991</ele>
<time>2017-07-11T06:46:10.000Z</time>
</trkpt>
<trkpt lat="31.9321170" lon="34.9725100">
<ele>145.699997</ele>
<time>2017-07-11T06:46:12.000Z</time>
</trkpt>
<trkpt lat="31.9321280" lon="34.9725470">
<ele>145.899994</ele>
<time>2017-07-11T06:46:14.000Z</time>
</trkpt>
<trkpt lat="31.9321370" lon="34.9725860">
<ele>146.100006</ele>
<time>2017-07-11T06:46:16.000Z</time>
</trkpt>
<trkpt lat="31.9321500" lon="34.9726310">
<ele>146.300003</ele>
<time>2017-07-11T06:46:18.000Z</time>
</trkpt>
<trkpt lat="31.9321610" lon="34.9726690">
<ele>146.400009</ele>
<time>2017-07-11T06:46:20.000Z</time>
</trkpt>
<trkpt lat="31.9321770" lon="34.9727100">
<ele>146.400009</ele>
<time>2017-07-11T06:46:22.000Z</time>
</trkpt>
<trkpt lat="31.9321960" lon="34.9727500">
<ele>146.500000</ele>
<time>2017-07-11T06:46:24.000Z</time>
</trkpt>
<trkpt lat="31.9322180" lon="34.9727970">
<ele>146.600006</ele>
<time>2017-07-11T06:46:27.000Z</time>
</trkpt>
<trkpt lat="31.9322350" lon="34.9728480">
<ele>146.600006</ele>
<time>2017-07-11T06:46:29.000Z</time>
</trkpt>
<trkpt lat="31.9322490" lon="34.9728950">
<ele>146.699997</ele>
<time>2017-07-11T06:46:31.000Z</time>
</trkpt>
<trkpt lat="31.9322650" lon="34.9729350">
<ele>146.699997</ele>
<time>2017-07-11T06:46:33.000Z</time>
</trkpt>
<trkpt lat="31.9322810" lon="34.9729680">
<ele>146.800003</ele>
<time>2017-07-11T06:46:34.000Z</time>
</trkpt>
<trkpt lat="31.9322900" lon="34.9730080">
<ele>146.899994</ele>
<time>2017-07-11T06:46:35.000Z</time>
</trkpt>
<trkpt lat="31.9323000" lon="34.9730510">
<ele>147.000000</ele>
<time>2017-07-11T06:46:37.000Z</time>
</trkpt>
<trkpt lat="31.9323200" lon="34.9731060">
<ele>147.300003</ele>
<time>2017-07-11T06:46:39.000Z</time>
</trkpt>
<trkpt lat="31.9323400" lon="34.9731480">
<ele>147.500000</ele>
<time>2017-07-11T06:46:41.000Z</time>
</trkpt>
<trkpt lat="31.9323590" lon="34.9731930">
<ele>147.699997</ele>
<time>2017-07-11T06:46:43.000Z</time>
</trkpt>
<trkpt lat="31.9323740" lon="34.9732320">
<ele>147.800003</ele>
<time>2017-07-11T06:46:45.000Z</time>
</trkpt>
<trkpt lat="31.9323880" lon="34.9732730">
<ele>147.899994</ele>
<time>2017-07-11T06:46:47.000Z</time>
</trkpt>
<trkpt lat="31.9324090" lon="34.9733210">
<ele>147.899994</ele>
<time>2017-07-11T06:46:49.000Z</time>
</trkpt>
<trkpt lat="31.9324250" lon="34.9733780">
<ele>147.899994</ele>
<time>2017-07-11T06:46:51.000Z</time>
</trkpt>
<trkpt lat="31.9324460" lon="34.9734280">
<ele>148.000000</ele>
<time>2017-07-11T06:46:53.000Z</time>
</trkpt>
<trkpt lat="31.9324590" lon="34.9734590">
<ele>148.000000</ele>
<time>2017-07-11T06:46:54.000Z</time>
</trkpt>
<trkpt lat="31.9324740" lon="34.9734880">
<ele>148.000000</ele>
<time>2017-07-11T06:46:55.000Z</time>
</trkpt>
<trkpt lat="31.9325030" lon="34.9735430">
<ele>148.000000</ele>
<time>2017-07-11T06:46:57.000Z</time>
</trkpt>
<trkpt lat="31.9325200" lon="34.9735770">
<ele>148.000000</ele>
<time>2017-07-11T06:46:58.000Z</time>
</trkpt>
<trkpt lat="31.9325350" lon="34.9736110">
<ele>148.000000</ele>
<time>2017-07-11T06:46:59.000Z</time>
</trkpt>
<trkpt lat="31.9325650" lon="34.9736610">
<ele>148.000000</ele>
<time>2017-07-11T06:47:01.000Z</time>
</trkpt>
<trkpt lat="31.9325800" lon="34.9736880">
<ele>148.000000</ele>
<time>2017-07-11T06:47:02.000Z</time>
</trkpt>
<trkpt lat="31.9325960" lon="34.9737180">
<ele>148.000000</ele>
<time>2017-07-11T06:47:03.000Z</time>
</trkpt>
<trkpt lat="31.9326140" lon="34.9737490">
<ele>148.000000</ele>
<time>2017-07-11T06:47:04.000Z</time>
</trkpt>
<trkpt lat="31.9326450" lon="34.9737980">
<ele>148.000000</ele>
<time>2017-07-11T06:47:06.000Z</time>
</trkpt>
<trkpt lat="31.9326630" lon="34.9738270">
<ele>148.000000</ele>
<time>2017-07-11T06:47:07.000Z</time>
</trkpt>
<trkpt lat="31.9326930" lon="34.9738780">
<ele>148.000000</ele>
<time>2017-07-11T06:47:09.000Z</time>
</trkpt>
<trkpt lat="31.9327110" lon="34.9739070">
<ele>148.000000</ele>
<time>2017-07-11T06:47:10.000Z</time>
</trkpt>
<trkpt lat="31.9327280" lon="34.9739390">
<ele>148.000000</ele>
<time>2017-07-11T06:47:11.000Z</time>
</trkpt>
<trkpt lat="31.9327440" lon="34.9739740">
<ele>148.000000</ele>
<time>2017-07-11T06:47:12.000Z</time>
</trkpt>
<trkpt lat="31.9327580" lon="34.9740040">
<ele>148.000000</ele>
<time>2017-07-11T06:47:13.000Z</time>
</trkpt>
<trkpt lat="31.9327730" lon="34.9740340">
<ele>148.000000</ele>
<time>2017-07-11T06:47:14.000Z</time>
</trkpt>
<trkpt lat="31.9327970" lon="34.9740910">
<ele>148.300003</ele>
<time>2017-07-11T06:47:16.000Z</time>
</trkpt>
<trkpt lat="31.9328100" lon="34.9741270">
<ele>149.000000</ele>
<time>2017-07-11T06:47:17.000Z</time>
</trkpt>
<trkpt lat="31.9328120" lon="34.9741680">
<ele>149.500000</ele>
<time>2017-07-11T06:47:18.000Z</time>
</trkpt>
<trkpt lat="31.9328150" lon="34.9742010">
<ele>149.800003</ele>
<time>2017-07-11T06:47:19.000Z</time>
</trkpt>
<trkpt lat="31.9328130" lon="34.9742370">
<ele>150.100006</ele>
<time>2017-07-11T06:47:20.000Z</time>
</trkpt>
<trkpt lat="31.9328100" lon="34.9742760">
<ele>150.500000</ele>
<time>2017-07-11T06:47:21.000Z</time>
</trkpt>
<trkpt lat="31.9328040" lon="34.9743130">
<ele>150.800003</ele>
<time>2017-07-11T06:47:22.000Z</time>
</trkpt>
<trkpt lat="31.9327980" lon="34.9743440">
<ele>151.099991</ele>
<time>2017-07-11T06:47:23.000Z</time>
</trkpt>
<trkpt lat="31.9327950" lon="34.9744040">
<ele>151.800003</ele>
<time>2017-07-11T06:47:25.000Z</time>
</trkpt>
<trkpt lat="31.9327800" lon="34.9744770">
<ele>153.100006</ele>
<time>2017-07-11T06:47:27.000Z</time>
</trkpt>
<trkpt lat="31.9327720" lon="34.9745330">
<ele>154.100006</ele>
<time>2017-07-11T06:47:29.000Z</time>
</trkpt>
<trkpt lat="31.9327710" lon="34.9745840">
<ele>154.899994</ele>
<time>2017-07-11T06:47:31.000Z</time>
</trkpt>
<trkpt lat="31.9327650" lon="34.9746360">
<ele>155.800003</ele>
<time>2017-07-11T06:47:33.000Z</time>
</trkpt>
<trkpt lat="31.9327530" lon="34.9746940">
<ele>156.699997</ele>
<time>2017-07-11T06:47:35.000Z</time>
</trkpt>
<trkpt lat="31.9327440" lon="34.9747310">
<ele>157.300003</ele>
<time>2017-07-11T06:47:36.000Z</time>
</trkpt>
<trkpt lat="31.9327310" lon="34.9747700">
<ele>157.800003</ele>
<time>2017-07-11T06:47:37.000Z</time>
</trkpt>
<trkpt lat="31.9327170" lon="34.9748120">
<ele>158.400009</ele>
<time>2017-07-11T06:47:38.000Z</time>
</trkpt>
<trkpt lat="31.9327070" lon="34.9748420">
<ele>158.800003</ele>
<time>2017-07-11T06:47:39.000Z</time>
</trkpt>
<trkpt lat="31.9326910" lon="34.9749050">
<ele>159.399994</ele>
<time>2017-07-11T06:47:41.000Z</time>
</trkpt>
<trkpt lat="31.9326840" lon="34.9749370">
<ele>159.600006</ele>
<time>2017-07-11T06:47:42.000Z</time>
</trkpt>
<trkpt lat="31.9326760" lon="34.9749690">
<ele>159.799988</ele>
<time>2017-07-11T06:47:43.000Z</time>
</trkpt>
<trkpt lat="31.9326660" lon="34.9750140">
<ele>160.099991</ele>
<time>2017-07-11T06:47:44.000Z</time>
</trkpt>
<trkpt lat="31.9326600" lon="34.9750470">
<ele>160.300003</ele>
<time>2017-07-11T06:47:45.000Z</time>
</trkpt>
<trkpt lat="31.9326500" lon="34.9751040">
<ele>160.699997</ele>
<time>2017-07-11T06:47:47.000Z</time>
</trkpt>
<trkpt lat="31.9326400" lon="34.9751550">
<ele>160.900009</ele>
<time>2017-07-11T06:47:49.000Z</time>
</trkpt>
<trkpt lat="31.9326260" lon="34.9752030">
<ele>161.199997</ele>
<time>2017-07-11T06:47:51.000Z</time>
</trkpt>
<trkpt lat="31.9326060" lon="34.9752460">
<ele>161.500000</ele>
<time>2017-07-11T06:47:53.000Z</time>
</trkpt>
<trkpt lat="31.9325870" lon="34.9752970">
<ele>161.800003</ele>
<time>2017-07-11T06:47:55.000Z</time>
</trkpt>
<trkpt lat="31.9325760" lon="34.9753310">
<ele>161.999985</ele>
<time>2017-07-11T06:47:56.000Z</time>
</trkpt>
<trkpt lat="31.9325590" lon="34.9753770">
<ele>162.299988</ele>
<time>2017-07-11T06:47:58.000Z</time>
</trkpt>
<trkpt lat="31.9325420" lon="34.9754260">
<ele>162.599991</ele>
<time>2017-07-11T06:48:00.000Z</time>
</trkpt>
<trkpt lat="31.9325240" lon="34.9754820">
<ele>163.199997</ele>
<time>2017-07-11T06:48:02.000Z</time>
</trkpt>
<trkpt lat="31.9325080" lon="34.9755420">
<ele>163.799988</ele>
<time>2017-07-11T06:48:04.000Z</time>
</trkpt>
<trkpt lat="31.9324950" lon="34.9755750">
<ele>164.300003</ele>
<time>2017-07-11T06:48:05.000Z</time>
</trkpt>
<trkpt lat="31.9324810" lon="34.9756110">
<ele>164.899994</ele>
<time>2017-07-11T06:48:06.000Z</time>
</trkpt>
<trkpt lat="31.9324680" lon="34.9756450">
<ele>165.599991</ele>
<time>2017-07-11T06:48:07.000Z</time>
</trkpt>
<trkpt lat="31.9324550" lon="34.9756810">
<ele>166.399994</ele>
<time>2017-07-11T06:48:08.000Z</time>
</trkpt>
<trkpt lat="31.9324450" lon="34.9757220">
<ele>167.300003</ele>
<time>2017-07-11T06:48:09.000Z</time>
</trkpt>
<trkpt lat="31.9324400" lon="34.9757640">
<ele>168.199997</ele>
<time>2017-07-11T06:48:10.000Z</time>
</trkpt>
<trkpt lat="31.9324380" lon="34.9758020">
<ele>168.999985</ele>
<time>2017-07-11T06:48:11.000Z</time>
</trkpt>
<trkpt lat="31.9324380" lon="34.9758360">
<ele>169.800003</ele>
<time>2017-07-11T06:48:12.000Z</time>
</trkpt>
<trkpt lat="31.9324380" lon="34.9758690">
<ele>169.699997</ele>
<time>2017-07-11T06:48:13.000Z</time>
</trkpt>
<trkpt lat="31.9324330" lon="34.9759050">
<ele>169.299988</ele>
<time>2017-07-11T06:48:14.000Z</time>
</trkpt>
<trkpt lat="31.9324300" lon="34.9759370">
<ele>168.999985</ele>
<time>2017-07-11T06:48:15.000Z</time>
</trkpt>
<trkpt lat="31.9324210" lon="34.9759680">
<ele>168.699997</ele>
<time>2017-07-11T06:48:16.000Z</time>
</trkpt>
<trkpt lat="31.9324090" lon="34.9760240">
<ele>168.199997</ele>
<time>2017-07-11T06:48:18.000Z</time>
</trkpt>
<trkpt lat="31.9324030" lon="34.9760810">
<ele>167.699997</ele>
<time>2017-07-11T06:48:20.000Z</time>
</trkpt>
<trkpt lat="31.9323970" lon="34.9761400">
<ele>167.200012</ele>
<time>2017-07-11T06:48:22.000Z</time>
</trkpt>
<trkpt lat="31.9323900" lon="34.9761730">
<ele>167.000000</ele>
<time>2017-07-11T06:48:23.000Z</time>
</trkpt>
<trkpt lat="31.9323820" lon="34.9762050">
<ele>166.800003</ele>
<time>2017-07-11T06:48:24.000Z</time>
</trkpt>
<trkpt lat="31.9323750" lon="34.9762370">
<ele>166.699997</ele>
<time>2017-07-11T06:48:25.000Z</time>
</trkpt>
<trkpt lat="31.9323700" lon="34.9762710">
<ele>166.500000</ele>
<time>2017-07-11T06:48:26.000Z</time>
</trkpt>
<trkpt lat="31.9323550" lon="34.9763110">
<ele>166.300003</ele>
<time>2017-07-11T06:48:27.000Z</time>
</trkpt>
<trkpt lat="31.9323400" lon="34.9763620">
<ele>166.100006</ele>
<time>2017-07-11T06:48:29.000Z</time>
</trkpt>
<trkpt lat="31.9323300" lon="34.9763920">
<ele>165.899994</ele>
<time>2017-07-11T06:48:30.000Z</time>
</trkpt>
<trkpt lat="31.9323130" lon="34.9764490">
<ele>165.599991</ele>
<time>2017-07-11T06:48:32.000Z</time>
</trkpt>
<trkpt lat="31.9323020" lon="34.9764800">
<ele>165.299988</ele>
<time>2017-07-11T06:48:33.000Z</time>
</trkpt>
<trkpt lat="31.9322890" lon="34.9765320">
<ele>165.000000</ele>
<time>2017-07-11T06:48:35.000Z</time>
</trkpt>
<trkpt lat="31.9322700" lon="34.9765820">
<ele>164.500000</ele>
<time>2017-07-11T06:48:37.000Z</time>
</trkpt>
<trkpt lat="31.9322530" lon="34.9766320">
<ele>163.900009</ele>
<time>2017-07-11T06:48:39.000Z</time>
</trkpt>
<trkpt lat="31.9322360" lon="34.9766820">
<ele>163.300003</ele>
<time>2017-07-11T06:48:41.000Z</time>
</trkpt>
<trkpt lat="31.9322180" lon="34.9767260">
<ele>162.800003</ele>
<time>2017-07-11T06:48:43.000Z</time>
</trkpt>
<trkpt lat="31.9321980" lon="34.9767720">
<ele>162.100006</ele>
<time>2017-07-11T06:48:45.000Z</time>
</trkpt>
<trkpt lat="31.9321770" lon="34.9768170">
<ele>161.500000</ele>
<time>2017-07-11T06:48:47.000Z</time>
</trkpt>
<trkpt lat="31.9321470" lon="34.9768620">
<ele>160.699997</ele>
<time>2017-07-11T06:48:49.000Z</time>
</trkpt>
<trkpt lat="31.9321120" lon="34.9769130">
<ele>160.099991</ele>
<time>2017-07-11T06:48:51.000Z</time>
</trkpt>
<trkpt lat="31.9320900" lon="34.9769370">
<ele>159.799988</ele>
<time>2017-07-11T06:48:52.000Z</time>
</trkpt>
<trkpt lat="31.9320710" lon="34.9769610">
<ele>159.500000</ele>
<time>2017-07-11T06:48:53.000Z</time>
</trkpt>
<trkpt lat="31.9320470" lon="34.9770120">
<ele>159.000000</ele>
<time>2017-07-11T06:48:55.000Z</time>
</trkpt>
<trkpt lat="31.9320210" lon="34.9770650">
<ele>159.199997</ele>
<time>2017-07-11T06:48:57.000Z</time>
</trkpt>
<trkpt lat="31.9320090" lon="34.9770960">
<ele>159.300003</ele>
<time>2017-07-11T06:48:58.000Z</time>
</trkpt>
<trkpt lat="31.9319980" lon="34.9771280">
<ele>159.399994</ele>
<time>2017-07-11T06:48:59.000Z</time>
</trkpt>
<trkpt lat="31.9319850" lon="34.9771610">
<ele>159.600006</ele>
<time>2017-07-11T06:49:00.000Z</time>
</trkpt>
<trkpt lat="31.9319730" lon="34.9771960">
<ele>159.699997</ele>
<time>2017-07-11T06:49:01.000Z</time>
</trkpt>
<trkpt lat="31.9319630" lon="34.9772280">
<ele>159.799988</ele>
<time>2017-07-11T06:49:02.000Z</time>
</trkpt>
<trkpt lat="31.9319500" lon="34.9772610">
<ele>160.000000</ele>
<time>2017-07-11T06:49:03.000Z</time>
</trkpt>
<trkpt lat="31.9319360" lon="34.9772920">
<ele>160.099991</ele>
<time>2017-07-11T06:49:04.000Z</time>
</trkpt>
<trkpt lat="31.9319240" lon="34.9773230">
<ele>160.399994</ele>
<time>2017-07-11T06:49:05.000Z</time>
</trkpt>
<trkpt lat="31.9319130" lon="34.9773540">
<ele>160.600006</ele>
<time>2017-07-11T06:49:06.000Z</time>
</trkpt>
<trkpt lat="31.9318980" lon="34.9774070">
<ele>161.100006</ele>
<time>2017-07-11T06:49:08.000Z</time>
</trkpt>
<trkpt lat="31.9318820" lon="34.9774560">
<ele>161.599991</ele>
<time>2017-07-11T06:49:10.000Z</time>
</trkpt>
<trkpt lat="31.9318660" lon="34.9774960">
<ele>161.899994</ele>
<time>2017-07-11T06:49:12.000Z</time>
</trkpt>
<trkpt lat="31.9318450" lon="34.9775480">
<ele>162.199997</ele>
<time>2017-07-11T06:49:14.000Z</time>
</trkpt>
<trkpt lat="31.9318250" lon="34.9776020">
<ele>162.400009</ele>
<time>2017-07-11T06:49:16.000Z</time>
</trkpt>
<trkpt lat="31.9318160" lon="34.9776340">
<ele>162.500000</ele>
<time>2017-07-11T06:49:17.000Z</time>
</trkpt>
<trkpt lat="31.9318060" lon="34.9776660">
<ele>162.599991</ele>
<time>2017-07-11T06:49:18.000Z</time>
</trkpt>
<trkpt lat="31.9317940" lon="34.9777000">
<ele>162.800003</ele>
<time>2017-07-11T06:49:19.000Z</time>
</trkpt>
<trkpt lat="31.9317820" lon="34.9777360">
<ele>162.899994</ele>
<time>2017-07-11T06:49:20.000Z</time>
</trkpt>
<trkpt lat="31.9317650" lon="34.9777920">
<ele>163.000000</ele>
<time>2017-07-11T06:49:22.000Z</time>
</trkpt>
<trkpt lat="31.9317510" lon="34.9778530">
<ele>163.199997</ele>
<time>2017-07-11T06:49:24.000Z</time>
</trkpt>
<trkpt lat="31.9317470" lon="34.9778860">
<ele>163.300003</ele>
<time>2017-07-11T06:49:25.000Z</time>
</trkpt>
<trkpt lat="31.9317340" lon="34.9779490">
<ele>163.399994</ele>
<time>2017-07-11T06:49:27.000Z</time>
</trkpt>
<trkpt lat="31.9317290" lon="34.9779850">
<ele>163.600006</ele>
<time>2017-07-11T06:49:28.000Z</time>
</trkpt>
<trkpt lat="31.9317260" lon="34.9780180">
<ele>163.799988</ele>
<time>2017-07-11T06:49:29.000Z</time>
</trkpt>
<trkpt lat="31.9317270" lon="34.9780510">
<ele>163.900009</ele>
<time>2017-07-11T06:49:30.000Z</time>
</trkpt>
<trkpt lat="31.9317290" lon="34.9781120">
<ele>164.200012</ele>
<time>2017-07-11T06:49:32.000Z</time>
</trkpt>
<trkpt lat="31.9317320" lon="34.9781450">
<ele>164.300003</ele>
<time>2017-07-11T06:49:33.000Z</time>
</trkpt>
<trkpt lat="31.9317330" lon="34.9782010">
<ele>164.600006</ele>
<time>2017-07-11T06:49:35.000Z</time>
</trkpt>
<trkpt lat="31.9317250" lon="34.9782670">
<ele>165.100006</ele>
<time>2017-07-11T06:49:37.000Z</time>
</trkpt>
<trkpt lat="31.9317210" lon="34.9782990">
<ele>165.299988</ele>
<time>2017-07-11T06:49:38.000Z</time>
</trkpt>
<trkpt lat="31.9317210" lon="34.9783550">
<ele>165.800003</ele>
<time>2017-07-11T06:49:40.000Z</time>
</trkpt>
<trkpt lat="31.9317180" lon="34.9783900">
<ele>166.100006</ele>
<time>2017-07-11T06:49:42.000Z</time>
</trkpt>
<trkpt lat="31.9317140" lon="34.9784440">
<ele>166.500000</ele>
<time>2017-07-11T06:49:44.000Z</time>
</trkpt>
<trkpt lat="31.9317220" lon="34.9784990">
<ele>167.000000</ele>
<time>2017-07-11T06:49:46.000Z</time>
</trkpt>
<trkpt lat="31.9317310" lon="34.9785430">
<ele>167.399994</ele>
<time>2017-07-11T06:49:48.000Z</time>
</trkpt>
<trkpt lat="31.9317410" lon="34.9785870">
<ele>167.800003</ele>
<time>2017-07-11T06:49:50.000Z</time>
</trkpt>
<trkpt lat="31.9317500" lon="34.9786240">
<ele>168.100006</ele>
<time>2017-07-11T06:49:52.000Z</time>
</trkpt>
<trkpt lat="31.9317520" lon="34.9786710">
<ele>168.599991</ele>
<time>2017-07-11T06:49:55.000Z</time>
</trkpt>
<trkpt lat="31.9317460" lon="34.9787180">
<ele>168.999985</ele>
<time>2017-07-11T06:49:57.000Z</time>
</trkpt>
<trkpt lat="31.9317520" lon="34.9787690">
<ele>169.500000</ele>
<time>2017-07-11T06:49:59.000Z</time>
</trkpt>
<trkpt lat="31.9317590" lon="34.9788340">
<ele>170.199997</ele>
<time>2017-07-11T06:50:01.000Z</time>
</trkpt>
<trkpt lat="31.9317620" lon="34.9788670">
<ele>170.500000</ele>
<time>2017-07-11T06:50:02.000Z</time>
</trkpt>
<trkpt lat="31.9317640" lon="34.9789000">
<ele>170.799988</ele>
<time>2017-07-11T06:50:03.000Z</time>
</trkpt>
<trkpt lat="31.9317670" lon="34.9789340">
<ele>171.200012</ele>
<time>2017-07-11T06:50:04.000Z</time>
</trkpt>
<trkpt lat="31.9317780" lon="34.9789830">
<ele>171.699997</ele>
<time>2017-07-11T06:50:06.000Z</time>
</trkpt>
<trkpt lat="31.9317830" lon="34.9790220">
<ele>172.100006</ele>
<time>2017-07-11T06:50:07.000Z</time>
</trkpt>
<trkpt lat="31.9317900" lon="34.9790550">
<ele>172.400009</ele>
<time>2017-07-11T06:50:08.000Z</time>
</trkpt>
<trkpt lat="31.9318000" lon="34.9791040">
<ele>172.800003</ele>
<time>2017-07-11T06:50:10.000Z</time>
</trkpt>
<trkpt lat="31.9318040" lon="34.9791520">
<ele>173.199997</ele>
<time>2017-07-11T06:50:12.000Z</time>
</trkpt>
<trkpt lat="31.9318040" lon="34.9791920">
<ele>173.600006</ele>
<time>2017-07-11T06:50:14.000Z</time>
</trkpt>
<trkpt lat="31.9318020" lon="34.9792450">
<ele>174.000000</ele>
<time>2017-07-11T06:50:17.000Z</time>
</trkpt>
<trkpt lat="31.9318000" lon="34.9792890">
<ele>174.300003</ele>
<time>2017-07-11T06:50:19.000Z</time>
</trkpt>
<trkpt lat="31.9318000" lon="34.9793350">
<ele>174.500015</ele>
<time>2017-07-11T06:50:21.000Z</time>
</trkpt>
<trkpt lat="31.9318020" lon="34.9793810">
<ele>174.699997</ele>
<time>2017-07-11T06:50:23.000Z</time>
</trkpt>
<trkpt lat="31.9317960" lon="34.9794150">
<ele>174.900009</ele>
<time>2017-07-11T06:50:25.000Z</time>
</trkpt>
<trkpt lat="31.9317870" lon="34.9794520">
<ele>175.099991</ele>
<time>2017-07-11T06:50:27.000Z</time>
</trkpt>
<trkpt lat="31.9317810" lon="34.9795000">
<ele>175.399994</ele>
<time>2017-07-11T06:50:29.000Z</time>
</trkpt>
<trkpt lat="31.9317800" lon="34.9795330">
<ele>175.699997</ele>
<time>2017-07-11T06:50:30.000Z</time>
</trkpt>
<trkpt lat="31.9317790" lon="34.9795760">
<ele>175.899994</ele>
<time>2017-07-11T06:50:32.000Z</time>
</trkpt>
<trkpt lat="31.9317810" lon="34.9796270">
<ele>176.299988</ele>
<time>2017-07-11T06:50:34.000Z</time>
</trkpt>
<trkpt lat="31.9317790" lon="34.9796700">
<ele>176.599991</ele>
<time>2017-07-11T06:50:36.000Z</time>
</trkpt>
<trkpt lat="31.9317780" lon="34.9797290">
<ele>177.000000</ele>
<time>2017-07-11T06:50:38.000Z</time>
</trkpt>
<trkpt lat="31.9317760" lon="34.9797840">
<ele>177.500000</ele>
<time>2017-07-11T06:50:40.000Z</time>
</trkpt>
<trkpt lat="31.9317740" lon="34.9798350">
<ele>177.900009</ele>
<time>2017-07-11T06:50:42.000Z</time>
</trkpt>
<trkpt lat="31.9317680" lon="34.9798820">
<ele>178.300003</ele>
<time>2017-07-11T06:50:44.000Z</time>
</trkpt>
<trkpt lat="31.9317650" lon="34.9799290">
<ele>178.699997</ele>
<time>2017-07-11T06:50:46.000Z</time>
</trkpt>
<trkpt lat="31.9317640" lon="34.9799710">
<ele>178.800003</ele>
<time>2017-07-11T06:50:48.000Z</time>
</trkpt>
<trkpt lat="31.9317650" lon="34.9800160">
<ele>179.000000</ele>
<time>2017-07-11T06:50:50.000Z</time>
</trkpt>
<trkpt lat="31.9317650" lon="34.9800610">
<ele>179.199997</ele>
<time>2017-07-11T06:50:52.000Z</time>
</trkpt>
<trkpt lat="31.9317610" lon="34.9801090">
<ele>179.400009</ele>
<time>2017-07-11T06:50:54.000Z</time>
</trkpt>
<trkpt lat="31.9317510" lon="34.9801680">
<ele>179.599991</ele>
<time>2017-07-11T06:50:56.000Z</time>
</trkpt>
<trkpt lat="31.9317390" lon="34.9802190">
<ele>179.800003</ele>
<time>2017-07-11T06:50:58.000Z</time>
</trkpt>
<trkpt lat="31.9317270" lon="34.9802670">
<ele>180.000015</ele>
<time>2017-07-11T06:51:00.000Z</time>
</trkpt>
<trkpt lat="31.9317090" lon="34.9803130">
<ele>180.199997</ele>
<time>2017-07-11T06:51:02.000Z</time>
</trkpt>
<trkpt lat="31.9316900" lon="34.9803440">
<ele>180.300003</ele>
<time>2017-07-11T06:51:04.000Z</time>
</trkpt>
<trkpt lat="31.9316660" lon="34.9803800">
<ele>180.500000</ele>
<time>2017-07-11T06:51:06.000Z</time>
</trkpt>
<trkpt lat="31.9316430" lon="34.9804080">
<ele>180.699997</ele>
<time>2017-07-11T06:51:08.000Z</time>
</trkpt>
<trkpt lat="31.9316260" lon="34.9804410">
<ele>180.900009</ele>
<time>2017-07-11T06:51:10.000Z</time>
</trkpt>
<trkpt lat="31.9316140" lon="34.9804790">
<ele>181.099991</ele>
<time>2017-07-11T06:51:12.000Z</time>
</trkpt>
<trkpt lat="31.9315990" lon="34.9805280">
<ele>181.399994</ele>
<time>2017-07-11T06:51:14.000Z</time>
</trkpt>
<trkpt lat="31.9315840" lon="34.9805710">
<ele>183.100006</ele>
<time>2017-07-11T06:51:16.000Z</time>
</trkpt>
<trkpt lat="31.9315960" lon="34.9806080">
<ele>183.199997</ele>
<time>2017-07-11T06:51:19.000Z</time>
</trkpt>
<trkpt lat="31.9316220" lon="34.9806220">
<ele>183.199997</ele>
<time>2017-07-11T06:51:21.000Z</time>
</trkpt>
<trkpt lat="31.9316560" lon="34.9806350">
<ele>183.299988</ele>
<time>2017-07-11T06:51:24.000Z</time>
</trkpt>
<trkpt lat="31.9316900" lon="34.9806360">
<ele>183.299988</ele>
<time>2017-07-11T06:51:27.000Z</time>
</trkpt>
<trkpt lat="31.9317200" lon="34.9806310">
<ele>183.400009</ele>
<time>2017-07-11T06:51:29.000Z</time>
</trkpt>
<trkpt lat="31.9317520" lon="34.9806240">
<ele>183.400009</ele>
<time>2017-07-11T06:51:31.000Z</time>
</trkpt>
<trkpt lat="31.9317820" lon="34.9806180">
<ele>183.500000</ele>
<time>2017-07-11T06:51:33.000Z</time>
</trkpt>
<trkpt lat="31.9318190" lon="34.9806120">
<ele>183.500000</ele>
<time>2017-07-11T06:51:35.000Z</time>
</trkpt>
<trkpt lat="31.9318510" lon="34.9806010">
<ele>183.599991</ele>
<time>2017-07-11T06:51:37.000Z</time>
</trkpt>
<trkpt lat="31.9318880" lon="34.9805820">
<ele>183.599991</ele>
<time>2017-07-11T06:51:39.000Z</time>
</trkpt>
<trkpt lat="31.9319180" lon="34.9805710">
<ele>183.700012</ele>
<time>2017-07-11T06:51:41.000Z</time>
</trkpt>
<trkpt lat="31.9319470" lon="34.9805590">
<ele>183.700012</ele>
<time>2017-07-11T06:51:43.000Z</time>
</trkpt>
<trkpt lat="31.9319760" lon="34.9805500">
<ele>183.700012</ele>
<time>2017-07-11T06:51:45.000Z</time>
</trkpt>
<trkpt lat="31.9320060" lon="34.9805440">
<ele>183.700012</ele>
<time>2017-07-11T06:51:47.000Z</time>
</trkpt>
<trkpt lat="31.9320360" lon="34.9805360">
<ele>183.800003</ele>
<time>2017-07-11T06:51:49.000Z</time>
</trkpt>
<trkpt lat="31.9320720" lon="34.9805300">
<ele>183.800003</ele>
<time>2017-07-11T06:51:52.000Z</time>
</trkpt>
<trkpt lat="31.9321020" lon="34.9805270">
<ele>183.800003</ele>
<time>2017-07-11T06:51:54.000Z</time>
</trkpt>
<trkpt lat="31.9321350" lon="34.9805260">
<ele>183.899994</ele>
<time>2017-07-11T06:51:56.000Z</time>
</trkpt>
<trkpt lat="31.9321720" lon="34.9805300">
<ele>183.899994</ele>
<time>2017-07-11T06:51:58.000Z</time>
</trkpt>
<trkpt lat="31.9322150" lon="34.9805350">
<ele>183.899994</ele>
<time>2017-07-11T06:52:01.000Z</time>
</trkpt>
<trkpt lat="31.9322450" lon="34.9805360">
<ele>184.000000</ele>
<time>2017-07-11T06:52:03.000Z</time>
</trkpt>
<trkpt lat="31.9322820" lon="34.9805560">
<ele>184.000000</ele>
<time>2017-07-11T06:52:06.000Z</time>
</trkpt>
<trkpt lat="31.9323130" lon="34.9805740">
<ele>184.000000</ele>
<time>2017-07-11T06:52:08.000Z</time>
</trkpt>
<trkpt lat="31.9323440" lon="34.9805890">
<ele>184.100006</ele>
<time>2017-07-11T06:52:10.000Z</time>
</trkpt>
<trkpt lat="31.9323870" lon="34.9806070">
<ele>184.199997</ele>
<time>2017-07-11T06:52:13.000Z</time>
</trkpt>
<trkpt lat="31.9324290" lon="34.9806320">
<ele>184.300003</ele>
<time>2017-07-11T06:52:15.000Z</time>
</trkpt>
<trkpt lat="31.9324580" lon="34.9806430">
<ele>184.399994</ele>
<time>2017-07-11T06:52:18.000Z</time>
</trkpt>
<trkpt lat="31.9324940" lon="34.9806510">
<ele>184.500000</ele>
<time>2017-07-11T06:52:20.000Z</time>
</trkpt>
<trkpt lat="31.9325230" lon="34.9806580">
<ele>184.600006</ele>
<time>2017-07-11T06:52:22.000Z</time>
</trkpt>
<trkpt lat="31.9325540" lon="34.9806780">
<ele>184.699997</ele>
<time>2017-07-11T06:52:27.000Z</time>
</trkpt>
<trkpt lat="31.9325990" lon="34.9806920">
<ele>184.900009</ele>
<time>2017-07-11T06:52:30.000Z</time>
</trkpt>
<trkpt lat="31.9326460" lon="34.9807030">
<ele>185.000000</ele>
<time>2017-07-11T06:52:32.000Z</time>
</trkpt>
<trkpt lat="31.9326910" lon="34.9807170">
<ele>185.200012</ele>
<time>2017-07-11T06:52:34.000Z</time>
</trkpt>
<trkpt lat="31.9327180" lon="34.9807260">
<ele>185.300003</ele>
<time>2017-07-11T06:52:37.000Z</time>
</trkpt>
<trkpt lat="31.9327550" lon="34.9807380">
<ele>185.500000</ele>
<time>2017-07-11T06:52:48.000Z</time>
</trkpt>
<trkpt lat="31.9327830" lon="34.9807410">
<ele>185.600006</ele>
<time>2017-07-11T06:52:51.000Z</time>
</trkpt>
<trkpt lat="31.9328100" lon="34.9807460">
<ele>185.600006</ele>
<time>2017-07-11T06:53:13.000Z</time>
</trkpt>
<trkpt lat="31.9328390" lon="34.9807470">
<ele>185.699997</ele>
<time>2017-07-11T06:53:21.000Z</time>
</trkpt>
<trkpt lat="31.9328640" lon="34.9807610">
<ele>185.800003</ele>
<time>2017-07-11T06:54:15.000Z</time>
</trkpt>
<trkpt lat="31.9328410" lon="34.9807830">
<ele>185.800003</ele>
<time>2017-07-11T06:55:05.000Z</time>
</trkpt>
<trkpt lat="31.9328290" lon="34.9807490">
<ele>185.699997</ele>
<time>2017-07-11T06:55:09.000Z</time>
</trkpt>
<trkpt lat="31.9328000" lon="34.9807510">
<ele>185.699997</ele>
<time>2017-07-11T06:55:54.000Z</time>
</trkpt>
<trkpt lat="31.9328250" lon="34.9807640">
<ele>185.600006</ele>
<time>2017-07-11T06:55:58.000Z</time>
</trkpt>
<trkpt lat="31.9328060" lon="34.9807350">
<ele>185.600006</ele>
<time>2017-07-11T06:57:49.000Z</time>
</trkpt>
<trkpt lat="31.9328040" lon="34.9807670">
<ele>185.500000</ele>
<time>2017-07-11T06:58:36.000Z</time>
</trkpt>
<trkpt lat="31.9327830" lon="34.9807890">
<ele>185.500000</ele>
<time>2017-07-11T06:59:02.000Z</time>
</trkpt>
<trkpt lat="31.9327170" lon="34.9808310">
<ele>185.399994</ele>
<time>2017-07-11T06:59:05.000Z</time>
</trkpt>
<trkpt lat="31.9326920" lon="34.9808440">
<ele>185.300003</ele>
<time>2017-07-11T06:59:21.000Z</time>
</trkpt>
<trkpt lat="31.9326980" lon="34.9808130">
<ele>185.399994</ele>
<time>2017-07-11T06:59:34.000Z</time>
</trkpt>
<trkpt lat="31.9327010" lon="34.9807800">
<ele>185.399994</ele>
<time>2017-07-11T07:00:00.000Z</time>
</trkpt>
<trkpt lat="31.9327170" lon="34.9807500">
<ele>185.500000</ele>
<time>2017-07-11T07:00:37.000Z</time>
</trkpt>
<trkpt lat="31.9327470" lon="34.9807350">
<ele>185.600006</ele>
<time>2017-07-11T07:00:40.000Z</time>
</trkpt>
<trkpt lat="31.9327780" lon="34.9807350">
<ele>185.699997</ele>
<time>2017-07-11T07:00:42.000Z</time>
</trkpt>
<trkpt lat="31.9328050" lon="34.9807420">
<ele>185.800003</ele>
<time>2017-07-11T07:00:44.000Z</time>
</trkpt>
<trkpt lat="31.9328390" lon="34.9807360">
<ele>185.900009</ele>
<time>2017-07-11T07:00:47.000Z</time>
</trkpt>
<trkpt lat="31.9328710" lon="34.9807330">
<ele>186.000000</ele>
<time>2017-07-11T07:00:50.000Z</time>
</trkpt>
<trkpt lat="31.9329040" lon="34.9807370">
<ele>186.100006</ele>
<time>2017-07-11T07:00:53.000Z</time>
</trkpt>
<trkpt lat="31.9329420" lon="34.9807380">
<ele>186.199997</ele>
<time>2017-07-11T07:00:56.000Z</time>
</trkpt>
<trkpt lat="31.9329790" lon="34.9807210">
<ele>186.199997</ele>
<time>2017-07-11T07:00:59.000Z</time>
</trkpt>
<trkpt lat="31.9330060" lon="34.9806920">
<ele>186.199997</ele>
<time>2017-07-11T07:01:01.000Z</time>
</trkpt>
<trkpt lat="31.9330340" lon="34.9806790">
<ele>186.199997</ele>
<time>2017-07-11T07:01:04.000Z</time>
</trkpt>
<trkpt lat="31.9330650" lon="34.9806560">
<ele>186.100006</ele>
<time>2017-07-11T07:01:07.000Z</time>
</trkpt>
<trkpt lat="31.9330920" lon="34.9806400">
<ele>186.000000</ele>
<time>2017-07-11T07:01:10.000Z</time>
</trkpt>
<trkpt lat="31.9331170" lon="34.9806200">
<ele>186.000000</ele>
<time>2017-07-11T07:01:13.000Z</time>
</trkpt>
<trkpt lat="31.9331400" lon="34.9805830">
<ele>186.000000</ele>
<time>2017-07-11T07:01:16.000Z</time>
</trkpt>
<trkpt lat="31.9331540" lon="34.9805460">
<ele>186.000000</ele>
<time>2017-07-11T07:01:19.000Z</time>
</trkpt>
<trkpt lat="31.9331550" lon="34.9805110">
<ele>186.000000</ele>
<time>2017-07-11T07:01:22.000Z</time>
</trkpt>
<trkpt lat="31.9331490" lon="34.9804740">
<ele>186.000000</ele>
<time>2017-07-11T07:01:25.000Z</time>
</trkpt>
<trkpt lat="31.9331470" lon="34.9804210">
<ele>186.100006</ele>
<time>2017-07-11T07:01:28.000Z</time>
</trkpt>
<trkpt lat="31.9331410" lon="34.9803790">
<ele>186.100006</ele>
<time>2017-07-11T07:01:30.000Z</time>
</trkpt>
<trkpt lat="31.9331330" lon="34.9803430">
<ele>186.100006</ele>
<time>2017-07-11T07:01:32.000Z</time>
</trkpt>
<trkpt lat="31.9331190" lon="34.9803030">
<ele>186.100006</ele>
<time>2017-07-11T07:01:34.000Z</time>
</trkpt>
<trkpt lat="31.9331050" lon="34.9802650">
<ele>186.100006</ele>
<time>2017-07-11T07:01:36.000Z</time>
</trkpt>
<trkpt lat="31.9330950" lon="34.9802330">
<ele>186.199997</ele>
<time>2017-07-11T07:01:37.000Z</time>
</trkpt>
<trkpt lat="31.9330660" lon="34.9801840">
<ele>186.199997</ele>
<time>2017-07-11T07:01:39.000Z</time>
</trkpt>
<trkpt lat="31.9330510" lon="34.9801500">
<ele>186.300003</ele>
<time>2017-07-11T07:01:40.000Z</time>
</trkpt>
<trkpt lat="31.9330400" lon="34.9801180">
<ele>186.300003</ele>
<time>2017-07-11T07:01:41.000Z</time>
</trkpt>
<trkpt lat="31.9330240" lon="34.9800720">
<ele>186.400009</ele>
<time>2017-07-11T07:01:42.000Z</time>
</trkpt>
<trkpt lat="31.9330030" lon="34.9800250">
<ele>186.599991</ele>
<time>2017-07-11T07:01:43.000Z</time>
</trkpt>
<trkpt lat="31.9329810" lon="34.9799820">
<ele>186.800003</ele>
<time>2017-07-11T07:01:44.000Z</time>
</trkpt>
<trkpt lat="31.9329660" lon="34.9799400">
<ele>187.100006</ele>
<time>2017-07-11T07:01:45.000Z</time>
</trkpt>
<trkpt lat="31.9329500" lon="34.9798990">
<ele>187.400009</ele>
<time>2017-07-11T07:01:46.000Z</time>
</trkpt>
<trkpt lat="31.9329350" lon="34.9798600">
<ele>187.699997</ele>
<time>2017-07-11T07:01:47.000Z</time>
</trkpt>
<trkpt lat="31.9329250" lon="34.9798160">
<ele>187.899994</ele>
<time>2017-07-11T07:01:48.000Z</time>
</trkpt>
<trkpt lat="31.9329250" lon="34.9797720">
<ele>188.099991</ele>
<time>2017-07-11T07:01:49.000Z</time>
</trkpt>
<trkpt lat="31.9329300" lon="34.9797340">
<ele>188.199997</ele>
<time>2017-07-11T07:01:50.000Z</time>
</trkpt>
<trkpt lat="31.9329620" lon="34.9796850">
<ele>188.300003</ele>
<time>2017-07-11T07:01:51.000Z</time>
</trkpt>
<trkpt lat="31.9329890" lon="34.9796400">
<ele>188.300003</ele>
<time>2017-07-11T07:01:52.000Z</time>
</trkpt>
<trkpt lat="31.9330100" lon="34.9795970">
<ele>188.300003</ele>
<time>2017-07-11T07:01:53.000Z</time>
</trkpt>
<trkpt lat="31.9330290" lon="34.9795610">
<ele>188.300003</ele>
<time>2017-07-11T07:01:54.000Z</time>
</trkpt>
<trkpt lat="31.9330420" lon="34.9795320">
<ele>188.399994</ele>
<time>2017-07-11T07:01:55.000Z</time>
</trkpt>
<trkpt lat="31.9330630" lon="34.9794720">
<ele>188.399994</ele>
<time>2017-07-11T07:01:57.000Z</time>
</trkpt>
<trkpt lat="31.9330760" lon="34.9794430">
<ele>188.399994</ele>
<time>2017-07-11T07:01:58.000Z</time>
</trkpt>
<trkpt lat="31.9330980" lon="34.9793980">
<ele>188.399994</ele>
<time>2017-07-11T07:02:00.000Z</time>
</trkpt>
<trkpt lat="31.9331120" lon="34.9793700">
<ele>188.399994</ele>
<time>2017-07-11T07:02:01.000Z</time>
</trkpt>
<trkpt lat="31.9331270" lon="34.9793370">
<ele>188.399994</ele>
<time>2017-07-11T07:02:02.000Z</time>
</trkpt>
<trkpt lat="31.9331450" lon="34.9793050">
<ele>188.300003</ele>
<time>2017-07-11T07:02:03.000Z</time>
</trkpt>
<trkpt lat="31.9331580" lon="34.9792670">
<ele>188.300003</ele>
<time>2017-07-11T07:02:04.000Z</time>
</trkpt>
<trkpt lat="31.9331760" lon="34.9792390">
<ele>188.300003</ele>
<time>2017-07-11T07:02:05.000Z</time>
</trkpt>
<trkpt lat="31.9331980" lon="34.9792140">
<ele>188.300003</ele>
<time>2017-07-11T07:02:06.000Z</time>
</trkpt>
<trkpt lat="31.9332230" lon="34.9791940">
<ele>188.300003</ele>
<time>2017-07-11T07:02:07.000Z</time>
</trkpt>
<trkpt lat="31.9332630" lon="34.9791600">
<ele>188.199997</ele>
<time>2017-07-11T07:02:09.000Z</time>
</trkpt>
<trkpt lat="31.9333100" lon="34.9791270">
<ele>188.199997</ele>
<time>2017-07-11T07:02:11.000Z</time>
</trkpt>
<trkpt lat="31.9333400" lon="34.9791060">
<ele>188.099991</ele>
<time>2017-07-11T07:02:12.000Z</time>
</trkpt>
<trkpt lat="31.9333670" lon="34.9790890">
<ele>188.099991</ele>
<time>2017-07-11T07:02:13.000Z</time>
</trkpt>
<trkpt lat="31.9333960" lon="34.9790760">
<ele>188.099991</ele>
<time>2017-07-11T07:02:14.000Z</time>
</trkpt>
<trkpt lat="31.9334320" lon="34.9790670">
<ele>188.000000</ele>
<time>2017-07-11T07:02:15.000Z</time>
</trkpt>
<trkpt lat="31.9334630" lon="34.9790590">
<ele>188.000000</ele>
<time>2017-07-11T07:02:16.000Z</time>
</trkpt>
<trkpt lat="31.9335010" lon="34.9790520">
<ele>187.699997</ele>
<time>2017-07-11T07:02:17.000Z</time>
</trkpt>
<trkpt lat="31.9335380" lon="34.9790420">
<ele>187.400009</ele>
<time>2017-07-11T07:02:18.000Z</time>
</trkpt>
<trkpt lat="31.9335760" lon="34.9790330">
<ele>187.100006</ele>
<time>2017-07-11T07:02:19.000Z</time>
</trkpt>
<trkpt lat="31.9336080" lon="34.9790230">
<ele>186.800003</ele>
<time>2017-07-11T07:02:20.000Z</time>
</trkpt>
<trkpt lat="31.9336400" lon="34.9790190">
<ele>186.700012</ele>
<time>2017-07-11T07:02:21.000Z</time>
</trkpt>
<trkpt lat="31.9336740" lon="34.9790120">
<ele>186.500000</ele>
<time>2017-07-11T07:02:22.000Z</time>
</trkpt>
<trkpt lat="31.9337030" lon="34.9790000">
<ele>186.400009</ele>
<time>2017-07-11T07:02:23.000Z</time>
</trkpt>
<trkpt lat="31.9337350" lon="34.9789850">
<ele>186.300003</ele>
<time>2017-07-11T07:02:24.000Z</time>
</trkpt>
<trkpt lat="31.9337620" lon="34.9789760">
<ele>186.199997</ele>
<time>2017-07-11T07:02:25.000Z</time>
</trkpt>
<trkpt lat="31.9337910" lon="34.9789660">
<ele>186.199997</ele>
<time>2017-07-11T07:02:26.000Z</time>
</trkpt>
<trkpt lat="31.9338180" lon="34.9789560">
<ele>186.100006</ele>
<time>2017-07-11T07:02:27.000Z</time>
</trkpt>
<trkpt lat="31.9338520" lon="34.9789510">
<ele>186.100006</ele>
<time>2017-07-11T07:02:28.000Z</time>
</trkpt>
<trkpt lat="31.9338910" lon="34.9789420">
<ele>186.100006</ele>
<time>2017-07-11T07:02:29.000Z</time>
</trkpt>
<trkpt lat="31.9339270" lon="34.9789320">
<ele>186.000000</ele>
<time>2017-07-11T07:02:30.000Z</time>
</trkpt>
<trkpt lat="31.9339540" lon="34.9789180">
<ele>186.000000</ele>
<time>2017-07-11T07:02:31.000Z</time>
</trkpt>
<trkpt lat="31.9339860" lon="34.9789010">
<ele>186.000000</ele>
<time>2017-07-11T07:02:32.000Z</time>
</trkpt>
<trkpt lat="31.9340180" lon="34.9788720">
<ele>186.000000</ele>
<time>2017-07-11T07:02:33.000Z</time>
</trkpt>
<trkpt lat="31.9340490" lon="34.9788300">
<ele>186.000000</ele>
<time>2017-07-11T07:02:34.000Z</time>
</trkpt>
<trkpt lat="31.9340670" lon="34.9787790">
<ele>186.000000</ele>
<time>2017-07-11T07:02:35.000Z</time>
</trkpt>
<trkpt lat="31.9340900" lon="34.9787180">
<ele>186.000000</ele>
<time>2017-07-11T07:02:36.000Z</time>
</trkpt>
<trkpt lat="31.9341130" lon="34.9786660">
<ele>186.899994</ele>
<time>2017-07-11T07:02:37.000Z</time>
</trkpt>
<trkpt lat="31.9341310" lon="34.9786280">
<ele>187.699997</ele>
<time>2017-07-11T07:02:38.000Z</time>
</trkpt>
<trkpt lat="31.9341460" lon="34.9785980">
<ele>188.399994</ele>
<time>2017-07-11T07:02:39.000Z</time>
</trkpt>
<trkpt lat="31.9341680" lon="34.9785610">
<ele>189.200012</ele>
<time>2017-07-11T07:02:40.000Z</time>
</trkpt>
<trkpt lat="31.9341840" lon="34.9785160">
<ele>190.100006</ele>
<time>2017-07-11T07:02:41.000Z</time>
</trkpt>
<trkpt lat="31.9341840" lon="34.9784670">
<ele>191.000000</ele>
<time>2017-07-11T07:02:42.000Z</time>
</trkpt>
<trkpt lat="31.9341800" lon="34.9784290">
<ele>191.699997</ele>
<time>2017-07-11T07:02:43.000Z</time>
</trkpt>
<trkpt lat="31.9341790" lon="34.9783900">
<ele>192.399994</ele>
<time>2017-07-11T07:02:44.000Z</time>
</trkpt>
<trkpt lat="31.9341830" lon="34.9783410">
<ele>193.300003</ele>
<time>2017-07-11T07:02:45.000Z</time>
</trkpt>
<trkpt lat="31.9341810" lon="34.9783020">
<ele>194.100006</ele>
<time>2017-07-11T07:02:46.000Z</time>
</trkpt>
<trkpt lat="31.9341830" lon="34.9782620">
<ele>194.800003</ele>
<time>2017-07-11T07:02:47.000Z</time>
</trkpt>
<trkpt lat="31.9341780" lon="34.9782230">
<ele>194.199997</ele>
<time>2017-07-11T07:02:48.000Z</time>
</trkpt>
<trkpt lat="31.9341680" lon="34.9781730">
<ele>193.300003</ele>
<time>2017-07-11T07:02:50.000Z</time>
</trkpt>
<trkpt lat="31.9341560" lon="34.9781380">
<ele>192.699997</ele>
<time>2017-07-11T07:02:51.000Z</time>
</trkpt>
<trkpt lat="31.9341390" lon="34.9781060">
<ele>192.099991</ele>
<time>2017-07-11T07:02:52.000Z</time>
</trkpt>
<trkpt lat="31.9341360" lon="34.9780640">
<ele>191.399994</ele>
<time>2017-07-11T07:02:54.000Z</time>
</trkpt>
<trkpt lat="31.9341290" lon="34.9780110">
<ele>190.500000</ele>
<time>2017-07-11T07:02:56.000Z</time>
</trkpt>
<trkpt lat="31.9341230" lon="34.9779410">
<ele>188.300003</ele>
<time>2017-07-11T07:02:58.000Z</time>
</trkpt>
<trkpt lat="31.9341220" lon="34.9779000">
<ele>187.300003</ele>
<time>2017-07-11T07:02:59.000Z</time>
</trkpt>
<trkpt lat="31.9341130" lon="34.9778360">
<ele>186.199997</ele>
<time>2017-07-11T07:03:01.000Z</time>
</trkpt>
<trkpt lat="31.9341110" lon="34.9778030">
<ele>185.699997</ele>
<time>2017-07-11T07:03:02.000Z</time>
</trkpt>
<trkpt lat="31.9341040" lon="34.9777640">
<ele>185.000000</ele>
<time>2017-07-11T07:03:03.000Z</time>
</trkpt>
<trkpt lat="31.9340970" lon="34.9777220">
<ele>184.199997</ele>
<time>2017-07-11T07:03:04.000Z</time>
</trkpt>
<trkpt lat="31.9340920" lon="34.9776900">
<ele>183.700012</ele>
<time>2017-07-11T07:03:05.000Z</time>
</trkpt>
<trkpt lat="31.9340730" lon="34.9776170">
<ele>182.399994</ele>
<time>2017-07-11T07:03:07.000Z</time>
</trkpt>
<trkpt lat="31.9340640" lon="34.9775790">
<ele>182.000000</ele>
<time>2017-07-11T07:03:08.000Z</time>
</trkpt>
<trkpt lat="31.9340580" lon="34.9775440">
<ele>182.099991</ele>
<time>2017-07-11T07:03:09.000Z</time>
</trkpt>
<trkpt lat="31.9340390" lon="34.9775160">
<ele>182.199997</ele>
<time>2017-07-11T07:03:10.000Z</time>
</trkpt>
<trkpt lat="31.9340170" lon="34.9774610">
<ele>182.300003</ele>
<time>2017-07-11T07:03:12.000Z</time>
</trkpt>
<trkpt lat="31.9340090" lon="34.9774090">
<ele>182.399994</ele>
<time>2017-07-11T07:03:13.000Z</time>
</trkpt>
<trkpt lat="31.9340020" lon="34.9773560">
<ele>182.500000</ele>
<time>2017-07-11T07:03:14.000Z</time>
</trkpt>
<trkpt lat="31.9339930" lon="34.9773150">
<ele>182.600006</ele>
<time>2017-07-11T07:03:15.000Z</time>
</trkpt>
<trkpt lat="31.9339790" lon="34.9772660">
<ele>182.699997</ele>
<time>2017-07-11T07:03:16.000Z</time>
</trkpt>
<trkpt lat="31.9339680" lon="34.9772130">
<ele>182.800003</ele>
<time>2017-07-11T07:03:17.000Z</time>
</trkpt>
<trkpt lat="31.9339570" lon="34.9771580">
<ele>182.899994</ele>
<time>2017-07-11T07:03:18.000Z</time>
</trkpt>
<trkpt lat="31.9339450" lon="34.9771030">
<ele>183.000000</ele>
<time>2017-07-11T07:03:19.000Z</time>
</trkpt>
<trkpt lat="31.9339380" lon="34.9770570">
<ele>183.199997</ele>
<time>2017-07-11T07:03:20.000Z</time>
</trkpt>
<trkpt lat="31.9339270" lon="34.9770120">
<ele>183.400009</ele>
<time>2017-07-11T07:03:21.000Z</time>
</trkpt>
<trkpt lat="31.9339190" lon="34.9769730">
<ele>183.500000</ele>
<time>2017-07-11T07:03:22.000Z</time>
</trkpt>
<trkpt lat="31.9339160" lon="34.9769350">
<ele>183.599991</ele>
<time>2017-07-11T07:03:23.000Z</time>
</trkpt>
<trkpt lat="31.9339170" lon="34.9768970">
<ele>183.700012</ele>
<time>2017-07-11T07:03:24.000Z</time>
</trkpt>
<trkpt lat="31.9339240" lon="34.9768540">
<ele>183.899994</ele>
<time>2017-07-11T07:03:25.000Z</time>
</trkpt>
<trkpt lat="31.9339260" lon="34.9768080">
<ele>184.000000</ele>
<time>2017-07-11T07:03:26.000Z</time>
</trkpt>
<trkpt lat="31.9339290" lon="34.9767490">
<ele>184.100006</ele>
<time>2017-07-11T07:03:27.000Z</time>
</trkpt>
<trkpt lat="31.9339240" lon="34.9766980">
<ele>184.199997</ele>
<time>2017-07-11T07:03:28.000Z</time>
</trkpt>
<trkpt lat="31.9339260" lon="34.9766180">
<ele>184.399994</ele>
<time>2017-07-11T07:03:29.000Z</time>
</trkpt>
<trkpt lat="31.9339430" lon="34.9765350">
<ele>184.500000</ele>
<time>2017-07-11T07:03:30.000Z</time>
</trkpt>
<trkpt lat="31.9339680" lon="34.9764710">
<ele>184.699997</ele>
<time>2017-07-11T07:03:31.000Z</time>
</trkpt>
<trkpt lat="31.9339940" lon="34.9764120">
<ele>184.799988</ele>
<time>2017-07-11T07:03:32.000Z</time>
</trkpt>
<trkpt lat="31.9340200" lon="34.9763580">
<ele>185.000000</ele>
<time>2017-07-11T07:03:33.000Z</time>
</trkpt>
<trkpt lat="31.9340550" lon="34.9763100">
<ele>185.300003</ele>
<time>2017-07-11T07:03:34.000Z</time>
</trkpt>
<trkpt lat="31.9340870" lon="34.9762560">
<ele>185.600006</ele>
<time>2017-07-11T07:03:35.000Z</time>
</trkpt>
<trkpt lat="31.9341200" lon="34.9762200">
<ele>185.800003</ele>
<time>2017-07-11T07:03:36.000Z</time>
</trkpt>
<trkpt lat="31.9341590" lon="34.9761840">
<ele>186.000000</ele>
<time>2017-07-11T07:03:37.000Z</time>
</trkpt>
<trkpt lat="31.9341950" lon="34.9761400">
<ele>186.100006</ele>
<time>2017-07-11T07:03:38.000Z</time>
</trkpt>
<trkpt lat="31.9342370" lon="34.9761080">
<ele>186.300003</ele>
<time>2017-07-11T07:03:39.000Z</time>
</trkpt>
<trkpt lat="31.9342830" lon="34.9760730">
<ele>186.500000</ele>
<time>2017-07-11T07:03:40.000Z</time>
</trkpt>
<trkpt lat="31.9343230" lon="34.9760410">
<ele>186.700012</ele>
<time>2017-07-11T07:03:41.000Z</time>
</trkpt>
<trkpt lat="31.9343540" lon="34.9760200">
<ele>186.899994</ele>
<time>2017-07-11T07:03:42.000Z</time>
</trkpt>
<trkpt lat="31.9343900" lon="34.9760060">
<ele>187.100006</ele>
<time>2017-07-11T07:03:43.000Z</time>
</trkpt>
<trkpt lat="31.9344340" lon="34.9759980">
<ele>187.400009</ele>
<time>2017-07-11T07:03:44.000Z</time>
</trkpt>
<trkpt lat="31.9344790" lon="34.9759900">
<ele>187.599991</ele>
<time>2017-07-11T07:03:45.000Z</time>
</trkpt>
<trkpt lat="31.9345200" lon="34.9759770">
<ele>187.899994</ele>
<time>2017-07-11T07:03:46.000Z</time>
</trkpt>
<trkpt lat="31.9345550" lon="34.9759850">
<ele>188.000000</ele>
<time>2017-07-11T07:03:47.000Z</time>
</trkpt>
<trkpt lat="31.9345870" lon="34.9760030">
<ele>188.099991</ele>
<time>2017-07-11T07:03:48.000Z</time>
</trkpt>
<trkpt lat="31.9346110" lon="34.9760240">
<ele>188.199997</ele>
<time>2017-07-11T07:03:49.000Z</time>
</trkpt>
<trkpt lat="31.9346420" lon="34.9760700">
<ele>188.300003</ele>
<time>2017-07-11T07:03:51.000Z</time>
</trkpt>
<trkpt lat="31.9346690" lon="34.9761230">
<ele>188.399994</ele>
<time>2017-07-11T07:03:53.000Z</time>
</trkpt>
<trkpt lat="31.9346890" lon="34.9761610">
<ele>188.499985</ele>
<time>2017-07-11T07:03:55.000Z</time>
</trkpt>
<trkpt lat="31.9347050" lon="34.9762020">
<ele>188.600006</ele>
<time>2017-07-11T07:03:57.000Z</time>
</trkpt>
<trkpt lat="31.9347190" lon="34.9762530">
<ele>188.799988</ele>
<time>2017-07-11T07:03:59.000Z</time>
</trkpt>
<trkpt lat="31.9347320" lon="34.9762940">
<ele>188.799988</ele>
<time>2017-07-11T07:04:01.000Z</time>
</trkpt>
<trkpt lat="31.9347530" lon="34.9763520">
<ele>188.799988</ele>
<time>2017-07-11T07:04:03.000Z</time>
</trkpt>
<trkpt lat="31.9347710" lon="34.9764040">
<ele>188.900009</ele>
<time>2017-07-11T07:04:05.000Z</time>
</trkpt>
<trkpt lat="31.9347990" lon="34.9764590">
<ele>188.900009</ele>
<time>2017-07-11T07:04:07.000Z</time>
</trkpt>
<trkpt lat="31.9348220" lon="34.9764850">
<ele>189.000000</ele>
<time>2017-07-11T07:04:08.000Z</time>
</trkpt>
<trkpt lat="31.9348510" lon="34.9765460">
<ele>189.000000</ele>
<time>2017-07-11T07:04:10.000Z</time>
</trkpt>
<trkpt lat="31.9348640" lon="34.9765740">
<ele>189.000000</ele>
<time>2017-07-11T07:04:11.000Z</time>
</trkpt>
<trkpt lat="31.9348780" lon="34.9766030">
<ele>189.099991</ele>
<time>2017-07-11T07:04:12.000Z</time>
</trkpt>
<trkpt lat="31.9349050" lon="34.9766570">
<ele>189.099991</ele>
<time>2017-07-11T07:04:14.000Z</time>
</trkpt>
<trkpt lat="31.9349350" lon="34.9767050">
<ele>189.099991</ele>
<time>2017-07-11T07:04:16.000Z</time>
</trkpt>
<trkpt lat="31.9349530" lon="34.9767430">
<ele>189.200012</ele>
<time>2017-07-11T07:04:17.000Z</time>
</trkpt>
<trkpt lat="31.9349670" lon="34.9767800">
<ele>189.200012</ele>
<time>2017-07-11T07:04:18.000Z</time>
</trkpt>
<trkpt lat="31.9349760" lon="34.9768260">
<ele>189.300003</ele>
<time>2017-07-11T07:04:19.000Z</time>
</trkpt>
<trkpt lat="31.9349870" lon="34.9768720">
<ele>189.300003</ele>
<time>2017-07-11T07:04:20.000Z</time>
</trkpt>
<trkpt lat="31.9349990" lon="34.9769210">
<ele>189.300003</ele>
<time>2017-07-11T07:04:21.000Z</time>
</trkpt>
<trkpt lat="31.9350130" lon="34.9769700">
<ele>189.399994</ele>
<time>2017-07-11T07:04:22.000Z</time>
</trkpt>
<trkpt lat="31.9350250" lon="34.9770110">
<ele>189.399994</ele>
<time>2017-07-11T07:04:23.000Z</time>
</trkpt>
<trkpt lat="31.9350330" lon="34.9770510">
<ele>189.500000</ele>
<time>2017-07-11T07:04:24.000Z</time>
</trkpt>
<trkpt lat="31.9350420" lon="34.9770910">
<ele>189.500000</ele>
<time>2017-07-11T07:04:25.000Z</time>
</trkpt>
<trkpt lat="31.9350500" lon="34.9771240">
<ele>189.500000</ele>
<time>2017-07-11T07:04:26.000Z</time>
</trkpt>
<trkpt lat="31.9350590" lon="34.9771740">
<ele>189.600006</ele>
<time>2017-07-11T07:04:27.000Z</time>
</trkpt>
<trkpt lat="31.9350650" lon="34.9772170">
<ele>189.600006</ele>
<time>2017-07-11T07:04:28.000Z</time>
</trkpt>
<trkpt lat="31.9350690" lon="34.9772610">
<ele>189.699997</ele>
<time>2017-07-11T07:04:29.000Z</time>
</trkpt>
<trkpt lat="31.9350880" lon="34.9773250">
<ele>189.800003</ele>
<time>2017-07-11T07:04:31.000Z</time>
</trkpt>
<trkpt lat="31.9351020" lon="34.9773630">
<ele>189.899994</ele>
<time>2017-07-11T07:04:32.000Z</time>
</trkpt>
<trkpt lat="31.9351100" lon="34.9774030">
<ele>190.000000</ele>
<time>2017-07-11T07:04:33.000Z</time>
</trkpt>
<trkpt lat="31.9351190" lon="34.9774580">
<ele>190.199997</ele>
<time>2017-07-11T07:04:34.000Z</time>
</trkpt>
<trkpt lat="31.9351210" lon="34.9775190">
<ele>190.500000</ele>
<time>2017-07-11T07:04:35.000Z</time>
</trkpt>
<trkpt lat="31.9351210" lon="34.9775720">
<ele>190.800003</ele>
<time>2017-07-11T07:04:36.000Z</time>
</trkpt>
<trkpt lat="31.9351150" lon="34.9776210">
<ele>191.100006</ele>
<time>2017-07-11T07:04:37.000Z</time>
</trkpt>
<trkpt lat="31.9351170" lon="34.9776640">
<ele>191.399994</ele>
<time>2017-07-11T07:04:38.000Z</time>
</trkpt>
<trkpt lat="31.9351190" lon="34.9777040">
<ele>191.600006</ele>
<time>2017-07-11T07:04:39.000Z</time>
</trkpt>
<trkpt lat="31.9351170" lon="34.9777460">
<ele>191.699997</ele>
<time>2017-07-11T07:04:40.000Z</time>
</trkpt>
<trkpt lat="31.9351110" lon="34.9777920">
<ele>191.799988</ele>
<time>2017-07-11T07:04:41.000Z</time>
</trkpt>
<trkpt lat="31.9351150" lon="34.9778340">
<ele>191.900009</ele>
<time>2017-07-11T07:04:42.000Z</time>
</trkpt>
<trkpt lat="31.9351200" lon="34.9778710">
<ele>192.000000</ele>
<time>2017-07-11T07:04:43.000Z</time>
</trkpt>
<trkpt lat="31.9351220" lon="34.9779170">
<ele>192.200012</ele>
<time>2017-07-11T07:04:44.000Z</time>
</trkpt>
<trkpt lat="31.9351160" lon="34.9779570">
<ele>192.300003</ele>
<time>2017-07-11T07:04:45.000Z</time>
</trkpt>
<trkpt lat="31.9351080" lon="34.9779990">
<ele>192.399994</ele>
<time>2017-07-11T07:04:46.000Z</time>
</trkpt>
<trkpt lat="31.9351040" lon="34.9780410">
<ele>192.500015</ele>
<time>2017-07-11T07:04:47.000Z</time>
</trkpt>
<trkpt lat="31.9350940" lon="34.9780920">
<ele>192.600006</ele>
<time>2017-07-11T07:04:48.000Z</time>
</trkpt>
<trkpt lat="31.9350910" lon="34.9781360">
<ele>192.800003</ele>
<time>2017-07-11T07:04:49.000Z</time>
</trkpt>
<trkpt lat="31.9350870" lon="34.9781740">
<ele>192.900009</ele>
<time>2017-07-11T07:04:50.000Z</time>
</trkpt>
<trkpt lat="31.9350810" lon="34.9782110">
<ele>193.000000</ele>
<time>2017-07-11T07:04:51.000Z</time>
</trkpt>
<trkpt lat="31.9350780" lon="34.9782460">
<ele>193.100006</ele>
<time>2017-07-11T07:04:52.000Z</time>
</trkpt>
<trkpt lat="31.9350710" lon="34.9782840">
<ele>193.100006</ele>
<time>2017-07-11T07:04:53.000Z</time>
</trkpt>
<trkpt lat="31.9350580" lon="34.9783260">
<ele>193.199997</ele>
<time>2017-07-11T07:04:54.000Z</time>
</trkpt>
<trkpt lat="31.9350480" lon="34.9783690">
<ele>193.199997</ele>
<time>2017-07-11T07:04:55.000Z</time>
</trkpt>
<trkpt lat="31.9350400" lon="34.9784090">
<ele>193.300003</ele>
<time>2017-07-11T07:04:56.000Z</time>
</trkpt>
<trkpt lat="31.9350280" lon="34.9784540">
<ele>193.400009</ele>
<time>2017-07-11T07:04:57.000Z</time>
</trkpt>
<trkpt lat="31.9350110" lon="34.9785020">
<ele>193.500000</ele>
<time>2017-07-11T07:04:58.000Z</time>
</trkpt>
<trkpt lat="31.9350000" lon="34.9785380">
<ele>193.599991</ele>
<time>2017-07-11T07:04:59.000Z</time>
</trkpt>
<trkpt lat="31.9349880" lon="34.9785780">
<ele>193.699997</ele>
<time>2017-07-11T07:05:00.000Z</time>
</trkpt>
<trkpt lat="31.9349820" lon="34.9786150">
<ele>193.899994</ele>
<time>2017-07-11T07:05:01.000Z</time>
</trkpt>
<trkpt lat="31.9349700" lon="34.9786510">
<ele>194.100006</ele>
<time>2017-07-11T07:05:02.000Z</time>
</trkpt>
<trkpt lat="31.9349600" lon="34.9786820">
<ele>194.299988</ele>
<time>2017-07-11T07:05:03.000Z</time>
</trkpt>
<trkpt lat="31.9349470" lon="34.9787150">
<ele>194.500000</ele>
<time>2017-07-11T07:05:04.000Z</time>
</trkpt>
<trkpt lat="31.9349360" lon="34.9787480">
<ele>194.800003</ele>
<time>2017-07-11T07:05:05.000Z</time>
</trkpt>
<trkpt lat="31.9349220" lon="34.9787800">
<ele>195.099991</ele>
<time>2017-07-11T07:05:06.000Z</time>
</trkpt>
<trkpt lat="31.9349080" lon="34.9788130">
<ele>195.399994</ele>
<time>2017-07-11T07:05:07.000Z</time>
</trkpt>
<trkpt lat="31.9348920" lon="34.9788500">
<ele>195.799988</ele>
<time>2017-07-11T07:05:08.000Z</time>
</trkpt>
<trkpt lat="31.9348780" lon="34.9788810">
<ele>196.099991</ele>
<time>2017-07-11T07:05:09.000Z</time>
</trkpt>
<trkpt lat="31.9348510" lon="34.9789330">
<ele>196.699997</ele>
<time>2017-07-11T07:05:11.000Z</time>
</trkpt>
<trkpt lat="31.9348350" lon="34.9789600">
<ele>197.000000</ele>
<time>2017-07-11T07:05:12.000Z</time>
</trkpt>
<trkpt lat="31.9348200" lon="34.9789890">
<ele>197.299988</ele>
<time>2017-07-11T07:05:13.000Z</time>
</trkpt>
<trkpt lat="31.9347980" lon="34.9790450">
<ele>197.899994</ele>
<time>2017-07-11T07:05:15.000Z</time>
</trkpt>
<trkpt lat="31.9347760" lon="34.9790960">
<ele>198.300003</ele>
<time>2017-07-11T07:05:17.000Z</time>
</trkpt>
<trkpt lat="31.9347520" lon="34.9791500">
<ele>198.800003</ele>
<time>2017-07-11T07:05:19.000Z</time>
</trkpt>
<trkpt lat="31.9347330" lon="34.9791920">
<ele>199.000000</ele>
<time>2017-07-11T07:05:21.000Z</time>
</trkpt>
<trkpt lat="31.9347130" lon="34.9792340">
<ele>199.200012</ele>
<time>2017-07-11T07:05:23.000Z</time>
</trkpt>
<trkpt lat="31.9346930" lon="34.9792690">
<ele>199.399994</ele>
<time>2017-07-11T07:05:25.000Z</time>
</trkpt>
<trkpt lat="31.9346680" lon="34.9793010">
<ele>199.600006</ele>
<time>2017-07-11T07:05:27.000Z</time>
</trkpt>
<trkpt lat="31.9346490" lon="34.9793340">
<ele>199.800003</ele>
<time>2017-07-11T07:05:29.000Z</time>
</trkpt>
<trkpt lat="31.9346290" lon="34.9793690">
<ele>199.900009</ele>
<time>2017-07-11T07:05:31.000Z</time>
</trkpt>
<trkpt lat="31.9346070" lon="34.9794080">
<ele>200.099991</ele>
<time>2017-07-11T07:05:33.000Z</time>
</trkpt>
<trkpt lat="31.9345970" lon="34.9794480">
<ele>200.199997</ele>
<time>2017-07-11T07:05:35.000Z</time>
</trkpt>
<trkpt lat="31.9345910" lon="34.9794960">
<ele>200.399994</ele>
<time>2017-07-11T07:05:37.000Z</time>
</trkpt>
<trkpt lat="31.9345880" lon="34.9795350">
<ele>200.500000</ele>
<time>2017-07-11T07:05:39.000Z</time>
</trkpt>
<trkpt lat="31.9345960" lon="34.9795710">
<ele>200.599991</ele>
<time>2017-07-11T07:05:41.000Z</time>
</trkpt>
<trkpt lat="31.9346080" lon="34.9796180">
<ele>200.699997</ele>
<time>2017-07-11T07:05:43.000Z</time>
</trkpt>
<trkpt lat="31.9346150" lon="34.9796650">
<ele>200.800003</ele>
<time>2017-07-11T07:05:45.000Z</time>
</trkpt>
<trkpt lat="31.9346260" lon="34.9797110">
<ele>200.800003</ele>
<time>2017-07-11T07:05:47.000Z</time>
</trkpt>
<trkpt lat="31.9346460" lon="34.9797540">
<ele>200.899994</ele>
<time>2017-07-11T07:05:49.000Z</time>
</trkpt>
<trkpt lat="31.9346640" lon="34.9798150">
<ele>200.899994</ele>
<time>2017-07-11T07:05:51.000Z</time>
</trkpt>
<trkpt lat="31.9346840" lon="34.9798810">
<ele>200.999985</ele>
<time>2017-07-11T07:05:53.000Z</time>
</trkpt>
<trkpt lat="31.9346970" lon="34.9799130">
<ele>201.100006</ele>
<time>2017-07-11T07:05:54.000Z</time>
</trkpt>
<trkpt lat="31.9347060" lon="34.9799440">
<ele>201.100006</ele>
<time>2017-07-11T07:05:55.000Z</time>
</trkpt>
<trkpt lat="31.9347110" lon="34.9799800">
<ele>201.100006</ele>
<time>2017-07-11T07:05:56.000Z</time>
</trkpt>
<trkpt lat="31.9347160" lon="34.9800180">
<ele>201.199997</ele>
<time>2017-07-11T07:05:57.000Z</time>
</trkpt>
<trkpt lat="31.9347210" lon="34.9800630">
<ele>201.199997</ele>
<time>2017-07-11T07:05:58.000Z</time>
</trkpt>
<trkpt lat="31.9347250" lon="34.9801070">
<ele>201.299988</ele>
<time>2017-07-11T07:05:59.000Z</time>
</trkpt>
<trkpt lat="31.9347240" lon="34.9801610">
<ele>201.299988</ele>
<time>2017-07-11T07:06:00.000Z</time>
</trkpt>
<trkpt lat="31.9347220" lon="34.9802040">
<ele>201.400009</ele>
<time>2017-07-11T07:06:01.000Z</time>
</trkpt>
<trkpt lat="31.9347180" lon="34.9802450">
<ele>201.400009</ele>
<time>2017-07-11T07:06:02.000Z</time>
</trkpt>
<trkpt lat="31.9347120" lon="34.9802820">
<ele>201.400009</ele>
<time>2017-07-11T07:06:03.000Z</time>
</trkpt>
<trkpt lat="31.9347000" lon="34.9803480">
<ele>201.500000</ele>
<time>2017-07-11T07:06:05.000Z</time>
</trkpt>
<trkpt lat="31.9346930" lon="34.9803830">
<ele>201.500000</ele>
<time>2017-07-11T07:06:06.000Z</time>
</trkpt>
<trkpt lat="31.9346920" lon="34.9804220">
<ele>201.500000</ele>
<time>2017-07-11T07:06:07.000Z</time>
</trkpt>
<trkpt lat="31.9346880" lon="34.9804660">
<ele>201.500000</ele>
<time>2017-07-11T07:06:08.000Z</time>
</trkpt>
<trkpt lat="31.9346780" lon="34.9805120">
<ele>201.599991</ele>
<time>2017-07-11T07:06:09.000Z</time>
</trkpt>
<trkpt lat="31.9346740" lon="34.9805660">
<ele>201.599991</ele>
<time>2017-07-11T07:06:10.000Z</time>
</trkpt>
<trkpt lat="31.9346730" lon="34.9806160">
<ele>201.599991</ele>
<time>2017-07-11T07:06:11.000Z</time>
</trkpt>
<trkpt lat="31.9346660" lon="34.9806640">
<ele>201.500000</ele>
<time>2017-07-11T07:06:12.000Z</time>
</trkpt>
<trkpt lat="31.9346590" lon="34.9807250">
<ele>201.400009</ele>
<time>2017-07-11T07:06:13.000Z</time>
</trkpt>
<trkpt lat="31.9346490" lon="34.9807890">
<ele>201.299988</ele>
<time>2017-07-11T07:06:14.000Z</time>
</trkpt>
<trkpt lat="31.9346350" lon="34.9808530">
<ele>201.199997</ele>
<time>2017-07-11T07:06:15.000Z</time>
</trkpt>
<trkpt lat="31.9346180" lon="34.9809230">
<ele>201.199997</ele>
<time>2017-07-11T07:06:16.000Z</time>
</trkpt>
<trkpt lat="31.9345990" lon="34.9809970">
<ele>201.199997</ele>
<time>2017-07-11T07:06:17.000Z</time>
</trkpt>
<trkpt lat="31.9345850" lon="34.9810520">
<ele>201.199997</ele>
<time>2017-07-11T07:06:18.000Z</time>
</trkpt>
<trkpt lat="31.9345630" lon="34.9811150">
<ele>201.100006</ele>
<time>2017-07-11T07:06:19.000Z</time>
</trkpt>
<trkpt lat="31.9345450" lon="34.9811720">
<ele>200.899994</ele>
<time>2017-07-11T07:06:20.000Z</time>
</trkpt>
<trkpt lat="31.9345190" lon="34.9812380">
<ele>200.699997</ele>
<time>2017-07-11T07:06:21.000Z</time>
</trkpt>
<trkpt lat="31.9345000" lon="34.9812910">
<ele>200.500000</ele>
<time>2017-07-11T07:06:22.000Z</time>
</trkpt>
<trkpt lat="31.9344880" lon="34.9813370">
<ele>200.500000</ele>
<time>2017-07-11T07:06:23.000Z</time>
</trkpt>
<trkpt lat="31.9344730" lon="34.9813900">
<ele>200.300003</ele>
<time>2017-07-11T07:06:24.000Z</time>
</trkpt>
<trkpt lat="31.9344540" lon="34.9814490">
<ele>200.000000</ele>
<time>2017-07-11T07:06:25.000Z</time>
</trkpt>
<trkpt lat="31.9344510" lon="34.9814920">
<ele>199.900009</ele>
<time>2017-07-11T07:06:26.000Z</time>
</trkpt>
<trkpt lat="31.9344460" lon="34.9815470">
<ele>199.699997</ele>
<time>2017-07-11T07:06:27.000Z</time>
</trkpt>
<trkpt lat="31.9344440" lon="34.9816000">
<ele>199.600006</ele>
<time>2017-07-11T07:06:28.000Z</time>
</trkpt>
<trkpt lat="31.9344450" lon="34.9816430">
<ele>199.399994</ele>
<time>2017-07-11T07:06:29.000Z</time>
</trkpt>
<trkpt lat="31.9344360" lon="34.9816880">
<ele>199.300003</ele>
<time>2017-07-11T07:06:30.000Z</time>
</trkpt>
<trkpt lat="31.9344310" lon="34.9817300">
<ele>199.200012</ele>
<time>2017-07-11T07:06:31.000Z</time>
</trkpt>
<trkpt lat="31.9344330" lon="34.9817700">
<ele>199.099991</ele>
<time>2017-07-11T07:06:32.000Z</time>
</trkpt>
<trkpt lat="31.9344430" lon="34.9818110">
<ele>199.099991</ele>
<time>2017-07-11T07:06:33.000Z</time>
</trkpt>
<trkpt lat="31.9344680" lon="34.9818600">
<ele>198.500000</ele>
<time>2017-07-11T07:06:35.000Z</time>
</trkpt>
<trkpt lat="31.9345020" lon="34.9818620">
<ele>198.199997</ele>
<time>2017-07-11T07:06:36.000Z</time>
</trkpt>
<trkpt lat="31.9345460" lon="34.9818550">
<ele>197.800003</ele>
<time>2017-07-11T07:06:37.000Z</time>
</trkpt>
<trkpt lat="31.9346030" lon="34.9818510">
<ele>196.699997</ele>
<time>2017-07-11T07:06:38.000Z</time>
</trkpt>
<trkpt lat="31.9346590" lon="34.9818350">
<ele>195.799988</ele>
<time>2017-07-11T07:06:39.000Z</time>
</trkpt>
<trkpt lat="31.9347200" lon="34.9818100">
<ele>195.099991</ele>
<time>2017-07-11T07:06:40.000Z</time>
</trkpt>
<trkpt lat="31.9347940" lon="34.9817880">
<ele>194.599991</ele>
<time>2017-07-11T07:06:41.000Z</time>
</trkpt>
<trkpt lat="31.9348630" lon="34.9817690">
<ele>194.100006</ele>
<time>2017-07-11T07:06:42.000Z</time>
</trkpt>
<trkpt lat="31.9349240" lon="34.9817590">
<ele>193.400009</ele>
<time>2017-07-11T07:06:43.000Z</time>
</trkpt>
<trkpt lat="31.9349880" lon="34.9817470">
<ele>192.399994</ele>
<time>2017-07-11T07:06:44.000Z</time>
</trkpt>
<trkpt lat="31.9350560" lon="34.9817280">
<ele>191.500000</ele>
<time>2017-07-11T07:06:45.000Z</time>
</trkpt>
<trkpt lat="31.9351240" lon="34.9817140">
<ele>190.899994</ele>
<time>2017-07-11T07:06:46.000Z</time>
</trkpt>
<trkpt lat="31.9351910" lon="34.9816960">
<ele>190.199997</ele>
<time>2017-07-11T07:06:47.000Z</time>
</trkpt>
<trkpt lat="31.9352550" lon="34.9816740">
<ele>189.300003</ele>
<time>2017-07-11T07:06:48.000Z</time>
</trkpt>
<trkpt lat="31.9353170" lon="34.9816510">
<ele>188.300003</ele>
<time>2017-07-11T07:06:49.000Z</time>
</trkpt>
<trkpt lat="31.9353770" lon="34.9816170">
<ele>187.400009</ele>
<time>2017-07-11T07:06:50.000Z</time>
</trkpt>
<trkpt lat="31.9354320" lon="34.9815820">
<ele>187.000015</ele>
<time>2017-07-11T07:06:51.000Z</time>
</trkpt>
<trkpt lat="31.9354790" lon="34.9815350">
<ele>186.599991</ele>
<time>2017-07-11T07:06:52.000Z</time>
</trkpt>
<trkpt lat="31.9355210" lon="34.9814860">
<ele>186.300003</ele>
<time>2017-07-11T07:06:53.000Z</time>
</trkpt>
<trkpt lat="31.9355660" lon="34.9814370">
<ele>186.000000</ele>
<time>2017-07-11T07:06:54.000Z</time>
</trkpt>
<trkpt lat="31.9356090" lon="34.9813790">
<ele>185.699997</ele>
<time>2017-07-11T07:06:55.000Z</time>
</trkpt>
<trkpt lat="31.9356490" lon="34.9813240">
<ele>185.200012</ele>
<time>2017-07-11T07:06:56.000Z</time>
</trkpt>
<trkpt lat="31.9356820" lon="34.9812690">
<ele>184.600006</ele>
<time>2017-07-11T07:06:57.000Z</time>
</trkpt>
<trkpt lat="31.9357070" lon="34.9812050">
<ele>183.899994</ele>
<time>2017-07-11T07:06:58.000Z</time>
</trkpt>
<trkpt lat="31.9357350" lon="34.9811420">
<ele>183.299988</ele>
<time>2017-07-11T07:06:59.000Z</time>
</trkpt>
<trkpt lat="31.9357610" lon="34.9810790">
<ele>182.800003</ele>
<time>2017-07-11T07:07:00.000Z</time>
</trkpt>
<trkpt lat="31.9357890" lon="34.9810170">
<ele>182.300003</ele>
<time>2017-07-11T07:07:01.000Z</time>
</trkpt>
<trkpt lat="31.9358170" lon="34.9809600">
<ele>182.000000</ele>
<time>2017-07-11T07:07:02.000Z</time>
</trkpt>
<trkpt lat="31.9358500" lon="34.9809110">
<ele>181.600006</ele>
<time>2017-07-11T07:07:03.000Z</time>
</trkpt>
<trkpt lat="31.9358850" lon="34.9808710">
<ele>180.900009</ele>
<time>2017-07-11T07:07:04.000Z</time>
</trkpt>
<trkpt lat="31.9359230" lon="34.9808430">
<ele>180.300003</ele>
<time>2017-07-11T07:07:05.000Z</time>
</trkpt>
<trkpt lat="31.9359620" lon="34.9808390">
<ele>179.899994</ele>
<time>2017-07-11T07:07:06.000Z</time>
</trkpt>
<trkpt lat="31.9360000" lon="34.9808560">
<ele>179.800003</ele>
<time>2017-07-11T07:07:07.000Z</time>
</trkpt>
<trkpt lat="31.9360330" lon="34.9808660">
<ele>179.599991</ele>
<time>2017-07-11T07:07:08.000Z</time>
</trkpt>
<trkpt lat="31.9360720" lon="34.9808570">
<ele>179.400009</ele>
<time>2017-07-11T07:07:09.000Z</time>
</trkpt>
<trkpt lat="31.9361060" lon="34.9808380">
<ele>179.299988</ele>
<time>2017-07-11T07:07:10.000Z</time>
</trkpt>
<trkpt lat="31.9361360" lon="34.9808160">
<ele>179.100006</ele>
<time>2017-07-11T07:07:11.000Z</time>
</trkpt>
<trkpt lat="31.9361630" lon="34.9807930">
<ele>178.899994</ele>
<time>2017-07-11T07:07:12.000Z</time>
</trkpt>
<trkpt lat="31.9361870" lon="34.9807720">
<ele>178.699997</ele>
<time>2017-07-11T07:07:13.000Z</time>
</trkpt>
<trkpt lat="31.9362100" lon="34.9807460">
<ele>178.399994</ele>
<time>2017-07-11T07:07:14.000Z</time>
</trkpt>
<trkpt lat="31.9362410" lon="34.9807140">
<ele>178.000000</ele>
<time>2017-07-11T07:07:15.000Z</time>
</trkpt>
<trkpt lat="31.9362760" lon="34.9806870">
<ele>177.699997</ele>
<time>2017-07-11T07:07:16.000Z</time>
</trkpt>
<trkpt lat="31.9363120" lon="34.9806600">
<ele>177.399994</ele>
<time>2017-07-11T07:07:17.000Z</time>
</trkpt>
<trkpt lat="31.9363510" lon="34.9806410">
<ele>177.100006</ele>
<time>2017-07-11T07:07:18.000Z</time>
</trkpt>
<trkpt lat="31.9363860" lon="34.9806240">
<ele>177.000000</ele>
<time>2017-07-11T07:07:19.000Z</time>
</trkpt>
<trkpt lat="31.9364250" lon="34.9806080">
<ele>176.899994</ele>
<time>2017-07-11T07:07:20.000Z</time>
</trkpt>
<trkpt lat="31.9364610" lon="34.9805920">
<ele>176.800003</ele>
<time>2017-07-11T07:07:21.000Z</time>
</trkpt>
<trkpt lat="31.9364940" lon="34.9805800">
<ele>176.700012</ele>
<time>2017-07-11T07:07:22.000Z</time>
</trkpt>
<trkpt lat="31.9365290" lon="34.9805750">
<ele>176.599991</ele>
<time>2017-07-11T07:07:23.000Z</time>
</trkpt>
<trkpt lat="31.9365600" lon="34.9805730">
<ele>176.599991</ele>
<time>2017-07-11T07:07:24.000Z</time>
</trkpt>
<trkpt lat="31.9365920" lon="34.9805730">
<ele>176.500000</ele>
<time>2017-07-11T07:07:25.000Z</time>
</trkpt>
<trkpt lat="31.9366200" lon="34.9805770">
<ele>176.500000</ele>
<time>2017-07-11T07:07:26.000Z</time>
</trkpt>
<trkpt lat="31.9366470" lon="34.9805880">
<ele>176.400009</ele>
<time>2017-07-11T07:07:27.000Z</time>
</trkpt>
<trkpt lat="31.9366820" lon="34.9806340">
<ele>176.400009</ele>
<time>2017-07-11T07:07:29.000Z</time>
</trkpt>
<trkpt lat="31.9366930" lon="34.9806660">
<ele>176.299988</ele>
<time>2017-07-11T07:07:30.000Z</time>
</trkpt>
<trkpt lat="31.9367000" lon="34.9806980">
<ele>176.299988</ele>
<time>2017-07-11T07:07:31.000Z</time>
</trkpt>
<trkpt lat="31.9367070" lon="34.9807570">
<ele>176.199997</ele>
<time>2017-07-11T07:07:33.000Z</time>
</trkpt>
<trkpt lat="31.9366990" lon="34.9808120">
<ele>176.100006</ele>
<time>2017-07-11T07:07:35.000Z</time>
</trkpt>
<trkpt lat="31.9366860" lon="34.9808550">
<ele>176.100006</ele>
<time>2017-07-11T07:07:37.000Z</time>
</trkpt>
<trkpt lat="31.9366860" lon="34.9808900">
<ele>175.999985</ele>
<time>2017-07-11T07:07:39.000Z</time>
</trkpt>
<trkpt lat="31.9367000" lon="34.9809230">
<ele>175.999985</ele>
<time>2017-07-11T07:07:42.000Z</time>
</trkpt>
<trkpt lat="31.9367380" lon="34.9809420">
<ele>175.199997</ele>
<time>2017-07-11T07:07:45.000Z</time>
</trkpt>
<trkpt lat="31.9367670" lon="34.9809330">
<ele>174.900009</ele>
<time>2017-07-11T07:07:47.000Z</time>
</trkpt>
<trkpt lat="31.9368040" lon="34.9809200">
<ele>174.500015</ele>
<time>2017-07-11T07:07:49.000Z</time>
</trkpt>
<trkpt lat="31.9368480" lon="34.9808960">
<ele>174.099991</ele>
<time>2017-07-11T07:07:51.000Z</time>
</trkpt>
<trkpt lat="31.9368960" lon="34.9808670">
<ele>173.699997</ele>
<time>2017-07-11T07:07:53.000Z</time>
</trkpt>
<trkpt lat="31.9369500" lon="34.9808470">
<ele>173.300003</ele>
<time>2017-07-11T07:07:55.000Z</time>
</trkpt>
<trkpt lat="31.9369790" lon="34.9808330">
<ele>173.100006</ele>
<time>2017-07-11T07:07:56.000Z</time>
</trkpt>
<trkpt lat="31.9370060" lon="34.9808160">
<ele>172.899994</ele>
<time>2017-07-11T07:07:57.000Z</time>
</trkpt>
<trkpt lat="31.9370300" lon="34.9807990">
<ele>172.700012</ele>
<time>2017-07-11T07:07:58.000Z</time>
</trkpt>
<trkpt lat="31.9370530" lon="34.9807810">
<ele>172.400009</ele>
<time>2017-07-11T07:07:59.000Z</time>
</trkpt>
<trkpt lat="31.9370880" lon="34.9807280">
<ele>172.000000</ele>
<time>2017-07-11T07:08:01.000Z</time>
</trkpt>
<trkpt lat="31.9371110" lon="34.9806910">
<ele>171.699997</ele>
<time>2017-07-11T07:08:02.000Z</time>
</trkpt>
<trkpt lat="31.9371370" lon="34.9806510">
<ele>171.300003</ele>
<time>2017-07-11T07:08:03.000Z</time>
</trkpt>
<trkpt lat="31.9371610" lon="34.9806040">
<ele>171.000000</ele>
<time>2017-07-11T07:08:04.000Z</time>
</trkpt>
<trkpt lat="31.9371830" lon="34.9805610">
<ele>170.699997</ele>
<time>2017-07-11T07:08:05.000Z</time>
</trkpt>
<trkpt lat="31.9372080" lon="34.9805220">
<ele>170.399994</ele>
<time>2017-07-11T07:08:06.000Z</time>
</trkpt>
<trkpt lat="31.9372320" lon="34.9804810">
<ele>170.100006</ele>
<time>2017-07-11T07:08:07.000Z</time>
</trkpt>
<trkpt lat="31.9372410" lon="34.9804430">
<ele>170.000000</ele>
<time>2017-07-11T07:08:08.000Z</time>
</trkpt>
<trkpt lat="31.9372470" lon="34.9804010">
<ele>170.000000</ele>
<time>2017-07-11T07:08:09.000Z</time>
</trkpt>
<trkpt lat="31.9372480" lon="34.9803610">
<ele>170.000000</ele>
<time>2017-07-11T07:08:10.000Z</time>
</trkpt>
<trkpt lat="31.9372510" lon="34.9803190">
<ele>170.100006</ele>
<time>2017-07-11T07:08:11.000Z</time>
</trkpt>
<trkpt lat="31.9372530" lon="34.9802720">
<ele>170.100006</ele>
<time>2017-07-11T07:08:12.000Z</time>
</trkpt>
<trkpt lat="31.9372480" lon="34.9802290">
<ele>170.100006</ele>
<time>2017-07-11T07:08:13.000Z</time>
</trkpt>
<trkpt lat="31.9372380" lon="34.9801810">
<ele>170.000000</ele>
<time>2017-07-11T07:08:14.000Z</time>
</trkpt>
<trkpt lat="31.9372260" lon="34.9801200">
<ele>169.800003</ele>
<time>2017-07-11T07:08:15.000Z</time>
</trkpt>
<trkpt lat="31.9372130" lon="34.9800560">
<ele>169.699997</ele>
<time>2017-07-11T07:08:16.000Z</time>
</trkpt>
<trkpt lat="31.9372030" lon="34.9799850">
<ele>169.599991</ele>
<time>2017-07-11T07:08:17.000Z</time>
</trkpt>
<trkpt lat="31.9371890" lon="34.9799150">
<ele>169.599991</ele>
<time>2017-07-11T07:08:18.000Z</time>
</trkpt>
<trkpt lat="31.9371760" lon="34.9798400">
<ele>169.500000</ele>
<time>2017-07-11T07:08:19.000Z</time>
</trkpt>
<trkpt lat="31.9371690" lon="34.9797630">
<ele>169.500000</ele>
<time>2017-07-11T07:08:20.000Z</time>
</trkpt>
<trkpt lat="31.9371570" lon="34.9796900">
<ele>169.400009</ele>
<time>2017-07-11T07:08:21.000Z</time>
</trkpt>
<trkpt lat="31.9371430" lon="34.9796140">
<ele>169.400009</ele>
<time>2017-07-11T07:08:22.000Z</time>
</trkpt>
<trkpt lat="31.9371220" lon="34.9795410">
<ele>169.199997</ele>
<time>2017-07-11T07:08:23.000Z</time>
</trkpt>
<trkpt lat="31.9370950" lon="34.9794770">
<ele>168.899994</ele>
<time>2017-07-11T07:08:24.000Z</time>
</trkpt>
<trkpt lat="31.9370640" lon="34.9794130">
<ele>168.699997</ele>
<time>2017-07-11T07:08:25.000Z</time>
</trkpt>
<trkpt lat="31.9370470" lon="34.9793410">
<ele>168.599991</ele>
<time>2017-07-11T07:08:26.000Z</time>
</trkpt>
<trkpt lat="31.9370330" lon="34.9792580">
<ele>168.500000</ele>
<time>2017-07-11T07:08:27.000Z</time>
</trkpt>
<trkpt lat="31.9370250" lon="34.9791780">
<ele>168.199997</ele>
<time>2017-07-11T07:08:28.000Z</time>
</trkpt>
<trkpt lat="31.9370220" lon="34.9791010">
<ele>168.000000</ele>
<time>2017-07-11T07:08:29.000Z</time>
</trkpt>
<trkpt lat="31.9370280" lon="34.9790220">
<ele>167.900009</ele>
<time>2017-07-11T07:08:30.000Z</time>
</trkpt>
<trkpt lat="31.9370330" lon="34.9789410">
<ele>167.900009</ele>
<time>2017-07-11T07:08:31.000Z</time>
</trkpt>
<trkpt lat="31.9370390" lon="34.9788630">
<ele>167.800003</ele>
<time>2017-07-11T07:08:32.000Z</time>
</trkpt>
<trkpt lat="31.9370450" lon="34.9787850">
<ele>167.800003</ele>
<time>2017-07-11T07:08:33.000Z</time>
</trkpt>
<trkpt lat="31.9370470" lon="34.9787070">
<ele>167.800003</ele>
<time>2017-07-11T07:08:34.000Z</time>
</trkpt>
<trkpt lat="31.9370490" lon="34.9786310">
<ele>167.699997</ele>
<time>2017-07-11T07:08:35.000Z</time>
</trkpt>
<trkpt lat="31.9370550" lon="34.9785550">
<ele>167.699997</ele>
<time>2017-07-11T07:08:36.000Z</time>
</trkpt>
<trkpt lat="31.9370640" lon="34.9784790">
<ele>167.500015</ele>
<time>2017-07-11T07:08:37.000Z</time>
</trkpt>
<trkpt lat="31.9370690" lon="34.9784040">
<ele>167.399994</ele>
<time>2017-07-11T07:08:38.000Z</time>
</trkpt>
<trkpt lat="31.9370770" lon="34.9783310">
<ele>167.300003</ele>
<time>2017-07-11T07:08:39.000Z</time>
</trkpt>
<trkpt lat="31.9370870" lon="34.9782580">
<ele>167.200012</ele>
<time>2017-07-11T07:08:40.000Z</time>
</trkpt>
<trkpt lat="31.9370980" lon="34.9781850">
<ele>167.200012</ele>
<time>2017-07-11T07:08:41.000Z</time>
</trkpt>
<trkpt lat="31.9371080" lon="34.9781110">
<ele>167.099991</ele>
<time>2017-07-11T07:08:42.000Z</time>
</trkpt>
<trkpt lat="31.9371150" lon="34.9780370">
<ele>167.099991</ele>
<time>2017-07-11T07:08:43.000Z</time>
</trkpt>
<trkpt lat="31.9371260" lon="34.9779600">
<ele>167.099991</ele>
<time>2017-07-11T07:08:44.000Z</time>
</trkpt>
<trkpt lat="31.9371350" lon="34.9778860">
<ele>167.000000</ele>
<time>2017-07-11T07:08:45.000Z</time>
</trkpt>
<trkpt lat="31.9371470" lon="34.9778100">
<ele>167.000000</ele>
<time>2017-07-11T07:08:46.000Z</time>
</trkpt>
<trkpt lat="31.9371600" lon="34.9777350">
<ele>167.000000</ele>
<time>2017-07-11T07:08:47.000Z</time>
</trkpt>
<trkpt lat="31.9371690" lon="34.9776760">
<ele>166.800003</ele>
<time>2017-07-11T07:08:48.000Z</time>
</trkpt>
<trkpt lat="31.9371680" lon="34.9776250">
<ele>166.699997</ele>
<time>2017-07-11T07:08:49.000Z</time>
</trkpt>
<trkpt lat="31.9371540" lon="34.9775810">
<ele>166.600006</ele>
<time>2017-07-11T07:08:50.000Z</time>
</trkpt>
<trkpt lat="31.9371220" lon="34.9775470">
<ele>166.500000</ele>
<time>2017-07-11T07:08:51.000Z</time>
</trkpt>
<trkpt lat="31.9370900" lon="34.9775090">
<ele>166.500000</ele>
<time>2017-07-11T07:08:52.000Z</time>
</trkpt>
<trkpt lat="31.9370580" lon="34.9774690">
<ele>166.399994</ele>
<time>2017-07-11T07:08:53.000Z</time>
</trkpt>
<trkpt lat="31.9370230" lon="34.9774250">
<ele>166.300003</ele>
<time>2017-07-11T07:08:54.000Z</time>
</trkpt>
<trkpt lat="31.9369850" lon="34.9773830">
<ele>166.199997</ele>
<time>2017-07-11T07:08:55.000Z</time>
</trkpt>
<trkpt lat="31.9369500" lon="34.9773400">
<ele>166.000000</ele>
<time>2017-07-11T07:08:56.000Z</time>
</trkpt>
<trkpt lat="31.9369120" lon="34.9773060">
<ele>165.700012</ele>
<time>2017-07-11T07:08:57.000Z</time>
</trkpt>
<trkpt lat="31.9368730" lon="34.9772800">
<ele>165.500000</ele>
<time>2017-07-11T07:08:58.000Z</time>
</trkpt>
<trkpt lat="31.9368310" lon="34.9772550">
<ele>165.299988</ele>
<time>2017-07-11T07:08:59.000Z</time>
</trkpt>
<trkpt lat="31.9368040" lon="34.9772170">
<ele>165.199997</ele>
<time>2017-07-11T07:09:00.000Z</time>
</trkpt>
<trkpt lat="31.9367930" lon="34.9771670">
<ele>165.000000</ele>
<time>2017-07-11T07:09:01.000Z</time>
</trkpt>
<trkpt lat="31.9367840" lon="34.9771120">
<ele>165.000000</ele>
<time>2017-07-11T07:09:02.000Z</time>
</trkpt>
<trkpt lat="31.9367710" lon="34.9770560">
<ele>164.899994</ele>
<time>2017-07-11T07:09:03.000Z</time>
</trkpt>
<trkpt lat="31.9367620" lon="34.9770020">
<ele>164.800003</ele>
<time>2017-07-11T07:09:04.000Z</time>
</trkpt>
<trkpt lat="31.9367560" lon="34.9769530">
<ele>164.800003</ele>
<time>2017-07-11T07:09:05.000Z</time>
</trkpt>
<trkpt lat="31.9367500" lon="34.9769050">
<ele>164.699997</ele>
<time>2017-07-11T07:09:06.000Z</time>
</trkpt>
<trkpt lat="31.9367390" lon="34.9768510">
<ele>164.699997</ele>
<time>2017-07-11T07:09:07.000Z</time>
</trkpt>
<trkpt lat="31.9367270" lon="34.9767960">
<ele>164.600006</ele>
<time>2017-07-11T07:09:08.000Z</time>
</trkpt>
<trkpt lat="31.9367170" lon="34.9767400">
<ele>164.600006</ele>
<time>2017-07-11T07:09:09.000Z</time>
</trkpt>
<trkpt lat="31.9367120" lon="34.9766870">
<ele>164.500000</ele>
<time>2017-07-11T07:09:10.000Z</time>
</trkpt>
<trkpt lat="31.9367110" lon="34.9766310">
<ele>164.399994</ele>
<time>2017-07-11T07:09:11.000Z</time>
</trkpt>
<trkpt lat="31.9367160" lon="34.9765660">
<ele>164.399994</ele>
<time>2017-07-11T07:09:12.000Z</time>
</trkpt>
<trkpt lat="31.9367210" lon="34.9765030">
<ele>164.300003</ele>
<time>2017-07-11T07:09:13.000Z</time>
</trkpt>
<trkpt lat="31.9367250" lon="34.9764410">
<ele>164.300003</ele>
<time>2017-07-11T07:09:14.000Z</time>
</trkpt>
<trkpt lat="31.9367340" lon="34.9763730">
<ele>164.200012</ele>
<time>2017-07-11T07:09:15.000Z</time>
</trkpt>
<trkpt lat="31.9367470" lon="34.9763110">
<ele>164.099991</ele>
<time>2017-07-11T07:09:16.000Z</time>
</trkpt>
<trkpt lat="31.9367630" lon="34.9762460">
<ele>164.000000</ele>
<time>2017-07-11T07:09:17.000Z</time>
</trkpt>
<trkpt lat="31.9367820" lon="34.9761870">
<ele>163.900009</ele>
<time>2017-07-11T07:09:18.000Z</time>
</trkpt>
<trkpt lat="31.9368010" lon="34.9761310">
<ele>163.900009</ele>
<time>2017-07-11T07:09:19.000Z</time>
</trkpt>
<trkpt lat="31.9368270" lon="34.9760690">
<ele>163.799988</ele>
<time>2017-07-11T07:09:20.000Z</time>
</trkpt>
<trkpt lat="31.9368500" lon="34.9760110">
<ele>163.799988</ele>
<time>2017-07-11T07:09:21.000Z</time>
</trkpt>
<trkpt lat="31.9368740" lon="34.9759470">
<ele>163.699997</ele>
<time>2017-07-11T07:09:22.000Z</time>
</trkpt>
<trkpt lat="31.9368950" lon="34.9758920">
<ele>163.699997</ele>
<time>2017-07-11T07:09:23.000Z</time>
</trkpt>
<trkpt lat="31.9369150" lon="34.9758430">
<ele>163.600006</ele>
<time>2017-07-11T07:09:24.000Z</time>
</trkpt>
<trkpt lat="31.9369360" lon="34.9757920">
<ele>163.600006</ele>
<time>2017-07-11T07:09:25.000Z</time>
</trkpt>
<trkpt lat="31.9369600" lon="34.9757500">
<ele>163.499985</ele>
<time>2017-07-11T07:09:26.000Z</time>
</trkpt>
<trkpt lat="31.9369860" lon="34.9757160">
<ele>163.499985</ele>
<time>2017-07-11T07:09:27.000Z</time>
</trkpt>
<trkpt lat="31.9370150" lon="34.9756870">
<ele>163.499985</ele>
<time>2017-07-11T07:09:28.000Z</time>
</trkpt>
<trkpt lat="31.9370390" lon="34.9756640">
<ele>163.499985</ele>
<time>2017-07-11T07:09:29.000Z</time>
</trkpt>
<trkpt lat="31.9370660" lon="34.9756480">
<ele>163.499985</ele>
<time>2017-07-11T07:09:30.000Z</time>
</trkpt>
<trkpt lat="31.9370980" lon="34.9756380">
<ele>163.499985</ele>
<time>2017-07-11T07:09:31.000Z</time>
</trkpt>
<trkpt lat="31.9371310" lon="34.9756290">
<ele>163.499985</ele>
<time>2017-07-11T07:09:32.000Z</time>
</trkpt>
<trkpt lat="31.9371630" lon="34.9756250">
<ele>163.499985</ele>
<time>2017-07-11T07:09:33.000Z</time>
</trkpt>
<trkpt lat="31.9371950" lon="34.9756200">
<ele>163.499985</ele>
<time>2017-07-11T07:09:34.000Z</time>
</trkpt>
<trkpt lat="31.9372460" lon="34.9756270">
<ele>163.600006</ele>
<time>2017-07-11T07:09:36.000Z</time>
</trkpt>
<trkpt lat="31.9372740" lon="34.9756400">
<ele>163.600006</ele>
<time>2017-07-11T07:09:37.000Z</time>
</trkpt>
<trkpt lat="31.9373020" lon="34.9756530">
<ele>163.699997</ele>
<time>2017-07-11T07:09:38.000Z</time>
</trkpt>
<trkpt lat="31.9373490" lon="34.9756630">
<ele>163.799988</ele>
<time>2017-07-11T07:09:40.000Z</time>
</trkpt>
<trkpt lat="31.9373910" lon="34.9756660">
<ele>164.000000</ele>
<time>2017-07-11T07:09:42.000Z</time>
</trkpt>
<trkpt lat="31.9374350" lon="34.9756630">
<ele>164.099991</ele>
<time>2017-07-11T07:09:44.000Z</time>
</trkpt>
<trkpt lat="31.9374700" lon="34.9756570">
<ele>164.200012</ele>
<time>2017-07-11T07:09:46.000Z</time>
</trkpt>
<trkpt lat="31.9375050" lon="34.9756480">
<ele>164.300003</ele>
<time>2017-07-11T07:09:48.000Z</time>
</trkpt>
<trkpt lat="31.9375430" lon="34.9756370">
<ele>164.500000</ele>
<time>2017-07-11T07:09:50.000Z</time>
</trkpt>
<trkpt lat="31.9375780" lon="34.9756190">
<ele>164.600006</ele>
<time>2017-07-11T07:09:52.000Z</time>
</trkpt>
<trkpt lat="31.9376110" lon="34.9756050">
<ele>164.800003</ele>
<time>2017-07-11T07:09:54.000Z</time>
</trkpt>
<trkpt lat="31.9376460" lon="34.9755740">
<ele>165.199997</ele>
<time>2017-07-11T07:09:56.000Z</time>
</trkpt>
<trkpt lat="31.9376740" lon="34.9755470">
<ele>165.800003</ele>
<time>2017-07-11T07:09:58.000Z</time>
</trkpt>
<trkpt lat="31.9377080" lon="34.9755220">
<ele>166.399994</ele>
<time>2017-07-11T07:10:00.000Z</time>
</trkpt>
<trkpt lat="31.9377280" lon="34.9754860">
<ele>167.000000</ele>
<time>2017-07-11T07:10:02.000Z</time>
</trkpt>
<trkpt lat="31.9377410" lon="34.9754440">
<ele>167.600006</ele>
<time>2017-07-11T07:10:04.000Z</time>
</trkpt>
<trkpt lat="31.9377580" lon="34.9753980">
<ele>168.000000</ele>
<time>2017-07-11T07:10:07.000Z</time>
</trkpt>
<trkpt lat="31.9377640" lon="34.9753540">
<ele>168.300003</ele>
<time>2017-07-11T07:10:09.000Z</time>
</trkpt>
<trkpt lat="31.9377680" lon="34.9753060">
<ele>168.699997</ele>
<time>2017-07-11T07:10:11.000Z</time>
</trkpt>
<trkpt lat="31.9377700" lon="34.9752600">
<ele>169.100006</ele>
<time>2017-07-11T07:10:13.000Z</time>
</trkpt>
<trkpt lat="31.9377750" lon="34.9752170">
<ele>169.400009</ele>
<time>2017-07-11T07:10:15.000Z</time>
</trkpt>
<trkpt lat="31.9377820" lon="34.9751660">
<ele>169.800003</ele>
<time>2017-07-11T07:10:17.000Z</time>
</trkpt>
<trkpt lat="31.9377850" lon="34.9751270">
<ele>170.100006</ele>
<time>2017-07-11T07:10:19.000Z</time>
</trkpt>
<trkpt lat="31.9378000" lon="34.9750820">
<ele>170.500000</ele>
<time>2017-07-11T07:10:21.000Z</time>
</trkpt>
<trkpt lat="31.9378170" lon="34.9750330">
<ele>170.900009</ele>
<time>2017-07-11T07:10:23.000Z</time>
</trkpt>
<trkpt lat="31.9378490" lon="34.9749880">
<ele>171.300003</ele>
<time>2017-07-11T07:10:25.000Z</time>
</trkpt>
<trkpt lat="31.9378920" lon="34.9749480">
<ele>172.199997</ele>
<time>2017-07-11T07:10:27.000Z</time>
</trkpt>
<trkpt lat="31.9379230" lon="34.9749330">
<ele>173.000015</ele>
<time>2017-07-11T07:10:28.000Z</time>
</trkpt>
<trkpt lat="31.9379490" lon="34.9749160">
<ele>172.899994</ele>
<time>2017-07-11T07:10:29.000Z</time>
</trkpt>
<trkpt lat="31.9379750" lon="34.9748830">
<ele>172.899994</ele>
<time>2017-07-11T07:10:30.000Z</time>
</trkpt>
<trkpt lat="31.9379980" lon="34.9748600">
<ele>172.800003</ele>
<time>2017-07-11T07:10:31.000Z</time>
</trkpt>
<trkpt lat="31.9380210" lon="34.9748430">
<ele>172.700012</ele>
<time>2017-07-11T07:10:32.000Z</time>
</trkpt>
<trkpt lat="31.9380440" lon="34.9748210">
<ele>172.500000</ele>
<time>2017-07-11T07:10:33.000Z</time>
</trkpt>
<trkpt lat="31.9380820" lon="34.9747890">
<ele>172.299988</ele>
<time>2017-07-11T07:10:35.000Z</time>
</trkpt>
<trkpt lat="31.9381140" lon="34.9747520">
<ele>172.199997</ele>
<time>2017-07-11T07:10:37.000Z</time>
</trkpt>
<trkpt lat="31.9381350" lon="34.9747220">
<ele>172.199997</ele>
<time>2017-07-11T07:10:38.000Z</time>
</trkpt>
<trkpt lat="31.9381610" lon="34.9746910">
<ele>172.100006</ele>
<time>2017-07-11T07:10:39.000Z</time>
</trkpt>
<trkpt lat="31.9381890" lon="34.9746550">
<ele>172.000000</ele>
<time>2017-07-11T07:10:40.000Z</time>
</trkpt>
<trkpt lat="31.9382120" lon="34.9746190">
<ele>171.899994</ele>
<time>2017-07-11T07:10:41.000Z</time>
</trkpt>
<trkpt lat="31.9382350" lon="34.9745800">
<ele>171.800003</ele>
<time>2017-07-11T07:10:42.000Z</time>
</trkpt>
<trkpt lat="31.9382620" lon="34.9745480">
<ele>171.699997</ele>
<time>2017-07-11T07:10:43.000Z</time>
</trkpt>
<trkpt lat="31.9382900" lon="34.9745140">
<ele>171.500000</ele>
<time>2017-07-11T07:10:44.000Z</time>
</trkpt>
<trkpt lat="31.9383170" lon="34.9744730">
<ele>171.300003</ele>
<time>2017-07-11T07:10:45.000Z</time>
</trkpt>
<trkpt lat="31.9383410" lon="34.9744310">
<ele>171.000000</ele>
<time>2017-07-11T07:10:46.000Z</time>
</trkpt>
<trkpt lat="31.9383690" lon="34.9743690">
<ele>170.799988</ele>
<time>2017-07-11T07:10:47.000Z</time>
</trkpt>
<trkpt lat="31.9384010" lon="34.9743140">
<ele>170.799988</ele>
<time>2017-07-11T07:10:48.000Z</time>
</trkpt>
<trkpt lat="31.9384440" lon="34.9742560">
<ele>170.699997</ele>
<time>2017-07-11T07:10:49.000Z</time>
</trkpt>
<trkpt lat="31.9384930" lon="34.9741790">
<ele>170.500000</ele>
<time>2017-07-11T07:10:50.000Z</time>
</trkpt>
<trkpt lat="31.9385440" lon="34.9741050">
<ele>170.000000</ele>
<time>2017-07-11T07:10:51.000Z</time>
</trkpt>
<trkpt lat="31.9385950" lon="34.9740270">
<ele>169.500000</ele>
<time>2017-07-11T07:10:52.000Z</time>
</trkpt>
<trkpt lat="31.9386440" lon="34.9739560">
<ele>169.299988</ele>
<time>2017-07-11T07:10:53.000Z</time>
</trkpt>
<trkpt lat="31.9386950" lon="34.9738820">
<ele>169.100006</ele>
<time>2017-07-11T07:10:54.000Z</time>
</trkpt>
<trkpt lat="31.9387500" lon="34.9738170">
<ele>168.699997</ele>
<time>2017-07-11T07:10:55.000Z</time>
</trkpt>
<trkpt lat="31.9388120" lon="34.9737530">
<ele>168.399994</ele>
<time>2017-07-11T07:10:56.000Z</time>
</trkpt>
<trkpt lat="31.9388730" lon="34.9736950">
<ele>168.300003</ele>
<time>2017-07-11T07:10:57.000Z</time>
</trkpt>
<trkpt lat="31.9389360" lon="34.9736420">
<ele>168.199997</ele>
<time>2017-07-11T07:10:58.000Z</time>
</trkpt>
<trkpt lat="31.9389910" lon="34.9735910">
<ele>168.100006</ele>
<time>2017-07-11T07:10:59.000Z</time>
</trkpt>
<trkpt lat="31.9390380" lon="34.9735360">
<ele>168.100006</ele>
<time>2017-07-11T07:11:00.000Z</time>
</trkpt>
<trkpt lat="31.9390920" lon="34.9734950">
<ele>168.000000</ele>
<time>2017-07-11T07:11:01.000Z</time>
</trkpt>
<trkpt lat="31.9391520" lon="34.9734650">
<ele>167.699997</ele>
<time>2017-07-11T07:11:02.000Z</time>
</trkpt>
<trkpt lat="31.9392090" lon="34.9734470">
<ele>165.500000</ele>
<time>2017-07-11T07:11:03.000Z</time>
</trkpt>
<trkpt lat="31.9392560" lon="34.9734300">
<ele>163.699997</ele>
<time>2017-07-11T07:11:04.000Z</time>
</trkpt>
<trkpt lat="31.9392810" lon="34.9734100">
<ele>157.699997</ele>
<time>2017-07-11T07:11:05.000Z</time>
</trkpt>
<trkpt lat="31.9392800" lon="34.9733410">
<ele>157.000000</ele>
<time>2017-07-11T07:11:07.000Z</time>
</trkpt>
<trkpt lat="31.9392630" lon="34.9732880">
<ele>156.399994</ele>
<time>2017-07-11T07:11:08.000Z</time>
</trkpt>
<trkpt lat="31.9392450" lon="34.9732210">
<ele>155.699997</ele>
<time>2017-07-11T07:11:09.000Z</time>
</trkpt>
<trkpt lat="31.9392290" lon="34.9731460">
<ele>154.899994</ele>
<time>2017-07-11T07:11:10.000Z</time>
</trkpt>
<trkpt lat="31.9392120" lon="34.9730660">
<ele>154.699997</ele>
<time>2017-07-11T07:11:11.000Z</time>
</trkpt>
<trkpt lat="31.9392010" lon="34.9729860">
<ele>154.500000</ele>
<time>2017-07-11T07:11:12.000Z</time>
</trkpt>
<trkpt lat="31.9391980" lon="34.9729010">
<ele>154.300003</ele>
<time>2017-07-11T07:11:13.000Z</time>
</trkpt>
<trkpt lat="31.9392020" lon="34.9728150">
<ele>154.000000</ele>
<time>2017-07-11T07:11:14.000Z</time>
</trkpt>
<trkpt lat="31.9392160" lon="34.9727290">
<ele>153.500000</ele>
<time>2017-07-11T07:11:15.000Z</time>
</trkpt>
<trkpt lat="31.9392410" lon="34.9726520">
<ele>152.899994</ele>
<time>2017-07-11T07:11:16.000Z</time>
</trkpt>
<trkpt lat="31.9392720" lon="34.9725790">
<ele>152.399994</ele>
<time>2017-07-11T07:11:17.000Z</time>
</trkpt>
<trkpt lat="31.9393060" lon="34.9724990">
<ele>152.100006</ele>
<time>2017-07-11T07:11:18.000Z</time>
</trkpt>
<trkpt lat="31.9393380" lon="34.9724120">
<ele>151.699997</ele>
<time>2017-07-11T07:11:19.000Z</time>
</trkpt>
<trkpt lat="31.9393660" lon="34.9723240">
<ele>151.500000</ele>
<time>2017-07-11T07:11:20.000Z</time>
</trkpt>
<trkpt lat="31.9393860" lon="34.9722350">
<ele>151.300003</ele>
<time>2017-07-11T07:11:21.000Z</time>
</trkpt>
<trkpt lat="31.9394020" lon="34.9721430">
<ele>151.099991</ele>
<time>2017-07-11T07:11:22.000Z</time>
</trkpt>
<trkpt lat="31.9394110" lon="34.9720530">
<ele>151.300003</ele>
<time>2017-07-11T07:11:23.000Z</time>
</trkpt>
<trkpt lat="31.9394150" lon="34.9719670">
<ele>151.500000</ele>
<time>2017-07-11T07:11:24.000Z</time>
</trkpt>
<trkpt lat="31.9394130" lon="34.9718810">
<ele>151.699997</ele>
<time>2017-07-11T07:11:25.000Z</time>
</trkpt>
<trkpt lat="31.9394010" lon="34.9717950">
<ele>151.900009</ele>
<time>2017-07-11T07:11:26.000Z</time>
</trkpt>
<trkpt lat="31.9393850" lon="34.9717150">
<ele>152.199997</ele>
<time>2017-07-11T07:11:27.000Z</time>
</trkpt>
<trkpt lat="31.9393740" lon="34.9716350">
<ele>152.399994</ele>
<time>2017-07-11T07:11:28.000Z</time>
</trkpt>
<trkpt lat="31.9393560" lon="34.9715560">
<ele>152.599991</ele>
<time>2017-07-11T07:11:29.000Z</time>
</trkpt>
<trkpt lat="31.9393400" lon="34.9714790">
<ele>152.899994</ele>
<time>2017-07-11T07:11:30.000Z</time>
</trkpt>
<trkpt lat="31.9393190" lon="34.9714070">
<ele>153.100006</ele>
<time>2017-07-11T07:11:31.000Z</time>
</trkpt>
<trkpt lat="31.9392990" lon="34.9713350">
<ele>153.400009</ele>
<time>2017-07-11T07:11:32.000Z</time>
</trkpt>
<trkpt lat="31.9392790" lon="34.9712660">
<ele>153.600006</ele>
<time>2017-07-11T07:11:33.000Z</time>
</trkpt>
<trkpt lat="31.9392590" lon="34.9711990">
<ele>153.899994</ele>
<time>2017-07-11T07:11:34.000Z</time>
</trkpt>
<trkpt lat="31.9392300" lon="34.9711280">
<ele>154.399994</ele>
<time>2017-07-11T07:11:35.000Z</time>
</trkpt>
<trkpt lat="31.9392000" lon="34.9710460">
<ele>154.899994</ele>
<time>2017-07-11T07:11:36.000Z</time>
</trkpt>
<trkpt lat="31.9391640" lon="34.9709590">
<ele>155.300003</ele>
<time>2017-07-11T07:11:37.000Z</time>
</trkpt>
<trkpt lat="31.9391270" lon="34.9708640">
<ele>155.800003</ele>
<time>2017-07-11T07:11:38.000Z</time>
</trkpt>
<trkpt lat="31.9390940" lon="34.9707620">
<ele>156.499985</ele>
<time>2017-07-11T07:11:39.000Z</time>
</trkpt>
<trkpt lat="31.9390780" lon="34.9706530">
<ele>157.800003</ele>
<time>2017-07-11T07:11:40.000Z</time>
</trkpt>
<trkpt lat="31.9390650" lon="34.9705430">
<ele>159.399994</ele>
<time>2017-07-11T07:11:41.000Z</time>
</trkpt>
<trkpt lat="31.9390560" lon="34.9704320">
<ele>160.699997</ele>
<time>2017-07-11T07:11:42.000Z</time>
</trkpt>
<trkpt lat="31.9390480" lon="34.9703280">
<ele>160.699997</ele>
<time>2017-07-11T07:11:43.000Z</time>
</trkpt>
<trkpt lat="31.9390490" lon="34.9702240">
<ele>160.399994</ele>
<time>2017-07-11T07:11:44.000Z</time>
</trkpt>
<trkpt lat="31.9390470" lon="34.9701190">
<ele>160.600006</ele>
<time>2017-07-11T07:11:45.000Z</time>
</trkpt>
<trkpt lat="31.9390480" lon="34.9700160">
<ele>160.800003</ele>
<time>2017-07-11T07:11:46.000Z</time>
</trkpt>
<trkpt lat="31.9390510" lon="34.9699130">
<ele>160.900009</ele>
<time>2017-07-11T07:11:47.000Z</time>
</trkpt>
<trkpt lat="31.9390490" lon="34.9698120">
<ele>160.900009</ele>
<time>2017-07-11T07:11:48.000Z</time>
</trkpt>
<trkpt lat="31.9390530" lon="34.9697130">
<ele>161.000000</ele>
<time>2017-07-11T07:11:49.000Z</time>
</trkpt>
<trkpt lat="31.9390590" lon="34.9696110">
<ele>161.000000</ele>
<time>2017-07-11T07:11:50.000Z</time>
</trkpt>
<trkpt lat="31.9390560" lon="34.9695140">
<ele>161.000000</ele>
<time>2017-07-11T07:11:51.000Z</time>
</trkpt>
<trkpt lat="31.9390450" lon="34.9694210">
<ele>161.000000</ele>
<time>2017-07-11T07:11:52.000Z</time>
</trkpt>
<trkpt lat="31.9390390" lon="34.9693290">
<ele>161.000000</ele>
<time>2017-07-11T07:11:53.000Z</time>
</trkpt>
<trkpt lat="31.9390280" lon="34.9692400">
<ele>159.699997</ele>
<time>2017-07-11T07:11:54.000Z</time>
</trkpt>
<trkpt lat="31.9390190" lon="34.9691560">
<ele>158.199997</ele>
<time>2017-07-11T07:11:55.000Z</time>
</trkpt>
<trkpt lat="31.9390160" lon="34.9690710">
<ele>156.699997</ele>
<time>2017-07-11T07:11:56.000Z</time>
</trkpt>
<trkpt lat="31.9390130" lon="34.9689850">
<ele>155.199997</ele>
<time>2017-07-11T07:11:57.000Z</time>
</trkpt>
<trkpt lat="31.9390090" lon="34.9688990">
<ele>155.000000</ele>
<time>2017-07-11T07:11:58.000Z</time>
</trkpt>
<trkpt lat="31.9390010" lon="34.9688130">
<ele>154.899994</ele>
<time>2017-07-11T07:11:59.000Z</time>
</trkpt>
<trkpt lat="31.9390000" lon="34.9687250">
<ele>154.599991</ele>
<time>2017-07-11T07:12:00.000Z</time>
</trkpt>
<trkpt lat="31.9390020" lon="34.9686350">
<ele>154.199997</ele>
<time>2017-07-11T07:12:01.000Z</time>
</trkpt>
<trkpt lat="31.9390030" lon="34.9685440">
<ele>153.899994</ele>
<time>2017-07-11T07:12:02.000Z</time>
</trkpt>
<trkpt lat="31.9390040" lon="34.9684570">
<ele>153.500000</ele>
<time>2017-07-11T07:12:03.000Z</time>
</trkpt>
<trkpt lat="31.9390150" lon="34.9683710">
<ele>153.199997</ele>
<time>2017-07-11T07:12:04.000Z</time>
</trkpt>
<trkpt lat="31.9390390" lon="34.9682870">
<ele>152.800003</ele>
<time>2017-07-11T07:12:05.000Z</time>
</trkpt>
<trkpt lat="31.9390680" lon="34.9682060">
<ele>152.500000</ele>
<time>2017-07-11T07:12:06.000Z</time>
</trkpt>
<trkpt lat="31.9390920" lon="34.9681210">
<ele>152.100006</ele>
<time>2017-07-11T07:12:07.000Z</time>
</trkpt>
<trkpt lat="31.9391460" lon="34.9680560">
<ele>152.300003</ele>
<time>2017-07-11T07:12:08.000Z</time>
</trkpt>
<trkpt lat="31.9392100" lon="34.9680330">
<ele>152.699997</ele>
<time>2017-07-11T07:12:09.000Z</time>
</trkpt>
<trkpt lat="31.9392670" lon="34.9680370">
<ele>153.000000</ele>
<time>2017-07-11T07:12:10.000Z</time>
</trkpt>
<trkpt lat="31.9393180" lon="34.9680310">
<ele>153.300003</ele>
<time>2017-07-11T07:12:11.000Z</time>
</trkpt>
<trkpt lat="31.9393650" lon="34.9680300">
<ele>153.699997</ele>
<time>2017-07-11T07:12:12.000Z</time>
</trkpt>
<trkpt lat="31.9394020" lon="34.9680440">
<ele>154.100006</ele>
<time>2017-07-11T07:12:13.000Z</time>
</trkpt>
<trkpt lat="31.9394320" lon="34.9680490">
<ele>154.500000</ele>
<time>2017-07-11T07:12:14.000Z</time>
</trkpt>
<trkpt lat="31.9394590" lon="34.9680530">
<ele>154.699997</ele>
<time>2017-07-11T07:12:15.000Z</time>
</trkpt>
<trkpt lat="31.9394870" lon="34.9680540">
<ele>155.000000</ele>
<time>2017-07-11T07:12:16.000Z</time>
</trkpt>
<trkpt lat="31.9395420" lon="34.9680530">
<ele>155.400009</ele>
<time>2017-07-11T07:12:18.000Z</time>
</trkpt>
<trkpt lat="31.9395900" lon="34.9680550">
<ele>155.800003</ele>
<time>2017-07-11T07:12:20.000Z</time>
</trkpt>
<trkpt lat="31.9396300" lon="34.9680580">
<ele>156.000000</ele>
<time>2017-07-11T07:12:22.000Z</time>
</trkpt>
<trkpt lat="31.9396770" lon="34.9680650">
<ele>156.300003</ele>
<time>2017-07-11T07:12:24.000Z</time>
</trkpt>
<trkpt lat="31.9397290" lon="34.9680680">
<ele>156.600006</ele>
<time>2017-07-11T07:12:26.000Z</time>
</trkpt>
<trkpt lat="31.9397800" lon="34.9680690">
<ele>157.000000</ele>
<time>2017-07-11T07:12:28.000Z</time>
</trkpt>
<trkpt lat="31.9398070" lon="34.9680700">
<ele>157.099991</ele>
<time>2017-07-11T07:12:29.000Z</time>
</trkpt>
<trkpt lat="31.9398540" lon="34.9680600">
<ele>157.399994</ele>
<time>2017-07-11T07:12:31.000Z</time>
</trkpt>
<trkpt lat="31.9398950" lon="34.9680510">
<ele>157.600006</ele>
<time>2017-07-11T07:12:33.000Z</time>
</trkpt>
<trkpt lat="31.9399420" lon="34.9680470">
<ele>157.800003</ele>
<time>2017-07-11T07:12:35.000Z</time>
</trkpt>
<trkpt lat="31.9399710" lon="34.9680420">
<ele>158.000000</ele>
<time>2017-07-11T07:12:36.000Z</time>
</trkpt>
<trkpt lat="31.9400210" lon="34.9680390">
<ele>158.199997</ele>
<time>2017-07-11T07:12:38.000Z</time>
</trkpt>
<trkpt lat="31.9400510" lon="34.9680300">
<ele>158.299988</ele>
<time>2017-07-11T07:12:40.000Z</time>
</trkpt>
<trkpt lat="31.9400820" lon="34.9680290">
<ele>158.500000</ele>
<time>2017-07-11T07:12:42.000Z</time>
</trkpt>
<trkpt lat="31.9401150" lon="34.9680170">
<ele>158.700012</ele>
<time>2017-07-11T07:12:44.000Z</time>
</trkpt>
<trkpt lat="31.9401450" lon="34.9680060">
<ele>158.899994</ele>
<time>2017-07-11T07:12:46.000Z</time>
</trkpt>
<trkpt lat="31.9401740" lon="34.9679830">
<ele>159.100006</ele>
<time>2017-07-11T07:12:48.000Z</time>
</trkpt>
<trkpt lat="31.9402020" lon="34.9679810">
<ele>159.199997</ele>
<time>2017-07-11T07:12:50.000Z</time>
</trkpt>
<trkpt lat="31.9402430" lon="34.9679680">
<ele>159.699997</ele>
<time>2017-07-11T07:12:53.000Z</time>
</trkpt>
<trkpt lat="31.9402740" lon="34.9679570">
<ele>159.900009</ele>
<time>2017-07-11T07:12:55.000Z</time>
</trkpt>
<trkpt lat="31.9403010" lon="34.9679490">
<ele>160.099991</ele>
<time>2017-07-11T07:12:57.000Z</time>
</trkpt>
<trkpt lat="31.9403300" lon="34.9679410">
<ele>160.200012</ele>
<time>2017-07-11T07:12:59.000Z</time>
</trkpt>
<trkpt lat="31.9403620" lon="34.9679350">
<ele>160.399994</ele>
<time>2017-07-11T07:13:01.000Z</time>
</trkpt>
<trkpt lat="31.9403910" lon="34.9679450">
<ele>160.600006</ele>
<time>2017-07-11T07:13:03.000Z</time>
</trkpt>
<trkpt lat="31.9404250" lon="34.9679580">
<ele>160.800003</ele>
<time>2017-07-11T07:13:05.000Z</time>
</trkpt>
<trkpt lat="31.9404570" lon="34.9679650">
<ele>160.900009</ele>
<time>2017-07-11T07:13:07.000Z</time>
</trkpt>
<trkpt lat="31.9404930" lon="34.9679680">
<ele>161.100006</ele>
<time>2017-07-11T07:13:09.000Z</time>
</trkpt>
<trkpt lat="31.9405220" lon="34.9679710">
<ele>161.300003</ele>
<time>2017-07-11T07:13:11.000Z</time>
</trkpt>
<trkpt lat="31.9405560" lon="34.9679780">
<ele>161.500000</ele>
<time>2017-07-11T07:13:13.000Z</time>
</trkpt>
<trkpt lat="31.9405920" lon="34.9679930">
<ele>161.700012</ele>
<time>2017-07-11T07:13:15.000Z</time>
</trkpt>
<trkpt lat="31.9406340" lon="34.9680040">
<ele>161.899994</ele>
<time>2017-07-11T07:13:17.000Z</time>
</trkpt>
<trkpt lat="31.9406680" lon="34.9680190">
<ele>162.100006</ele>
<time>2017-07-11T07:13:19.000Z</time>
</trkpt>
<trkpt lat="31.9407020" lon="34.9680360">
<ele>162.299988</ele>
<time>2017-07-11T07:13:21.000Z</time>
</trkpt>
<trkpt lat="31.9407340" lon="34.9680510">
<ele>162.500000</ele>
<time>2017-07-11T07:13:23.000Z</time>
</trkpt>
<trkpt lat="31.9407690" lon="34.9680740">
<ele>162.800003</ele>
<time>2017-07-11T07:13:25.000Z</time>
</trkpt>
<trkpt lat="31.9408010" lon="34.9680950">
<ele>163.000000</ele>
<time>2017-07-11T07:13:27.000Z</time>
</trkpt>
<trkpt lat="31.9408330" lon="34.9681140">
<ele>163.199997</ele>
<time>2017-07-11T07:13:29.000Z</time>
</trkpt>
<trkpt lat="31.9408670" lon="34.9681360">
<ele>163.399994</ele>
<time>2017-07-11T07:13:31.000Z</time>
</trkpt>
<trkpt lat="31.9409020" lon="34.9681530">
<ele>163.699997</ele>
<time>2017-07-11T07:13:33.000Z</time>
</trkpt>
<trkpt lat="31.9409440" lon="34.9681700">
<ele>163.900009</ele>
<time>2017-07-11T07:13:36.000Z</time>
</trkpt>
<trkpt lat="31.9409780" lon="34.9681900">
<ele>164.200012</ele>
<time>2017-07-11T07:13:38.000Z</time>
</trkpt>
<trkpt lat="31.9410050" lon="34.9682050">
<ele>164.300003</ele>
<time>2017-07-11T07:13:40.000Z</time>
</trkpt>
<trkpt lat="31.9410510" lon="34.9682240">
<ele>164.600006</ele>
<time>2017-07-11T07:13:42.000Z</time>
</trkpt>
<trkpt lat="31.9410890" lon="34.9682410">
<ele>164.899994</ele>
<time>2017-07-11T07:13:44.000Z</time>
</trkpt>
<trkpt lat="31.9411170" lon="34.9682500">
<ele>165.000000</ele>
<time>2017-07-11T07:13:46.000Z</time>
</trkpt>
<trkpt lat="31.9411510" lon="34.9682760">
<ele>165.299988</ele>
<time>2017-07-11T07:13:50.000Z</time>
</trkpt>
<trkpt lat="31.9411780" lon="34.9682950">
<ele>165.500000</ele>
<time>2017-07-11T07:13:52.000Z</time>
</trkpt>
<trkpt lat="31.9412070" lon="34.9683170">
<ele>165.800003</ele>
<time>2017-07-11T07:13:54.000Z</time>
</trkpt>
<trkpt lat="31.9412290" lon="34.9683480">
<ele>166.100006</ele>
<time>2017-07-11T07:13:56.000Z</time>
</trkpt>
<trkpt lat="31.9412400" lon="34.9683800">
<ele>166.399994</ele>
<time>2017-07-11T07:13:58.000Z</time>
</trkpt>
<trkpt lat="31.9412660" lon="34.9684060">
<ele>166.699997</ele>
<time>2017-07-11T07:14:01.000Z</time>
</trkpt>
<trkpt lat="31.9412890" lon="34.9684240">
<ele>166.900009</ele>
<time>2017-07-11T07:14:03.000Z</time>
</trkpt>
<trkpt lat="31.9413230" lon="34.9684450">
<ele>167.200012</ele>
<time>2017-07-11T07:14:06.000Z</time>
</trkpt>
<trkpt lat="31.9413620" lon="34.9684610">
<ele>167.500015</ele>
<time>2017-07-11T07:14:09.000Z</time>
</trkpt>
<trkpt lat="31.9413940" lon="34.9684660">
<ele>167.699997</ele>
<time>2017-07-11T07:14:13.000Z</time>
</trkpt>
<trkpt lat="31.9414260" lon="34.9684840">
<ele>168.000000</ele>
<time>2017-07-11T07:14:15.000Z</time>
</trkpt>
<trkpt lat="31.9414590" lon="34.9684950">
<ele>168.300003</ele>
<time>2017-07-11T07:14:17.000Z</time>
</trkpt>
<trkpt lat="31.9414910" lon="34.9685050">
<ele>168.599991</ele>
<time>2017-07-11T07:14:19.000Z</time>
</trkpt>
<trkpt lat="31.9415200" lon="34.9685160">
<ele>168.899994</ele>
<time>2017-07-11T07:14:21.000Z</time>
</trkpt>
<trkpt lat="31.9415440" lon="34.9685320">
<ele>169.100006</ele>
<time>2017-07-11T07:14:23.000Z</time>
</trkpt>
<trkpt lat="31.9415930" lon="34.9685520">
<ele>169.599991</ele>
<time>2017-07-11T07:14:25.000Z</time>
</trkpt>
<trkpt lat="31.9416380" lon="34.9685630">
<ele>170.000000</ele>
<time>2017-07-11T07:14:27.000Z</time>
</trkpt>
<trkpt lat="31.9416760" lon="34.9685760">
<ele>170.399994</ele>
<time>2017-07-11T07:14:29.000Z</time>
</trkpt>
<trkpt lat="31.9417120" lon="34.9685850">
<ele>170.799988</ele>
<time>2017-07-11T07:14:31.000Z</time>
</trkpt>
<trkpt lat="31.9417390" lon="34.9685920">
<ele>171.000000</ele>
<time>2017-07-11T07:14:33.000Z</time>
</trkpt>
<trkpt lat="31.9417610" lon="34.9686120">
<ele>171.300003</ele>
<time>2017-07-11T07:14:35.000Z</time>
</trkpt>
<trkpt lat="31.9418030" lon="34.9686160">
<ele>171.699997</ele>
<time>2017-07-11T07:14:38.000Z</time>
</trkpt>
<trkpt lat="31.9418380" lon="34.9686360">
<ele>172.000000</ele>
<time>2017-07-11T07:14:41.000Z</time>
</trkpt>
<trkpt lat="31.9418790" lon="34.9686520">
<ele>172.400009</ele>
<time>2017-07-11T07:14:43.000Z</time>
</trkpt>
<trkpt lat="31.9419140" lon="34.9686530">
<ele>172.700012</ele>
<time>2017-07-11T07:14:45.000Z</time>
</trkpt>
<trkpt lat="31.9419490" lon="34.9686570">
<ele>173.100006</ele>
<time>2017-07-11T07:14:47.000Z</time>
</trkpt>
<trkpt lat="31.9419770" lon="34.9686670">
<ele>173.300003</ele>
<time>2017-07-11T07:14:49.000Z</time>
</trkpt>
<trkpt lat="31.9420140" lon="34.9686690">
<ele>174.000000</ele>
<time>2017-07-11T07:14:52.000Z</time>
</trkpt>
<trkpt lat="31.9420430" lon="34.9686670">
<ele>174.200012</ele>
<time>2017-07-11T07:14:54.000Z</time>
</trkpt>
<trkpt lat="31.9420850" lon="34.9686620">
<ele>174.600006</ele>
<time>2017-07-11T07:14:57.000Z</time>
</trkpt>
<trkpt lat="31.9421090" lon="34.9686450">
<ele>174.799988</ele>
<time>2017-07-11T07:14:59.000Z</time>
</trkpt>
<trkpt lat="31.9421330" lon="34.9686230">
<ele>175.099991</ele>
<time>2017-07-11T07:15:01.000Z</time>
</trkpt>
<trkpt lat="31.9421560" lon="34.9685990">
<ele>175.300003</ele>
<time>2017-07-11T07:15:03.000Z</time>
</trkpt>
<trkpt lat="31.9421850" lon="34.9685650">
<ele>175.500000</ele>
<time>2017-07-11T07:15:06.000Z</time>
</trkpt>
<trkpt lat="31.9422020" lon="34.9685350">
<ele>175.699997</ele>
<time>2017-07-11T07:15:08.000Z</time>
</trkpt>
<trkpt lat="31.9422240" lon="34.9685070">
<ele>175.899994</ele>
<time>2017-07-11T07:15:10.000Z</time>
</trkpt>
<trkpt lat="31.9422440" lon="34.9684760">
<ele>176.100006</ele>
<time>2017-07-11T07:15:12.000Z</time>
</trkpt>
<trkpt lat="31.9422590" lon="34.9684390">
<ele>176.299988</ele>
<time>2017-07-11T07:15:14.000Z</time>
</trkpt>
<trkpt lat="31.9422810" lon="34.9684090">
<ele>176.500000</ele>
<time>2017-07-11T07:15:16.000Z</time>
</trkpt>
<trkpt lat="31.9423080" lon="34.9683850">
<ele>176.700012</ele>
<time>2017-07-11T07:15:18.000Z</time>
</trkpt>
<trkpt lat="31.9423380" lon="34.9683700">
<ele>176.800003</ele>
<time>2017-07-11T07:15:21.000Z</time>
</trkpt>
<trkpt lat="31.9423640" lon="34.9683630">
<ele>177.000000</ele>
<time>2017-07-11T07:15:23.000Z</time>
</trkpt>
<trkpt lat="31.9423940" lon="34.9683550">
<ele>177.100006</ele>
<time>2017-07-11T07:15:25.000Z</time>
</trkpt>
<trkpt lat="31.9424210" lon="34.9683450">
<ele>177.300003</ele>
<time>2017-07-11T07:15:27.000Z</time>
</trkpt>
<trkpt lat="31.9424540" lon="34.9683330">
<ele>177.500000</ele>
<time>2017-07-11T07:15:30.000Z</time>
</trkpt>
<trkpt lat="31.9424810" lon="34.9683240">
<ele>177.699997</ele>
<time>2017-07-11T07:15:33.000Z</time>
</trkpt>
<trkpt lat="31.9425150" lon="34.9683370">
<ele>177.900009</ele>
<time>2017-07-11T07:15:36.000Z</time>
</trkpt>
<trkpt lat="31.9425630" lon="34.9683320">
<ele>178.099991</ele>
<time>2017-07-11T07:15:40.000Z</time>
</trkpt>
<trkpt lat="31.9425820" lon="34.9683030">
<ele>178.300003</ele>
<time>2017-07-11T07:15:43.000Z</time>
</trkpt>
<trkpt lat="31.9425690" lon="34.9682740">
<ele>177.799988</ele>
<time>2017-07-11T07:15:46.000Z</time>
</trkpt>
<trkpt lat="31.9425520" lon="34.9682460">
<ele>177.900009</ele>
<time>2017-07-11T07:15:48.000Z</time>
</trkpt>
<trkpt lat="31.9425340" lon="34.9682100">
<ele>176.800003</ele>
<time>2017-07-11T07:15:50.000Z</time>
</trkpt>
<trkpt lat="31.9425510" lon="34.9682400">
<ele>178.200012</ele>
<time>2017-07-11T07:16:07.000Z</time>
</trkpt>
<trkpt lat="31.9425270" lon="34.9682130">
<ele>177.100006</ele>
<time>2017-07-11T07:16:28.000Z</time>
</trkpt>
<trkpt lat="31.9425280" lon="34.9681780">
<ele>176.299988</ele>
<time>2017-07-11T07:16:34.000Z</time>
</trkpt>
<trkpt lat="31.9425470" lon="34.9681510">
<ele>175.599991</ele>
<time>2017-07-11T07:18:35.000Z</time>
</trkpt>
<trkpt lat="31.9425750" lon="34.9681450">
<ele>176.199997</ele>
<time>2017-07-11T07:21:33.000Z</time>
</trkpt>
<trkpt lat="31.9425850" lon="34.9681750">
<ele>177.100006</ele>
<time>2017-07-11T07:21:36.000Z</time>
</trkpt>
<trkpt lat="31.9426060" lon="34.9681970">
<ele>178.399994</ele>
<time>2017-07-11T07:23:29.000Z</time>
</trkpt>
<trkpt lat="31.9426210" lon="34.9682240">
<ele>178.600006</ele>
<time>2017-07-11T07:23:36.000Z</time>
</trkpt>
<trkpt lat="31.9426320" lon="34.9682650">
<ele>178.699997</ele>
<time>2017-07-11T07:23:41.000Z</time>
</trkpt>
<trkpt lat="31.9426440" lon="34.9682940">
<ele>178.899994</ele>
<time>2017-07-11T07:23:44.000Z</time>
</trkpt>
<trkpt lat="31.9426650" lon="34.9683250">
<ele>179.000000</ele>
<time>2017-07-11T07:23:46.000Z</time>
</trkpt>
<trkpt lat="31.9426860" lon="34.9683530">
<ele>179.199997</ele>
<time>2017-07-11T07:23:48.000Z</time>
</trkpt>
<trkpt lat="31.9427060" lon="34.9683810">
<ele>179.299988</ele>
<time>2017-07-11T07:23:50.000Z</time>
</trkpt>
<trkpt lat="31.9427300" lon="34.9683960">
<ele>179.400009</ele>
<time>2017-07-11T07:23:52.000Z</time>
</trkpt>
<trkpt lat="31.9427590" lon="34.9684120">
<ele>179.500000</ele>
<time>2017-07-11T07:23:54.000Z</time>
</trkpt>
<trkpt lat="31.9427880" lon="34.9684220">
<ele>179.599991</ele>
<time>2017-07-11T07:23:56.000Z</time>
</trkpt>
<trkpt lat="31.9428140" lon="34.9684420">
<ele>179.700012</ele>
<time>2017-07-11T07:23:58.000Z</time>
</trkpt>
<trkpt lat="31.9428430" lon="34.9684570">
<ele>179.899994</ele>
<time>2017-07-11T07:24:01.000Z</time>
</trkpt>
<trkpt lat="31.9428780" lon="34.9684760">
<ele>180.000015</ele>
<time>2017-07-11T07:24:03.000Z</time>
</trkpt>
<trkpt lat="31.9429070" lon="34.9684890">
<ele>180.000015</ele>
<time>2017-07-11T07:24:05.000Z</time>
</trkpt>
<trkpt lat="31.9429530" lon="34.9684930">
<ele>180.000015</ele>
<time>2017-07-11T07:24:07.000Z</time>
</trkpt>
<trkpt lat="31.9429970" lon="34.9684960">
<ele>180.000015</ele>
<time>2017-07-11T07:24:08.000Z</time>
</trkpt>
<trkpt lat="31.9430430" lon="34.9685030">
<ele>179.800003</ele>
<time>2017-07-11T07:24:09.000Z</time>
</trkpt>
<trkpt lat="31.9430720" lon="34.9684990">
<ele>179.800003</ele>
<time>2017-07-11T07:24:10.000Z</time>
</trkpt>
<trkpt lat="31.9431100" lon="34.9684890">
<ele>179.599991</ele>
<time>2017-07-11T07:24:11.000Z</time>
</trkpt>
<trkpt lat="31.9431550" lon="34.9684780">
<ele>179.500000</ele>
<time>2017-07-11T07:24:12.000Z</time>
</trkpt>
<trkpt lat="31.9431990" lon="34.9684660">
<ele>179.400009</ele>
<time>2017-07-11T07:24:13.000Z</time>
</trkpt>
<trkpt lat="31.9432600" lon="34.9684480">
<ele>179.199997</ele>
<time>2017-07-11T07:24:14.000Z</time>
</trkpt>
<trkpt lat="31.9433270" lon="34.9684280">
<ele>179.000000</ele>
<time>2017-07-11T07:24:15.000Z</time>
</trkpt>
<trkpt lat="31.9433930" lon="34.9684120">
<ele>178.800003</ele>
<time>2017-07-11T07:24:16.000Z</time>
</trkpt>
<trkpt lat="31.9434540" lon="34.9684020">
<ele>178.600006</ele>
<time>2017-07-11T07:24:17.000Z</time>
</trkpt>
<trkpt lat="31.9435130" lon="34.9683920">
<ele>178.399994</ele>
<time>2017-07-11T07:24:18.000Z</time>
</trkpt>
<trkpt lat="31.9435820" lon="34.9683640">
<ele>178.000000</ele>
<time>2017-07-11T07:24:19.000Z</time>
</trkpt>
<trkpt lat="31.9436430" lon="34.9683360">
<ele>177.699997</ele>
<time>2017-07-11T07:24:20.000Z</time>
</trkpt>
<trkpt lat="31.9436980" lon="34.9683080">
<ele>177.399994</ele>
<time>2017-07-11T07:24:21.000Z</time>
</trkpt>
<trkpt lat="31.9437580" lon="34.9682780">
<ele>177.100006</ele>
<time>2017-07-11T07:24:22.000Z</time>
</trkpt>
<trkpt lat="31.9438120" lon="34.9682090">
<ele>176.800003</ele>
<time>2017-07-11T07:24:23.000Z</time>
</trkpt>
<trkpt lat="31.9438530" lon="34.9681330">
<ele>176.500000</ele>
<time>2017-07-11T07:24:24.000Z</time>
</trkpt>
<trkpt lat="31.9438930" lon="34.9680600">
<ele>176.100006</ele>
<time>2017-07-11T07:24:25.000Z</time>
</trkpt>
<trkpt lat="31.9439370" lon="34.9679930">
<ele>175.699997</ele>
<time>2017-07-11T07:24:26.000Z</time>
</trkpt>
<trkpt lat="31.9439790" lon="34.9679200">
<ele>175.199997</ele>
<time>2017-07-11T07:24:27.000Z</time>
</trkpt>
<trkpt lat="31.9440140" lon="34.9678400">
<ele>174.799988</ele>
<time>2017-07-11T07:24:28.000Z</time>
</trkpt>
<trkpt lat="31.9440470" lon="34.9677580">
<ele>174.500015</ele>
<time>2017-07-11T07:24:29.000Z</time>
</trkpt>
<trkpt lat="31.9440900" lon="34.9676820">
<ele>174.300003</ele>
<time>2017-07-11T07:24:30.000Z</time>
</trkpt>
<trkpt lat="31.9441350" lon="34.9676070">
<ele>174.099991</ele>
<time>2017-07-11T07:24:31.000Z</time>
</trkpt>
<trkpt lat="31.9441750" lon="34.9675220">
<ele>173.900009</ele>
<time>2017-07-11T07:24:32.000Z</time>
</trkpt>
<trkpt lat="31.9442190" lon="34.9674380">
<ele>173.600006</ele>
<time>2017-07-11T07:24:33.000Z</time>
</trkpt>
<trkpt lat="31.9442560" lon="34.9673430">
<ele>173.199997</ele>
<time>2017-07-11T07:24:34.000Z</time>
</trkpt>
<trkpt lat="31.9443040" lon="34.9672470">
<ele>172.800003</ele>
<time>2017-07-11T07:24:35.000Z</time>
</trkpt>
<trkpt lat="31.9443510" lon="34.9671490">
<ele>172.299988</ele>
<time>2017-07-11T07:24:36.000Z</time>
</trkpt>
<trkpt lat="31.9443700" lon="34.9670450">
<ele>172.000000</ele>
<time>2017-07-11T07:24:37.000Z</time>
</trkpt>
<trkpt lat="31.9443980" lon="34.9669440">
<ele>171.699997</ele>
<time>2017-07-11T07:24:38.000Z</time>
</trkpt>
<trkpt lat="31.9444330" lon="34.9668430">
<ele>171.200012</ele>
<time>2017-07-11T07:24:39.000Z</time>
</trkpt>
<trkpt lat="31.9444650" lon="34.9667440">
<ele>170.799988</ele>
<time>2017-07-11T07:24:40.000Z</time>
</trkpt>
<trkpt lat="31.9444950" lon="34.9666470">
<ele>170.300003</ele>
<time>2017-07-11T07:24:41.000Z</time>
</trkpt>
<trkpt lat="31.9445230" lon="34.9665490">
<ele>170.000000</ele>
<time>2017-07-11T07:24:42.000Z</time>
</trkpt>
<trkpt lat="31.9445500" lon="34.9664600">
<ele>169.699997</ele>
<time>2017-07-11T07:24:43.000Z</time>
</trkpt>
<trkpt lat="31.9445780" lon="34.9663830">
<ele>169.400009</ele>
<time>2017-07-11T07:24:44.000Z</time>
</trkpt>
<trkpt lat="31.9446090" lon="34.9663070">
<ele>169.100006</ele>
<time>2017-07-11T07:24:45.000Z</time>
</trkpt>
<trkpt lat="31.9446450" lon="34.9662240">
<ele>168.699997</ele>
<time>2017-07-11T07:24:46.000Z</time>
</trkpt>
<trkpt lat="31.9446800" lon="34.9661430">
<ele>168.399994</ele>
<time>2017-07-11T07:24:47.000Z</time>
</trkpt>
<trkpt lat="31.9447200" lon="34.9660570">
<ele>168.000000</ele>
<time>2017-07-11T07:24:48.000Z</time>
</trkpt>
<trkpt lat="31.9447560" lon="34.9659750">
<ele>167.699997</ele>
<time>2017-07-11T07:24:49.000Z</time>
</trkpt>
<trkpt lat="31.9447970" lon="34.9658910">
<ele>167.399994</ele>
<time>2017-07-11T07:24:50.000Z</time>
</trkpt>
<trkpt lat="31.9448400" lon="34.9658010">
<ele>167.000000</ele>
<time>2017-07-11T07:24:51.000Z</time>
</trkpt>
<trkpt lat="31.9448820" lon="34.9657000">
<ele>166.500000</ele>
<time>2017-07-11T07:24:52.000Z</time>
</trkpt>
<trkpt lat="31.9449170" lon="34.9656000">
<ele>166.000000</ele>
<time>2017-07-11T07:24:53.000Z</time>
</trkpt>
<trkpt lat="31.9449500" lon="34.9655050">
<ele>165.700012</ele>
<time>2017-07-11T07:24:54.000Z</time>
</trkpt>
<trkpt lat="31.9449800" lon="34.9654170">
<ele>165.400009</ele>
<time>2017-07-11T07:24:55.000Z</time>
</trkpt>
<trkpt lat="31.9450150" lon="34.9653380">
<ele>165.199997</ele>
<time>2017-07-11T07:24:56.000Z</time>
</trkpt>
<trkpt lat="31.9450520" lon="34.9652700">
<ele>164.899994</ele>
<time>2017-07-11T07:24:57.000Z</time>
</trkpt>
<trkpt lat="31.9451040" lon="34.9652310">
<ele>164.500000</ele>
<time>2017-07-11T07:24:58.000Z</time>
</trkpt>
<trkpt lat="31.9451530" lon="34.9652220">
<ele>164.200012</ele>
<time>2017-07-11T07:24:59.000Z</time>
</trkpt>
<trkpt lat="31.9451810" lon="34.9652250">
<ele>164.099991</ele>
<time>2017-07-11T07:25:00.000Z</time>
</trkpt>
<trkpt lat="31.9452090" lon="34.9652420">
<ele>164.200012</ele>
<time>2017-07-11T07:25:01.000Z</time>
</trkpt>
<trkpt lat="31.9452450" lon="34.9652610">
<ele>164.500000</ele>
<time>2017-07-11T07:25:02.000Z</time>
</trkpt>
<trkpt lat="31.9452880" lon="34.9652810">
<ele>164.800003</ele>
<time>2017-07-11T07:25:03.000Z</time>
</trkpt>
<trkpt lat="31.9453300" lon="34.9652970">
<ele>165.100006</ele>
<time>2017-07-11T07:25:04.000Z</time>
</trkpt>
<trkpt lat="31.9453590" lon="34.9653090">
<ele>165.400009</ele>
<time>2017-07-11T07:25:05.000Z</time>
</trkpt>
<trkpt lat="31.9453880" lon="34.9653190">
<ele>165.700012</ele>
<time>2017-07-11T07:25:06.000Z</time>
</trkpt>
<trkpt lat="31.9454210" lon="34.9653340">
<ele>166.199997</ele>
<time>2017-07-11T07:25:07.000Z</time>
</trkpt>
<trkpt lat="31.9454500" lon="34.9653410">
<ele>166.500000</ele>
<time>2017-07-11T07:25:08.000Z</time>
</trkpt>
<trkpt lat="31.9454770" lon="34.9653480">
<ele>166.800003</ele>
<time>2017-07-11T07:25:09.000Z</time>
</trkpt>
<trkpt lat="31.9455030" lon="34.9653590">
<ele>167.000000</ele>
<time>2017-07-11T07:25:10.000Z</time>
</trkpt>
<trkpt lat="31.9455310" lon="34.9653780">
<ele>167.300003</ele>
<time>2017-07-11T07:25:11.000Z</time>
</trkpt>
<trkpt lat="31.9455750" lon="34.9654000">
<ele>167.600006</ele>
<time>2017-07-11T07:25:13.000Z</time>
</trkpt>
<trkpt lat="31.9456180" lon="34.9654190">
<ele>167.900009</ele>
<time>2017-07-11T07:25:15.000Z</time>
</trkpt>
<trkpt lat="31.9456650" lon="34.9654310">
<ele>168.300003</ele>
<time>2017-07-11T07:25:17.000Z</time>
</trkpt>
<trkpt lat="31.9457040" lon="34.9654410">
<ele>168.599991</ele>
<time>2017-07-11T07:25:19.000Z</time>
</trkpt>
<trkpt lat="31.9457370" lon="34.9654430">
<ele>168.899994</ele>
<time>2017-07-11T07:25:21.000Z</time>
</trkpt>
<trkpt lat="31.9457810" lon="34.9654420">
<ele>169.199997</ele>
<time>2017-07-11T07:25:23.000Z</time>
</trkpt>
<trkpt lat="31.9458140" lon="34.9654430">
<ele>169.400009</ele>
<time>2017-07-11T07:25:25.000Z</time>
</trkpt>
<trkpt lat="31.9458530" lon="34.9654340">
<ele>169.699997</ele>
<time>2017-07-11T07:25:27.000Z</time>
</trkpt>
<trkpt lat="31.9458990" lon="34.9654220">
<ele>170.000000</ele>
<time>2017-07-11T07:25:29.000Z</time>
</trkpt>
<trkpt lat="31.9459250" lon="34.9654130">
<ele>170.199997</ele>
<time>2017-07-11T07:25:30.000Z</time>
</trkpt>
<trkpt lat="31.9459680" lon="34.9653900">
<ele>170.900009</ele>
<time>2017-07-11T07:25:32.000Z</time>
</trkpt>
<trkpt lat="31.9460050" lon="34.9653580">
<ele>173.100006</ele>
<time>2017-07-11T07:25:34.000Z</time>
</trkpt>
<trkpt lat="31.9460370" lon="34.9653100">
<ele>173.100006</ele>
<time>2017-07-11T07:25:36.000Z</time>
</trkpt>
<trkpt lat="31.9460490" lon="34.9652660">
<ele>173.100006</ele>
<time>2017-07-11T07:25:38.000Z</time>
</trkpt>
<trkpt lat="31.9460530" lon="34.9652180">
<ele>173.100006</ele>
<time>2017-07-11T07:25:40.000Z</time>
</trkpt>
<trkpt lat="31.9460560" lon="34.9651690">
<ele>173.000015</ele>
<time>2017-07-11T07:25:42.000Z</time>
</trkpt>
<trkpt lat="31.9460560" lon="34.9651160">
<ele>173.000015</ele>
<time>2017-07-11T07:25:44.000Z</time>
</trkpt>
<trkpt lat="31.9460550" lon="34.9650560">
<ele>173.000015</ele>
<time>2017-07-11T07:25:46.000Z</time>
</trkpt>
<trkpt lat="31.9460560" lon="34.9650030">
<ele>172.899994</ele>
<time>2017-07-11T07:25:48.000Z</time>
</trkpt>
<trkpt lat="31.9460580" lon="34.9649490">
<ele>172.899994</ele>
<time>2017-07-11T07:25:50.000Z</time>
</trkpt>
<trkpt lat="31.9460630" lon="34.9648870">
<ele>172.899994</ele>
<time>2017-07-11T07:25:52.000Z</time>
</trkpt>
<trkpt lat="31.9460640" lon="34.9648540">
<ele>172.899994</ele>
<time>2017-07-11T07:25:53.000Z</time>
</trkpt>
<trkpt lat="31.9460660" lon="34.9647930">
<ele>172.899994</ele>
<time>2017-07-11T07:25:55.000Z</time>
</trkpt>
<trkpt lat="31.9460710" lon="34.9647460">
<ele>173.000015</ele>
<time>2017-07-11T07:25:57.000Z</time>
</trkpt>
<trkpt lat="31.9460730" lon="34.9646990">
<ele>173.100006</ele>
<time>2017-07-11T07:25:59.000Z</time>
</trkpt>
<trkpt lat="31.9460780" lon="34.9646510">
<ele>173.199997</ele>
<time>2017-07-11T07:26:01.000Z</time>
</trkpt>
<trkpt lat="31.9460810" lon="34.9645930">
<ele>173.199997</ele>
<time>2017-07-11T07:26:03.000Z</time>
</trkpt>
<trkpt lat="31.9460800" lon="34.9645550">
<ele>173.199997</ele>
<time>2017-07-11T07:26:05.000Z</time>
</trkpt>
<trkpt lat="31.9460830" lon="34.9645000">
<ele>173.199997</ele>
<time>2017-07-11T07:26:07.000Z</time>
</trkpt>
<trkpt lat="31.9460900" lon="34.9644420">
<ele>173.300003</ele>
<time>2017-07-11T07:26:09.000Z</time>
</trkpt>
<trkpt lat="31.9460960" lon="34.9644040">
<ele>173.300003</ele>
<time>2017-07-11T07:26:10.000Z</time>
</trkpt>
<trkpt lat="31.9460970" lon="34.9643680">
<ele>173.300003</ele>
<time>2017-07-11T07:26:12.000Z</time>
</trkpt>
<trkpt lat="31.9461030" lon="34.9643260">
<ele>173.300003</ele>
<time>2017-07-11T07:26:14.000Z</time>
</trkpt>
<trkpt lat="31.9461100" lon="34.9642840">
<ele>173.400009</ele>
<time>2017-07-11T07:26:16.000Z</time>
</trkpt>
<trkpt lat="31.9461130" lon="34.9642500">
<ele>173.500000</ele>
<time>2017-07-11T07:26:18.000Z</time>
</trkpt>
<trkpt lat="31.9461150" lon="34.9642130">
<ele>173.500000</ele>
<time>2017-07-11T07:26:20.000Z</time>
</trkpt>
<trkpt lat="31.9461210" lon="34.9641690">
<ele>173.600006</ele>
<time>2017-07-11T07:26:22.000Z</time>
</trkpt>
<trkpt lat="31.9461230" lon="34.9641270">
<ele>173.600006</ele>
<time>2017-07-11T07:26:24.000Z</time>
</trkpt>
<trkpt lat="31.9461250" lon="34.9640840">
<ele>173.600006</ele>
<time>2017-07-11T07:26:27.000Z</time>
</trkpt>
<trkpt lat="31.9461330" lon="34.9640320">
<ele>173.600006</ele>
<time>2017-07-11T07:26:30.000Z</time>
</trkpt>
<trkpt lat="31.9461400" lon="34.9639710">
<ele>173.699997</ele>
<time>2017-07-11T07:26:32.000Z</time>
</trkpt>
<trkpt lat="31.9461460" lon="34.9639210">
<ele>173.699997</ele>
<time>2017-07-11T07:26:33.000Z</time>
</trkpt>
<trkpt lat="31.9461490" lon="34.9638880">
<ele>173.800003</ele>
<time>2017-07-11T07:26:34.000Z</time>
</trkpt>
<trkpt lat="31.9461550" lon="34.9638380">
<ele>173.900009</ele>
<time>2017-07-11T07:26:35.000Z</time>
</trkpt>
<trkpt lat="31.9461630" lon="34.9637670">
<ele>173.900009</ele>
<time>2017-07-11T07:26:37.000Z</time>
</trkpt>
<trkpt lat="31.9461680" lon="34.9637070">
<ele>174.000000</ele>
<time>2017-07-11T07:26:38.000Z</time>
</trkpt>
<trkpt lat="31.9461710" lon="34.9636440">
<ele>174.000000</ele>
<time>2017-07-11T07:26:40.000Z</time>
</trkpt>
<trkpt lat="31.9461750" lon="34.9636060">
<ele>174.000000</ele>
<time>2017-07-11T07:26:42.000Z</time>
</trkpt>
<trkpt lat="31.9461790" lon="34.9635660">
<ele>174.000000</ele>
<time>2017-07-11T07:26:44.000Z</time>
</trkpt>
<trkpt lat="31.9461800" lon="34.9635240">
<ele>174.000000</ele>
<time>2017-07-11T07:26:46.000Z</time>
</trkpt>
<trkpt lat="31.9461790" lon="34.9634730">
<ele>174.000000</ele>
<time>2017-07-11T07:26:48.000Z</time>
</trkpt>
<trkpt lat="31.9461810" lon="34.9634250">
<ele>174.000000</ele>
<time>2017-07-11T07:26:50.000Z</time>
</trkpt>
<trkpt lat="31.9461880" lon="34.9633740">
<ele>174.000000</ele>
<time>2017-07-11T07:26:52.000Z</time>
</trkpt>
<trkpt lat="31.9461940" lon="34.9633160">
<ele>174.099991</ele>
<time>2017-07-11T07:26:54.000Z</time>
</trkpt>
<trkpt lat="31.9462010" lon="34.9632590">
<ele>174.200012</ele>
<time>2017-07-11T07:26:56.000Z</time>
</trkpt>
<trkpt lat="31.9462060" lon="34.9632030">
<ele>174.200012</ele>
<time>2017-07-11T07:26:58.000Z</time>
</trkpt>
<trkpt lat="31.9462070" lon="34.9631560">
<ele>174.200012</ele>
<time>2017-07-11T07:27:00.000Z</time>
</trkpt>
<trkpt lat="31.9462110" lon="34.9631000">
<ele>174.200012</ele>
<time>2017-07-11T07:27:02.000Z</time>
</trkpt>
<trkpt lat="31.9462070" lon="34.9630500">
<ele>174.200012</ele>
<time>2017-07-11T07:27:04.000Z</time>
</trkpt>
<trkpt lat="31.9462000" lon="34.9630070">
<ele>174.200012</ele>
<time>2017-07-11T07:27:06.000Z</time>
</trkpt>
<trkpt lat="31.9461920" lon="34.9629760">
<ele>174.200012</ele>
<time>2017-07-11T07:27:07.000Z</time>
</trkpt>
<trkpt lat="31.9461790" lon="34.9629160">
<ele>174.200012</ele>
<time>2017-07-11T07:27:09.000Z</time>
</trkpt>
<trkpt lat="31.9461720" lon="34.9628830">
<ele>174.200012</ele>
<time>2017-07-11T07:27:10.000Z</time>
</trkpt>
<trkpt lat="31.9461650" lon="34.9628490">
<ele>174.300003</ele>
<time>2017-07-11T07:27:11.000Z</time>
</trkpt>
<trkpt lat="31.9461550" lon="34.9627920">
<ele>174.300003</ele>
<time>2017-07-11T07:27:12.000Z</time>
</trkpt>
<trkpt lat="31.9461430" lon="34.9627410">
<ele>174.200012</ele>
<time>2017-07-11T07:27:13.000Z</time>
</trkpt>
<trkpt lat="31.9461360" lon="34.9626980">
<ele>174.200012</ele>
<time>2017-07-11T07:27:14.000Z</time>
</trkpt>
<trkpt lat="31.9461350" lon="34.9626600">
<ele>174.200012</ele>
<time>2017-07-11T07:27:15.000Z</time>
</trkpt>
<trkpt lat="31.9461390" lon="34.9626220">
<ele>174.200012</ele>
<time>2017-07-11T07:27:16.000Z</time>
</trkpt>
<trkpt lat="31.9461420" lon="34.9625830">
<ele>174.200012</ele>
<time>2017-07-11T07:27:17.000Z</time>
</trkpt>
<trkpt lat="31.9461490" lon="34.9625410">
<ele>174.099991</ele>
<time>2017-07-11T07:27:18.000Z</time>
</trkpt>
<trkpt lat="31.9461620" lon="34.9625070">
<ele>174.099991</ele>
<time>2017-07-11T07:27:19.000Z</time>
</trkpt>
<trkpt lat="31.9461800" lon="34.9624800">
<ele>174.099991</ele>
<time>2017-07-11T07:27:20.000Z</time>
</trkpt>
<trkpt lat="31.9462060" lon="34.9624610">
<ele>174.099991</ele>
<time>2017-07-11T07:27:21.000Z</time>
</trkpt>
<trkpt lat="31.9462330" lon="34.9624360">
<ele>174.000000</ele>
<time>2017-07-11T07:27:22.000Z</time>
</trkpt>
<trkpt lat="31.9462580" lon="34.9624020">
<ele>174.099991</ele>
<time>2017-07-11T07:27:23.000Z</time>
</trkpt>
<trkpt lat="31.9462670" lon="34.9623620">
<ele>174.099991</ele>
<time>2017-07-11T07:27:24.000Z</time>
</trkpt>
<trkpt lat="31.9462860" lon="34.9623300">
<ele>174.099991</ele>
<time>2017-07-11T07:27:26.000Z</time>
</trkpt>
<trkpt lat="31.9463200" lon="34.9622910">
<ele>174.200012</ele>
<time>2017-07-11T07:27:28.000Z</time>
</trkpt>
<trkpt lat="31.9463740" lon="34.9622690">
<ele>174.200012</ele>
<time>2017-07-11T07:27:30.000Z</time>
</trkpt>
<trkpt lat="31.9464250" lon="34.9622520">
<ele>174.300003</ele>
<time>2017-07-11T07:27:32.000Z</time>
</trkpt>
<trkpt lat="31.9464680" lon="34.9622310">
<ele>174.300003</ele>
<time>2017-07-11T07:27:34.000Z</time>
</trkpt>
<trkpt lat="31.9464960" lon="34.9622280">
<ele>174.399994</ele>
<time>2017-07-11T07:27:35.000Z</time>
</trkpt>
<trkpt lat="31.9465450" lon="34.9622110">
<ele>174.399994</ele>
<time>2017-07-11T07:27:37.000Z</time>
</trkpt>
<trkpt lat="31.9465770" lon="34.9622040">
<ele>174.500015</ele>
<time>2017-07-11T07:27:38.000Z</time>
</trkpt>
<trkpt lat="31.9466100" lon="34.9621950">
<ele>174.500015</ele>
<time>2017-07-11T07:27:39.000Z</time>
</trkpt>
<trkpt lat="31.9466360" lon="34.9621850">
<ele>174.500015</ele>
<time>2017-07-11T07:27:40.000Z</time>
</trkpt>
<trkpt lat="31.9466880" lon="34.9621780">
<ele>174.600006</ele>
<time>2017-07-11T07:27:42.000Z</time>
</trkpt>
<trkpt lat="31.9467150" lon="34.9621740">
<ele>174.600006</ele>
<time>2017-07-11T07:27:43.000Z</time>
</trkpt>
<trkpt lat="31.9467420" lon="34.9621660">
<ele>174.699997</ele>
<time>2017-07-11T07:27:44.000Z</time>
</trkpt>
<trkpt lat="31.9467750" lon="34.9621570">
<ele>174.699997</ele>
<time>2017-07-11T07:27:45.000Z</time>
</trkpt>
<trkpt lat="31.9468130" lon="34.9621450">
<ele>174.799988</ele>
<time>2017-07-11T07:27:46.000Z</time>
</trkpt>
<trkpt lat="31.9468600" lon="34.9620960">
<ele>174.799988</ele>
<time>2017-07-11T07:27:47.000Z</time>
</trkpt>
<trkpt lat="31.9468760" lon="34.9620620">
<ele>174.099991</ele>
<time>2017-07-11T07:27:48.000Z</time>
</trkpt>
<trkpt lat="31.9468800" lon="34.9620130">
<ele>173.900009</ele>
<time>2017-07-11T07:27:50.000Z</time>
</trkpt>
<trkpt lat="31.9468910" lon="34.9619680">
<ele>173.500000</ele>
<time>2017-07-11T07:27:51.000Z</time>
</trkpt>
<trkpt lat="31.9469050" lon="34.9619150">
<ele>173.199997</ele>
<time>2017-07-11T07:27:52.000Z</time>
</trkpt>
<trkpt lat="31.9469170" lon="34.9618680">
<ele>173.000015</ele>
<time>2017-07-11T07:27:53.000Z</time>
</trkpt>
<trkpt lat="31.9469310" lon="34.9618300">
<ele>172.800003</ele>
<time>2017-07-11T07:27:54.000Z</time>
</trkpt>
<trkpt lat="31.9469300" lon="34.9617940">
<ele>172.599991</ele>
<time>2017-07-11T07:27:55.000Z</time>
</trkpt>
<trkpt lat="31.9469380" lon="34.9617440">
<ele>172.400009</ele>
<time>2017-07-11T07:27:56.000Z</time>
</trkpt>
<trkpt lat="31.9469570" lon="34.9616920">
<ele>172.199997</ele>
<time>2017-07-11T07:27:57.000Z</time>
</trkpt>
<trkpt lat="31.9469700" lon="34.9616310">
<ele>171.899994</ele>
<time>2017-07-11T07:27:58.000Z</time>
</trkpt>
<trkpt lat="31.9469890" lon="34.9615650">
<ele>171.699997</ele>
<time>2017-07-11T07:27:59.000Z</time>
</trkpt>
<trkpt lat="31.9470170" lon="34.9615010">
<ele>171.300003</ele>
<time>2017-07-11T07:28:00.000Z</time>
</trkpt>
<trkpt lat="31.9470350" lon="34.9614420">
<ele>171.000000</ele>
<time>2017-07-11T07:28:01.000Z</time>
</trkpt>
<trkpt lat="31.9470510" lon="34.9613920">
<ele>170.699997</ele>
<time>2017-07-11T07:28:02.000Z</time>
</trkpt>
<trkpt lat="31.9470550" lon="34.9613280">
<ele>170.300003</ele>
<time>2017-07-11T07:28:03.000Z</time>
</trkpt>
<trkpt lat="31.9470470" lon="34.9612610">
<ele>169.699997</ele>
<time>2017-07-11T07:28:04.000Z</time>
</trkpt>
<trkpt lat="31.9470440" lon="34.9611970">
<ele>169.299988</ele>
<time>2017-07-11T07:28:05.000Z</time>
</trkpt>
<trkpt lat="31.9470560" lon="34.9611230">
<ele>168.800003</ele>
<time>2017-07-11T07:28:06.000Z</time>
</trkpt>
<trkpt lat="31.9470800" lon="34.9610520">
<ele>168.300003</ele>
<time>2017-07-11T07:28:07.000Z</time>
</trkpt>
<trkpt lat="31.9471070" lon="34.9610050">
<ele>168.000000</ele>
<time>2017-07-11T07:28:08.000Z</time>
</trkpt>
<trkpt lat="31.9471390" lon="34.9609530">
<ele>167.600006</ele>
<time>2017-07-11T07:28:09.000Z</time>
</trkpt>
<trkpt lat="31.9471760" lon="34.9609080">
<ele>167.300003</ele>
<time>2017-07-11T07:28:10.000Z</time>
</trkpt>
<trkpt lat="31.9472150" lon="34.9608700">
<ele>167.000000</ele>
<time>2017-07-11T07:28:11.000Z</time>
</trkpt>
<trkpt lat="31.9472580" lon="34.9608230">
<ele>166.699997</ele>
<time>2017-07-11T07:28:12.000Z</time>
</trkpt>
<trkpt lat="31.9472950" lon="34.9607760">
<ele>166.300003</ele>
<time>2017-07-11T07:28:13.000Z</time>
</trkpt>
<trkpt lat="31.9473310" lon="34.9607330">
<ele>165.700012</ele>
<time>2017-07-11T07:28:14.000Z</time>
</trkpt>
<trkpt lat="31.9473720" lon="34.9606830">
<ele>165.100006</ele>
<time>2017-07-11T07:28:15.000Z</time>
</trkpt>
<trkpt lat="31.9474060" lon="34.9606270">
<ele>164.600006</ele>
<time>2017-07-11T07:28:16.000Z</time>
</trkpt>
<trkpt lat="31.9474150" lon="34.9605650">
<ele>164.000000</ele>
<time>2017-07-11T07:28:17.000Z</time>
</trkpt>
<trkpt lat="31.9474260" lon="34.9604950">
<ele>163.399994</ele>
<time>2017-07-11T07:28:18.000Z</time>
</trkpt>
<trkpt lat="31.9474370" lon="34.9604300">
<ele>162.800003</ele>
<time>2017-07-11T07:28:19.000Z</time>
</trkpt>
<trkpt lat="31.9474620" lon="34.9603710">
<ele>162.199997</ele>
<time>2017-07-11T07:28:20.000Z</time>
</trkpt>
<trkpt lat="31.9474850" lon="34.9603160">
<ele>161.700012</ele>
<time>2017-07-11T07:28:21.000Z</time>
</trkpt>
<trkpt lat="31.9475080" lon="34.9602610">
<ele>161.100006</ele>
<time>2017-07-11T07:28:22.000Z</time>
</trkpt>
<trkpt lat="31.9475280" lon="34.9602110">
<ele>160.699997</ele>
<time>2017-07-11T07:28:23.000Z</time>
</trkpt>
<trkpt lat="31.9475400" lon="34.9601660">
<ele>160.399994</ele>
<time>2017-07-11T07:28:24.000Z</time>
</trkpt>
<trkpt lat="31.9475650" lon="34.9601300">
<ele>160.099991</ele>
<time>2017-07-11T07:28:25.000Z</time>
</trkpt>
<trkpt lat="31.9475910" lon="34.9601030">
<ele>159.799988</ele>
<time>2017-07-11T07:28:26.000Z</time>
</trkpt>
<trkpt lat="31.9476290" lon="34.9600860">
<ele>159.500000</ele>
<time>2017-07-11T07:28:27.000Z</time>
</trkpt>
<trkpt lat="31.9476680" lon="34.9600810">
<ele>159.199997</ele>
<time>2017-07-11T07:28:28.000Z</time>
</trkpt>
<trkpt lat="31.9477030" lon="34.9600860">
<ele>158.899994</ele>
<time>2017-07-11T07:28:29.000Z</time>
</trkpt>
<trkpt lat="31.9477380" lon="34.9601070">
<ele>158.800003</ele>
<time>2017-07-11T07:28:30.000Z</time>
</trkpt>
<trkpt lat="31.9477690" lon="34.9601250">
<ele>158.700012</ele>
<time>2017-07-11T07:28:31.000Z</time>
</trkpt>
<trkpt lat="31.9477990" lon="34.9601480">
<ele>158.599991</ele>
<time>2017-07-11T07:28:32.000Z</time>
</trkpt>
<trkpt lat="31.9478370" lon="34.9601680">
<ele>158.500000</ele>
<time>2017-07-11T07:28:33.000Z</time>
</trkpt>
<trkpt lat="31.9478760" lon="34.9601830">
<ele>158.400009</ele>
<time>2017-07-11T07:28:34.000Z</time>
</trkpt>
<trkpt lat="31.9479140" lon="34.9601970">
<ele>158.400009</ele>
<time>2017-07-11T07:28:35.000Z</time>
</trkpt>
<trkpt lat="31.9479510" lon="34.9602160">
<ele>158.299988</ele>
<time>2017-07-11T07:28:36.000Z</time>
</trkpt>
<trkpt lat="31.9479840" lon="34.9602360">
<ele>158.299988</ele>
<time>2017-07-11T07:28:37.000Z</time>
</trkpt>
<trkpt lat="31.9480170" lon="34.9602620">
<ele>158.299988</ele>
<time>2017-07-11T07:28:38.000Z</time>
</trkpt>
<trkpt lat="31.9480490" lon="34.9602840">
<ele>158.299988</ele>
<time>2017-07-11T07:28:39.000Z</time>
</trkpt>
<trkpt lat="31.9480740" lon="34.9603030">
<ele>158.299988</ele>
<time>2017-07-11T07:28:40.000Z</time>
</trkpt>
<trkpt lat="31.9481020" lon="34.9603280">
<ele>158.199997</ele>
<time>2017-07-11T07:28:41.000Z</time>
</trkpt>
<trkpt lat="31.9481310" lon="34.9603470">
<ele>158.199997</ele>
<time>2017-07-11T07:28:42.000Z</time>
</trkpt>
<trkpt lat="31.9481640" lon="34.9603860">
<ele>158.299988</ele>
<time>2017-07-11T07:28:44.000Z</time>
</trkpt>
<trkpt lat="31.9481880" lon="34.9604120">
<ele>158.299988</ele>
<time>2017-07-11T07:28:45.000Z</time>
</trkpt>
<trkpt lat="31.9482120" lon="34.9604280">
<ele>158.400009</ele>
<time>2017-07-11T07:28:46.000Z</time>
</trkpt>
<trkpt lat="31.9482440" lon="34.9604620">
<ele>158.500000</ele>
<time>2017-07-11T07:28:48.000Z</time>
</trkpt>
<trkpt lat="31.9482870" lon="34.9604680">
<ele>158.599991</ele>
<time>2017-07-11T07:28:50.000Z</time>
</trkpt>
<trkpt lat="31.9483130" lon="34.9604830">
<ele>158.599991</ele>
<time>2017-07-11T07:28:51.000Z</time>
</trkpt>
<trkpt lat="31.9483470" lon="34.9604970">
<ele>158.599991</ele>
<time>2017-07-11T07:28:52.000Z</time>
</trkpt>
<trkpt lat="31.9483730" lon="34.9605120">
<ele>158.599991</ele>
<time>2017-07-11T07:28:53.000Z</time>
</trkpt>
<trkpt lat="31.9484020" lon="34.9605230">
<ele>158.599991</ele>
<time>2017-07-11T07:28:54.000Z</time>
</trkpt>
<trkpt lat="31.9484370" lon="34.9605330">
<ele>158.599991</ele>
<time>2017-07-11T07:28:55.000Z</time>
</trkpt>
<trkpt lat="31.9484660" lon="34.9605470">
<ele>158.500000</ele>
<time>2017-07-11T07:28:56.000Z</time>
</trkpt>
<trkpt lat="31.9484960" lon="34.9605690">
<ele>158.500000</ele>
<time>2017-07-11T07:28:57.000Z</time>
</trkpt>
<trkpt lat="31.9485260" lon="34.9605880">
<ele>158.500000</ele>
<time>2017-07-11T07:28:58.000Z</time>
</trkpt>
<trkpt lat="31.9485550" lon="34.9605970">
<ele>158.500000</ele>
<time>2017-07-11T07:28:59.000Z</time>
</trkpt>
<trkpt lat="31.9485860" lon="34.9606140">
<ele>158.500000</ele>
<time>2017-07-11T07:29:00.000Z</time>
</trkpt>
<trkpt lat="31.9486220" lon="34.9606280">
<ele>158.400009</ele>
<time>2017-07-11T07:29:01.000Z</time>
</trkpt>
<trkpt lat="31.9486570" lon="34.9606440">
<ele>158.400009</ele>
<time>2017-07-11T07:29:02.000Z</time>
</trkpt>
<trkpt lat="31.9487090" lon="34.9606640">
<ele>158.400009</ele>
<time>2017-07-11T07:29:04.000Z</time>
</trkpt>
<trkpt lat="31.9487410" lon="34.9606750">
<ele>158.299988</ele>
<time>2017-07-11T07:29:05.000Z</time>
</trkpt>
<trkpt lat="31.9487810" lon="34.9606870">
<ele>158.299988</ele>
<time>2017-07-11T07:29:06.000Z</time>
</trkpt>
<trkpt lat="31.9488210" lon="34.9607000">
<ele>158.299988</ele>
<time>2017-07-11T07:29:07.000Z</time>
</trkpt>
<trkpt lat="31.9488510" lon="34.9607040">
<ele>158.199997</ele>
<time>2017-07-11T07:29:08.000Z</time>
</trkpt>
<trkpt lat="31.9488810" lon="34.9607120">
<ele>158.199997</ele>
<time>2017-07-11T07:29:09.000Z</time>
</trkpt>
<trkpt lat="31.9489100" lon="34.9607190">
<ele>158.199997</ele>
<time>2017-07-11T07:29:10.000Z</time>
</trkpt>
<trkpt lat="31.9489630" lon="34.9607290">
<ele>158.100006</ele>
<time>2017-07-11T07:29:12.000Z</time>
</trkpt>
<trkpt lat="31.9490170" lon="34.9607310">
<ele>158.100006</ele>
<time>2017-07-11T07:29:14.000Z</time>
</trkpt>
<trkpt lat="31.9490670" lon="34.9607300">
<ele>158.000000</ele>
<time>2017-07-11T07:29:16.000Z</time>
</trkpt>
<trkpt lat="31.9491210" lon="34.9607250">
<ele>158.100006</ele>
<time>2017-07-11T07:29:18.000Z</time>
</trkpt>
<trkpt lat="31.9491690" lon="34.9606950">
<ele>158.199997</ele>
<time>2017-07-11T07:29:20.000Z</time>
</trkpt>
<trkpt lat="31.9491910" lon="34.9606730">
<ele>158.299988</ele>
<time>2017-07-11T07:29:21.000Z</time>
</trkpt>
<trkpt lat="31.9492130" lon="34.9606490">
<ele>158.299988</ele>
<time>2017-07-11T07:29:22.000Z</time>
</trkpt>
<trkpt lat="31.9492390" lon="34.9606210">
<ele>158.400009</ele>
<time>2017-07-11T07:29:23.000Z</time>
</trkpt>
<trkpt lat="31.9492560" lon="34.9605920">
<ele>158.500000</ele>
<time>2017-07-11T07:29:24.000Z</time>
</trkpt>
<trkpt lat="31.9492750" lon="34.9605640">
<ele>158.700012</ele>
<time>2017-07-11T07:29:25.000Z</time>
</trkpt>
<trkpt lat="31.9492960" lon="34.9605300">
<ele>158.800003</ele>
<time>2017-07-11T07:29:26.000Z</time>
</trkpt>
<trkpt lat="31.9493180" lon="34.9604980">
<ele>158.800003</ele>
<time>2017-07-11T07:29:27.000Z</time>
</trkpt>
<trkpt lat="31.9493400" lon="34.9604640">
<ele>159.000000</ele>
<time>2017-07-11T07:29:28.000Z</time>
</trkpt>
<trkpt lat="31.9493640" lon="34.9604250">
<ele>159.100006</ele>
<time>2017-07-11T07:29:29.000Z</time>
</trkpt>
<trkpt lat="31.9493870" lon="34.9603910">
<ele>159.199997</ele>
<time>2017-07-11T07:29:30.000Z</time>
</trkpt>
<trkpt lat="31.9494100" lon="34.9603540">
<ele>159.300003</ele>
<time>2017-07-11T07:29:31.000Z</time>
</trkpt>
<trkpt lat="31.9494330" lon="34.9603160">
<ele>159.399994</ele>
<time>2017-07-11T07:29:32.000Z</time>
</trkpt>
<trkpt lat="31.9494580" lon="34.9602720">
<ele>159.500000</ele>
<time>2017-07-11T07:29:33.000Z</time>
</trkpt>
<trkpt lat="31.9494840" lon="34.9602280">
<ele>159.699997</ele>
<time>2017-07-11T07:29:34.000Z</time>
</trkpt>
<trkpt lat="31.9495070" lon="34.9601880">
<ele>159.799988</ele>
<time>2017-07-11T07:29:35.000Z</time>
</trkpt>
<trkpt lat="31.9495290" lon="34.9601470">
<ele>159.900009</ele>
<time>2017-07-11T07:29:36.000Z</time>
</trkpt>
<trkpt lat="31.9495470" lon="34.9601090">
<ele>160.099991</ele>
<time>2017-07-11T07:29:37.000Z</time>
</trkpt>
<trkpt lat="31.9495680" lon="34.9600700">
<ele>160.200012</ele>
<time>2017-07-11T07:29:38.000Z</time>
</trkpt>
<trkpt lat="31.9495850" lon="34.9600340">
<ele>160.399994</ele>
<time>2017-07-11T07:29:39.000Z</time>
</trkpt>
<trkpt lat="31.9496020" lon="34.9600000">
<ele>160.600006</ele>
<time>2017-07-11T07:29:40.000Z</time>
</trkpt>
<trkpt lat="31.9496210" lon="34.9599630">
<ele>160.900009</ele>
<time>2017-07-11T07:29:41.000Z</time>
</trkpt>
<trkpt lat="31.9496420" lon="34.9599260">
<ele>161.199997</ele>
<time>2017-07-11T07:29:42.000Z</time>
</trkpt>
<trkpt lat="31.9496610" lon="34.9598890">
<ele>161.500000</ele>
<time>2017-07-11T07:29:43.000Z</time>
</trkpt>
<trkpt lat="31.9496870" lon="34.9598470">
<ele>161.800003</ele>
<time>2017-07-11T07:29:44.000Z</time>
</trkpt>
<trkpt lat="31.9497080" lon="34.9598110">
<ele>161.999985</ele>
<time>2017-07-11T07:29:45.000Z</time>
</trkpt>
<trkpt lat="31.9497330" lon="34.9597730">
<ele>162.100006</ele>
<time>2017-07-11T07:29:46.000Z</time>
</trkpt>
<trkpt lat="31.9497580" lon="34.9597400">
<ele>162.299988</ele>
<time>2017-07-11T07:29:47.000Z</time>
</trkpt>
<trkpt lat="31.9497820" lon="34.9597050">
<ele>162.500000</ele>
<time>2017-07-11T07:29:48.000Z</time>
</trkpt>
<trkpt lat="31.9498000" lon="34.9596730">
<ele>162.599991</ele>
<time>2017-07-11T07:29:49.000Z</time>
</trkpt>
<trkpt lat="31.9498220" lon="34.9596390">
<ele>162.699997</ele>
<time>2017-07-11T07:29:50.000Z</time>
</trkpt>
<trkpt lat="31.9498390" lon="34.9596100">
<ele>162.699997</ele>
<time>2017-07-11T07:29:51.000Z</time>
</trkpt>
<trkpt lat="31.9498500" lon="34.9595800">
<ele>162.800003</ele>
<time>2017-07-11T07:29:52.000Z</time>
</trkpt>
<trkpt lat="31.9498720" lon="34.9595230">
<ele>163.000000</ele>
<time>2017-07-11T07:29:54.000Z</time>
</trkpt>
<trkpt lat="31.9498950" lon="34.9594700">
<ele>163.799988</ele>
<time>2017-07-11T07:29:56.000Z</time>
</trkpt>
<trkpt lat="31.9499130" lon="34.9594330">
<ele>164.300003</ele>
<time>2017-07-11T07:29:57.000Z</time>
</trkpt>
<trkpt lat="31.9499310" lon="34.9593950">
<ele>164.899994</ele>
<time>2017-07-11T07:29:58.000Z</time>
</trkpt>
<trkpt lat="31.9499450" lon="34.9593630">
<ele>165.299988</ele>
<time>2017-07-11T07:29:59.000Z</time>
</trkpt>
<trkpt lat="31.9499550" lon="34.9593260">
<ele>165.599991</ele>
<time>2017-07-11T07:30:00.000Z</time>
</trkpt>
<trkpt lat="31.9499760" lon="34.9592730">
<ele>166.000000</ele>
<time>2017-07-11T07:30:02.000Z</time>
</trkpt>
<trkpt lat="31.9499920" lon="34.9592300">
<ele>166.399994</ele>
<time>2017-07-11T07:30:04.000Z</time>
</trkpt>
<trkpt lat="31.9500180" lon="34.9591760">
<ele>166.699997</ele>
<time>2017-07-11T07:30:06.000Z</time>
</trkpt>
<trkpt lat="31.9500310" lon="34.9591470">
<ele>166.800003</ele>
<time>2017-07-11T07:30:07.000Z</time>
</trkpt>
<trkpt lat="31.9500540" lon="34.9590970">
<ele>167.099991</ele>
<time>2017-07-11T07:30:09.000Z</time>
</trkpt>
<trkpt lat="31.9500650" lon="34.9590600">
<ele>167.200012</ele>
<time>2017-07-11T07:30:10.000Z</time>
</trkpt>
<trkpt lat="31.9500790" lon="34.9590300">
<ele>167.399994</ele>
<time>2017-07-11T07:30:11.000Z</time>
</trkpt>
<trkpt lat="31.9500890" lon="34.9589980">
<ele>167.500015</ele>
<time>2017-07-11T07:30:12.000Z</time>
</trkpt>
<trkpt lat="31.9501020" lon="34.9589640">
<ele>167.699997</ele>
<time>2017-07-11T07:30:13.000Z</time>
</trkpt>
<trkpt lat="31.9501150" lon="34.9589230">
<ele>167.900009</ele>
<time>2017-07-11T07:30:14.000Z</time>
</trkpt>
<trkpt lat="31.9501330" lon="34.9588900">
<ele>168.100006</ele>
<time>2017-07-11T07:30:15.000Z</time>
</trkpt>
<trkpt lat="31.9501490" lon="34.9588480">
<ele>168.599991</ele>
<time>2017-07-11T07:30:16.000Z</time>
</trkpt>
<trkpt lat="31.9501630" lon="34.9588150">
<ele>168.999985</ele>
<time>2017-07-11T07:30:17.000Z</time>
</trkpt>
<trkpt lat="31.9501810" lon="34.9587790">
<ele>169.400009</ele>
<time>2017-07-11T07:30:18.000Z</time>
</trkpt>
<trkpt lat="31.9501950" lon="34.9587470">
<ele>169.800003</ele>
<time>2017-07-11T07:30:19.000Z</time>
</trkpt>
<trkpt lat="31.9502050" lon="34.9587090">
<ele>170.300003</ele>
<time>2017-07-11T07:30:20.000Z</time>
</trkpt>
<trkpt lat="31.9502170" lon="34.9586740">
<ele>170.699997</ele>
<time>2017-07-11T07:30:21.000Z</time>
</trkpt>
<trkpt lat="31.9502340" lon="34.9586410">
<ele>171.200012</ele>
<time>2017-07-11T07:30:22.000Z</time>
</trkpt>
<trkpt lat="31.9502470" lon="34.9586080">
<ele>171.500000</ele>
<time>2017-07-11T07:30:23.000Z</time>
</trkpt>
<trkpt lat="31.9502620" lon="34.9585710">
<ele>171.699997</ele>
<time>2017-07-11T07:30:24.000Z</time>
</trkpt>
<trkpt lat="31.9502780" lon="34.9585150">
<ele>172.199997</ele>
<time>2017-07-11T07:30:26.000Z</time>
</trkpt>
<trkpt lat="31.9502970" lon="34.9584610">
<ele>172.500000</ele>
<time>2017-07-11T07:30:28.000Z</time>
</trkpt>
<trkpt lat="31.9503220" lon="34.9584070">
<ele>172.800003</ele>
<time>2017-07-11T07:30:30.000Z</time>
</trkpt>
<trkpt lat="31.9503240" lon="34.9583570">
<ele>173.000015</ele>
<time>2017-07-11T07:30:32.000Z</time>
</trkpt>
<trkpt lat="31.9503170" lon="34.9583070">
<ele>173.300003</ele>
<time>2017-07-11T07:30:34.000Z</time>
</trkpt>
<trkpt lat="31.9503200" lon="34.9582730">
<ele>173.400009</ele>
<time>2017-07-11T07:30:35.000Z</time>
</trkpt>
<trkpt lat="31.9503240" lon="34.9582370">
<ele>173.600006</ele>
<time>2017-07-11T07:30:36.000Z</time>
</trkpt>
<trkpt lat="31.9503330" lon="34.9582000">
<ele>173.800003</ele>
<time>2017-07-11T07:30:37.000Z</time>
</trkpt>
<trkpt lat="31.9503390" lon="34.9581640">
<ele>174.000000</ele>
<time>2017-07-11T07:30:38.000Z</time>
</trkpt>
<trkpt lat="31.9503500" lon="34.9581270">
<ele>174.000000</ele>
<time>2017-07-11T07:30:39.000Z</time>
</trkpt>
<trkpt lat="31.9503600" lon="34.9580930">
<ele>173.900009</ele>
<time>2017-07-11T07:30:40.000Z</time>
</trkpt>
<trkpt lat="31.9503690" lon="34.9580560">
<ele>173.900009</ele>
<time>2017-07-11T07:30:41.000Z</time>
</trkpt>
<trkpt lat="31.9503790" lon="34.9580210">
<ele>173.800003</ele>
<time>2017-07-11T07:30:42.000Z</time>
</trkpt>
<trkpt lat="31.9503860" lon="34.9579900">
<ele>173.800003</ele>
<time>2017-07-11T07:30:43.000Z</time>
</trkpt>
<trkpt lat="31.9503940" lon="34.9579570">
<ele>173.800003</ele>
<time>2017-07-11T07:30:44.000Z</time>
</trkpt>
<trkpt lat="31.9504110" lon="34.9578960">
<ele>173.699997</ele>
<time>2017-07-11T07:30:46.000Z</time>
</trkpt>
<trkpt lat="31.9504160" lon="34.9578630">
<ele>173.699997</ele>
<time>2017-07-11T07:30:47.000Z</time>
</trkpt>
<trkpt lat="31.9504300" lon="34.9578040">
<ele>173.600006</ele>
<time>2017-07-11T07:30:49.000Z</time>
</trkpt>
<trkpt lat="31.9504440" lon="34.9577390">
<ele>173.600006</ele>
<time>2017-07-11T07:30:51.000Z</time>
</trkpt>
<trkpt lat="31.9504500" lon="34.9577020">
<ele>173.500000</ele>
<time>2017-07-11T07:30:52.000Z</time>
</trkpt>
<trkpt lat="31.9504580" lon="34.9576700">
<ele>173.400009</ele>
<time>2017-07-11T07:30:53.000Z</time>
</trkpt>
<trkpt lat="31.9504740" lon="34.9576020">
<ele>173.300003</ele>
<time>2017-07-11T07:30:55.000Z</time>
</trkpt>
<trkpt lat="31.9504820" lon="34.9575690">
<ele>173.300003</ele>
<time>2017-07-11T07:30:56.000Z</time>
</trkpt>
<trkpt lat="31.9504890" lon="34.9575330">
<ele>173.300003</ele>
<time>2017-07-11T07:30:57.000Z</time>
</trkpt>
<trkpt lat="31.9504930" lon="34.9574980">
<ele>173.199997</ele>
<time>2017-07-11T07:30:58.000Z</time>
</trkpt>
<trkpt lat="31.9504980" lon="34.9574640">
<ele>173.199997</ele>
<time>2017-07-11T07:30:59.000Z</time>
</trkpt>
<trkpt lat="31.9505050" lon="34.9574290">
<ele>173.100006</ele>
<time>2017-07-11T07:31:00.000Z</time>
</trkpt>
<trkpt lat="31.9505140" lon="34.9573900">
<ele>173.100006</ele>
<time>2017-07-11T07:31:01.000Z</time>
</trkpt>
<trkpt lat="31.9505260" lon="34.9573260">
<ele>173.000015</ele>
<time>2017-07-11T07:31:03.000Z</time>
</trkpt>
<trkpt lat="31.9505320" lon="34.9572850">
<ele>173.000015</ele>
<time>2017-07-11T07:31:04.000Z</time>
</trkpt>
<trkpt lat="31.9505420" lon="34.9572240">
<ele>172.899994</ele>
<time>2017-07-11T07:31:06.000Z</time>
</trkpt>
<trkpt lat="31.9505580" lon="34.9571460">
<ele>172.800003</ele>
<time>2017-07-11T07:31:08.000Z</time>
</trkpt>
<trkpt lat="31.9505640" lon="34.9571000">
<ele>172.700012</ele>
<time>2017-07-11T07:31:09.000Z</time>
</trkpt>
<trkpt lat="31.9505690" lon="34.9570680">
<ele>172.599991</ele>
<time>2017-07-11T07:31:10.000Z</time>
</trkpt>
<trkpt lat="31.9505780" lon="34.9570290">
<ele>172.599991</ele>
<time>2017-07-11T07:31:11.000Z</time>
</trkpt>
<trkpt lat="31.9505820" lon="34.9569880">
<ele>172.500000</ele>
<time>2017-07-11T07:31:12.000Z</time>
</trkpt>
<trkpt lat="31.9505880" lon="34.9569280">
<ele>172.400009</ele>
<time>2017-07-11T07:31:14.000Z</time>
</trkpt>
<trkpt lat="31.9505940" lon="34.9568870">
<ele>172.400009</ele>
<time>2017-07-11T07:31:15.000Z</time>
</trkpt>
<trkpt lat="31.9506030" lon="34.9568500">
<ele>172.299988</ele>
<time>2017-07-11T07:31:16.000Z</time>
</trkpt>
<trkpt lat="31.9506140" lon="34.9568080">
<ele>172.199997</ele>
<time>2017-07-11T07:31:17.000Z</time>
</trkpt>
<trkpt lat="31.9506210" lon="34.9567710">
<ele>172.100006</ele>
<time>2017-07-11T07:31:18.000Z</time>
</trkpt>
<trkpt lat="31.9506270" lon="34.9567280">
<ele>172.000000</ele>
<time>2017-07-11T07:31:20.000Z</time>
</trkpt>
<trkpt lat="31.9506380" lon="34.9566707">
<ele>171.800003</ele>
<time>2017-07-11T07:31:52.000Z</time>
</trkpt>
</trkseg>
</trk>
</gpx>
